<?xml version="1.0" encoding="UTF-8" standalone="no" ?>
<gpx xmlns="http://www.topografix.com/GPX/1/1" xmlns:xsi="http://www.w3.org/2001/XMLSchema-instance" xsi:schemaLocation="http://www.topografix.com/GPX/1/1 http://www.topografix.com/GPX/1/1/gpx.xsd" version="1.1" creator="VisuGPX - https://www.visugpx.com">
  <metadata>
    <name>VTT, 53.62 km le 11_08_2021 Bgs Foecy</name>
  </metadata>
  <trk>
    <name><![CDATA[VTT, 53.62 km le 11_08_2021 on AllTrails]]></name>
    <trkseg>
      <trkpt lat="47.06733" lon="2.40696">
        <ele>149</ele>
        <time>2021-08-11T13:50:19Z</time>
      </trkpt>
      <trkpt lat="47.0673" lon="2.40688">
        <ele>149</ele>
        <time>2021-08-11T13:50:19Z</time>
      </trkpt>
      <trkpt lat="47.0673" lon="2.40687">
        <ele>149</ele>
        <time>2021-08-11T13:50:19Z</time>
      </trkpt>
      <trkpt lat="47.0673" lon="2.40686">
        <ele>149</ele>
        <time>2021-08-11T13:50:19Z</time>
      </trkpt>
      <trkpt lat="47.0673" lon="2.40686">
        <ele>149</ele>
        <time>2021-08-11T13:50:19Z</time>
      </trkpt>
      <trkpt lat="47.06729" lon="2.40685">
        <ele>149</ele>
        <time>2021-08-11T13:50:19Z</time>
      </trkpt>
      <trkpt lat="47.06729" lon="2.40685">
        <ele>149</ele>
        <time>2021-08-11T13:50:19Z</time>
      </trkpt>
      <trkpt lat="47.06729" lon="2.40685">
        <ele>149</ele>
        <time>2021-08-11T13:50:19Z</time>
      </trkpt>
      <trkpt lat="47.06729" lon="2.40684">
        <ele>149</ele>
        <time>2021-08-11T13:50:19Z</time>
      </trkpt>
      <trkpt lat="47.06729" lon="2.40681">
        <ele>149</ele>
        <time>2021-08-11T13:50:19Z</time>
      </trkpt>
      <trkpt lat="47.06729" lon="2.40679">
        <ele>149</ele>
        <time>2021-08-11T13:50:19Z</time>
      </trkpt>
      <trkpt lat="47.06731" lon="2.40676">
        <ele>149</ele>
        <time>2021-08-11T13:50:19Z</time>
      </trkpt>
      <trkpt lat="47.06734" lon="2.40674">
        <ele>149</ele>
        <time>2021-08-11T13:50:19Z</time>
      </trkpt>
      <trkpt lat="47.06738" lon="2.40673">
        <ele>149</ele>
        <time>2021-08-11T13:50:19Z</time>
      </trkpt>
      <trkpt lat="47.06741" lon="2.40671">
        <ele>149</ele>
        <time>2021-08-11T13:50:19Z</time>
      </trkpt>
      <trkpt lat="47.06745" lon="2.4067">
        <ele>149</ele>
        <time>2021-08-11T13:50:19Z</time>
      </trkpt>
      <trkpt lat="47.06749" lon="2.40669">
        <ele>149</ele>
        <time>2021-08-11T13:50:19Z</time>
      </trkpt>
      <trkpt lat="47.06754" lon="2.40667">
        <ele>149</ele>
        <time>2021-08-11T13:50:19Z</time>
      </trkpt>
      <trkpt lat="47.06759" lon="2.40667">
        <ele>149</ele>
        <time>2021-08-11T13:50:19Z</time>
      </trkpt>
      <trkpt lat="47.06784" lon="2.40654">
        <ele>149</ele>
        <time>2021-08-11T13:50:19Z</time>
      </trkpt>
      <trkpt lat="47.06812" lon="2.40639">
        <ele>148</ele>
        <time>2021-08-11T13:50:19Z</time>
      </trkpt>
      <trkpt lat="47.06841" lon="2.40623">
        <ele>146</ele>
        <time>2021-08-11T13:50:19Z</time>
      </trkpt>
      <trkpt lat="47.06863" lon="2.40611">
        <ele>146</ele>
        <time>2021-08-11T13:50:19Z</time>
      </trkpt>
      <trkpt lat="47.06867" lon="2.40598">
        <ele>146</ele>
        <time>2021-08-11T13:50:19Z</time>
      </trkpt>
      <trkpt lat="47.06867" lon="2.40593">
        <ele>146</ele>
        <time>2021-08-11T13:50:19Z</time>
      </trkpt>
      <trkpt lat="47.06867" lon="2.40588">
        <ele>146</ele>
        <time>2021-08-11T13:50:19Z</time>
      </trkpt>
      <trkpt lat="47.06868" lon="2.40582">
        <ele>146</ele>
        <time>2021-08-11T13:50:19Z</time>
      </trkpt>
      <trkpt lat="47.0687" lon="2.40578">
        <ele>146</ele>
        <time>2021-08-11T13:50:19Z</time>
      </trkpt>
      <trkpt lat="47.06873" lon="2.40574">
        <ele>146</ele>
        <time>2021-08-11T13:50:19Z</time>
      </trkpt>
      <trkpt lat="47.06878" lon="2.40572">
        <ele>146</ele>
        <time>2021-08-11T13:50:19Z</time>
      </trkpt>
      <trkpt lat="47.06883" lon="2.40569">
        <ele>146</ele>
        <time>2021-08-11T13:50:19Z</time>
      </trkpt>
      <trkpt lat="47.06908" lon="2.4056">
        <ele>145</ele>
        <time>2021-08-11T13:50:19Z</time>
      </trkpt>
      <trkpt lat="47.06935" lon="2.40553">
        <ele>144</ele>
        <time>2021-08-11T13:50:19Z</time>
      </trkpt>
      <trkpt lat="47.06962" lon="2.40544">
        <ele>143</ele>
        <time>2021-08-11T13:50:19Z</time>
      </trkpt>
      <trkpt lat="47.0699" lon="2.40536">
        <ele>142</ele>
        <time>2021-08-11T13:50:19Z</time>
      </trkpt>
      <trkpt lat="47.07016" lon="2.40523">
        <ele>142</ele>
        <time>2021-08-11T13:50:19Z</time>
      </trkpt>
      <trkpt lat="47.0702" lon="2.40491">
        <ele>142</ele>
        <time>2021-08-11T13:50:19Z</time>
      </trkpt>
      <trkpt lat="47.07018" lon="2.40482">
        <ele>142</ele>
        <time>2021-08-11T13:50:19Z</time>
      </trkpt>
      <trkpt lat="47.0701" lon="2.40441">
        <ele>142</ele>
        <time>2021-08-11T13:50:19Z</time>
      </trkpt>
      <trkpt lat="47.06997" lon="2.40399">
        <ele>142</ele>
        <time>2021-08-11T13:50:19Z</time>
      </trkpt>
      <trkpt lat="47.06976" lon="2.40366">
        <ele>141</ele>
        <time>2021-08-11T13:50:19Z</time>
      </trkpt>
      <trkpt lat="47.06956" lon="2.40335">
        <ele>140</ele>
        <time>2021-08-11T13:50:19Z</time>
      </trkpt>
      <trkpt lat="47.06952" lon="2.40327">
        <ele>140</ele>
        <time>2021-08-11T13:50:19Z</time>
      </trkpt>
      <trkpt lat="47.0695" lon="2.4032">
        <ele>140</ele>
        <time>2021-08-11T13:50:19Z</time>
      </trkpt>
      <trkpt lat="47.06948" lon="2.40312">
        <ele>140</ele>
        <time>2021-08-11T13:50:19Z</time>
      </trkpt>
      <trkpt lat="47.06947" lon="2.40304">
        <ele>140</ele>
        <time>2021-08-11T13:50:19Z</time>
      </trkpt>
      <trkpt lat="47.06949" lon="2.40297">
        <ele>140</ele>
        <time>2021-08-11T13:50:19Z</time>
      </trkpt>
      <trkpt lat="47.06953" lon="2.40293">
        <ele>141</ele>
        <time>2021-08-11T13:50:19Z</time>
      </trkpt>
      <trkpt lat="47.06957" lon="2.4029">
        <ele>141</ele>
        <time>2021-08-11T13:50:19Z</time>
      </trkpt>
      <trkpt lat="47.06962" lon="2.40288">
        <ele>141</ele>
        <time>2021-08-11T13:50:19Z</time>
      </trkpt>
      <trkpt lat="47.06966" lon="2.40286">
        <ele>142</ele>
        <time>2021-08-11T13:50:19Z</time>
      </trkpt>
      <trkpt lat="47.0697" lon="2.40282">
        <ele>142</ele>
        <time>2021-08-11T13:50:19Z</time>
      </trkpt>
      <trkpt lat="47.06974" lon="2.40279">
        <ele>143</ele>
        <time>2021-08-11T13:50:19Z</time>
      </trkpt>
      <trkpt lat="47.06979" lon="2.40277">
        <ele>143</ele>
        <time>2021-08-11T13:50:19Z</time>
      </trkpt>
      <trkpt lat="47.06983" lon="2.40274">
        <ele>143</ele>
        <time>2021-08-11T13:50:19Z</time>
      </trkpt>
      <trkpt lat="47.06988" lon="2.40272">
        <ele>143</ele>
        <time>2021-08-11T13:50:19Z</time>
      </trkpt>
      <trkpt lat="47.06993" lon="2.4027">
        <ele>143</ele>
        <time>2021-08-11T13:50:19Z</time>
      </trkpt>
      <trkpt lat="47.06997" lon="2.40267">
        <ele>143</ele>
        <time>2021-08-11T13:50:19Z</time>
      </trkpt>
      <trkpt lat="47.0702" lon="2.40253">
        <ele>144</ele>
        <time>2021-08-11T13:50:19Z</time>
      </trkpt>
      <trkpt lat="47.07043" lon="2.40239">
        <ele>146</ele>
        <time>2021-08-11T13:50:19Z</time>
      </trkpt>
      <trkpt lat="47.07066" lon="2.40224">
        <ele>148</ele>
        <time>2021-08-11T13:50:19Z</time>
      </trkpt>
      <trkpt lat="47.07083" lon="2.40214">
        <ele>148</ele>
        <time>2021-08-11T13:50:19Z</time>
      </trkpt>
      <trkpt lat="47.07083" lon="2.40192">
        <ele>147</ele>
        <time>2021-08-11T13:50:19Z</time>
      </trkpt>
      <trkpt lat="47.07075" lon="2.40168">
        <ele>147</ele>
        <time>2021-08-11T13:50:19Z</time>
      </trkpt>
      <trkpt lat="47.07074" lon="2.40162">
        <ele>147</ele>
        <time>2021-08-11T13:50:19Z</time>
      </trkpt>
      <trkpt lat="47.07065" lon="2.40124">
        <ele>145</ele>
        <time>2021-08-11T13:50:19Z</time>
      </trkpt>
      <trkpt lat="47.07055" lon="2.40084">
        <ele>142</ele>
        <time>2021-08-11T13:50:19Z</time>
      </trkpt>
      <trkpt lat="47.07045" lon="2.40042">
        <ele>139</ele>
        <time>2021-08-11T13:50:19Z</time>
      </trkpt>
      <trkpt lat="47.07046" lon="2.39997">
        <ele>136</ele>
        <time>2021-08-11T13:50:19Z</time>
      </trkpt>
      <trkpt lat="47.07051" lon="2.39957">
        <ele>135</ele>
        <time>2021-08-11T13:50:19Z</time>
      </trkpt>
      <trkpt lat="47.0706" lon="2.39922">
        <ele>135</ele>
        <time>2021-08-11T13:50:19Z</time>
      </trkpt>
      <trkpt lat="47.07062" lon="2.39914">
        <ele>135</ele>
        <time>2021-08-11T13:50:19Z</time>
      </trkpt>
      <trkpt lat="47.07081" lon="2.39895">
        <ele>135</ele>
        <time>2021-08-11T13:50:19Z</time>
      </trkpt>
      <trkpt lat="47.07108" lon="2.39886">
        <ele>135</ele>
        <time>2021-08-11T13:50:19Z</time>
      </trkpt>
      <trkpt lat="47.07137" lon="2.39878">
        <ele>135</ele>
        <time>2021-08-11T13:50:19Z</time>
      </trkpt>
      <trkpt lat="47.07165" lon="2.39871">
        <ele>136</ele>
        <time>2021-08-11T13:50:19Z</time>
      </trkpt>
      <trkpt lat="47.07192" lon="2.39863">
        <ele>136</ele>
        <time>2021-08-11T13:50:19Z</time>
      </trkpt>
      <trkpt lat="47.07215" lon="2.39861">
        <ele>135</ele>
        <time>2021-08-11T13:50:19Z</time>
      </trkpt>
      <trkpt lat="47.07221" lon="2.3986">
        <ele>135</ele>
        <time>2021-08-11T13:50:19Z</time>
      </trkpt>
      <trkpt lat="47.07227" lon="2.3986">
        <ele>135</ele>
        <time>2021-08-11T13:50:19Z</time>
      </trkpt>
      <trkpt lat="47.07232" lon="2.39859">
        <ele>135</ele>
        <time>2021-08-11T13:50:19Z</time>
      </trkpt>
      <trkpt lat="47.07237" lon="2.39858">
        <ele>135</ele>
        <time>2021-08-11T13:50:19Z</time>
      </trkpt>
      <trkpt lat="47.07242" lon="2.39858">
        <ele>135</ele>
        <time>2021-08-11T13:50:19Z</time>
      </trkpt>
      <trkpt lat="47.07246" lon="2.39857">
        <ele>135</ele>
        <time>2021-08-11T13:50:19Z</time>
      </trkpt>
      <trkpt lat="47.07249" lon="2.39857">
        <ele>135</ele>
        <time>2021-08-11T13:50:19Z</time>
      </trkpt>
      <trkpt lat="47.07251" lon="2.39856">
        <ele>135</ele>
        <time>2021-08-11T13:50:19Z</time>
      </trkpt>
      <trkpt lat="47.07252" lon="2.39855">
        <ele>135</ele>
        <time>2021-08-11T13:50:19Z</time>
      </trkpt>
      <trkpt lat="47.07252" lon="2.39855">
        <ele>135</ele>
        <time>2021-08-11T13:50:19Z</time>
      </trkpt>
      <trkpt lat="47.07252" lon="2.39855">
        <ele>135</ele>
        <time>2021-08-11T13:50:19Z</time>
      </trkpt>
      <trkpt lat="47.07252" lon="2.39855">
        <ele>135</ele>
        <time>2021-08-11T13:50:19Z</time>
      </trkpt>
      <trkpt lat="47.07252" lon="2.39855">
        <ele>135</ele>
        <time>2021-08-11T13:50:19Z</time>
      </trkpt>
      <trkpt lat="47.07252" lon="2.39855">
        <ele>135</ele>
        <time>2021-08-11T13:50:19Z</time>
      </trkpt>
      <trkpt lat="47.07252" lon="2.39855">
        <ele>135</ele>
        <time>2021-08-11T13:50:19Z</time>
      </trkpt>
      <trkpt lat="47.07252" lon="2.39855">
        <ele>135</ele>
        <time>2021-08-11T13:50:19Z</time>
      </trkpt>
      <trkpt lat="47.07252" lon="2.39855">
        <ele>135</ele>
        <time>2021-08-11T13:50:19Z</time>
      </trkpt>
      <trkpt lat="47.07252" lon="2.39855">
        <ele>135</ele>
        <time>2021-08-11T13:50:19Z</time>
      </trkpt>
      <trkpt lat="47.07254" lon="2.39855">
        <ele>135</ele>
        <time>2021-08-11T13:50:19Z</time>
      </trkpt>
      <trkpt lat="47.07256" lon="2.39855">
        <ele>135</ele>
        <time>2021-08-11T13:50:19Z</time>
      </trkpt>
      <trkpt lat="47.07259" lon="2.39854">
        <ele>135</ele>
        <time>2021-08-11T13:50:19Z</time>
      </trkpt>
      <trkpt lat="47.07262" lon="2.39854">
        <ele>135</ele>
        <time>2021-08-11T13:50:19Z</time>
      </trkpt>
      <trkpt lat="47.07266" lon="2.39853">
        <ele>135</ele>
        <time>2021-08-11T13:50:19Z</time>
      </trkpt>
      <trkpt lat="47.0727" lon="2.3985">
        <ele>135</ele>
        <time>2021-08-11T13:50:19Z</time>
      </trkpt>
      <trkpt lat="47.07273" lon="2.39844">
        <ele>135</ele>
        <time>2021-08-11T13:50:19Z</time>
      </trkpt>
      <trkpt lat="47.07275" lon="2.39837">
        <ele>135</ele>
        <time>2021-08-11T13:50:19Z</time>
      </trkpt>
      <trkpt lat="47.07275" lon="2.39829">
        <ele>135</ele>
        <time>2021-08-11T13:50:19Z</time>
      </trkpt>
      <trkpt lat="47.07274" lon="2.39821">
        <ele>135</ele>
        <time>2021-08-11T13:50:19Z</time>
      </trkpt>
      <trkpt lat="47.07273" lon="2.39813">
        <ele>135</ele>
        <time>2021-08-11T13:50:19Z</time>
      </trkpt>
      <trkpt lat="47.07272" lon="2.39805">
        <ele>134</ele>
        <time>2021-08-11T13:50:19Z</time>
      </trkpt>
      <trkpt lat="47.07266" lon="2.3976">
        <ele>132</ele>
        <time>2021-08-11T13:50:19Z</time>
      </trkpt>
      <trkpt lat="47.0726" lon="2.39711">
        <ele>130</ele>
        <time>2021-08-11T13:50:19Z</time>
      </trkpt>
      <trkpt lat="47.07253" lon="2.39662">
        <ele>128</ele>
        <time>2021-08-11T13:50:19Z</time>
      </trkpt>
      <trkpt lat="47.07246" lon="2.39615">
        <ele>127</ele>
        <time>2021-08-11T13:50:19Z</time>
      </trkpt>
      <trkpt lat="47.0724" lon="2.39568">
        <ele>127</ele>
        <time>2021-08-11T13:50:19Z</time>
      </trkpt>
      <trkpt lat="47.07235" lon="2.39531">
        <ele>128</ele>
        <time>2021-08-11T13:50:19Z</time>
      </trkpt>
      <trkpt lat="47.07234" lon="2.39521">
        <ele>129</ele>
        <time>2021-08-11T13:50:19Z</time>
      </trkpt>
      <trkpt lat="47.07228" lon="2.39477">
        <ele>130</ele>
        <time>2021-08-11T13:50:19Z</time>
      </trkpt>
      <trkpt lat="47.07222" lon="2.39438">
        <ele>130</ele>
        <time>2021-08-11T13:50:19Z</time>
      </trkpt>
      <trkpt lat="47.0722" lon="2.39418">
        <ele>130</ele>
        <time>2021-08-11T13:50:19Z</time>
      </trkpt>
      <trkpt lat="47.07216" lon="2.39394">
        <ele>131</ele>
        <time>2021-08-11T13:50:19Z</time>
      </trkpt>
      <trkpt lat="47.07213" lon="2.39362">
        <ele>132</ele>
        <time>2021-08-11T13:50:19Z</time>
      </trkpt>
      <trkpt lat="47.07212" lon="2.3934">
        <ele>132</ele>
        <time>2021-08-11T13:50:19Z</time>
      </trkpt>
      <trkpt lat="47.0721" lon="2.39333">
        <ele>132</ele>
        <time>2021-08-11T13:50:19Z</time>
      </trkpt>
      <trkpt lat="47.07205" lon="2.3931">
        <ele>131</ele>
        <time>2021-08-11T13:50:19Z</time>
      </trkpt>
      <trkpt lat="47.072" lon="2.39281">
        <ele>131</ele>
        <time>2021-08-11T13:50:19Z</time>
      </trkpt>
      <trkpt lat="47.07197" lon="2.39251">
        <ele>130</ele>
        <time>2021-08-11T13:50:19Z</time>
      </trkpt>
      <trkpt lat="47.07193" lon="2.39221">
        <ele>128</ele>
        <time>2021-08-11T13:50:19Z</time>
      </trkpt>
      <trkpt lat="47.0719" lon="2.39197">
        <ele>128</ele>
        <time>2021-08-11T13:50:19Z</time>
      </trkpt>
      <trkpt lat="47.07193" lon="2.39192">
        <ele>127</ele>
        <time>2021-08-11T13:50:19Z</time>
      </trkpt>
      <trkpt lat="47.07194" lon="2.39195">
        <ele>128</ele>
        <time>2021-08-11T13:50:19Z</time>
      </trkpt>
      <trkpt lat="47.07197" lon="2.3922">
        <ele>129</ele>
        <time>2021-08-11T13:50:19Z</time>
      </trkpt>
      <trkpt lat="47.07212" lon="2.39251">
        <ele>131</ele>
        <time>2021-08-11T13:50:19Z</time>
      </trkpt>
      <trkpt lat="47.07233" lon="2.39275">
        <ele>131</ele>
        <time>2021-08-11T13:50:19Z</time>
      </trkpt>
      <trkpt lat="47.07258" lon="2.39272">
        <ele>131</ele>
        <time>2021-08-11T13:50:19Z</time>
      </trkpt>
      <trkpt lat="47.07288" lon="2.39263">
        <ele>131</ele>
        <time>2021-08-11T13:50:19Z</time>
      </trkpt>
      <trkpt lat="47.07313" lon="2.39254">
        <ele>131</ele>
        <time>2021-08-11T13:50:19Z</time>
      </trkpt>
      <trkpt lat="47.07319" lon="2.39253">
        <ele>131</ele>
        <time>2021-08-11T13:50:19Z</time>
      </trkpt>
      <trkpt lat="47.07349" lon="2.39244">
        <ele>131</ele>
        <time>2021-08-11T13:50:19Z</time>
      </trkpt>
      <trkpt lat="47.07379" lon="2.39236">
        <ele>133</ele>
        <time>2021-08-11T13:50:19Z</time>
      </trkpt>
      <trkpt lat="47.07406" lon="2.39224">
        <ele>135</ele>
        <time>2021-08-11T13:50:19Z</time>
      </trkpt>
      <trkpt lat="47.07435" lon="2.39214">
        <ele>136</ele>
        <time>2021-08-11T13:50:19Z</time>
      </trkpt>
      <trkpt lat="47.07463" lon="2.39206">
        <ele>136</ele>
        <time>2021-08-11T13:50:19Z</time>
      </trkpt>
      <trkpt lat="47.07485" lon="2.39199">
        <ele>135</ele>
        <time>2021-08-11T13:50:19Z</time>
      </trkpt>
      <trkpt lat="47.07492" lon="2.39197">
        <ele>135</ele>
        <time>2021-08-11T13:50:19Z</time>
      </trkpt>
      <trkpt lat="47.07504" lon="2.39192">
        <ele>135</ele>
        <time>2021-08-11T13:50:19Z</time>
      </trkpt>
      <trkpt lat="47.0751" lon="2.39191">
        <ele>135</ele>
        <time>2021-08-11T13:50:19Z</time>
      </trkpt>
      <trkpt lat="47.07516" lon="2.39189">
        <ele>134</ele>
        <time>2021-08-11T13:50:19Z</time>
      </trkpt>
      <trkpt lat="47.07525" lon="2.39188">
        <ele>134</ele>
        <time>2021-08-11T13:50:19Z</time>
      </trkpt>
      <trkpt lat="47.07532" lon="2.39186">
        <ele>133</ele>
        <time>2021-08-11T13:50:19Z</time>
      </trkpt>
      <trkpt lat="47.07538" lon="2.39184">
        <ele>132</ele>
        <time>2021-08-11T13:50:19Z</time>
      </trkpt>
      <trkpt lat="47.07544" lon="2.39182">
        <ele>131</ele>
        <time>2021-08-11T13:50:19Z</time>
      </trkpt>
      <trkpt lat="47.07548" lon="2.39178">
        <ele>131</ele>
        <time>2021-08-11T13:50:19Z</time>
      </trkpt>
      <trkpt lat="47.07553" lon="2.39176">
        <ele>130</ele>
        <time>2021-08-11T13:50:19Z</time>
      </trkpt>
      <trkpt lat="47.07558" lon="2.39172">
        <ele>130</ele>
        <time>2021-08-11T13:50:19Z</time>
      </trkpt>
      <trkpt lat="47.07563" lon="2.39169">
        <ele>130</ele>
        <time>2021-08-11T13:50:19Z</time>
      </trkpt>
      <trkpt lat="47.07567" lon="2.39167">
        <ele>129</ele>
        <time>2021-08-11T13:50:19Z</time>
      </trkpt>
      <trkpt lat="47.0757" lon="2.39164">
        <ele>129</ele>
        <time>2021-08-11T13:50:19Z</time>
      </trkpt>
      <trkpt lat="47.07573" lon="2.39163">
        <ele>129</ele>
        <time>2021-08-11T13:50:19Z</time>
      </trkpt>
      <trkpt lat="47.07576" lon="2.3916">
        <ele>129</ele>
        <time>2021-08-11T13:50:19Z</time>
      </trkpt>
      <trkpt lat="47.0758" lon="2.3916">
        <ele>129</ele>
        <time>2021-08-11T13:50:19Z</time>
      </trkpt>
      <trkpt lat="47.07583" lon="2.39162">
        <ele>129</ele>
        <time>2021-08-11T13:50:19Z</time>
      </trkpt>
      <trkpt lat="47.07587" lon="2.39163">
        <ele>129</ele>
        <time>2021-08-11T13:50:19Z</time>
      </trkpt>
      <trkpt lat="47.0759" lon="2.39163">
        <ele>130</ele>
        <time>2021-08-11T13:50:19Z</time>
      </trkpt>
      <trkpt lat="47.07595" lon="2.39159">
        <ele>130</ele>
        <time>2021-08-11T13:50:19Z</time>
      </trkpt>
      <trkpt lat="47.07601" lon="2.39159">
        <ele>130</ele>
        <time>2021-08-11T13:50:19Z</time>
      </trkpt>
      <trkpt lat="47.07606" lon="2.39158">
        <ele>130</ele>
        <time>2021-08-11T13:50:19Z</time>
      </trkpt>
      <trkpt lat="47.07612" lon="2.39156">
        <ele>131</ele>
        <time>2021-08-11T13:50:19Z</time>
      </trkpt>
      <trkpt lat="47.07617" lon="2.39153">
        <ele>131</ele>
        <time>2021-08-11T13:50:19Z</time>
      </trkpt>
      <trkpt lat="47.07624" lon="2.39151">
        <ele>131</ele>
        <time>2021-08-11T13:50:19Z</time>
      </trkpt>
      <trkpt lat="47.0763" lon="2.39149">
        <ele>131</ele>
        <time>2021-08-11T13:50:19Z</time>
      </trkpt>
      <trkpt lat="47.07635" lon="2.39148">
        <ele>131</ele>
        <time>2021-08-11T13:50:19Z</time>
      </trkpt>
      <trkpt lat="47.07641" lon="2.39146">
        <ele>131</ele>
        <time>2021-08-11T13:50:19Z</time>
      </trkpt>
      <trkpt lat="47.07646" lon="2.39144">
        <ele>130</ele>
        <time>2021-08-11T13:50:19Z</time>
      </trkpt>
      <trkpt lat="47.07652" lon="2.39141">
        <ele>130</ele>
        <time>2021-08-11T13:50:19Z</time>
      </trkpt>
      <trkpt lat="47.07658" lon="2.39139">
        <ele>130</ele>
        <time>2021-08-11T13:50:19Z</time>
      </trkpt>
      <trkpt lat="47.07664" lon="2.3914">
        <ele>130</ele>
        <time>2021-08-11T13:50:19Z</time>
      </trkpt>
      <trkpt lat="47.0767" lon="2.39138">
        <ele>129</ele>
        <time>2021-08-11T13:50:19Z</time>
      </trkpt>
      <trkpt lat="47.07677" lon="2.39137">
        <ele>129</ele>
        <time>2021-08-11T13:50:19Z</time>
      </trkpt>
      <trkpt lat="47.07682" lon="2.39135">
        <ele>128</ele>
        <time>2021-08-11T13:50:19Z</time>
      </trkpt>
      <trkpt lat="47.07688" lon="2.39133">
        <ele>128</ele>
        <time>2021-08-11T13:50:19Z</time>
      </trkpt>
      <trkpt lat="47.07693" lon="2.39132">
        <ele>127</ele>
        <time>2021-08-11T13:50:19Z</time>
      </trkpt>
      <trkpt lat="47.07697" lon="2.39131">
        <ele>127</ele>
        <time>2021-08-11T13:50:19Z</time>
      </trkpt>
      <trkpt lat="47.07704" lon="2.39129">
        <ele>127</ele>
        <time>2021-08-11T13:50:19Z</time>
      </trkpt>
      <trkpt lat="47.07711" lon="2.39126">
        <ele>127</ele>
        <time>2021-08-11T13:50:19Z</time>
      </trkpt>
      <trkpt lat="47.07717" lon="2.39124">
        <ele>127</ele>
        <time>2021-08-11T13:50:19Z</time>
      </trkpt>
      <trkpt lat="47.07722" lon="2.39122">
        <ele>127</ele>
        <time>2021-08-11T13:50:19Z</time>
      </trkpt>
      <trkpt lat="47.07726" lon="2.39121">
        <ele>128</ele>
        <time>2021-08-11T13:50:19Z</time>
      </trkpt>
      <trkpt lat="47.07729" lon="2.39121">
        <ele>128</ele>
        <time>2021-08-11T13:50:19Z</time>
      </trkpt>
      <trkpt lat="47.07732" lon="2.3912">
        <ele>128</ele>
        <time>2021-08-11T13:50:19Z</time>
      </trkpt>
      <trkpt lat="47.07735" lon="2.39118">
        <ele>128</ele>
        <time>2021-08-11T13:50:19Z</time>
      </trkpt>
      <trkpt lat="47.07737" lon="2.39117">
        <ele>128</ele>
        <time>2021-08-11T13:50:19Z</time>
      </trkpt>
      <trkpt lat="47.07739" lon="2.39115">
        <ele>128</ele>
        <time>2021-08-11T13:50:19Z</time>
      </trkpt>
      <trkpt lat="47.07741" lon="2.39115">
        <ele>128</ele>
        <time>2021-08-11T13:50:19Z</time>
      </trkpt>
      <trkpt lat="47.07744" lon="2.39115">
        <ele>128</ele>
        <time>2021-08-11T13:50:19Z</time>
      </trkpt>
      <trkpt lat="47.07746" lon="2.39113">
        <ele>128</ele>
        <time>2021-08-11T13:50:19Z</time>
      </trkpt>
      <trkpt lat="47.07746" lon="2.39109">
        <ele>128</ele>
        <time>2021-08-11T13:50:19Z</time>
      </trkpt>
      <trkpt lat="47.07745" lon="2.39104">
        <ele>128</ele>
        <time>2021-08-11T13:50:19Z</time>
      </trkpt>
      <trkpt lat="47.07744" lon="2.391">
        <ele>128</ele>
        <time>2021-08-11T13:50:19Z</time>
      </trkpt>
      <trkpt lat="47.07743" lon="2.39095">
        <ele>128</ele>
        <time>2021-08-11T13:50:19Z</time>
      </trkpt>
      <trkpt lat="47.07742" lon="2.3909">
        <ele>128</ele>
        <time>2021-08-11T13:50:19Z</time>
      </trkpt>
      <trkpt lat="47.07742" lon="2.39086">
        <ele>128</ele>
        <time>2021-08-11T13:50:19Z</time>
      </trkpt>
      <trkpt lat="47.07742" lon="2.39081">
        <ele>128</ele>
        <time>2021-08-11T13:50:19Z</time>
      </trkpt>
      <trkpt lat="47.07744" lon="2.39077">
        <ele>128</ele>
        <time>2021-08-11T13:50:19Z</time>
      </trkpt>
      <trkpt lat="47.07747" lon="2.39075">
        <ele>128</ele>
        <time>2021-08-11T13:50:19Z</time>
      </trkpt>
      <trkpt lat="47.07752" lon="2.39075">
        <ele>128</ele>
        <time>2021-08-11T13:50:19Z</time>
      </trkpt>
      <trkpt lat="47.0778" lon="2.39078">
        <ele>128</ele>
        <time>2021-08-11T13:50:19Z</time>
      </trkpt>
      <trkpt lat="47.07807" lon="2.39071">
        <ele>127</ele>
        <time>2021-08-11T13:50:19Z</time>
      </trkpt>
      <trkpt lat="47.07834" lon="2.39062">
        <ele>127</ele>
        <time>2021-08-11T13:50:19Z</time>
      </trkpt>
      <trkpt lat="47.0786" lon="2.39048">
        <ele>129</ele>
        <time>2021-08-11T13:50:19Z</time>
      </trkpt>
      <trkpt lat="47.07884" lon="2.39029">
        <ele>130</ele>
        <time>2021-08-11T13:50:19Z</time>
      </trkpt>
      <trkpt lat="47.07902" lon="2.39007">
        <ele>130</ele>
        <time>2021-08-11T13:50:19Z</time>
      </trkpt>
      <trkpt lat="47.07906" lon="2.39002">
        <ele>129</ele>
        <time>2021-08-11T13:50:19Z</time>
      </trkpt>
      <trkpt lat="47.07921" lon="2.38983">
        <ele>128</ele>
        <time>2021-08-11T13:50:19Z</time>
      </trkpt>
      <trkpt lat="47.07931" lon="2.3897">
        <ele>128</ele>
        <time>2021-08-11T13:50:19Z</time>
      </trkpt>
      <trkpt lat="47.07941" lon="2.38956">
        <ele>128</ele>
        <time>2021-08-11T13:50:19Z</time>
      </trkpt>
      <trkpt lat="47.07956" lon="2.38937">
        <ele>129</ele>
        <time>2021-08-11T13:50:19Z</time>
      </trkpt>
      <trkpt lat="47.07979" lon="2.3891">
        <ele>129</ele>
        <time>2021-08-11T13:50:19Z</time>
      </trkpt>
      <trkpt lat="47.07995" lon="2.38884">
        <ele>129</ele>
        <time>2021-08-11T13:50:19Z</time>
      </trkpt>
      <trkpt lat="47.07999" lon="2.38876">
        <ele>129</ele>
        <time>2021-08-11T13:50:19Z</time>
      </trkpt>
      <trkpt lat="47.08018" lon="2.38839">
        <ele>129</ele>
        <time>2021-08-11T13:50:19Z</time>
      </trkpt>
      <trkpt lat="47.08037" lon="2.38804">
        <ele>130</ele>
        <time>2021-08-11T13:50:19Z</time>
      </trkpt>
      <trkpt lat="47.08065" lon="2.38768">
        <ele>131</ele>
        <time>2021-08-11T13:50:19Z</time>
      </trkpt>
      <trkpt lat="47.08082" lon="2.3873">
        <ele>131</ele>
        <time>2021-08-11T13:50:19Z</time>
      </trkpt>
      <trkpt lat="47.08101" lon="2.38704">
        <ele>130</ele>
        <time>2021-08-11T13:50:19Z</time>
      </trkpt>
      <trkpt lat="47.08114" lon="2.3871">
        <ele>131</ele>
        <time>2021-08-11T13:50:19Z</time>
      </trkpt>
      <trkpt lat="47.08118" lon="2.38705">
        <ele>131</ele>
        <time>2021-08-11T13:50:19Z</time>
      </trkpt>
      <trkpt lat="47.08136" lon="2.38674">
        <ele>131</ele>
        <time>2021-08-11T13:50:19Z</time>
      </trkpt>
      <trkpt lat="47.08149" lon="2.38649">
        <ele>131</ele>
        <time>2021-08-11T13:50:19Z</time>
      </trkpt>
      <trkpt lat="47.08148" lon="2.38641">
        <ele>131</ele>
        <time>2021-08-11T13:50:19Z</time>
      </trkpt>
      <trkpt lat="47.0815" lon="2.38635">
        <ele>131</ele>
        <time>2021-08-11T13:50:19Z</time>
      </trkpt>
      <trkpt lat="47.08153" lon="2.3863">
        <ele>131</ele>
        <time>2021-08-11T13:50:19Z</time>
      </trkpt>
      <trkpt lat="47.08156" lon="2.38622">
        <ele>131</ele>
        <time>2021-08-11T13:50:19Z</time>
      </trkpt>
      <trkpt lat="47.0816" lon="2.38616">
        <ele>131</ele>
        <time>2021-08-11T13:50:19Z</time>
      </trkpt>
      <trkpt lat="47.08162" lon="2.3861">
        <ele>131</ele>
        <time>2021-08-11T13:50:19Z</time>
      </trkpt>
      <trkpt lat="47.08164" lon="2.38604">
        <ele>131</ele>
        <time>2021-08-11T13:50:19Z</time>
      </trkpt>
      <trkpt lat="47.08167" lon="2.38595">
        <ele>131</ele>
        <time>2021-08-11T13:50:19Z</time>
      </trkpt>
      <trkpt lat="47.08171" lon="2.38588">
        <ele>131</ele>
        <time>2021-08-11T13:50:19Z</time>
      </trkpt>
      <trkpt lat="47.08173" lon="2.38579">
        <ele>131</ele>
        <time>2021-08-11T13:50:19Z</time>
      </trkpt>
      <trkpt lat="47.08177" lon="2.38571">
        <ele>131</ele>
        <time>2021-08-11T13:50:19Z</time>
      </trkpt>
      <trkpt lat="47.08182" lon="2.38564">
        <ele>131</ele>
        <time>2021-08-11T13:50:19Z</time>
      </trkpt>
      <trkpt lat="47.08194" lon="2.38522">
        <ele>130</ele>
        <time>2021-08-11T13:50:19Z</time>
      </trkpt>
      <trkpt lat="47.08211" lon="2.38484">
        <ele>129</ele>
        <time>2021-08-11T13:50:19Z</time>
      </trkpt>
      <trkpt lat="47.08224" lon="2.38453">
        <ele>127</ele>
        <time>2021-08-11T13:50:19Z</time>
      </trkpt>
      <trkpt lat="47.08238" lon="2.38429">
        <ele>126</ele>
        <time>2021-08-11T13:50:19Z</time>
      </trkpt>
      <trkpt lat="47.0825" lon="2.38398">
        <ele>125</ele>
        <time>2021-08-11T13:50:19Z</time>
      </trkpt>
      <trkpt lat="47.08261" lon="2.38366">
        <ele>127</ele>
        <time>2021-08-11T13:50:19Z</time>
      </trkpt>
      <trkpt lat="47.08264" lon="2.38358">
        <ele>127</ele>
        <time>2021-08-11T13:50:19Z</time>
      </trkpt>
      <trkpt lat="47.08278" lon="2.38318">
        <ele>130</ele>
        <time>2021-08-11T13:50:19Z</time>
      </trkpt>
      <trkpt lat="47.08293" lon="2.38279">
        <ele>129</ele>
        <time>2021-08-11T13:50:19Z</time>
      </trkpt>
      <trkpt lat="47.08308" lon="2.3824">
        <ele>126</ele>
        <time>2021-08-11T13:50:19Z</time>
      </trkpt>
      <trkpt lat="47.08324" lon="2.38201">
        <ele>126</ele>
        <time>2021-08-11T13:50:19Z</time>
      </trkpt>
      <trkpt lat="47.0834" lon="2.38163">
        <ele>128</ele>
        <time>2021-08-11T13:50:19Z</time>
      </trkpt>
      <trkpt lat="47.08348" lon="2.38129">
        <ele>127</ele>
        <time>2021-08-11T13:50:19Z</time>
      </trkpt>
      <trkpt lat="47.08349" lon="2.38121">
        <ele>127</ele>
        <time>2021-08-11T13:50:19Z</time>
      </trkpt>
      <trkpt lat="47.08368" lon="2.38087">
        <ele>123</ele>
        <time>2021-08-11T13:50:19Z</time>
      </trkpt>
      <trkpt lat="47.08385" lon="2.38051">
        <ele>125</ele>
        <time>2021-08-11T13:50:19Z</time>
      </trkpt>
      <trkpt lat="47.08401" lon="2.38014">
        <ele>127</ele>
        <time>2021-08-11T13:50:19Z</time>
      </trkpt>
      <trkpt lat="47.08416" lon="2.37978">
        <ele>128</ele>
        <time>2021-08-11T13:50:19Z</time>
      </trkpt>
      <trkpt lat="47.08431" lon="2.37941">
        <ele>129</ele>
        <time>2021-08-11T13:50:19Z</time>
      </trkpt>
      <trkpt lat="47.08442" lon="2.3791">
        <ele>129</ele>
        <time>2021-08-11T13:50:19Z</time>
      </trkpt>
      <trkpt lat="47.08445" lon="2.37902">
        <ele>128</ele>
        <time>2021-08-11T13:50:19Z</time>
      </trkpt>
      <trkpt lat="47.08462" lon="2.37864">
        <ele>126</ele>
        <time>2021-08-11T13:50:19Z</time>
      </trkpt>
      <trkpt lat="47.08477" lon="2.37826">
        <ele>127</ele>
        <time>2021-08-11T13:50:19Z</time>
      </trkpt>
      <trkpt lat="47.08491" lon="2.37791">
        <ele>128</ele>
        <time>2021-08-11T13:50:19Z</time>
      </trkpt>
      <trkpt lat="47.08503" lon="2.37758">
        <ele>128</ele>
        <time>2021-08-11T13:50:19Z</time>
      </trkpt>
      <trkpt lat="47.08516" lon="2.3773">
        <ele>128</ele>
        <time>2021-08-11T13:50:19Z</time>
      </trkpt>
      <trkpt lat="47.08522" lon="2.37699">
        <ele>129</ele>
        <time>2021-08-11T13:50:19Z</time>
      </trkpt>
      <trkpt lat="47.08525" lon="2.37691">
        <ele>130</ele>
        <time>2021-08-11T13:50:19Z</time>
      </trkpt>
      <trkpt lat="47.08535" lon="2.37665">
        <ele>130</ele>
        <time>2021-08-11T13:50:19Z</time>
      </trkpt>
      <trkpt lat="47.08548" lon="2.37632">
        <ele>132</ele>
        <time>2021-08-11T13:50:19Z</time>
      </trkpt>
      <trkpt lat="47.0856" lon="2.37607">
        <ele>132</ele>
        <time>2021-08-11T13:50:19Z</time>
      </trkpt>
      <trkpt lat="47.0857" lon="2.37589">
        <ele>132</ele>
        <time>2021-08-11T13:50:19Z</time>
      </trkpt>
      <trkpt lat="47.08582" lon="2.37573">
        <ele>132</ele>
        <time>2021-08-11T13:50:19Z</time>
      </trkpt>
      <trkpt lat="47.0859" lon="2.3756">
        <ele>131</ele>
        <time>2021-08-11T13:50:19Z</time>
      </trkpt>
      <trkpt lat="47.08593" lon="2.37554">
        <ele>131</ele>
        <time>2021-08-11T13:50:19Z</time>
      </trkpt>
      <trkpt lat="47.08595" lon="2.37551">
        <ele>131</ele>
        <time>2021-08-11T13:50:19Z</time>
      </trkpt>
      <trkpt lat="47.08598" lon="2.37546">
        <ele>131</ele>
        <time>2021-08-11T13:50:19Z</time>
      </trkpt>
      <trkpt lat="47.08601" lon="2.37541">
        <ele>131</ele>
        <time>2021-08-11T13:50:19Z</time>
      </trkpt>
      <trkpt lat="47.08604" lon="2.37537">
        <ele>131</ele>
        <time>2021-08-11T13:50:19Z</time>
      </trkpt>
      <trkpt lat="47.08607" lon="2.37532">
        <ele>131</ele>
        <time>2021-08-11T13:50:19Z</time>
      </trkpt>
      <trkpt lat="47.08617" lon="2.37509">
        <ele>132</ele>
        <time>2021-08-11T13:50:19Z</time>
      </trkpt>
      <trkpt lat="47.08628" lon="2.37483">
        <ele>132</ele>
        <time>2021-08-11T13:50:19Z</time>
      </trkpt>
      <trkpt lat="47.0864" lon="2.37455">
        <ele>131</ele>
        <time>2021-08-11T13:50:19Z</time>
      </trkpt>
      <trkpt lat="47.08647" lon="2.37437">
        <ele>131</ele>
        <time>2021-08-11T13:50:19Z</time>
      </trkpt>
      <trkpt lat="47.08654" lon="2.37413">
        <ele>131</ele>
        <time>2021-08-11T13:50:19Z</time>
      </trkpt>
      <trkpt lat="47.08659" lon="2.37393">
        <ele>130</ele>
        <time>2021-08-11T13:50:19Z</time>
      </trkpt>
      <trkpt lat="47.08661" lon="2.37388">
        <ele>130</ele>
        <time>2021-08-11T13:50:19Z</time>
      </trkpt>
      <trkpt lat="47.08662" lon="2.37383">
        <ele>130</ele>
        <time>2021-08-11T13:50:19Z</time>
      </trkpt>
      <trkpt lat="47.08663" lon="2.37378">
        <ele>130</ele>
        <time>2021-08-11T13:50:19Z</time>
      </trkpt>
      <trkpt lat="47.08663" lon="2.37374">
        <ele>130</ele>
        <time>2021-08-11T13:50:19Z</time>
      </trkpt>
      <trkpt lat="47.08664" lon="2.37369">
        <ele>130</ele>
        <time>2021-08-11T13:50:19Z</time>
      </trkpt>
      <trkpt lat="47.08664" lon="2.37369">
        <ele>130</ele>
        <time>2021-08-11T13:50:19Z</time>
      </trkpt>
      <trkpt lat="47.08663" lon="2.37367">
        <ele>130</ele>
        <time>2021-08-11T13:50:19Z</time>
      </trkpt>
      <trkpt lat="47.08662" lon="2.37365">
        <ele>130</ele>
        <time>2021-08-11T13:50:19Z</time>
      </trkpt>
      <trkpt lat="47.08662" lon="2.37361">
        <ele>130</ele>
        <time>2021-08-11T13:50:19Z</time>
      </trkpt>
      <trkpt lat="47.08663" lon="2.37355">
        <ele>130</ele>
        <time>2021-08-11T13:50:19Z</time>
      </trkpt>
      <trkpt lat="47.08664" lon="2.3735">
        <ele>129</ele>
        <time>2021-08-11T13:50:19Z</time>
      </trkpt>
      <trkpt lat="47.08665" lon="2.3734">
        <ele>129</ele>
        <time>2021-08-11T13:50:19Z</time>
      </trkpt>
      <trkpt lat="47.08666" lon="2.37333">
        <ele>129</ele>
        <time>2021-08-11T13:50:19Z</time>
      </trkpt>
      <trkpt lat="47.08666" lon="2.37327">
        <ele>129</ele>
        <time>2021-08-11T13:50:19Z</time>
      </trkpt>
      <trkpt lat="47.08667" lon="2.37321">
        <ele>129</ele>
        <time>2021-08-11T13:50:19Z</time>
      </trkpt>
      <trkpt lat="47.08667" lon="2.37315">
        <ele>129</ele>
        <time>2021-08-11T13:50:19Z</time>
      </trkpt>
      <trkpt lat="47.08669" lon="2.37309">
        <ele>129</ele>
        <time>2021-08-11T13:50:19Z</time>
      </trkpt>
      <trkpt lat="47.08668" lon="2.37303">
        <ele>129</ele>
        <time>2021-08-11T13:50:19Z</time>
      </trkpt>
      <trkpt lat="47.08669" lon="2.37297">
        <ele>130</ele>
        <time>2021-08-11T13:50:19Z</time>
      </trkpt>
      <trkpt lat="47.08669" lon="2.37291">
        <ele>130</ele>
        <time>2021-08-11T13:50:19Z</time>
      </trkpt>
      <trkpt lat="47.08669" lon="2.37285">
        <ele>131</ele>
        <time>2021-08-11T13:50:19Z</time>
      </trkpt>
      <trkpt lat="47.08669" lon="2.37279">
        <ele>131</ele>
        <time>2021-08-11T13:50:19Z</time>
      </trkpt>
      <trkpt lat="47.0867" lon="2.37272">
        <ele>131</ele>
        <time>2021-08-11T13:50:19Z</time>
      </trkpt>
      <trkpt lat="47.08669" lon="2.37266">
        <ele>132</ele>
        <time>2021-08-11T13:50:19Z</time>
      </trkpt>
      <trkpt lat="47.08669" lon="2.37259">
        <ele>133</ele>
        <time>2021-08-11T13:50:19Z</time>
      </trkpt>
      <trkpt lat="47.08669" lon="2.37253">
        <ele>133</ele>
        <time>2021-08-11T13:50:19Z</time>
      </trkpt>
      <trkpt lat="47.08669" lon="2.37245">
        <ele>133</ele>
        <time>2021-08-11T13:50:19Z</time>
      </trkpt>
      <trkpt lat="47.08669" lon="2.37237">
        <ele>133</ele>
        <time>2021-08-11T13:50:19Z</time>
      </trkpt>
      <trkpt lat="47.0867" lon="2.3723">
        <ele>133</ele>
        <time>2021-08-11T13:50:19Z</time>
      </trkpt>
      <trkpt lat="47.08671" lon="2.37224">
        <ele>133</ele>
        <time>2021-08-11T13:50:19Z</time>
      </trkpt>
      <trkpt lat="47.08671" lon="2.37218">
        <ele>133</ele>
        <time>2021-08-11T13:50:19Z</time>
      </trkpt>
      <trkpt lat="47.08672" lon="2.37213">
        <ele>133</ele>
        <time>2021-08-11T13:50:19Z</time>
      </trkpt>
      <trkpt lat="47.08672" lon="2.37208">
        <ele>132</ele>
        <time>2021-08-11T13:50:19Z</time>
      </trkpt>
      <trkpt lat="47.08673" lon="2.37202">
        <ele>132</ele>
        <time>2021-08-11T13:50:19Z</time>
      </trkpt>
      <trkpt lat="47.08673" lon="2.37197">
        <ele>132</ele>
        <time>2021-08-11T13:50:19Z</time>
      </trkpt>
      <trkpt lat="47.08673" lon="2.37191">
        <ele>132</ele>
        <time>2021-08-11T13:50:19Z</time>
      </trkpt>
      <trkpt lat="47.08673" lon="2.37185">
        <ele>131</ele>
        <time>2021-08-11T13:50:19Z</time>
      </trkpt>
      <trkpt lat="47.08673" lon="2.37156">
        <ele>131</ele>
        <time>2021-08-11T13:50:19Z</time>
      </trkpt>
      <trkpt lat="47.08672" lon="2.37129">
        <ele>131</ele>
        <time>2021-08-11T13:50:19Z</time>
      </trkpt>
      <trkpt lat="47.08672" lon="2.37101">
        <ele>130</ele>
        <time>2021-08-11T13:50:19Z</time>
      </trkpt>
      <trkpt lat="47.08669" lon="2.37074">
        <ele>130</ele>
        <time>2021-08-11T13:50:19Z</time>
      </trkpt>
      <trkpt lat="47.0867" lon="2.37046">
        <ele>128</ele>
        <time>2021-08-11T13:50:19Z</time>
      </trkpt>
      <trkpt lat="47.08668" lon="2.37025">
        <ele>127</ele>
        <time>2021-08-11T13:50:19Z</time>
      </trkpt>
      <trkpt lat="47.08668" lon="2.3702">
        <ele>127</ele>
        <time>2021-08-11T13:50:19Z</time>
      </trkpt>
      <trkpt lat="47.08668" lon="2.37014">
        <ele>127</ele>
        <time>2021-08-11T13:50:19Z</time>
      </trkpt>
      <trkpt lat="47.08667" lon="2.37009">
        <ele>127</ele>
        <time>2021-08-11T13:50:19Z</time>
      </trkpt>
      <trkpt lat="47.08666" lon="2.37005">
        <ele>127</ele>
        <time>2021-08-11T13:50:19Z</time>
      </trkpt>
      <trkpt lat="47.08666" lon="2.36998">
        <ele>126</ele>
        <time>2021-08-11T13:50:19Z</time>
      </trkpt>
      <trkpt lat="47.08667" lon="2.36993">
        <ele>126</ele>
        <time>2021-08-11T13:50:19Z</time>
      </trkpt>
      <trkpt lat="47.08666" lon="2.36987">
        <ele>126</ele>
        <time>2021-08-11T13:50:19Z</time>
      </trkpt>
      <trkpt lat="47.08666" lon="2.36958">
        <ele>126</ele>
        <time>2021-08-11T13:50:19Z</time>
      </trkpt>
      <trkpt lat="47.08666" lon="2.36931">
        <ele>126</ele>
        <time>2021-08-11T13:50:19Z</time>
      </trkpt>
      <trkpt lat="47.08663" lon="2.36903">
        <ele>127</ele>
        <time>2021-08-11T13:50:19Z</time>
      </trkpt>
      <trkpt lat="47.08663" lon="2.36874">
        <ele>128</ele>
        <time>2021-08-11T13:50:19Z</time>
      </trkpt>
      <trkpt lat="47.08662" lon="2.36844">
        <ele>128</ele>
        <time>2021-08-11T13:50:19Z</time>
      </trkpt>
      <trkpt lat="47.08663" lon="2.36821">
        <ele>128</ele>
        <time>2021-08-11T13:50:19Z</time>
      </trkpt>
      <trkpt lat="47.08663" lon="2.36816">
        <ele>129</ele>
        <time>2021-08-11T13:50:19Z</time>
      </trkpt>
      <trkpt lat="47.08661" lon="2.36788">
        <ele>129</ele>
        <time>2021-08-11T13:50:19Z</time>
      </trkpt>
      <trkpt lat="47.08659" lon="2.36764">
        <ele>130</ele>
        <time>2021-08-11T13:50:19Z</time>
      </trkpt>
      <trkpt lat="47.08658" lon="2.36739">
        <ele>130</ele>
        <time>2021-08-11T13:50:19Z</time>
      </trkpt>
      <trkpt lat="47.08658" lon="2.36707">
        <ele>130</ele>
        <time>2021-08-11T13:50:19Z</time>
      </trkpt>
      <trkpt lat="47.08655" lon="2.3668">
        <ele>130</ele>
        <time>2021-08-11T13:50:19Z</time>
      </trkpt>
      <trkpt lat="47.08654" lon="2.36661">
        <ele>130</ele>
        <time>2021-08-11T13:50:19Z</time>
      </trkpt>
      <trkpt lat="47.08654" lon="2.36657">
        <ele>129</ele>
        <time>2021-08-11T13:50:19Z</time>
      </trkpt>
      <trkpt lat="47.08656" lon="2.36632">
        <ele>128</ele>
        <time>2021-08-11T13:50:19Z</time>
      </trkpt>
      <trkpt lat="47.08656" lon="2.36604">
        <ele>127</ele>
        <time>2021-08-11T13:50:19Z</time>
      </trkpt>
      <trkpt lat="47.08657" lon="2.3658">
        <ele>127</ele>
        <time>2021-08-11T13:50:19Z</time>
      </trkpt>
      <trkpt lat="47.08655" lon="2.36555">
        <ele>127</ele>
        <time>2021-08-11T13:50:19Z</time>
      </trkpt>
      <trkpt lat="47.08655" lon="2.36528">
        <ele>126</ele>
        <time>2021-08-11T13:50:19Z</time>
      </trkpt>
      <trkpt lat="47.08654" lon="2.36507">
        <ele>126</ele>
        <time>2021-08-11T13:50:19Z</time>
      </trkpt>
      <trkpt lat="47.08653" lon="2.36503">
        <ele>126</ele>
        <time>2021-08-11T13:50:19Z</time>
      </trkpt>
      <trkpt lat="47.08652" lon="2.36475">
        <ele>126</ele>
        <time>2021-08-11T13:50:19Z</time>
      </trkpt>
      <trkpt lat="47.08655" lon="2.36442">
        <ele>125</ele>
        <time>2021-08-11T13:50:19Z</time>
      </trkpt>
      <trkpt lat="47.08654" lon="2.3641">
        <ele>125</ele>
        <time>2021-08-11T13:50:19Z</time>
      </trkpt>
      <trkpt lat="47.08654" lon="2.36379">
        <ele>126</ele>
        <time>2021-08-11T13:50:19Z</time>
      </trkpt>
      <trkpt lat="47.08651" lon="2.36347">
        <ele>128</ele>
        <time>2021-08-11T13:50:19Z</time>
      </trkpt>
      <trkpt lat="47.0865" lon="2.36321">
        <ele>129</ele>
        <time>2021-08-11T13:50:19Z</time>
      </trkpt>
      <trkpt lat="47.08649" lon="2.36315">
        <ele>130</ele>
        <time>2021-08-11T13:50:19Z</time>
      </trkpt>
      <trkpt lat="47.08649" lon="2.36282">
        <ele>130</ele>
        <time>2021-08-11T13:50:19Z</time>
      </trkpt>
      <trkpt lat="47.08649" lon="2.36248">
        <ele>131</ele>
        <time>2021-08-11T13:50:19Z</time>
      </trkpt>
      <trkpt lat="47.0865" lon="2.36214">
        <ele>132</ele>
        <time>2021-08-11T13:50:19Z</time>
      </trkpt>
      <trkpt lat="47.0865" lon="2.36181">
        <ele>133</ele>
        <time>2021-08-11T13:50:19Z</time>
      </trkpt>
      <trkpt lat="47.08649" lon="2.36148">
        <ele>133</ele>
        <time>2021-08-11T13:50:19Z</time>
      </trkpt>
      <trkpt lat="47.08646" lon="2.36124">
        <ele>133</ele>
        <time>2021-08-11T13:50:19Z</time>
      </trkpt>
      <trkpt lat="47.08646" lon="2.36117">
        <ele>133</ele>
        <time>2021-08-11T13:50:19Z</time>
      </trkpt>
      <trkpt lat="47.08646" lon="2.36101">
        <ele>133</ele>
        <time>2021-08-11T13:50:19Z</time>
      </trkpt>
      <trkpt lat="47.08646" lon="2.36094">
        <ele>133</ele>
        <time>2021-08-11T13:50:19Z</time>
      </trkpt>
      <trkpt lat="47.08646" lon="2.36086">
        <ele>133</ele>
        <time>2021-08-11T13:50:19Z</time>
      </trkpt>
      <trkpt lat="47.08645" lon="2.36078">
        <ele>133</ele>
        <time>2021-08-11T13:50:19Z</time>
      </trkpt>
      <trkpt lat="47.08645" lon="2.36072">
        <ele>133</ele>
        <time>2021-08-11T13:50:19Z</time>
      </trkpt>
      <trkpt lat="47.08645" lon="2.36065">
        <ele>133</ele>
        <time>2021-08-11T13:50:19Z</time>
      </trkpt>
      <trkpt lat="47.08645" lon="2.36057">
        <ele>132</ele>
        <time>2021-08-11T13:50:19Z</time>
      </trkpt>
      <trkpt lat="47.08645" lon="2.36049">
        <ele>132</ele>
        <time>2021-08-11T13:50:19Z</time>
      </trkpt>
      <trkpt lat="47.08645" lon="2.36042">
        <ele>132</ele>
        <time>2021-08-11T13:50:19Z</time>
      </trkpt>
      <trkpt lat="47.08644" lon="2.36035">
        <ele>133</ele>
        <time>2021-08-11T13:50:19Z</time>
      </trkpt>
      <trkpt lat="47.08644" lon="2.36029">
        <ele>132</ele>
        <time>2021-08-11T13:50:19Z</time>
      </trkpt>
      <trkpt lat="47.08644" lon="2.36021">
        <ele>132</ele>
        <time>2021-08-11T13:50:19Z</time>
      </trkpt>
      <trkpt lat="47.08643" lon="2.36014">
        <ele>132</ele>
        <time>2021-08-11T13:50:19Z</time>
      </trkpt>
      <trkpt lat="47.08643" lon="2.36006">
        <ele>131</ele>
        <time>2021-08-11T13:50:19Z</time>
      </trkpt>
      <trkpt lat="47.08643" lon="2.35998">
        <ele>131</ele>
        <time>2021-08-11T13:50:19Z</time>
      </trkpt>
      <trkpt lat="47.08642" lon="2.3599">
        <ele>131</ele>
        <time>2021-08-11T13:50:19Z</time>
      </trkpt>
      <trkpt lat="47.08642" lon="2.35983">
        <ele>131</ele>
        <time>2021-08-11T13:50:19Z</time>
      </trkpt>
      <trkpt lat="47.08642" lon="2.35974">
        <ele>130</ele>
        <time>2021-08-11T13:50:19Z</time>
      </trkpt>
      <trkpt lat="47.08643" lon="2.35967">
        <ele>130</ele>
        <time>2021-08-11T13:50:19Z</time>
      </trkpt>
      <trkpt lat="47.08644" lon="2.35958">
        <ele>129</ele>
        <time>2021-08-11T13:50:19Z</time>
      </trkpt>
      <trkpt lat="47.08646" lon="2.35949">
        <ele>129</ele>
        <time>2021-08-11T13:50:19Z</time>
      </trkpt>
      <trkpt lat="47.08645" lon="2.35944">
        <ele>129</ele>
        <time>2021-08-11T13:50:19Z</time>
      </trkpt>
      <trkpt lat="47.08645" lon="2.35936">
        <ele>128</ele>
        <time>2021-08-11T13:50:19Z</time>
      </trkpt>
      <trkpt lat="47.08644" lon="2.35929">
        <ele>128</ele>
        <time>2021-08-11T13:50:19Z</time>
      </trkpt>
      <trkpt lat="47.08642" lon="2.35923">
        <ele>128</ele>
        <time>2021-08-11T13:50:19Z</time>
      </trkpt>
      <trkpt lat="47.0864" lon="2.35916">
        <ele>127</ele>
        <time>2021-08-11T13:50:19Z</time>
      </trkpt>
      <trkpt lat="47.0864" lon="2.35907">
        <ele>126</ele>
        <time>2021-08-11T13:50:19Z</time>
      </trkpt>
      <trkpt lat="47.0864" lon="2.359">
        <ele>126</ele>
        <time>2021-08-11T13:50:19Z</time>
      </trkpt>
      <trkpt lat="47.0864" lon="2.35894">
        <ele>125</ele>
        <time>2021-08-11T13:50:19Z</time>
      </trkpt>
      <trkpt lat="47.08639" lon="2.35887">
        <ele>124</ele>
        <time>2021-08-11T13:50:19Z</time>
      </trkpt>
      <trkpt lat="47.08639" lon="2.35878">
        <ele>124</ele>
        <time>2021-08-11T13:50:19Z</time>
      </trkpt>
      <trkpt lat="47.08638" lon="2.35871">
        <ele>123</ele>
        <time>2021-08-11T13:50:19Z</time>
      </trkpt>
      <trkpt lat="47.08635" lon="2.35865">
        <ele>123</ele>
        <time>2021-08-11T13:50:19Z</time>
      </trkpt>
      <trkpt lat="47.08634" lon="2.3586">
        <ele>123</ele>
        <time>2021-08-11T13:50:19Z</time>
      </trkpt>
      <trkpt lat="47.08631" lon="2.35852">
        <ele>124</ele>
        <time>2021-08-11T13:50:19Z</time>
      </trkpt>
      <trkpt lat="47.08628" lon="2.35845">
        <ele>124</ele>
        <time>2021-08-11T13:50:19Z</time>
      </trkpt>
      <trkpt lat="47.08627" lon="2.3584">
        <ele>124</ele>
        <time>2021-08-11T13:50:19Z</time>
      </trkpt>
      <trkpt lat="47.08625" lon="2.35834">
        <ele>125</ele>
        <time>2021-08-11T13:50:19Z</time>
      </trkpt>
      <trkpt lat="47.08623" lon="2.35828">
        <ele>125</ele>
        <time>2021-08-11T13:50:19Z</time>
      </trkpt>
      <trkpt lat="47.0862" lon="2.35823">
        <ele>125</ele>
        <time>2021-08-11T13:50:19Z</time>
      </trkpt>
      <trkpt lat="47.08616" lon="2.35817">
        <ele>126</ele>
        <time>2021-08-11T13:50:19Z</time>
      </trkpt>
      <trkpt lat="47.08612" lon="2.35812">
        <ele>127</ele>
        <time>2021-08-11T13:50:19Z</time>
      </trkpt>
      <trkpt lat="47.08609" lon="2.35806">
        <ele>127</ele>
        <time>2021-08-11T13:50:19Z</time>
      </trkpt>
      <trkpt lat="47.08606" lon="2.35803">
        <ele>127</ele>
        <time>2021-08-11T13:50:19Z</time>
      </trkpt>
      <trkpt lat="47.08604" lon="2.35795">
        <ele>127</ele>
        <time>2021-08-11T13:50:19Z</time>
      </trkpt>
      <trkpt lat="47.08601" lon="2.35787">
        <ele>128</ele>
        <time>2021-08-11T13:50:19Z</time>
      </trkpt>
      <trkpt lat="47.08597" lon="2.35782">
        <ele>128</ele>
        <time>2021-08-11T13:50:19Z</time>
      </trkpt>
      <trkpt lat="47.08596" lon="2.35774">
        <ele>128</ele>
        <time>2021-08-11T13:50:19Z</time>
      </trkpt>
      <trkpt lat="47.08596" lon="2.35768">
        <ele>128</ele>
        <time>2021-08-11T13:50:19Z</time>
      </trkpt>
      <trkpt lat="47.08593" lon="2.35761">
        <ele>129</ele>
        <time>2021-08-11T13:50:19Z</time>
      </trkpt>
      <trkpt lat="47.08591" lon="2.35755">
        <ele>129</ele>
        <time>2021-08-11T13:50:19Z</time>
      </trkpt>
      <trkpt lat="47.08588" lon="2.35748">
        <ele>129</ele>
        <time>2021-08-11T13:50:19Z</time>
      </trkpt>
      <trkpt lat="47.08585" lon="2.35741">
        <ele>130</ele>
        <time>2021-08-11T13:50:19Z</time>
      </trkpt>
      <trkpt lat="47.08582" lon="2.35734">
        <ele>131</ele>
        <time>2021-08-11T13:50:19Z</time>
      </trkpt>
      <trkpt lat="47.08581" lon="2.35729">
        <ele>131</ele>
        <time>2021-08-11T13:50:19Z</time>
      </trkpt>
      <trkpt lat="47.08578" lon="2.35723">
        <ele>132</ele>
        <time>2021-08-11T13:50:19Z</time>
      </trkpt>
      <trkpt lat="47.08576" lon="2.35716">
        <ele>132</ele>
        <time>2021-08-11T13:50:19Z</time>
      </trkpt>
      <trkpt lat="47.08574" lon="2.35709">
        <ele>132</ele>
        <time>2021-08-11T13:50:19Z</time>
      </trkpt>
      <trkpt lat="47.08572" lon="2.35703">
        <ele>132</ele>
        <time>2021-08-11T13:50:19Z</time>
      </trkpt>
      <trkpt lat="47.08569" lon="2.35696">
        <ele>132</ele>
        <time>2021-08-11T13:50:19Z</time>
      </trkpt>
      <trkpt lat="47.08567" lon="2.35689">
        <ele>132</ele>
        <time>2021-08-11T13:50:19Z</time>
      </trkpt>
      <trkpt lat="47.08566" lon="2.35682">
        <ele>132</ele>
        <time>2021-08-11T13:50:19Z</time>
      </trkpt>
      <trkpt lat="47.08563" lon="2.35674">
        <ele>132</ele>
        <time>2021-08-11T13:50:19Z</time>
      </trkpt>
      <trkpt lat="47.08561" lon="2.35668">
        <ele>132</ele>
        <time>2021-08-11T13:50:19Z</time>
      </trkpt>
      <trkpt lat="47.08558" lon="2.35661">
        <ele>132</ele>
        <time>2021-08-11T13:50:19Z</time>
      </trkpt>
      <trkpt lat="47.08542" lon="2.3563">
        <ele>129</ele>
        <time>2021-08-11T13:50:19Z</time>
      </trkpt>
      <trkpt lat="47.08533" lon="2.35598">
        <ele>127</ele>
        <time>2021-08-11T13:50:19Z</time>
      </trkpt>
      <trkpt lat="47.0853" lon="2.35592">
        <ele>127</ele>
        <time>2021-08-11T13:50:19Z</time>
      </trkpt>
      <trkpt lat="47.08528" lon="2.35587">
        <ele>127</ele>
        <time>2021-08-11T13:50:19Z</time>
      </trkpt>
      <trkpt lat="47.08526" lon="2.35582">
        <ele>126</ele>
        <time>2021-08-11T13:50:19Z</time>
      </trkpt>
      <trkpt lat="47.08525" lon="2.35577">
        <ele>126</ele>
        <time>2021-08-11T13:50:19Z</time>
      </trkpt>
      <trkpt lat="47.08524" lon="2.35573">
        <ele>126</ele>
        <time>2021-08-11T13:50:19Z</time>
      </trkpt>
      <trkpt lat="47.08524" lon="2.35571">
        <ele>126</ele>
        <time>2021-08-11T13:50:19Z</time>
      </trkpt>
      <trkpt lat="47.08525" lon="2.35571">
        <ele>126</ele>
        <time>2021-08-11T13:50:19Z</time>
      </trkpt>
      <trkpt lat="47.08525" lon="2.35571">
        <ele>126</ele>
        <time>2021-08-11T13:50:19Z</time>
      </trkpt>
      <trkpt lat="47.08525" lon="2.35571">
        <ele>126</ele>
        <time>2021-08-11T13:50:19Z</time>
      </trkpt>
      <trkpt lat="47.08526" lon="2.35571">
        <ele>126</ele>
        <time>2021-08-11T13:50:19Z</time>
      </trkpt>
      <trkpt lat="47.08526" lon="2.35571">
        <ele>126</ele>
        <time>2021-08-11T13:50:19Z</time>
      </trkpt>
      <trkpt lat="47.08526" lon="2.35571">
        <ele>126</ele>
        <time>2021-08-11T13:50:19Z</time>
      </trkpt>
      <trkpt lat="47.08526" lon="2.3557">
        <ele>126</ele>
        <time>2021-08-11T13:50:19Z</time>
      </trkpt>
      <trkpt lat="47.08526" lon="2.3557">
        <ele>126</ele>
        <time>2021-08-11T13:50:19Z</time>
      </trkpt>
      <trkpt lat="47.08526" lon="2.3557">
        <ele>126</ele>
        <time>2021-08-11T13:50:19Z</time>
      </trkpt>
      <trkpt lat="47.08526" lon="2.3557">
        <ele>126</ele>
        <time>2021-08-11T13:50:19Z</time>
      </trkpt>
      <trkpt lat="47.08526" lon="2.3557">
        <ele>126</ele>
        <time>2021-08-11T13:50:19Z</time>
      </trkpt>
      <trkpt lat="47.08526" lon="2.3557">
        <ele>126</ele>
        <time>2021-08-11T13:50:19Z</time>
      </trkpt>
      <trkpt lat="47.08526" lon="2.35569">
        <ele>125</ele>
        <time>2021-08-11T13:50:19Z</time>
      </trkpt>
      <trkpt lat="47.08526" lon="2.35568">
        <ele>125</ele>
        <time>2021-08-11T13:50:19Z</time>
      </trkpt>
      <trkpt lat="47.08525" lon="2.35566">
        <ele>125</ele>
        <time>2021-08-11T13:50:19Z</time>
      </trkpt>
      <trkpt lat="47.08524" lon="2.35563">
        <ele>125</ele>
        <time>2021-08-11T13:50:19Z</time>
      </trkpt>
      <trkpt lat="47.08525" lon="2.35559">
        <ele>125</ele>
        <time>2021-08-11T13:50:19Z</time>
      </trkpt>
      <trkpt lat="47.08525" lon="2.35555">
        <ele>124</ele>
        <time>2021-08-11T13:50:19Z</time>
      </trkpt>
      <trkpt lat="47.08525" lon="2.3555">
        <ele>124</ele>
        <time>2021-08-11T13:50:19Z</time>
      </trkpt>
      <trkpt lat="47.08524" lon="2.35545">
        <ele>124</ele>
        <time>2021-08-11T13:50:19Z</time>
      </trkpt>
      <trkpt lat="47.08516" lon="2.35517">
        <ele>123</ele>
        <time>2021-08-11T13:50:19Z</time>
      </trkpt>
      <trkpt lat="47.08513" lon="2.35484">
        <ele>122</ele>
        <time>2021-08-11T13:50:19Z</time>
      </trkpt>
      <trkpt lat="47.08512" lon="2.35447">
        <ele>122</ele>
        <time>2021-08-11T13:50:19Z</time>
      </trkpt>
      <trkpt lat="47.0851" lon="2.35407">
        <ele>122</ele>
        <time>2021-08-11T13:50:19Z</time>
      </trkpt>
      <trkpt lat="47.08506" lon="2.35364">
        <ele>121</ele>
        <time>2021-08-11T13:50:19Z</time>
      </trkpt>
      <trkpt lat="47.08504" lon="2.35329">
        <ele>121</ele>
        <time>2021-08-11T13:50:19Z</time>
      </trkpt>
      <trkpt lat="47.08503" lon="2.35321">
        <ele>122</ele>
        <time>2021-08-11T13:50:19Z</time>
      </trkpt>
      <trkpt lat="47.08499" lon="2.35278">
        <ele>124</ele>
        <time>2021-08-11T13:50:19Z</time>
      </trkpt>
      <trkpt lat="47.08493" lon="2.35236">
        <ele>125</ele>
        <time>2021-08-11T13:50:19Z</time>
      </trkpt>
      <trkpt lat="47.0849" lon="2.35191">
        <ele>124</ele>
        <time>2021-08-11T13:50:19Z</time>
      </trkpt>
      <trkpt lat="47.08485" lon="2.35143">
        <ele>123</ele>
        <time>2021-08-11T13:50:19Z</time>
      </trkpt>
      <trkpt lat="47.0848" lon="2.35097">
        <ele>124</ele>
        <time>2021-08-11T13:50:19Z</time>
      </trkpt>
      <trkpt lat="47.08478" lon="2.3506">
        <ele>125</ele>
        <time>2021-08-11T13:50:19Z</time>
      </trkpt>
      <trkpt lat="47.08477" lon="2.35051">
        <ele>125</ele>
        <time>2021-08-11T13:50:19Z</time>
      </trkpt>
      <trkpt lat="47.08474" lon="2.35005">
        <ele>124</ele>
        <time>2021-08-11T13:50:19Z</time>
      </trkpt>
      <trkpt lat="47.0847" lon="2.34959">
        <ele>123</ele>
        <time>2021-08-11T13:50:19Z</time>
      </trkpt>
      <trkpt lat="47.08465" lon="2.34915">
        <ele>122</ele>
        <time>2021-08-11T13:50:19Z</time>
      </trkpt>
      <trkpt lat="47.08461" lon="2.3487">
        <ele>124</ele>
        <time>2021-08-11T13:50:19Z</time>
      </trkpt>
      <trkpt lat="47.08455" lon="2.34828">
        <ele>127</ele>
        <time>2021-08-11T13:50:19Z</time>
      </trkpt>
      <trkpt lat="47.08452" lon="2.34791">
        <ele>128</ele>
        <time>2021-08-11T13:50:19Z</time>
      </trkpt>
      <trkpt lat="47.08452" lon="2.34782">
        <ele>127</ele>
        <time>2021-08-11T13:50:19Z</time>
      </trkpt>
      <trkpt lat="47.08452" lon="2.34772">
        <ele>127</ele>
        <time>2021-08-11T13:50:19Z</time>
      </trkpt>
      <trkpt lat="47.08452" lon="2.34763">
        <ele>127</ele>
        <time>2021-08-11T13:50:19Z</time>
      </trkpt>
      <trkpt lat="47.08452" lon="2.34754">
        <ele>126</ele>
        <time>2021-08-11T13:50:19Z</time>
      </trkpt>
      <trkpt lat="47.08451" lon="2.34745">
        <ele>126</ele>
        <time>2021-08-11T13:50:19Z</time>
      </trkpt>
      <trkpt lat="47.08451" lon="2.34736">
        <ele>126</ele>
        <time>2021-08-11T13:50:19Z</time>
      </trkpt>
      <trkpt lat="47.08451" lon="2.34727">
        <ele>126</ele>
        <time>2021-08-11T13:50:19Z</time>
      </trkpt>
      <trkpt lat="47.08451" lon="2.34718">
        <ele>126</ele>
        <time>2021-08-11T13:50:19Z</time>
      </trkpt>
      <trkpt lat="47.08451" lon="2.34708">
        <ele>126</ele>
        <time>2021-08-11T13:50:19Z</time>
      </trkpt>
      <trkpt lat="47.08451" lon="2.34699">
        <ele>126</ele>
        <time>2021-08-11T13:50:19Z</time>
      </trkpt>
      <trkpt lat="47.08452" lon="2.3469">
        <ele>126</ele>
        <time>2021-08-11T13:50:19Z</time>
      </trkpt>
      <trkpt lat="47.08452" lon="2.34681">
        <ele>127</ele>
        <time>2021-08-11T13:50:19Z</time>
      </trkpt>
      <trkpt lat="47.08453" lon="2.34672">
        <ele>127</ele>
        <time>2021-08-11T13:50:19Z</time>
      </trkpt>
      <trkpt lat="47.08453" lon="2.34663">
        <ele>127</ele>
        <time>2021-08-11T13:50:19Z</time>
      </trkpt>
      <trkpt lat="47.08454" lon="2.34654">
        <ele>127</ele>
        <time>2021-08-11T13:50:19Z</time>
      </trkpt>
      <trkpt lat="47.08454" lon="2.34645">
        <ele>127</ele>
        <time>2021-08-11T13:50:19Z</time>
      </trkpt>
      <trkpt lat="47.08454" lon="2.34635">
        <ele>127</ele>
        <time>2021-08-11T13:50:19Z</time>
      </trkpt>
      <trkpt lat="47.08455" lon="2.34626">
        <ele>127</ele>
        <time>2021-08-11T13:50:19Z</time>
      </trkpt>
      <trkpt lat="47.08456" lon="2.34616">
        <ele>126</ele>
        <time>2021-08-11T13:50:19Z</time>
      </trkpt>
      <trkpt lat="47.08456" lon="2.34607">
        <ele>126</ele>
        <time>2021-08-11T13:50:19Z</time>
      </trkpt>
      <trkpt lat="47.08457" lon="2.34598">
        <ele>125</ele>
        <time>2021-08-11T13:50:19Z</time>
      </trkpt>
      <trkpt lat="47.08457" lon="2.34587">
        <ele>125</ele>
        <time>2021-08-11T13:50:19Z</time>
      </trkpt>
      <trkpt lat="47.08457" lon="2.34578">
        <ele>124</ele>
        <time>2021-08-11T13:50:19Z</time>
      </trkpt>
      <trkpt lat="47.08458" lon="2.34568">
        <ele>124</ele>
        <time>2021-08-11T13:50:19Z</time>
      </trkpt>
      <trkpt lat="47.08458" lon="2.34559">
        <ele>124</ele>
        <time>2021-08-11T13:50:19Z</time>
      </trkpt>
      <trkpt lat="47.08459" lon="2.3455">
        <ele>124</ele>
        <time>2021-08-11T13:50:19Z</time>
      </trkpt>
      <trkpt lat="47.0846" lon="2.3454">
        <ele>124</ele>
        <time>2021-08-11T13:50:19Z</time>
      </trkpt>
      <trkpt lat="47.0846" lon="2.34531">
        <ele>124</ele>
        <time>2021-08-11T13:50:19Z</time>
      </trkpt>
      <trkpt lat="47.0846" lon="2.34522">
        <ele>124</ele>
        <time>2021-08-11T13:50:19Z</time>
      </trkpt>
      <trkpt lat="47.08461" lon="2.34513">
        <ele>124</ele>
        <time>2021-08-11T13:50:19Z</time>
      </trkpt>
      <trkpt lat="47.08461" lon="2.34503">
        <ele>124</ele>
        <time>2021-08-11T13:50:19Z</time>
      </trkpt>
      <trkpt lat="47.08461" lon="2.34494">
        <ele>124</ele>
        <time>2021-08-11T13:50:19Z</time>
      </trkpt>
      <trkpt lat="47.08462" lon="2.34484">
        <ele>124</ele>
        <time>2021-08-11T13:50:19Z</time>
      </trkpt>
      <trkpt lat="47.08462" lon="2.34475">
        <ele>124</ele>
        <time>2021-08-11T13:50:19Z</time>
      </trkpt>
      <trkpt lat="47.08462" lon="2.34466">
        <ele>124</ele>
        <time>2021-08-11T13:50:19Z</time>
      </trkpt>
      <trkpt lat="47.08462" lon="2.34457">
        <ele>124</ele>
        <time>2021-08-11T13:50:19Z</time>
      </trkpt>
      <trkpt lat="47.08463" lon="2.34448">
        <ele>124</ele>
        <time>2021-08-11T13:50:19Z</time>
      </trkpt>
      <trkpt lat="47.08463" lon="2.3444">
        <ele>123</ele>
        <time>2021-08-11T13:50:19Z</time>
      </trkpt>
      <trkpt lat="47.08463" lon="2.3443">
        <ele>123</ele>
        <time>2021-08-11T13:50:19Z</time>
      </trkpt>
      <trkpt lat="47.08463" lon="2.3442">
        <ele>122</ele>
        <time>2021-08-11T13:50:19Z</time>
      </trkpt>
      <trkpt lat="47.08463" lon="2.34412">
        <ele>122</ele>
        <time>2021-08-11T13:50:19Z</time>
      </trkpt>
      <trkpt lat="47.08463" lon="2.34403">
        <ele>122</ele>
        <time>2021-08-11T13:50:19Z</time>
      </trkpt>
      <trkpt lat="47.08463" lon="2.34394">
        <ele>121</ele>
        <time>2021-08-11T13:50:19Z</time>
      </trkpt>
      <trkpt lat="47.08463" lon="2.34385">
        <ele>121</ele>
        <time>2021-08-11T13:50:19Z</time>
      </trkpt>
      <trkpt lat="47.08462" lon="2.34376">
        <ele>121</ele>
        <time>2021-08-11T13:50:19Z</time>
      </trkpt>
      <trkpt lat="47.08462" lon="2.34367">
        <ele>120</ele>
        <time>2021-08-11T13:50:19Z</time>
      </trkpt>
      <trkpt lat="47.08461" lon="2.34359">
        <ele>120</ele>
        <time>2021-08-11T13:50:19Z</time>
      </trkpt>
      <trkpt lat="47.08461" lon="2.3435">
        <ele>120</ele>
        <time>2021-08-11T13:50:19Z</time>
      </trkpt>
      <trkpt lat="47.08461" lon="2.34342">
        <ele>120</ele>
        <time>2021-08-11T13:50:19Z</time>
      </trkpt>
      <trkpt lat="47.0846" lon="2.34334">
        <ele>119</ele>
        <time>2021-08-11T13:50:19Z</time>
      </trkpt>
      <trkpt lat="47.08459" lon="2.34327">
        <ele>120</ele>
        <time>2021-08-11T13:50:19Z</time>
      </trkpt>
      <trkpt lat="47.08459" lon="2.3432">
        <ele>120</ele>
        <time>2021-08-11T13:50:19Z</time>
      </trkpt>
      <trkpt lat="47.08459" lon="2.34313">
        <ele>120</ele>
        <time>2021-08-11T13:50:19Z</time>
      </trkpt>
      <trkpt lat="47.08459" lon="2.34307">
        <ele>120</ele>
        <time>2021-08-11T13:50:19Z</time>
      </trkpt>
      <trkpt lat="47.08458" lon="2.34299">
        <ele>120</ele>
        <time>2021-08-11T13:50:19Z</time>
      </trkpt>
      <trkpt lat="47.08457" lon="2.34294">
        <ele>121</ele>
        <time>2021-08-11T13:50:19Z</time>
      </trkpt>
      <trkpt lat="47.08457" lon="2.34288">
        <ele>121</ele>
        <time>2021-08-11T13:50:19Z</time>
      </trkpt>
      <trkpt lat="47.08457" lon="2.34284">
        <ele>121</ele>
        <time>2021-08-11T13:50:19Z</time>
      </trkpt>
      <trkpt lat="47.08457" lon="2.34279">
        <ele>122</ele>
        <time>2021-08-11T13:50:19Z</time>
      </trkpt>
      <trkpt lat="47.08456" lon="2.34276">
        <ele>122</ele>
        <time>2021-08-11T13:50:19Z</time>
      </trkpt>
      <trkpt lat="47.08455" lon="2.34274">
        <ele>122</ele>
        <time>2021-08-11T13:50:19Z</time>
      </trkpt>
      <trkpt lat="47.08454" lon="2.34273">
        <ele>122</ele>
        <time>2021-08-11T13:50:19Z</time>
      </trkpt>
      <trkpt lat="47.08445" lon="2.34272">
        <ele>122</ele>
        <time>2021-08-11T13:50:19Z</time>
      </trkpt>
      <trkpt lat="47.08443" lon="2.34239">
        <ele>123</ele>
        <time>2021-08-11T13:50:19Z</time>
      </trkpt>
      <trkpt lat="47.08442" lon="2.34195">
        <ele>122</ele>
        <time>2021-08-11T13:50:19Z</time>
      </trkpt>
      <trkpt lat="47.08442" lon="2.34151">
        <ele>121</ele>
        <time>2021-08-11T13:50:19Z</time>
      </trkpt>
      <trkpt lat="47.08441" lon="2.34107">
        <ele>121</ele>
        <time>2021-08-11T13:50:19Z</time>
      </trkpt>
      <trkpt lat="47.0844" lon="2.3407">
        <ele>119</ele>
        <time>2021-08-11T13:50:19Z</time>
      </trkpt>
      <trkpt lat="47.0844" lon="2.34061">
        <ele>119</ele>
        <time>2021-08-11T13:50:19Z</time>
      </trkpt>
      <trkpt lat="47.0844" lon="2.34018">
        <ele>119</ele>
        <time>2021-08-11T13:50:19Z</time>
      </trkpt>
      <trkpt lat="47.08439" lon="2.33973">
        <ele>120</ele>
        <time>2021-08-11T13:50:19Z</time>
      </trkpt>
      <trkpt lat="47.08438" lon="2.33927">
        <ele>120</ele>
        <time>2021-08-11T13:50:19Z</time>
      </trkpt>
      <trkpt lat="47.08438" lon="2.33882">
        <ele>120</ele>
        <time>2021-08-11T13:50:19Z</time>
      </trkpt>
      <trkpt lat="47.08437" lon="2.33839">
        <ele>122</ele>
        <time>2021-08-11T13:50:19Z</time>
      </trkpt>
      <trkpt lat="47.08435" lon="2.33804">
        <ele>124</ele>
        <time>2021-08-11T13:50:19Z</time>
      </trkpt>
      <trkpt lat="47.08435" lon="2.33795">
        <ele>124</ele>
        <time>2021-08-11T13:50:19Z</time>
      </trkpt>
      <trkpt lat="47.08435" lon="2.33751">
        <ele>123</ele>
        <time>2021-08-11T13:50:19Z</time>
      </trkpt>
      <trkpt lat="47.08433" lon="2.33709">
        <ele>120</ele>
        <time>2021-08-11T13:50:19Z</time>
      </trkpt>
      <trkpt lat="47.08433" lon="2.33665">
        <ele>119</ele>
        <time>2021-08-11T13:50:19Z</time>
      </trkpt>
      <trkpt lat="47.08435" lon="2.3362">
        <ele>121</ele>
        <time>2021-08-11T13:50:19Z</time>
      </trkpt>
      <trkpt lat="47.0844" lon="2.33575">
        <ele>122</ele>
        <time>2021-08-11T13:50:19Z</time>
      </trkpt>
      <trkpt lat="47.08445" lon="2.33539">
        <ele>123</ele>
        <time>2021-08-11T13:50:19Z</time>
      </trkpt>
      <trkpt lat="47.08446" lon="2.3353">
        <ele>123</ele>
        <time>2021-08-11T13:50:19Z</time>
      </trkpt>
      <trkpt lat="47.08448" lon="2.33521">
        <ele>123</ele>
        <time>2021-08-11T13:50:19Z</time>
      </trkpt>
      <trkpt lat="47.08449" lon="2.33512">
        <ele>123</ele>
        <time>2021-08-11T13:50:19Z</time>
      </trkpt>
      <trkpt lat="47.08451" lon="2.33503">
        <ele>122</ele>
        <time>2021-08-11T13:50:19Z</time>
      </trkpt>
      <trkpt lat="47.08453" lon="2.33495">
        <ele>122</ele>
        <time>2021-08-11T13:50:19Z</time>
      </trkpt>
      <trkpt lat="47.08455" lon="2.33486">
        <ele>122</ele>
        <time>2021-08-11T13:50:19Z</time>
      </trkpt>
      <trkpt lat="47.08457" lon="2.33477">
        <ele>122</ele>
        <time>2021-08-11T13:50:19Z</time>
      </trkpt>
      <trkpt lat="47.08459" lon="2.33469">
        <ele>122</ele>
        <time>2021-08-11T13:50:19Z</time>
      </trkpt>
      <trkpt lat="47.08461" lon="2.33459">
        <ele>122</ele>
        <time>2021-08-11T13:50:19Z</time>
      </trkpt>
      <trkpt lat="47.08463" lon="2.33451">
        <ele>122</ele>
        <time>2021-08-11T13:50:19Z</time>
      </trkpt>
      <trkpt lat="47.08464" lon="2.33442">
        <ele>122</ele>
        <time>2021-08-11T13:50:19Z</time>
      </trkpt>
      <trkpt lat="47.08467" lon="2.33433">
        <ele>122</ele>
        <time>2021-08-11T13:50:19Z</time>
      </trkpt>
      <trkpt lat="47.08468" lon="2.33424">
        <ele>122</ele>
        <time>2021-08-11T13:50:19Z</time>
      </trkpt>
      <trkpt lat="47.0847" lon="2.33416">
        <ele>121</ele>
        <time>2021-08-11T13:50:19Z</time>
      </trkpt>
      <trkpt lat="47.08472" lon="2.33407">
        <ele>121</ele>
        <time>2021-08-11T13:50:19Z</time>
      </trkpt>
      <trkpt lat="47.08474" lon="2.33399">
        <ele>121</ele>
        <time>2021-08-11T13:50:19Z</time>
      </trkpt>
      <trkpt lat="47.08476" lon="2.3339">
        <ele>121</ele>
        <time>2021-08-11T13:50:19Z</time>
      </trkpt>
      <trkpt lat="47.08478" lon="2.33382">
        <ele>121</ele>
        <time>2021-08-11T13:50:19Z</time>
      </trkpt>
      <trkpt lat="47.08488" lon="2.33341">
        <ele>122</ele>
        <time>2021-08-11T13:50:19Z</time>
      </trkpt>
      <trkpt lat="47.08497" lon="2.33299">
        <ele>122</ele>
        <time>2021-08-11T13:50:19Z</time>
      </trkpt>
      <trkpt lat="47.08507" lon="2.33256">
        <ele>121</ele>
        <time>2021-08-11T13:50:19Z</time>
      </trkpt>
      <trkpt lat="47.08517" lon="2.33213">
        <ele>121</ele>
        <time>2021-08-11T13:50:19Z</time>
      </trkpt>
      <trkpt lat="47.08528" lon="2.33169">
        <ele>121</ele>
        <time>2021-08-11T13:50:19Z</time>
      </trkpt>
      <trkpt lat="47.08536" lon="2.33133">
        <ele>121</ele>
        <time>2021-08-11T13:50:19Z</time>
      </trkpt>
      <trkpt lat="47.08538" lon="2.33124">
        <ele>121</ele>
        <time>2021-08-11T13:50:19Z</time>
      </trkpt>
      <trkpt lat="47.08548" lon="2.3308">
        <ele>122</ele>
        <time>2021-08-11T13:50:19Z</time>
      </trkpt>
      <trkpt lat="47.0856" lon="2.33035">
        <ele>122</ele>
        <time>2021-08-11T13:50:19Z</time>
      </trkpt>
      <trkpt lat="47.0857" lon="2.32992">
        <ele>122</ele>
        <time>2021-08-11T13:50:19Z</time>
      </trkpt>
      <trkpt lat="47.08579" lon="2.32949">
        <ele>121</ele>
        <time>2021-08-11T13:50:19Z</time>
      </trkpt>
      <trkpt lat="47.0859" lon="2.32906">
        <ele>122</ele>
        <time>2021-08-11T13:50:19Z</time>
      </trkpt>
      <trkpt lat="47.08598" lon="2.32871">
        <ele>123</ele>
        <time>2021-08-11T13:50:19Z</time>
      </trkpt>
      <trkpt lat="47.086" lon="2.32862">
        <ele>123</ele>
        <time>2021-08-11T13:50:19Z</time>
      </trkpt>
      <trkpt lat="47.08609" lon="2.32823">
        <ele>123</ele>
        <time>2021-08-11T13:50:19Z</time>
      </trkpt>
      <trkpt lat="47.08616" lon="2.32794">
        <ele>122</ele>
        <time>2021-08-11T13:50:19Z</time>
      </trkpt>
      <trkpt lat="47.08625" lon="2.32757">
        <ele>121</ele>
        <time>2021-08-11T13:50:19Z</time>
      </trkpt>
      <trkpt lat="47.08636" lon="2.32717">
        <ele>120</ele>
        <time>2021-08-11T13:50:19Z</time>
      </trkpt>
      <trkpt lat="47.08645" lon="2.32673">
        <ele>119</ele>
        <time>2021-08-11T13:50:19Z</time>
      </trkpt>
      <trkpt lat="47.08653" lon="2.32639">
        <ele>118</ele>
        <time>2021-08-11T13:50:19Z</time>
      </trkpt>
      <trkpt lat="47.08656" lon="2.3263">
        <ele>118</ele>
        <time>2021-08-11T13:50:19Z</time>
      </trkpt>
      <trkpt lat="47.08666" lon="2.32587">
        <ele>119</ele>
        <time>2021-08-11T13:50:19Z</time>
      </trkpt>
      <trkpt lat="47.08676" lon="2.32544">
        <ele>120</ele>
        <time>2021-08-11T13:50:19Z</time>
      </trkpt>
      <trkpt lat="47.08686" lon="2.325">
        <ele>119</ele>
        <time>2021-08-11T13:50:19Z</time>
      </trkpt>
      <trkpt lat="47.08697" lon="2.32457">
        <ele>120</ele>
        <time>2021-08-11T13:50:19Z</time>
      </trkpt>
      <trkpt lat="47.08707" lon="2.32413">
        <ele>121</ele>
        <time>2021-08-11T13:50:19Z</time>
      </trkpt>
      <trkpt lat="47.08716" lon="2.32377">
        <ele>121</ele>
        <time>2021-08-11T13:50:19Z</time>
      </trkpt>
      <trkpt lat="47.08718" lon="2.32368">
        <ele>121</ele>
        <time>2021-08-11T13:50:19Z</time>
      </trkpt>
      <trkpt lat="47.0872" lon="2.32359">
        <ele>121</ele>
        <time>2021-08-11T13:50:19Z</time>
      </trkpt>
      <trkpt lat="47.08722" lon="2.3235">
        <ele>120</ele>
        <time>2021-08-11T13:50:19Z</time>
      </trkpt>
      <trkpt lat="47.08724" lon="2.32341">
        <ele>120</ele>
        <time>2021-08-11T13:50:19Z</time>
      </trkpt>
      <trkpt lat="47.08725" lon="2.32333">
        <ele>120</ele>
        <time>2021-08-11T13:50:19Z</time>
      </trkpt>
      <trkpt lat="47.08728" lon="2.32324">
        <ele>120</ele>
        <time>2021-08-11T13:50:19Z</time>
      </trkpt>
      <trkpt lat="47.0873" lon="2.32315">
        <ele>120</ele>
        <time>2021-08-11T13:50:19Z</time>
      </trkpt>
      <trkpt lat="47.08732" lon="2.32306">
        <ele>120</ele>
        <time>2021-08-11T13:50:19Z</time>
      </trkpt>
      <trkpt lat="47.08734" lon="2.32297">
        <ele>121</ele>
        <time>2021-08-11T13:50:19Z</time>
      </trkpt>
      <trkpt lat="47.08736" lon="2.32289">
        <ele>121</ele>
        <time>2021-08-11T13:50:19Z</time>
      </trkpt>
      <trkpt lat="47.08738" lon="2.3228">
        <ele>121</ele>
        <time>2021-08-11T13:50:19Z</time>
      </trkpt>
      <trkpt lat="47.0874" lon="2.32272">
        <ele>121</ele>
        <time>2021-08-11T13:50:19Z</time>
      </trkpt>
      <trkpt lat="47.08742" lon="2.32264">
        <ele>121</ele>
        <time>2021-08-11T13:50:19Z</time>
      </trkpt>
      <trkpt lat="47.08751" lon="2.32223">
        <ele>120</ele>
        <time>2021-08-11T13:50:19Z</time>
      </trkpt>
      <trkpt lat="47.08762" lon="2.3218">
        <ele>120</ele>
        <time>2021-08-11T13:50:19Z</time>
      </trkpt>
      <trkpt lat="47.08773" lon="2.32138">
        <ele>121</ele>
        <time>2021-08-11T13:50:19Z</time>
      </trkpt>
      <trkpt lat="47.08783" lon="2.32095">
        <ele>120</ele>
        <time>2021-08-11T13:50:19Z</time>
      </trkpt>
      <trkpt lat="47.08793" lon="2.32052">
        <ele>122</ele>
        <time>2021-08-11T13:50:19Z</time>
      </trkpt>
      <trkpt lat="47.08802" lon="2.32017">
        <ele>122</ele>
        <time>2021-08-11T13:50:19Z</time>
      </trkpt>
      <trkpt lat="47.08804" lon="2.32008">
        <ele>122</ele>
        <time>2021-08-11T13:50:19Z</time>
      </trkpt>
      <trkpt lat="47.08815" lon="2.31964">
        <ele>122</ele>
        <time>2021-08-11T13:50:19Z</time>
      </trkpt>
      <trkpt lat="47.08827" lon="2.31922">
        <ele>121</ele>
        <time>2021-08-11T13:50:19Z</time>
      </trkpt>
      <trkpt lat="47.0884" lon="2.31879">
        <ele>122</ele>
        <time>2021-08-11T13:50:19Z</time>
      </trkpt>
      <trkpt lat="47.08855" lon="2.3184">
        <ele>123</ele>
        <time>2021-08-11T13:50:19Z</time>
      </trkpt>
      <trkpt lat="47.08874" lon="2.31804">
        <ele>122</ele>
        <time>2021-08-11T13:50:19Z</time>
      </trkpt>
      <trkpt lat="47.0889" lon="2.31777">
        <ele>122</ele>
        <time>2021-08-11T13:50:19Z</time>
      </trkpt>
      <trkpt lat="47.08895" lon="2.31771">
        <ele>123</ele>
        <time>2021-08-11T13:50:19Z</time>
      </trkpt>
      <trkpt lat="47.08917" lon="2.31741">
        <ele>123</ele>
        <time>2021-08-11T13:50:19Z</time>
      </trkpt>
      <trkpt lat="47.08938" lon="2.3171">
        <ele>124</ele>
        <time>2021-08-11T13:50:19Z</time>
      </trkpt>
      <trkpt lat="47.08962" lon="2.31677">
        <ele>124</ele>
        <time>2021-08-11T13:50:19Z</time>
      </trkpt>
      <trkpt lat="47.08985" lon="2.31646">
        <ele>123</ele>
        <time>2021-08-11T13:50:19Z</time>
      </trkpt>
      <trkpt lat="47.09008" lon="2.31612">
        <ele>122</ele>
        <time>2021-08-11T13:50:19Z</time>
      </trkpt>
      <trkpt lat="47.09027" lon="2.31586">
        <ele>123</ele>
        <time>2021-08-11T13:50:19Z</time>
      </trkpt>
      <trkpt lat="47.09031" lon="2.31579">
        <ele>122</ele>
        <time>2021-08-11T13:50:19Z</time>
      </trkpt>
      <trkpt lat="47.09053" lon="2.31547">
        <ele>123</ele>
        <time>2021-08-11T13:50:19Z</time>
      </trkpt>
      <trkpt lat="47.09074" lon="2.31526">
        <ele>123</ele>
        <time>2021-08-11T13:50:19Z</time>
      </trkpt>
      <trkpt lat="47.09089" lon="2.31511">
        <ele>123</ele>
        <time>2021-08-11T13:50:19Z</time>
      </trkpt>
      <trkpt lat="47.09091" lon="2.31484">
        <ele>123</ele>
        <time>2021-08-11T13:50:19Z</time>
      </trkpt>
      <trkpt lat="47.09099" lon="2.31455">
        <ele>122</ele>
        <time>2021-08-11T13:50:19Z</time>
      </trkpt>
      <trkpt lat="47.09113" lon="2.31435">
        <ele>122</ele>
        <time>2021-08-11T13:50:19Z</time>
      </trkpt>
      <trkpt lat="47.09117" lon="2.31431">
        <ele>122</ele>
        <time>2021-08-11T13:50:19Z</time>
      </trkpt>
      <trkpt lat="47.09137" lon="2.31403">
        <ele>122</ele>
        <time>2021-08-11T13:50:19Z</time>
      </trkpt>
      <trkpt lat="47.09157" lon="2.31374">
        <ele>123</ele>
        <time>2021-08-11T13:50:19Z</time>
      </trkpt>
      <trkpt lat="47.09178" lon="2.31346">
        <ele>122</ele>
        <time>2021-08-11T13:50:19Z</time>
      </trkpt>
      <trkpt lat="47.09199" lon="2.31316">
        <ele>122</ele>
        <time>2021-08-11T13:50:19Z</time>
      </trkpt>
      <trkpt lat="47.0922" lon="2.31287">
        <ele>121</ele>
        <time>2021-08-11T13:50:19Z</time>
      </trkpt>
      <trkpt lat="47.09237" lon="2.31265">
        <ele>120</ele>
        <time>2021-08-11T13:50:19Z</time>
      </trkpt>
      <trkpt lat="47.09242" lon="2.31263">
        <ele>120</ele>
        <time>2021-08-11T13:50:19Z</time>
      </trkpt>
      <trkpt lat="47.09248" lon="2.31261">
        <ele>120</ele>
        <time>2021-08-11T13:50:19Z</time>
      </trkpt>
      <trkpt lat="47.09253" lon="2.31259">
        <ele>120</ele>
        <time>2021-08-11T13:50:19Z</time>
      </trkpt>
      <trkpt lat="47.09258" lon="2.31256">
        <ele>120</ele>
        <time>2021-08-11T13:50:19Z</time>
      </trkpt>
      <trkpt lat="47.09263" lon="2.31249">
        <ele>120</ele>
        <time>2021-08-11T13:50:19Z</time>
      </trkpt>
      <trkpt lat="47.09267" lon="2.31243">
        <ele>120</ele>
        <time>2021-08-11T13:50:19Z</time>
      </trkpt>
      <trkpt lat="47.09272" lon="2.31237">
        <ele>120</ele>
        <time>2021-08-11T13:50:19Z</time>
      </trkpt>
      <trkpt lat="47.09276" lon="2.31231">
        <ele>120</ele>
        <time>2021-08-11T13:50:19Z</time>
      </trkpt>
      <trkpt lat="47.09281" lon="2.31225">
        <ele>119</ele>
        <time>2021-08-11T13:50:19Z</time>
      </trkpt>
      <trkpt lat="47.09285" lon="2.31219">
        <ele>120</ele>
        <time>2021-08-11T13:50:19Z</time>
      </trkpt>
      <trkpt lat="47.0929" lon="2.31213">
        <ele>120</ele>
        <time>2021-08-11T13:50:19Z</time>
      </trkpt>
      <trkpt lat="47.09295" lon="2.31207">
        <ele>120</ele>
        <time>2021-08-11T13:50:19Z</time>
      </trkpt>
      <trkpt lat="47.09299" lon="2.31201">
        <ele>120</ele>
        <time>2021-08-11T13:50:19Z</time>
      </trkpt>
      <trkpt lat="47.09304" lon="2.31196">
        <ele>120</ele>
        <time>2021-08-11T13:50:19Z</time>
      </trkpt>
      <trkpt lat="47.09308" lon="2.3119">
        <ele>121</ele>
        <time>2021-08-11T13:50:19Z</time>
      </trkpt>
      <trkpt lat="47.09313" lon="2.31183">
        <ele>121</ele>
        <time>2021-08-11T13:50:19Z</time>
      </trkpt>
      <trkpt lat="47.09317" lon="2.31177">
        <ele>121</ele>
        <time>2021-08-11T13:50:19Z</time>
      </trkpt>
      <trkpt lat="47.09322" lon="2.31171">
        <ele>121</ele>
        <time>2021-08-11T13:50:19Z</time>
      </trkpt>
      <trkpt lat="47.09326" lon="2.31165">
        <ele>120</ele>
        <time>2021-08-11T13:50:19Z</time>
      </trkpt>
      <trkpt lat="47.09331" lon="2.31159">
        <ele>120</ele>
        <time>2021-08-11T13:50:19Z</time>
      </trkpt>
      <trkpt lat="47.09335" lon="2.31152">
        <ele>120</ele>
        <time>2021-08-11T13:50:19Z</time>
      </trkpt>
      <trkpt lat="47.0934" lon="2.31146">
        <ele>120</ele>
        <time>2021-08-11T13:50:19Z</time>
      </trkpt>
      <trkpt lat="47.09345" lon="2.3114">
        <ele>120</ele>
        <time>2021-08-11T13:50:19Z</time>
      </trkpt>
      <trkpt lat="47.09349" lon="2.31134">
        <ele>120</ele>
        <time>2021-08-11T13:50:19Z</time>
      </trkpt>
      <trkpt lat="47.09354" lon="2.31128">
        <ele>120</ele>
        <time>2021-08-11T13:50:19Z</time>
      </trkpt>
      <trkpt lat="47.09358" lon="2.31122">
        <ele>120</ele>
        <time>2021-08-11T13:50:19Z</time>
      </trkpt>
      <trkpt lat="47.09362" lon="2.31115">
        <ele>120</ele>
        <time>2021-08-11T13:50:19Z</time>
      </trkpt>
      <trkpt lat="47.09367" lon="2.31109">
        <ele>120</ele>
        <time>2021-08-11T13:50:19Z</time>
      </trkpt>
      <trkpt lat="47.09371" lon="2.31103">
        <ele>120</ele>
        <time>2021-08-11T13:50:19Z</time>
      </trkpt>
      <trkpt lat="47.09376" lon="2.31097">
        <ele>120</ele>
        <time>2021-08-11T13:50:19Z</time>
      </trkpt>
      <trkpt lat="47.0938" lon="2.31091">
        <ele>120</ele>
        <time>2021-08-11T13:50:19Z</time>
      </trkpt>
      <trkpt lat="47.09384" lon="2.31084">
        <ele>120</ele>
        <time>2021-08-11T13:50:19Z</time>
      </trkpt>
      <trkpt lat="47.09389" lon="2.31078">
        <ele>121</ele>
        <time>2021-08-11T13:50:19Z</time>
      </trkpt>
      <trkpt lat="47.09393" lon="2.31071">
        <ele>121</ele>
        <time>2021-08-11T13:50:19Z</time>
      </trkpt>
      <trkpt lat="47.09398" lon="2.31065">
        <ele>121</ele>
        <time>2021-08-11T13:50:19Z</time>
      </trkpt>
      <trkpt lat="47.09402" lon="2.31058">
        <ele>121</ele>
        <time>2021-08-11T13:50:19Z</time>
      </trkpt>
      <trkpt lat="47.09407" lon="2.31051">
        <ele>120</ele>
        <time>2021-08-11T13:50:19Z</time>
      </trkpt>
      <trkpt lat="47.09411" lon="2.31045">
        <ele>120</ele>
        <time>2021-08-11T13:50:19Z</time>
      </trkpt>
      <trkpt lat="47.09416" lon="2.31039">
        <ele>120</ele>
        <time>2021-08-11T13:50:19Z</time>
      </trkpt>
      <trkpt lat="47.09421" lon="2.31032">
        <ele>120</ele>
        <time>2021-08-11T13:50:19Z</time>
      </trkpt>
      <trkpt lat="47.09425" lon="2.31026">
        <ele>121</ele>
        <time>2021-08-11T13:50:19Z</time>
      </trkpt>
      <trkpt lat="47.09429" lon="2.31019">
        <ele>121</ele>
        <time>2021-08-11T13:50:19Z</time>
      </trkpt>
      <trkpt lat="47.09433" lon="2.31011">
        <ele>122</ele>
        <time>2021-08-11T13:50:19Z</time>
      </trkpt>
      <trkpt lat="47.09437" lon="2.31005">
        <ele>122</ele>
        <time>2021-08-11T13:50:19Z</time>
      </trkpt>
      <trkpt lat="47.09442" lon="2.30997">
        <ele>122</ele>
        <time>2021-08-11T13:50:19Z</time>
      </trkpt>
      <trkpt lat="47.09446" lon="2.3099">
        <ele>122</ele>
        <time>2021-08-11T13:50:19Z</time>
      </trkpt>
      <trkpt lat="47.0945" lon="2.30983">
        <ele>122</ele>
        <time>2021-08-11T13:50:19Z</time>
      </trkpt>
      <trkpt lat="47.09453" lon="2.30976">
        <ele>122</ele>
        <time>2021-08-11T13:50:19Z</time>
      </trkpt>
      <trkpt lat="47.09457" lon="2.3097">
        <ele>122</ele>
        <time>2021-08-11T13:50:19Z</time>
      </trkpt>
      <trkpt lat="47.0946" lon="2.30963">
        <ele>122</ele>
        <time>2021-08-11T13:50:19Z</time>
      </trkpt>
      <trkpt lat="47.09464" lon="2.30957">
        <ele>122</ele>
        <time>2021-08-11T13:50:19Z</time>
      </trkpt>
      <trkpt lat="47.09467" lon="2.3095">
        <ele>122</ele>
        <time>2021-08-11T13:50:19Z</time>
      </trkpt>
      <trkpt lat="47.0947" lon="2.30945">
        <ele>122</ele>
        <time>2021-08-11T13:50:19Z</time>
      </trkpt>
      <trkpt lat="47.09473" lon="2.30939">
        <ele>121</ele>
        <time>2021-08-11T13:50:19Z</time>
      </trkpt>
      <trkpt lat="47.09475" lon="2.30935">
        <ele>121</ele>
        <time>2021-08-11T13:50:19Z</time>
      </trkpt>
      <trkpt lat="47.09477" lon="2.30931">
        <ele>121</ele>
        <time>2021-08-11T13:50:19Z</time>
      </trkpt>
      <trkpt lat="47.0948" lon="2.30929">
        <ele>121</ele>
        <time>2021-08-11T13:50:19Z</time>
      </trkpt>
      <trkpt lat="47.09483" lon="2.3093">
        <ele>121</ele>
        <time>2021-08-11T13:50:19Z</time>
      </trkpt>
      <trkpt lat="47.09484" lon="2.30932">
        <ele>121</ele>
        <time>2021-08-11T13:50:19Z</time>
      </trkpt>
      <trkpt lat="47.09486" lon="2.30933">
        <ele>121</ele>
        <time>2021-08-11T13:50:19Z</time>
      </trkpt>
      <trkpt lat="47.09489" lon="2.30934">
        <ele>121</ele>
        <time>2021-08-11T13:50:19Z</time>
      </trkpt>
      <trkpt lat="47.09491" lon="2.30934">
        <ele>121</ele>
        <time>2021-08-11T13:50:19Z</time>
      </trkpt>
      <trkpt lat="47.09502" lon="2.30914">
        <ele>120</ele>
        <time>2021-08-11T13:50:19Z</time>
      </trkpt>
      <trkpt lat="47.09514" lon="2.30881">
        <ele>120</ele>
        <time>2021-08-11T13:50:19Z</time>
      </trkpt>
      <trkpt lat="47.09531" lon="2.30836">
        <ele>120</ele>
        <time>2021-08-11T13:50:19Z</time>
      </trkpt>
      <trkpt lat="47.09553" lon="2.30782">
        <ele>119</ele>
        <time>2021-08-11T13:50:19Z</time>
      </trkpt>
      <trkpt lat="47.09569" lon="2.30742">
        <ele>120</ele>
        <time>2021-08-11T13:50:19Z</time>
      </trkpt>
      <trkpt lat="47.09582" lon="2.3071">
        <ele>121</ele>
        <time>2021-08-11T13:50:19Z</time>
      </trkpt>
      <trkpt lat="47.09585" lon="2.30702">
        <ele>121</ele>
        <time>2021-08-11T13:50:19Z</time>
      </trkpt>
      <trkpt lat="47.09602" lon="2.30663">
        <ele>121</ele>
        <time>2021-08-11T13:50:19Z</time>
      </trkpt>
      <trkpt lat="47.09618" lon="2.30623">
        <ele>119</ele>
        <time>2021-08-11T13:50:19Z</time>
      </trkpt>
      <trkpt lat="47.09634" lon="2.30583">
        <ele>119</ele>
        <time>2021-08-11T13:50:19Z</time>
      </trkpt>
      <trkpt lat="47.0965" lon="2.30544">
        <ele>119</ele>
        <time>2021-08-11T13:50:19Z</time>
      </trkpt>
      <trkpt lat="47.09666" lon="2.30504">
        <ele>119</ele>
        <time>2021-08-11T13:50:19Z</time>
      </trkpt>
      <trkpt lat="47.0968" lon="2.30471">
        <ele>118</ele>
        <time>2021-08-11T13:50:19Z</time>
      </trkpt>
      <trkpt lat="47.09683" lon="2.30463">
        <ele>118</ele>
        <time>2021-08-11T13:50:19Z</time>
      </trkpt>
      <trkpt lat="47.09699" lon="2.30423">
        <ele>119</ele>
        <time>2021-08-11T13:50:19Z</time>
      </trkpt>
      <trkpt lat="47.09714" lon="2.30381">
        <ele>119</ele>
        <time>2021-08-11T13:50:19Z</time>
      </trkpt>
      <trkpt lat="47.09731" lon="2.30342">
        <ele>120</ele>
        <time>2021-08-11T13:50:19Z</time>
      </trkpt>
      <trkpt lat="47.09747" lon="2.30302">
        <ele>120</ele>
        <time>2021-08-11T13:50:19Z</time>
      </trkpt>
      <trkpt lat="47.09764" lon="2.30262">
        <ele>121</ele>
        <time>2021-08-11T13:50:19Z</time>
      </trkpt>
      <trkpt lat="47.09777" lon="2.3023">
        <ele>121</ele>
        <time>2021-08-11T13:50:19Z</time>
      </trkpt>
      <trkpt lat="47.0978" lon="2.30222">
        <ele>121</ele>
        <time>2021-08-11T13:50:19Z</time>
      </trkpt>
      <trkpt lat="47.09783" lon="2.30214">
        <ele>121</ele>
        <time>2021-08-11T13:50:19Z</time>
      </trkpt>
      <trkpt lat="47.09787" lon="2.30206">
        <ele>121</ele>
        <time>2021-08-11T13:50:19Z</time>
      </trkpt>
      <trkpt lat="47.0979" lon="2.30198">
        <ele>121</ele>
        <time>2021-08-11T13:50:19Z</time>
      </trkpt>
      <trkpt lat="47.09793" lon="2.3019">
        <ele>121</ele>
        <time>2021-08-11T13:50:19Z</time>
      </trkpt>
      <trkpt lat="47.09796" lon="2.30181">
        <ele>121</ele>
        <time>2021-08-11T13:50:19Z</time>
      </trkpt>
      <trkpt lat="47.09799" lon="2.30173">
        <ele>121</ele>
        <time>2021-08-11T13:50:19Z</time>
      </trkpt>
      <trkpt lat="47.09802" lon="2.30165">
        <ele>121</ele>
        <time>2021-08-11T13:50:19Z</time>
      </trkpt>
      <trkpt lat="47.09805" lon="2.30157">
        <ele>121</ele>
        <time>2021-08-11T13:50:19Z</time>
      </trkpt>
      <trkpt lat="47.09809" lon="2.30149">
        <ele>121</ele>
        <time>2021-08-11T13:50:19Z</time>
      </trkpt>
      <trkpt lat="47.09812" lon="2.3014">
        <ele>121</ele>
        <time>2021-08-11T13:50:19Z</time>
      </trkpt>
      <trkpt lat="47.09815" lon="2.30132">
        <ele>120</ele>
        <time>2021-08-11T13:50:19Z</time>
      </trkpt>
      <trkpt lat="47.09818" lon="2.30124">
        <ele>120</ele>
        <time>2021-08-11T13:50:19Z</time>
      </trkpt>
      <trkpt lat="47.09822" lon="2.30116">
        <ele>120</ele>
        <time>2021-08-11T13:50:19Z</time>
      </trkpt>
      <trkpt lat="47.09825" lon="2.30109">
        <ele>120</ele>
        <time>2021-08-11T13:50:19Z</time>
      </trkpt>
      <trkpt lat="47.09828" lon="2.30101">
        <ele>120</ele>
        <time>2021-08-11T13:50:19Z</time>
      </trkpt>
      <trkpt lat="47.09831" lon="2.30093">
        <ele>120</ele>
        <time>2021-08-11T13:50:19Z</time>
      </trkpt>
      <trkpt lat="47.09835" lon="2.30084">
        <ele>119</ele>
        <time>2021-08-11T13:50:19Z</time>
      </trkpt>
      <trkpt lat="47.09838" lon="2.30076">
        <ele>119</ele>
        <time>2021-08-11T13:50:19Z</time>
      </trkpt>
      <trkpt lat="47.09841" lon="2.30068">
        <ele>119</ele>
        <time>2021-08-11T13:50:19Z</time>
      </trkpt>
      <trkpt lat="47.09844" lon="2.3006">
        <ele>119</ele>
        <time>2021-08-11T13:50:19Z</time>
      </trkpt>
      <trkpt lat="47.09848" lon="2.30052">
        <ele>120</ele>
        <time>2021-08-11T13:50:19Z</time>
      </trkpt>
      <trkpt lat="47.09851" lon="2.30044">
        <ele>120</ele>
        <time>2021-08-11T13:50:19Z</time>
      </trkpt>
      <trkpt lat="47.09854" lon="2.30036">
        <ele>120</ele>
        <time>2021-08-11T13:50:19Z</time>
      </trkpt>
      <trkpt lat="47.09857" lon="2.30027">
        <ele>120</ele>
        <time>2021-08-11T13:50:19Z</time>
      </trkpt>
      <trkpt lat="47.0986" lon="2.3002">
        <ele>120</ele>
        <time>2021-08-11T13:50:19Z</time>
      </trkpt>
      <trkpt lat="47.09863" lon="2.30011">
        <ele>120</ele>
        <time>2021-08-11T13:50:19Z</time>
      </trkpt>
      <trkpt lat="47.09866" lon="2.30004">
        <ele>120</ele>
        <time>2021-08-11T13:50:19Z</time>
      </trkpt>
      <trkpt lat="47.0987" lon="2.29996">
        <ele>120</ele>
        <time>2021-08-11T13:50:19Z</time>
      </trkpt>
      <trkpt lat="47.09873" lon="2.29988">
        <ele>120</ele>
        <time>2021-08-11T13:50:19Z</time>
      </trkpt>
      <trkpt lat="47.09877" lon="2.2998">
        <ele>120</ele>
        <time>2021-08-11T13:50:19Z</time>
      </trkpt>
      <trkpt lat="47.0988" lon="2.29971">
        <ele>120</ele>
        <time>2021-08-11T13:50:19Z</time>
      </trkpt>
      <trkpt lat="47.09883" lon="2.29963">
        <ele>120</ele>
        <time>2021-08-11T13:50:19Z</time>
      </trkpt>
      <trkpt lat="47.09887" lon="2.29955">
        <ele>120</ele>
        <time>2021-08-11T13:50:19Z</time>
      </trkpt>
      <trkpt lat="47.0989" lon="2.29947">
        <ele>119</ele>
        <time>2021-08-11T13:50:19Z</time>
      </trkpt>
      <trkpt lat="47.09893" lon="2.29939">
        <ele>119</ele>
        <time>2021-08-11T13:50:19Z</time>
      </trkpt>
      <trkpt lat="47.09896" lon="2.29931">
        <ele>119</ele>
        <time>2021-08-11T13:50:19Z</time>
      </trkpt>
      <trkpt lat="47.09899" lon="2.29922">
        <ele>119</ele>
        <time>2021-08-11T13:50:19Z</time>
      </trkpt>
      <trkpt lat="47.09902" lon="2.29915">
        <ele>119</ele>
        <time>2021-08-11T13:50:19Z</time>
      </trkpt>
      <trkpt lat="47.09906" lon="2.29906">
        <ele>119</ele>
        <time>2021-08-11T13:50:19Z</time>
      </trkpt>
      <trkpt lat="47.09909" lon="2.29898">
        <ele>119</ele>
        <time>2021-08-11T13:50:19Z</time>
      </trkpt>
      <trkpt lat="47.09912" lon="2.2989">
        <ele>119</ele>
        <time>2021-08-11T13:50:19Z</time>
      </trkpt>
      <trkpt lat="47.09915" lon="2.29882">
        <ele>119</ele>
        <time>2021-08-11T13:50:19Z</time>
      </trkpt>
      <trkpt lat="47.09918" lon="2.29875">
        <ele>118</ele>
        <time>2021-08-11T13:50:19Z</time>
      </trkpt>
      <trkpt lat="47.09922" lon="2.29867">
        <ele>118</ele>
        <time>2021-08-11T13:50:19Z</time>
      </trkpt>
      <trkpt lat="47.09924" lon="2.29859">
        <ele>118</ele>
        <time>2021-08-11T13:50:19Z</time>
      </trkpt>
      <trkpt lat="47.09926" lon="2.29852">
        <ele>118</ele>
        <time>2021-08-11T13:50:19Z</time>
      </trkpt>
      <trkpt lat="47.09928" lon="2.29844">
        <ele>118</ele>
        <time>2021-08-11T13:50:19Z</time>
      </trkpt>
      <trkpt lat="47.09931" lon="2.29837">
        <ele>118</ele>
        <time>2021-08-11T13:50:19Z</time>
      </trkpt>
      <trkpt lat="47.09934" lon="2.29831">
        <ele>118</ele>
        <time>2021-08-11T13:50:19Z</time>
      </trkpt>
      <trkpt lat="47.09937" lon="2.29825">
        <ele>118</ele>
        <time>2021-08-11T13:50:19Z</time>
      </trkpt>
      <trkpt lat="47.09939" lon="2.29819">
        <ele>118</ele>
        <time>2021-08-11T13:50:19Z</time>
      </trkpt>
      <trkpt lat="47.09942" lon="2.29815">
        <ele>118</ele>
        <time>2021-08-11T13:50:19Z</time>
      </trkpt>
      <trkpt lat="47.09944" lon="2.29811">
        <ele>118</ele>
        <time>2021-08-11T13:50:19Z</time>
      </trkpt>
      <trkpt lat="47.09947" lon="2.29804">
        <ele>118</ele>
        <time>2021-08-11T13:50:19Z</time>
      </trkpt>
      <trkpt lat="47.0995" lon="2.29796">
        <ele>118</ele>
        <time>2021-08-11T13:50:19Z</time>
      </trkpt>
      <trkpt lat="47.09954" lon="2.29787">
        <ele>118</ele>
        <time>2021-08-11T13:50:19Z</time>
      </trkpt>
      <trkpt lat="47.09957" lon="2.29779">
        <ele>118</ele>
        <time>2021-08-11T13:50:19Z</time>
      </trkpt>
      <trkpt lat="47.09961" lon="2.29771">
        <ele>119</ele>
        <time>2021-08-11T13:50:19Z</time>
      </trkpt>
      <trkpt lat="47.09964" lon="2.29763">
        <ele>119</ele>
        <time>2021-08-11T13:50:19Z</time>
      </trkpt>
      <trkpt lat="47.09967" lon="2.29755">
        <ele>119</ele>
        <time>2021-08-11T13:50:19Z</time>
      </trkpt>
      <trkpt lat="47.09971" lon="2.29748">
        <ele>119</ele>
        <time>2021-08-11T13:50:19Z</time>
      </trkpt>
      <trkpt lat="47.09988" lon="2.29708">
        <ele>119</ele>
        <time>2021-08-11T13:50:19Z</time>
      </trkpt>
      <trkpt lat="47.10003" lon="2.29667">
        <ele>120</ele>
        <time>2021-08-11T13:50:19Z</time>
      </trkpt>
      <trkpt lat="47.10019" lon="2.29627">
        <ele>119</ele>
        <time>2021-08-11T13:50:19Z</time>
      </trkpt>
      <trkpt lat="47.10037" lon="2.29588">
        <ele>119</ele>
        <time>2021-08-11T13:50:19Z</time>
      </trkpt>
      <trkpt lat="47.10053" lon="2.29547">
        <ele>120</ele>
        <time>2021-08-11T13:50:19Z</time>
      </trkpt>
      <trkpt lat="47.10066" lon="2.29514">
        <ele>121</ele>
        <time>2021-08-11T13:50:19Z</time>
      </trkpt>
      <trkpt lat="47.10069" lon="2.29507">
        <ele>121</ele>
        <time>2021-08-11T13:50:19Z</time>
      </trkpt>
      <trkpt lat="47.10086" lon="2.29466">
        <ele>119</ele>
        <time>2021-08-11T13:50:19Z</time>
      </trkpt>
      <trkpt lat="47.10101" lon="2.29425">
        <ele>118</ele>
        <time>2021-08-11T13:50:19Z</time>
      </trkpt>
      <trkpt lat="47.10117" lon="2.29384">
        <ele>118</ele>
        <time>2021-08-11T13:50:19Z</time>
      </trkpt>
      <trkpt lat="47.10133" lon="2.29343">
        <ele>119</ele>
        <time>2021-08-11T13:50:19Z</time>
      </trkpt>
      <trkpt lat="47.1015" lon="2.29303">
        <ele>119</ele>
        <time>2021-08-11T13:50:19Z</time>
      </trkpt>
      <trkpt lat="47.10163" lon="2.2927">
        <ele>119</ele>
        <time>2021-08-11T13:50:19Z</time>
      </trkpt>
      <trkpt lat="47.10167" lon="2.29262">
        <ele>119</ele>
        <time>2021-08-11T13:50:19Z</time>
      </trkpt>
      <trkpt lat="47.10182" lon="2.29222">
        <ele>120</ele>
        <time>2021-08-11T13:50:19Z</time>
      </trkpt>
      <trkpt lat="47.10199" lon="2.29181">
        <ele>121</ele>
        <time>2021-08-11T13:50:19Z</time>
      </trkpt>
      <trkpt lat="47.10214" lon="2.29139">
        <ele>120</ele>
        <time>2021-08-11T13:50:19Z</time>
      </trkpt>
      <trkpt lat="47.10229" lon="2.29097">
        <ele>120</ele>
        <time>2021-08-11T13:50:19Z</time>
      </trkpt>
      <trkpt lat="47.10241" lon="2.29055">
        <ele>120</ele>
        <time>2021-08-11T13:50:19Z</time>
      </trkpt>
      <trkpt lat="47.10249" lon="2.29019">
        <ele>121</ele>
        <time>2021-08-11T13:50:19Z</time>
      </trkpt>
      <trkpt lat="47.10251" lon="2.2901">
        <ele>120</ele>
        <time>2021-08-11T13:50:19Z</time>
      </trkpt>
      <trkpt lat="47.10255" lon="2.28992">
        <ele>120</ele>
        <time>2021-08-11T13:50:19Z</time>
      </trkpt>
      <trkpt lat="47.10256" lon="2.28983">
        <ele>120</ele>
        <time>2021-08-11T13:50:19Z</time>
      </trkpt>
      <trkpt lat="47.10259" lon="2.28974">
        <ele>120</ele>
        <time>2021-08-11T13:50:19Z</time>
      </trkpt>
      <trkpt lat="47.1026" lon="2.28965">
        <ele>121</ele>
        <time>2021-08-11T13:50:19Z</time>
      </trkpt>
      <trkpt lat="47.10262" lon="2.28955">
        <ele>121</ele>
        <time>2021-08-11T13:50:19Z</time>
      </trkpt>
      <trkpt lat="47.10264" lon="2.28945">
        <ele>121</ele>
        <time>2021-08-11T13:50:19Z</time>
      </trkpt>
      <trkpt lat="47.10266" lon="2.28936">
        <ele>122</ele>
        <time>2021-08-11T13:50:19Z</time>
      </trkpt>
      <trkpt lat="47.10267" lon="2.28928">
        <ele>122</ele>
        <time>2021-08-11T13:50:19Z</time>
      </trkpt>
      <trkpt lat="47.10269" lon="2.28918">
        <ele>122</ele>
        <time>2021-08-11T13:50:19Z</time>
      </trkpt>
      <trkpt lat="47.10271" lon="2.28909">
        <ele>121</ele>
        <time>2021-08-11T13:50:19Z</time>
      </trkpt>
      <trkpt lat="47.10273" lon="2.28899">
        <ele>121</ele>
        <time>2021-08-11T13:50:19Z</time>
      </trkpt>
      <trkpt lat="47.10274" lon="2.2889">
        <ele>121</ele>
        <time>2021-08-11T13:50:19Z</time>
      </trkpt>
      <trkpt lat="47.10276" lon="2.28881">
        <ele>120</ele>
        <time>2021-08-11T13:50:19Z</time>
      </trkpt>
      <trkpt lat="47.10279" lon="2.28871">
        <ele>120</ele>
        <time>2021-08-11T13:50:19Z</time>
      </trkpt>
      <trkpt lat="47.1028" lon="2.28863">
        <ele>120</ele>
        <time>2021-08-11T13:50:19Z</time>
      </trkpt>
      <trkpt lat="47.10282" lon="2.28854">
        <ele>119</ele>
        <time>2021-08-11T13:50:19Z</time>
      </trkpt>
      <trkpt lat="47.10284" lon="2.28845">
        <ele>119</ele>
        <time>2021-08-11T13:50:19Z</time>
      </trkpt>
      <trkpt lat="47.10287" lon="2.28836">
        <ele>119</ele>
        <time>2021-08-11T13:50:19Z</time>
      </trkpt>
      <trkpt lat="47.10288" lon="2.28827">
        <ele>119</ele>
        <time>2021-08-11T13:50:19Z</time>
      </trkpt>
      <trkpt lat="47.1029" lon="2.28817">
        <ele>120</ele>
        <time>2021-08-11T13:50:19Z</time>
      </trkpt>
      <trkpt lat="47.10292" lon="2.28808">
        <ele>120</ele>
        <time>2021-08-11T13:50:19Z</time>
      </trkpt>
      <trkpt lat="47.10294" lon="2.288">
        <ele>120</ele>
        <time>2021-08-11T13:50:19Z</time>
      </trkpt>
      <trkpt lat="47.10295" lon="2.28791">
        <ele>120</ele>
        <time>2021-08-11T13:50:19Z</time>
      </trkpt>
      <trkpt lat="47.10295" lon="2.28784">
        <ele>121</ele>
        <time>2021-08-11T13:50:19Z</time>
      </trkpt>
      <trkpt lat="47.10297" lon="2.28774">
        <ele>121</ele>
        <time>2021-08-11T13:50:19Z</time>
      </trkpt>
      <trkpt lat="47.10298" lon="2.28767">
        <ele>121</ele>
        <time>2021-08-11T13:50:19Z</time>
      </trkpt>
      <trkpt lat="47.103" lon="2.28758">
        <ele>121</ele>
        <time>2021-08-11T13:50:19Z</time>
      </trkpt>
      <trkpt lat="47.10301" lon="2.28749">
        <ele>122</ele>
        <time>2021-08-11T13:50:19Z</time>
      </trkpt>
      <trkpt lat="47.10303" lon="2.28741">
        <ele>122</ele>
        <time>2021-08-11T13:50:19Z</time>
      </trkpt>
      <trkpt lat="47.10305" lon="2.28732">
        <ele>122</ele>
        <time>2021-08-11T13:50:19Z</time>
      </trkpt>
      <trkpt lat="47.10306" lon="2.28724">
        <ele>122</ele>
        <time>2021-08-11T13:50:19Z</time>
      </trkpt>
      <trkpt lat="47.10308" lon="2.28715">
        <ele>122</ele>
        <time>2021-08-11T13:50:19Z</time>
      </trkpt>
      <trkpt lat="47.1031" lon="2.28706">
        <ele>122</ele>
        <time>2021-08-11T13:50:19Z</time>
      </trkpt>
      <trkpt lat="47.10311" lon="2.28698">
        <ele>122</ele>
        <time>2021-08-11T13:50:19Z</time>
      </trkpt>
      <trkpt lat="47.10313" lon="2.28689">
        <ele>121</ele>
        <time>2021-08-11T13:50:19Z</time>
      </trkpt>
      <trkpt lat="47.10314" lon="2.2868">
        <ele>121</ele>
        <time>2021-08-11T13:50:19Z</time>
      </trkpt>
      <trkpt lat="47.10316" lon="2.28672">
        <ele>121</ele>
        <time>2021-08-11T13:50:19Z</time>
      </trkpt>
      <trkpt lat="47.10318" lon="2.28662">
        <ele>121</ele>
        <time>2021-08-11T13:50:19Z</time>
      </trkpt>
      <trkpt lat="47.1032" lon="2.28653">
        <ele>121</ele>
        <time>2021-08-11T13:50:19Z</time>
      </trkpt>
      <trkpt lat="47.10322" lon="2.28644">
        <ele>121</ele>
        <time>2021-08-11T13:50:19Z</time>
      </trkpt>
      <trkpt lat="47.10324" lon="2.28636">
        <ele>121</ele>
        <time>2021-08-11T13:50:19Z</time>
      </trkpt>
      <trkpt lat="47.10326" lon="2.28627">
        <ele>121</ele>
        <time>2021-08-11T13:50:19Z</time>
      </trkpt>
      <trkpt lat="47.10327" lon="2.28618">
        <ele>121</ele>
        <time>2021-08-11T13:50:19Z</time>
      </trkpt>
      <trkpt lat="47.10328" lon="2.28611">
        <ele>122</ele>
        <time>2021-08-11T13:50:19Z</time>
      </trkpt>
      <trkpt lat="47.10329" lon="2.28603">
        <ele>122</ele>
        <time>2021-08-11T13:50:19Z</time>
      </trkpt>
      <trkpt lat="47.10331" lon="2.28595">
        <ele>122</ele>
        <time>2021-08-11T13:50:19Z</time>
      </trkpt>
      <trkpt lat="47.10333" lon="2.28587">
        <ele>122</ele>
        <time>2021-08-11T13:50:19Z</time>
      </trkpt>
      <trkpt lat="47.10335" lon="2.2858">
        <ele>121</ele>
        <time>2021-08-11T13:50:19Z</time>
      </trkpt>
      <trkpt lat="47.10336" lon="2.28571">
        <ele>121</ele>
        <time>2021-08-11T13:50:19Z</time>
      </trkpt>
      <trkpt lat="47.10338" lon="2.28562">
        <ele>121</ele>
        <time>2021-08-11T13:50:19Z</time>
      </trkpt>
      <trkpt lat="47.10339" lon="2.28552">
        <ele>121</ele>
        <time>2021-08-11T13:50:19Z</time>
      </trkpt>
      <trkpt lat="47.10341" lon="2.28543">
        <ele>120</ele>
        <time>2021-08-11T13:50:19Z</time>
      </trkpt>
      <trkpt lat="47.10343" lon="2.28535">
        <ele>120</ele>
        <time>2021-08-11T13:50:19Z</time>
      </trkpt>
      <trkpt lat="47.10345" lon="2.28525">
        <ele>120</ele>
        <time>2021-08-11T13:50:19Z</time>
      </trkpt>
      <trkpt lat="47.10347" lon="2.28517">
        <ele>119</ele>
        <time>2021-08-11T13:50:19Z</time>
      </trkpt>
      <trkpt lat="47.10349" lon="2.28508">
        <ele>119</ele>
        <time>2021-08-11T13:50:19Z</time>
      </trkpt>
      <trkpt lat="47.10351" lon="2.285">
        <ele>119</ele>
        <time>2021-08-11T13:50:19Z</time>
      </trkpt>
      <trkpt lat="47.10353" lon="2.28492">
        <ele>119</ele>
        <time>2021-08-11T13:50:19Z</time>
      </trkpt>
      <trkpt lat="47.10354" lon="2.28484">
        <ele>119</ele>
        <time>2021-08-11T13:50:19Z</time>
      </trkpt>
      <trkpt lat="47.10355" lon="2.28476">
        <ele>119</ele>
        <time>2021-08-11T13:50:19Z</time>
      </trkpt>
      <trkpt lat="47.10356" lon="2.28469">
        <ele>119</ele>
        <time>2021-08-11T13:50:19Z</time>
      </trkpt>
      <trkpt lat="47.10358" lon="2.28461">
        <ele>119</ele>
        <time>2021-08-11T13:50:19Z</time>
      </trkpt>
      <trkpt lat="47.10359" lon="2.28454">
        <ele>119</ele>
        <time>2021-08-11T13:50:19Z</time>
      </trkpt>
      <trkpt lat="47.1036" lon="2.28447">
        <ele>119</ele>
        <time>2021-08-11T13:50:19Z</time>
      </trkpt>
      <trkpt lat="47.10361" lon="2.28441">
        <ele>119</ele>
        <time>2021-08-11T13:50:19Z</time>
      </trkpt>
      <trkpt lat="47.10361" lon="2.28437">
        <ele>119</ele>
        <time>2021-08-11T13:50:19Z</time>
      </trkpt>
      <trkpt lat="47.10362" lon="2.28432">
        <ele>119</ele>
        <time>2021-08-11T13:50:19Z</time>
      </trkpt>
      <trkpt lat="47.10362" lon="2.28427">
        <ele>119</ele>
        <time>2021-08-11T13:50:19Z</time>
      </trkpt>
      <trkpt lat="47.10368" lon="2.28408">
        <ele>120</ele>
        <time>2021-08-11T13:50:19Z</time>
      </trkpt>
      <trkpt lat="47.10372" lon="2.284">
        <ele>121</ele>
        <time>2021-08-11T13:50:19Z</time>
      </trkpt>
      <trkpt lat="47.10372" lon="2.28401">
        <ele>120</ele>
        <time>2021-08-11T13:50:19Z</time>
      </trkpt>
      <trkpt lat="47.10372" lon="2.28402">
        <ele>120</ele>
        <time>2021-08-11T13:50:19Z</time>
      </trkpt>
      <trkpt lat="47.10372" lon="2.28402">
        <ele>120</ele>
        <time>2021-08-11T13:50:19Z</time>
      </trkpt>
      <trkpt lat="47.10371" lon="2.28402">
        <ele>120</ele>
        <time>2021-08-11T13:50:19Z</time>
      </trkpt>
      <trkpt lat="47.1037" lon="2.28402">
        <ele>120</ele>
        <time>2021-08-11T13:50:19Z</time>
      </trkpt>
      <trkpt lat="47.1037" lon="2.28402">
        <ele>120</ele>
        <time>2021-08-11T13:50:19Z</time>
      </trkpt>
      <trkpt lat="47.10371" lon="2.28397">
        <ele>121</ele>
        <time>2021-08-11T13:50:19Z</time>
      </trkpt>
      <trkpt lat="47.10375" lon="2.28382">
        <ele>121</ele>
        <time>2021-08-11T13:50:19Z</time>
      </trkpt>
      <trkpt lat="47.10376" lon="2.28376">
        <ele>121</ele>
        <time>2021-08-11T13:50:19Z</time>
      </trkpt>
      <trkpt lat="47.10377" lon="2.2837">
        <ele>122</ele>
        <time>2021-08-11T13:50:19Z</time>
      </trkpt>
      <trkpt lat="47.10378" lon="2.28364">
        <ele>122</ele>
        <time>2021-08-11T13:50:19Z</time>
      </trkpt>
      <trkpt lat="47.1038" lon="2.28354">
        <ele>122</ele>
        <time>2021-08-11T13:50:19Z</time>
      </trkpt>
      <trkpt lat="47.10381" lon="2.28347">
        <ele>122</ele>
        <time>2021-08-11T13:50:19Z</time>
      </trkpt>
      <trkpt lat="47.10382" lon="2.28339">
        <ele>122</ele>
        <time>2021-08-11T13:50:19Z</time>
      </trkpt>
      <trkpt lat="47.10384" lon="2.28331">
        <ele>122</ele>
        <time>2021-08-11T13:50:19Z</time>
      </trkpt>
      <trkpt lat="47.1039" lon="2.2829">
        <ele>122</ele>
        <time>2021-08-11T13:50:19Z</time>
      </trkpt>
      <trkpt lat="47.10397" lon="2.28249">
        <ele>120</ele>
        <time>2021-08-11T13:50:19Z</time>
      </trkpt>
      <trkpt lat="47.10403" lon="2.28206">
        <ele>119</ele>
        <time>2021-08-11T13:50:19Z</time>
      </trkpt>
      <trkpt lat="47.10411" lon="2.2816">
        <ele>120</ele>
        <time>2021-08-11T13:50:19Z</time>
      </trkpt>
      <trkpt lat="47.1042" lon="2.28113">
        <ele>120</ele>
        <time>2021-08-11T13:50:19Z</time>
      </trkpt>
      <trkpt lat="47.10426" lon="2.28078">
        <ele>120</ele>
        <time>2021-08-11T13:50:19Z</time>
      </trkpt>
      <trkpt lat="47.10427" lon="2.28069">
        <ele>120</ele>
        <time>2021-08-11T13:50:19Z</time>
      </trkpt>
      <trkpt lat="47.10435" lon="2.28023">
        <ele>119</ele>
        <time>2021-08-11T13:50:19Z</time>
      </trkpt>
      <trkpt lat="47.10444" lon="2.2798">
        <ele>122</ele>
        <time>2021-08-11T13:50:19Z</time>
      </trkpt>
      <trkpt lat="47.1045" lon="2.2794">
        <ele>123</ele>
        <time>2021-08-11T13:50:19Z</time>
      </trkpt>
      <trkpt lat="47.10456" lon="2.27903">
        <ele>121</ele>
        <time>2021-08-11T13:50:19Z</time>
      </trkpt>
      <trkpt lat="47.10459" lon="2.27864">
        <ele>122</ele>
        <time>2021-08-11T13:50:19Z</time>
      </trkpt>
      <trkpt lat="47.1046" lon="2.27829">
        <ele>125</ele>
        <time>2021-08-11T13:50:19Z</time>
      </trkpt>
      <trkpt lat="47.1046" lon="2.2782">
        <ele>125</ele>
        <time>2021-08-11T13:50:19Z</time>
      </trkpt>
      <trkpt lat="47.10461" lon="2.2781">
        <ele>126</ele>
        <time>2021-08-11T13:50:19Z</time>
      </trkpt>
      <trkpt lat="47.10461" lon="2.27802">
        <ele>126</ele>
        <time>2021-08-11T13:50:19Z</time>
      </trkpt>
      <trkpt lat="47.10463" lon="2.27794">
        <ele>126</ele>
        <time>2021-08-11T13:50:19Z</time>
      </trkpt>
      <trkpt lat="47.10464" lon="2.27786">
        <ele>126</ele>
        <time>2021-08-11T13:50:19Z</time>
      </trkpt>
      <trkpt lat="47.10465" lon="2.27776">
        <ele>125</ele>
        <time>2021-08-11T13:50:19Z</time>
      </trkpt>
      <trkpt lat="47.10465" lon="2.27767">
        <ele>125</ele>
        <time>2021-08-11T13:50:19Z</time>
      </trkpt>
      <trkpt lat="47.10465" lon="2.27758">
        <ele>124</ele>
        <time>2021-08-11T13:50:19Z</time>
      </trkpt>
      <trkpt lat="47.10465" lon="2.27748">
        <ele>124</ele>
        <time>2021-08-11T13:50:19Z</time>
      </trkpt>
      <trkpt lat="47.10467" lon="2.2774">
        <ele>123</ele>
        <time>2021-08-11T13:50:19Z</time>
      </trkpt>
      <trkpt lat="47.10469" lon="2.27731">
        <ele>122</ele>
        <time>2021-08-11T13:50:19Z</time>
      </trkpt>
      <trkpt lat="47.10471" lon="2.27721">
        <ele>121</ele>
        <time>2021-08-11T13:50:19Z</time>
      </trkpt>
      <trkpt lat="47.10471" lon="2.27711">
        <ele>121</ele>
        <time>2021-08-11T13:50:19Z</time>
      </trkpt>
      <trkpt lat="47.10472" lon="2.27702">
        <ele>120</ele>
        <time>2021-08-11T13:50:19Z</time>
      </trkpt>
      <trkpt lat="47.10473" lon="2.27693">
        <ele>119</ele>
        <time>2021-08-11T13:50:19Z</time>
      </trkpt>
      <trkpt lat="47.10474" lon="2.27684">
        <ele>119</ele>
        <time>2021-08-11T13:50:19Z</time>
      </trkpt>
      <trkpt lat="47.10475" lon="2.27674">
        <ele>118</ele>
        <time>2021-08-11T13:50:19Z</time>
      </trkpt>
      <trkpt lat="47.10477" lon="2.27664">
        <ele>117</ele>
        <time>2021-08-11T13:50:19Z</time>
      </trkpt>
      <trkpt lat="47.10477" lon="2.27655">
        <ele>117</ele>
        <time>2021-08-11T13:50:19Z</time>
      </trkpt>
      <trkpt lat="47.10477" lon="2.27647">
        <ele>117</ele>
        <time>2021-08-11T13:50:19Z</time>
      </trkpt>
      <trkpt lat="47.10478" lon="2.27637">
        <ele>117</ele>
        <time>2021-08-11T13:50:19Z</time>
      </trkpt>
      <trkpt lat="47.10479" lon="2.27628">
        <ele>117</ele>
        <time>2021-08-11T13:50:19Z</time>
      </trkpt>
      <trkpt lat="47.1048" lon="2.27619">
        <ele>117</ele>
        <time>2021-08-11T13:50:19Z</time>
      </trkpt>
      <trkpt lat="47.1048" lon="2.27609">
        <ele>117</ele>
        <time>2021-08-11T13:50:19Z</time>
      </trkpt>
      <trkpt lat="47.10481" lon="2.27599">
        <ele>117</ele>
        <time>2021-08-11T13:50:19Z</time>
      </trkpt>
      <trkpt lat="47.10482" lon="2.2759">
        <ele>117</ele>
        <time>2021-08-11T13:50:19Z</time>
      </trkpt>
      <trkpt lat="47.10482" lon="2.27581">
        <ele>117</ele>
        <time>2021-08-11T13:50:19Z</time>
      </trkpt>
      <trkpt lat="47.10483" lon="2.27571">
        <ele>117</ele>
        <time>2021-08-11T13:50:19Z</time>
      </trkpt>
      <trkpt lat="47.10483" lon="2.27562">
        <ele>117</ele>
        <time>2021-08-11T13:50:19Z</time>
      </trkpt>
      <trkpt lat="47.10484" lon="2.27553">
        <ele>117</ele>
        <time>2021-08-11T13:50:19Z</time>
      </trkpt>
      <trkpt lat="47.10485" lon="2.27544">
        <ele>117</ele>
        <time>2021-08-11T13:50:19Z</time>
      </trkpt>
      <trkpt lat="47.10486" lon="2.27535">
        <ele>117</ele>
        <time>2021-08-11T13:50:19Z</time>
      </trkpt>
      <trkpt lat="47.10487" lon="2.27525">
        <ele>117</ele>
        <time>2021-08-11T13:50:19Z</time>
      </trkpt>
      <trkpt lat="47.10488" lon="2.27516">
        <ele>118</ele>
        <time>2021-08-11T13:50:19Z</time>
      </trkpt>
      <trkpt lat="47.10489" lon="2.27507">
        <ele>118</ele>
        <time>2021-08-11T13:50:19Z</time>
      </trkpt>
      <trkpt lat="47.10489" lon="2.27497">
        <ele>118</ele>
        <time>2021-08-11T13:50:19Z</time>
      </trkpt>
      <trkpt lat="47.1049" lon="2.27487">
        <ele>118</ele>
        <time>2021-08-11T13:50:19Z</time>
      </trkpt>
      <trkpt lat="47.10491" lon="2.27478">
        <ele>118</ele>
        <time>2021-08-11T13:50:19Z</time>
      </trkpt>
      <trkpt lat="47.10491" lon="2.27469">
        <ele>118</ele>
        <time>2021-08-11T13:50:19Z</time>
      </trkpt>
      <trkpt lat="47.10492" lon="2.27459">
        <ele>118</ele>
        <time>2021-08-11T13:50:19Z</time>
      </trkpt>
      <trkpt lat="47.10493" lon="2.2745">
        <ele>118</ele>
        <time>2021-08-11T13:50:19Z</time>
      </trkpt>
      <trkpt lat="47.10494" lon="2.2744">
        <ele>118</ele>
        <time>2021-08-11T13:50:19Z</time>
      </trkpt>
      <trkpt lat="47.10495" lon="2.2743">
        <ele>118</ele>
        <time>2021-08-11T13:50:19Z</time>
      </trkpt>
      <trkpt lat="47.10495" lon="2.27421">
        <ele>118</ele>
        <time>2021-08-11T13:50:19Z</time>
      </trkpt>
      <trkpt lat="47.10496" lon="2.27412">
        <ele>118</ele>
        <time>2021-08-11T13:50:19Z</time>
      </trkpt>
      <trkpt lat="47.10497" lon="2.27403">
        <ele>118</ele>
        <time>2021-08-11T13:50:19Z</time>
      </trkpt>
      <trkpt lat="47.10497" lon="2.27394">
        <ele>118</ele>
        <time>2021-08-11T13:50:19Z</time>
      </trkpt>
      <trkpt lat="47.10498" lon="2.27385">
        <ele>118</ele>
        <time>2021-08-11T13:50:19Z</time>
      </trkpt>
      <trkpt lat="47.10499" lon="2.27374">
        <ele>118</ele>
        <time>2021-08-11T13:50:19Z</time>
      </trkpt>
      <trkpt lat="47.10499" lon="2.27364">
        <ele>118</ele>
        <time>2021-08-11T13:50:19Z</time>
      </trkpt>
      <trkpt lat="47.105" lon="2.27355">
        <ele>117</ele>
        <time>2021-08-11T13:50:19Z</time>
      </trkpt>
      <trkpt lat="47.10501" lon="2.27346">
        <ele>117</ele>
        <time>2021-08-11T13:50:19Z</time>
      </trkpt>
      <trkpt lat="47.10501" lon="2.27337">
        <ele>117</ele>
        <time>2021-08-11T13:50:19Z</time>
      </trkpt>
      <trkpt lat="47.10502" lon="2.27328">
        <ele>116</ele>
        <time>2021-08-11T13:50:19Z</time>
      </trkpt>
      <trkpt lat="47.10502" lon="2.27319">
        <ele>116</ele>
        <time>2021-08-11T13:50:19Z</time>
      </trkpt>
      <trkpt lat="47.10502" lon="2.27309">
        <ele>116</ele>
        <time>2021-08-11T13:50:19Z</time>
      </trkpt>
      <trkpt lat="47.10502" lon="2.273">
        <ele>115</ele>
        <time>2021-08-11T13:50:19Z</time>
      </trkpt>
      <trkpt lat="47.10503" lon="2.2729">
        <ele>115</ele>
        <time>2021-08-11T13:50:19Z</time>
      </trkpt>
      <trkpt lat="47.10503" lon="2.27281">
        <ele>115</ele>
        <time>2021-08-11T13:50:19Z</time>
      </trkpt>
      <trkpt lat="47.10504" lon="2.27272">
        <ele>115</ele>
        <time>2021-08-11T13:50:19Z</time>
      </trkpt>
      <trkpt lat="47.10504" lon="2.27262">
        <ele>115</ele>
        <time>2021-08-11T13:50:19Z</time>
      </trkpt>
      <trkpt lat="47.10504" lon="2.27253">
        <ele>115</ele>
        <time>2021-08-11T13:50:19Z</time>
      </trkpt>
      <trkpt lat="47.10505" lon="2.27243">
        <ele>116</ele>
        <time>2021-08-11T13:50:19Z</time>
      </trkpt>
      <trkpt lat="47.10505" lon="2.27234">
        <ele>116</ele>
        <time>2021-08-11T13:50:19Z</time>
      </trkpt>
      <trkpt lat="47.10505" lon="2.27225">
        <ele>116</ele>
        <time>2021-08-11T13:50:19Z</time>
      </trkpt>
      <trkpt lat="47.10506" lon="2.27216">
        <ele>117</ele>
        <time>2021-08-11T13:50:19Z</time>
      </trkpt>
      <trkpt lat="47.10506" lon="2.27207">
        <ele>117</ele>
        <time>2021-08-11T13:50:19Z</time>
      </trkpt>
      <trkpt lat="47.10506" lon="2.27198">
        <ele>117</ele>
        <time>2021-08-11T13:50:19Z</time>
      </trkpt>
      <trkpt lat="47.10506" lon="2.27189">
        <ele>117</ele>
        <time>2021-08-11T13:50:19Z</time>
      </trkpt>
      <trkpt lat="47.10508" lon="2.27142">
        <ele>118</ele>
        <time>2021-08-11T13:50:19Z</time>
      </trkpt>
      <trkpt lat="47.1051" lon="2.27095">
        <ele>118</ele>
        <time>2021-08-11T13:50:19Z</time>
      </trkpt>
      <trkpt lat="47.10512" lon="2.27046">
        <ele>118</ele>
        <time>2021-08-11T13:50:19Z</time>
      </trkpt>
      <trkpt lat="47.10513" lon="2.26999">
        <ele>118</ele>
        <time>2021-08-11T13:50:19Z</time>
      </trkpt>
      <trkpt lat="47.10514" lon="2.26953">
        <ele>119</ele>
        <time>2021-08-11T13:50:19Z</time>
      </trkpt>
      <trkpt lat="47.10516" lon="2.26915">
        <ele>118</ele>
        <time>2021-08-11T13:50:19Z</time>
      </trkpt>
      <trkpt lat="47.10516" lon="2.26906">
        <ele>118</ele>
        <time>2021-08-11T13:50:19Z</time>
      </trkpt>
      <trkpt lat="47.10517" lon="2.26859">
        <ele>118</ele>
        <time>2021-08-11T13:50:19Z</time>
      </trkpt>
      <trkpt lat="47.10518" lon="2.26813">
        <ele>118</ele>
        <time>2021-08-11T13:50:19Z</time>
      </trkpt>
      <trkpt lat="47.10521" lon="2.26765">
        <ele>118</ele>
        <time>2021-08-11T13:50:19Z</time>
      </trkpt>
      <trkpt lat="47.10523" lon="2.26718">
        <ele>118</ele>
        <time>2021-08-11T13:50:19Z</time>
      </trkpt>
      <trkpt lat="47.10525" lon="2.26671">
        <ele>116</ele>
        <time>2021-08-11T13:50:19Z</time>
      </trkpt>
      <trkpt lat="47.10525" lon="2.26637">
        <ele>115</ele>
        <time>2021-08-11T13:50:19Z</time>
      </trkpt>
      <trkpt lat="47.10525" lon="2.26629">
        <ele>115</ele>
        <time>2021-08-11T13:50:19Z</time>
      </trkpt>
      <trkpt lat="47.10527" lon="2.26587">
        <ele>115</ele>
        <time>2021-08-11T13:50:19Z</time>
      </trkpt>
      <trkpt lat="47.10528" lon="2.26541">
        <ele>114</ele>
        <time>2021-08-11T13:50:19Z</time>
      </trkpt>
      <trkpt lat="47.1053" lon="2.26494">
        <ele>113</ele>
        <time>2021-08-11T13:50:19Z</time>
      </trkpt>
      <trkpt lat="47.10532" lon="2.26447">
        <ele>113</ele>
        <time>2021-08-11T13:50:19Z</time>
      </trkpt>
      <trkpt lat="47.10534" lon="2.264">
        <ele>114</ele>
        <time>2021-08-11T13:50:19Z</time>
      </trkpt>
      <trkpt lat="47.10534" lon="2.26361">
        <ele>114</ele>
        <time>2021-08-11T13:50:19Z</time>
      </trkpt>
      <trkpt lat="47.10536" lon="2.26353">
        <ele>114</ele>
        <time>2021-08-11T13:50:19Z</time>
      </trkpt>
      <trkpt lat="47.10536" lon="2.26343">
        <ele>114</ele>
        <time>2021-08-11T13:50:19Z</time>
      </trkpt>
      <trkpt lat="47.10537" lon="2.26334">
        <ele>115</ele>
        <time>2021-08-11T13:50:19Z</time>
      </trkpt>
      <trkpt lat="47.10537" lon="2.26325">
        <ele>115</ele>
        <time>2021-08-11T13:50:19Z</time>
      </trkpt>
      <trkpt lat="47.10537" lon="2.26315">
        <ele>115</ele>
        <time>2021-08-11T13:50:19Z</time>
      </trkpt>
      <trkpt lat="47.10538" lon="2.26306">
        <ele>115</ele>
        <time>2021-08-11T13:50:19Z</time>
      </trkpt>
      <trkpt lat="47.10538" lon="2.26296">
        <ele>115</ele>
        <time>2021-08-11T13:50:19Z</time>
      </trkpt>
      <trkpt lat="47.10537" lon="2.26287">
        <ele>115</ele>
        <time>2021-08-11T13:50:19Z</time>
      </trkpt>
      <trkpt lat="47.10538" lon="2.26277">
        <ele>114</ele>
        <time>2021-08-11T13:50:19Z</time>
      </trkpt>
      <trkpt lat="47.10538" lon="2.26268">
        <ele>114</ele>
        <time>2021-08-11T13:50:19Z</time>
      </trkpt>
      <trkpt lat="47.10538" lon="2.26259">
        <ele>114</ele>
        <time>2021-08-11T13:50:19Z</time>
      </trkpt>
      <trkpt lat="47.10538" lon="2.26249">
        <ele>114</ele>
        <time>2021-08-11T13:50:19Z</time>
      </trkpt>
      <trkpt lat="47.10538" lon="2.2624">
        <ele>114</ele>
        <time>2021-08-11T13:50:19Z</time>
      </trkpt>
      <trkpt lat="47.10538" lon="2.2623">
        <ele>114</ele>
        <time>2021-08-11T13:50:19Z</time>
      </trkpt>
      <trkpt lat="47.10539" lon="2.26221">
        <ele>115</ele>
        <time>2021-08-11T13:50:19Z</time>
      </trkpt>
      <trkpt lat="47.10539" lon="2.26212">
        <ele>115</ele>
        <time>2021-08-11T13:50:19Z</time>
      </trkpt>
      <trkpt lat="47.10539" lon="2.26203">
        <ele>115</ele>
        <time>2021-08-11T13:50:19Z</time>
      </trkpt>
      <trkpt lat="47.1054" lon="2.26193">
        <ele>116</ele>
        <time>2021-08-11T13:50:19Z</time>
      </trkpt>
      <trkpt lat="47.1054" lon="2.26184">
        <ele>116</ele>
        <time>2021-08-11T13:50:19Z</time>
      </trkpt>
      <trkpt lat="47.10541" lon="2.26175">
        <ele>116</ele>
        <time>2021-08-11T13:50:19Z</time>
      </trkpt>
      <trkpt lat="47.10541" lon="2.26166">
        <ele>115</ele>
        <time>2021-08-11T13:50:19Z</time>
      </trkpt>
      <trkpt lat="47.10541" lon="2.26157">
        <ele>115</ele>
        <time>2021-08-11T13:50:19Z</time>
      </trkpt>
      <trkpt lat="47.10542" lon="2.26148">
        <ele>115</ele>
        <time>2021-08-11T13:50:19Z</time>
      </trkpt>
      <trkpt lat="47.10542" lon="2.26138">
        <ele>115</ele>
        <time>2021-08-11T13:50:19Z</time>
      </trkpt>
      <trkpt lat="47.10543" lon="2.26129">
        <ele>115</ele>
        <time>2021-08-11T13:50:19Z</time>
      </trkpt>
      <trkpt lat="47.10543" lon="2.2612">
        <ele>115</ele>
        <time>2021-08-11T13:50:19Z</time>
      </trkpt>
      <trkpt lat="47.10543" lon="2.26111">
        <ele>115</ele>
        <time>2021-08-11T13:50:19Z</time>
      </trkpt>
      <trkpt lat="47.10544" lon="2.26101">
        <ele>115</ele>
        <time>2021-08-11T13:50:19Z</time>
      </trkpt>
      <trkpt lat="47.10544" lon="2.26092">
        <ele>115</ele>
        <time>2021-08-11T13:50:19Z</time>
      </trkpt>
      <trkpt lat="47.10544" lon="2.26083">
        <ele>115</ele>
        <time>2021-08-11T13:50:19Z</time>
      </trkpt>
      <trkpt lat="47.10545" lon="2.26073">
        <ele>115</ele>
        <time>2021-08-11T13:50:19Z</time>
      </trkpt>
      <trkpt lat="47.10545" lon="2.26064">
        <ele>115</ele>
        <time>2021-08-11T13:50:19Z</time>
      </trkpt>
      <trkpt lat="47.10546" lon="2.26055">
        <ele>115</ele>
        <time>2021-08-11T13:50:19Z</time>
      </trkpt>
      <trkpt lat="47.10546" lon="2.26045">
        <ele>115</ele>
        <time>2021-08-11T13:50:19Z</time>
      </trkpt>
      <trkpt lat="47.10546" lon="2.26036">
        <ele>115</ele>
        <time>2021-08-11T13:50:19Z</time>
      </trkpt>
      <trkpt lat="47.10547" lon="2.26026">
        <ele>115</ele>
        <time>2021-08-11T13:50:19Z</time>
      </trkpt>
      <trkpt lat="47.10546" lon="2.26017">
        <ele>115</ele>
        <time>2021-08-11T13:50:19Z</time>
      </trkpt>
      <trkpt lat="47.10547" lon="2.26008">
        <ele>114</ele>
        <time>2021-08-11T13:50:19Z</time>
      </trkpt>
      <trkpt lat="47.10547" lon="2.25999">
        <ele>114</ele>
        <time>2021-08-11T13:50:19Z</time>
      </trkpt>
      <trkpt lat="47.10547" lon="2.25989">
        <ele>114</ele>
        <time>2021-08-11T13:50:19Z</time>
      </trkpt>
      <trkpt lat="47.10547" lon="2.2598">
        <ele>114</ele>
        <time>2021-08-11T13:50:19Z</time>
      </trkpt>
      <trkpt lat="47.10547" lon="2.2597">
        <ele>114</ele>
        <time>2021-08-11T13:50:19Z</time>
      </trkpt>
      <trkpt lat="47.10548" lon="2.25961">
        <ele>114</ele>
        <time>2021-08-11T13:50:19Z</time>
      </trkpt>
      <trkpt lat="47.10548" lon="2.25952">
        <ele>114</ele>
        <time>2021-08-11T13:50:19Z</time>
      </trkpt>
      <trkpt lat="47.10548" lon="2.25943">
        <ele>114</ele>
        <time>2021-08-11T13:50:19Z</time>
      </trkpt>
      <trkpt lat="47.10549" lon="2.25934">
        <ele>114</ele>
        <time>2021-08-11T13:50:19Z</time>
      </trkpt>
      <trkpt lat="47.10549" lon="2.25925">
        <ele>114</ele>
        <time>2021-08-11T13:50:19Z</time>
      </trkpt>
      <trkpt lat="47.10549" lon="2.25915">
        <ele>114</ele>
        <time>2021-08-11T13:50:19Z</time>
      </trkpt>
      <trkpt lat="47.1055" lon="2.25906">
        <ele>114</ele>
        <time>2021-08-11T13:50:19Z</time>
      </trkpt>
      <trkpt lat="47.1055" lon="2.25897">
        <ele>114</ele>
        <time>2021-08-11T13:50:19Z</time>
      </trkpt>
      <trkpt lat="47.1055" lon="2.25888">
        <ele>115</ele>
        <time>2021-08-11T13:50:19Z</time>
      </trkpt>
      <trkpt lat="47.10551" lon="2.25879">
        <ele>115</ele>
        <time>2021-08-11T13:50:19Z</time>
      </trkpt>
      <trkpt lat="47.10551" lon="2.25869">
        <ele>115</ele>
        <time>2021-08-11T13:50:19Z</time>
      </trkpt>
      <trkpt lat="47.10552" lon="2.25859">
        <ele>116</ele>
        <time>2021-08-11T13:50:19Z</time>
      </trkpt>
      <trkpt lat="47.10553" lon="2.25851">
        <ele>116</ele>
        <time>2021-08-11T13:50:19Z</time>
      </trkpt>
      <trkpt lat="47.10554" lon="2.25841">
        <ele>116</ele>
        <time>2021-08-11T13:50:19Z</time>
      </trkpt>
      <trkpt lat="47.10554" lon="2.25832">
        <ele>116</ele>
        <time>2021-08-11T13:50:19Z</time>
      </trkpt>
      <trkpt lat="47.10555" lon="2.25823">
        <ele>116</ele>
        <time>2021-08-11T13:50:19Z</time>
      </trkpt>
      <trkpt lat="47.10555" lon="2.25813">
        <ele>116</ele>
        <time>2021-08-11T13:50:19Z</time>
      </trkpt>
      <trkpt lat="47.10556" lon="2.25804">
        <ele>117</ele>
        <time>2021-08-11T13:50:19Z</time>
      </trkpt>
      <trkpt lat="47.10557" lon="2.25795">
        <ele>117</ele>
        <time>2021-08-11T13:50:19Z</time>
      </trkpt>
      <trkpt lat="47.10558" lon="2.25786">
        <ele>117</ele>
        <time>2021-08-11T13:50:19Z</time>
      </trkpt>
      <trkpt lat="47.10566" lon="2.25741">
        <ele>117</ele>
        <time>2021-08-11T13:50:19Z</time>
      </trkpt>
      <trkpt lat="47.1058" lon="2.25698">
        <ele>117</ele>
        <time>2021-08-11T13:50:19Z</time>
      </trkpt>
      <trkpt lat="47.10601" lon="2.25661">
        <ele>118</ele>
        <time>2021-08-11T13:50:19Z</time>
      </trkpt>
      <trkpt lat="47.10622" lon="2.25627">
        <ele>118</ele>
        <time>2021-08-11T13:50:19Z</time>
      </trkpt>
      <trkpt lat="47.10649" lon="2.256">
        <ele>117</ele>
        <time>2021-08-11T13:50:19Z</time>
      </trkpt>
      <trkpt lat="47.10669" lon="2.25576">
        <ele>117</ele>
        <time>2021-08-11T13:50:19Z</time>
      </trkpt>
      <trkpt lat="47.10674" lon="2.25569">
        <ele>117</ele>
        <time>2021-08-11T13:50:19Z</time>
      </trkpt>
      <trkpt lat="47.107" lon="2.25544">
        <ele>116</ele>
        <time>2021-08-11T13:50:19Z</time>
      </trkpt>
      <trkpt lat="47.10725" lon="2.25515">
        <ele>115</ele>
        <time>2021-08-11T13:50:19Z</time>
      </trkpt>
      <trkpt lat="47.10751" lon="2.25488">
        <ele>115</ele>
        <time>2021-08-11T13:50:19Z</time>
      </trkpt>
      <trkpt lat="47.10775" lon="2.2546">
        <ele>115</ele>
        <time>2021-08-11T13:50:19Z</time>
      </trkpt>
      <trkpt lat="47.10796" lon="2.25432">
        <ele>115</ele>
        <time>2021-08-11T13:50:19Z</time>
      </trkpt>
      <trkpt lat="47.10809" lon="2.25414">
        <ele>115</ele>
        <time>2021-08-11T13:50:19Z</time>
      </trkpt>
      <trkpt lat="47.10812" lon="2.25412">
        <ele>115</ele>
        <time>2021-08-11T13:50:19Z</time>
      </trkpt>
      <trkpt lat="47.10815" lon="2.25409">
        <ele>115</ele>
        <time>2021-08-11T13:50:19Z</time>
      </trkpt>
      <trkpt lat="47.10818" lon="2.25405">
        <ele>115</ele>
        <time>2021-08-11T13:50:19Z</time>
      </trkpt>
      <trkpt lat="47.10822" lon="2.25402">
        <ele>114</ele>
        <time>2021-08-11T13:50:19Z</time>
      </trkpt>
      <trkpt lat="47.10826" lon="2.25397">
        <ele>114</ele>
        <time>2021-08-11T13:50:19Z</time>
      </trkpt>
      <trkpt lat="47.10831" lon="2.25392">
        <ele>114</ele>
        <time>2021-08-11T13:50:19Z</time>
      </trkpt>
      <trkpt lat="47.10837" lon="2.25386">
        <ele>114</ele>
        <time>2021-08-11T13:50:19Z</time>
      </trkpt>
      <trkpt lat="47.10842" lon="2.2538">
        <ele>114</ele>
        <time>2021-08-11T13:50:19Z</time>
      </trkpt>
      <trkpt lat="47.10847" lon="2.25377">
        <ele>114</ele>
        <time>2021-08-11T13:50:19Z</time>
      </trkpt>
      <trkpt lat="47.10852" lon="2.25371">
        <ele>114</ele>
        <time>2021-08-11T13:50:19Z</time>
      </trkpt>
      <trkpt lat="47.10858" lon="2.25366">
        <ele>114</ele>
        <time>2021-08-11T13:50:19Z</time>
      </trkpt>
      <trkpt lat="47.10863" lon="2.2536">
        <ele>115</ele>
        <time>2021-08-11T13:50:19Z</time>
      </trkpt>
      <trkpt lat="47.10868" lon="2.25354">
        <ele>115</ele>
        <time>2021-08-11T13:50:19Z</time>
      </trkpt>
      <trkpt lat="47.10874" lon="2.25348">
        <ele>115</ele>
        <time>2021-08-11T13:50:19Z</time>
      </trkpt>
      <trkpt lat="47.10879" lon="2.25343">
        <ele>115</ele>
        <time>2021-08-11T13:50:19Z</time>
      </trkpt>
      <trkpt lat="47.10884" lon="2.25338">
        <ele>115</ele>
        <time>2021-08-11T13:50:19Z</time>
      </trkpt>
      <trkpt lat="47.10889" lon="2.25333">
        <ele>116</ele>
        <time>2021-08-11T13:50:19Z</time>
      </trkpt>
      <trkpt lat="47.10894" lon="2.25326">
        <ele>116</ele>
        <time>2021-08-11T13:50:19Z</time>
      </trkpt>
      <trkpt lat="47.10899" lon="2.25321">
        <ele>116</ele>
        <time>2021-08-11T13:50:19Z</time>
      </trkpt>
      <trkpt lat="47.10905" lon="2.25316">
        <ele>116</ele>
        <time>2021-08-11T13:50:19Z</time>
      </trkpt>
      <trkpt lat="47.1091" lon="2.2531">
        <ele>116</ele>
        <time>2021-08-11T13:50:19Z</time>
      </trkpt>
      <trkpt lat="47.10915" lon="2.25305">
        <ele>116</ele>
        <time>2021-08-11T13:50:19Z</time>
      </trkpt>
      <trkpt lat="47.1092" lon="2.25299">
        <ele>116</ele>
        <time>2021-08-11T13:50:19Z</time>
      </trkpt>
      <trkpt lat="47.10925" lon="2.25293">
        <ele>116</ele>
        <time>2021-08-11T13:50:19Z</time>
      </trkpt>
      <trkpt lat="47.1093" lon="2.25287">
        <ele>115</ele>
        <time>2021-08-11T13:50:19Z</time>
      </trkpt>
      <trkpt lat="47.10936" lon="2.25282">
        <ele>115</ele>
        <time>2021-08-11T13:50:19Z</time>
      </trkpt>
      <trkpt lat="47.10942" lon="2.25277">
        <ele>115</ele>
        <time>2021-08-11T13:50:19Z</time>
      </trkpt>
      <trkpt lat="47.10969" lon="2.25249">
        <ele>114</ele>
        <time>2021-08-11T13:50:19Z</time>
      </trkpt>
      <trkpt lat="47.10997" lon="2.25222">
        <ele>114</ele>
        <time>2021-08-11T13:50:19Z</time>
      </trkpt>
      <trkpt lat="47.11025" lon="2.25194">
        <ele>114</ele>
        <time>2021-08-11T13:50:19Z</time>
      </trkpt>
      <trkpt lat="47.11052" lon="2.25164">
        <ele>114</ele>
        <time>2021-08-11T13:50:19Z</time>
      </trkpt>
      <trkpt lat="47.11079" lon="2.25135">
        <ele>114</ele>
        <time>2021-08-11T13:50:19Z</time>
      </trkpt>
      <trkpt lat="47.11102" lon="2.25112">
        <ele>115</ele>
        <time>2021-08-11T13:50:19Z</time>
      </trkpt>
      <trkpt lat="47.11107" lon="2.25106">
        <ele>114</ele>
        <time>2021-08-11T13:50:19Z</time>
      </trkpt>
      <trkpt lat="47.11134" lon="2.25075">
        <ele>113</ele>
        <time>2021-08-11T13:50:19Z</time>
      </trkpt>
      <trkpt lat="47.11161" lon="2.25046">
        <ele>114</ele>
        <time>2021-08-11T13:50:19Z</time>
      </trkpt>
      <trkpt lat="47.11188" lon="2.25017">
        <ele>114</ele>
        <time>2021-08-11T13:50:19Z</time>
      </trkpt>
      <trkpt lat="47.11215" lon="2.24987">
        <ele>114</ele>
        <time>2021-08-11T13:50:19Z</time>
      </trkpt>
      <trkpt lat="47.11242" lon="2.24958">
        <ele>115</ele>
        <time>2021-08-11T13:50:19Z</time>
      </trkpt>
      <trkpt lat="47.11264" lon="2.24934">
        <ele>116</ele>
        <time>2021-08-11T13:50:19Z</time>
      </trkpt>
      <trkpt lat="47.11269" lon="2.24928">
        <ele>116</ele>
        <time>2021-08-11T13:50:19Z</time>
      </trkpt>
      <trkpt lat="47.11296" lon="2.24899">
        <ele>117</ele>
        <time>2021-08-11T13:50:19Z</time>
      </trkpt>
      <trkpt lat="47.11323" lon="2.24871">
        <ele>117</ele>
        <time>2021-08-11T13:50:19Z</time>
      </trkpt>
      <trkpt lat="47.11351" lon="2.24841">
        <ele>118</ele>
        <time>2021-08-11T13:50:19Z</time>
      </trkpt>
      <trkpt lat="47.11379" lon="2.24812">
        <ele>116</ele>
        <time>2021-08-11T13:50:19Z</time>
      </trkpt>
      <trkpt lat="47.11407" lon="2.24782">
        <ele>115</ele>
        <time>2021-08-11T13:50:19Z</time>
      </trkpt>
      <trkpt lat="47.11428" lon="2.24757">
        <ele>116</ele>
        <time>2021-08-11T13:50:19Z</time>
      </trkpt>
      <trkpt lat="47.11434" lon="2.24752">
        <ele>116</ele>
        <time>2021-08-11T13:50:19Z</time>
      </trkpt>
      <trkpt lat="47.11461" lon="2.24722">
        <ele>116</ele>
        <time>2021-08-11T13:50:19Z</time>
      </trkpt>
      <trkpt lat="47.11488" lon="2.24693">
        <ele>115</ele>
        <time>2021-08-11T13:50:19Z</time>
      </trkpt>
      <trkpt lat="47.11516" lon="2.24663">
        <ele>115</ele>
        <time>2021-08-11T13:50:19Z</time>
      </trkpt>
      <trkpt lat="47.11544" lon="2.24632">
        <ele>115</ele>
        <time>2021-08-11T13:50:19Z</time>
      </trkpt>
      <trkpt lat="47.11572" lon="2.24602">
        <ele>116</ele>
        <time>2021-08-11T13:50:19Z</time>
      </trkpt>
      <trkpt lat="47.11593" lon="2.24579">
        <ele>115</ele>
        <time>2021-08-11T13:50:19Z</time>
      </trkpt>
      <trkpt lat="47.11599" lon="2.24574">
        <ele>115</ele>
        <time>2021-08-11T13:50:19Z</time>
      </trkpt>
      <trkpt lat="47.11605" lon="2.24568">
        <ele>114</ele>
        <time>2021-08-11T13:50:19Z</time>
      </trkpt>
      <trkpt lat="47.1161" lon="2.24562">
        <ele>114</ele>
        <time>2021-08-11T13:50:19Z</time>
      </trkpt>
      <trkpt lat="47.11614" lon="2.24556">
        <ele>113</ele>
        <time>2021-08-11T13:50:19Z</time>
      </trkpt>
      <trkpt lat="47.1162" lon="2.2455">
        <ele>113</ele>
        <time>2021-08-11T13:50:19Z</time>
      </trkpt>
      <trkpt lat="47.11625" lon="2.24544">
        <ele>113</ele>
        <time>2021-08-11T13:50:19Z</time>
      </trkpt>
      <trkpt lat="47.11631" lon="2.24539">
        <ele>113</ele>
        <time>2021-08-11T13:50:19Z</time>
      </trkpt>
      <trkpt lat="47.11636" lon="2.24534">
        <ele>113</ele>
        <time>2021-08-11T13:50:19Z</time>
      </trkpt>
      <trkpt lat="47.11642" lon="2.24528">
        <ele>114</ele>
        <time>2021-08-11T13:50:19Z</time>
      </trkpt>
      <trkpt lat="47.11647" lon="2.24522">
        <ele>114</ele>
        <time>2021-08-11T13:50:19Z</time>
      </trkpt>
      <trkpt lat="47.11653" lon="2.24516">
        <ele>114</ele>
        <time>2021-08-11T13:50:19Z</time>
      </trkpt>
      <trkpt lat="47.11658" lon="2.2451">
        <ele>114</ele>
        <time>2021-08-11T13:50:19Z</time>
      </trkpt>
      <trkpt lat="47.11664" lon="2.24503">
        <ele>114</ele>
        <time>2021-08-11T13:50:19Z</time>
      </trkpt>
      <trkpt lat="47.11669" lon="2.24498">
        <ele>114</ele>
        <time>2021-08-11T13:50:19Z</time>
      </trkpt>
      <trkpt lat="47.11675" lon="2.24492">
        <ele>114</ele>
        <time>2021-08-11T13:50:19Z</time>
      </trkpt>
      <trkpt lat="47.1168" lon="2.24487">
        <ele>114</ele>
        <time>2021-08-11T13:50:19Z</time>
      </trkpt>
      <trkpt lat="47.11685" lon="2.2448">
        <ele>115</ele>
        <time>2021-08-11T13:50:19Z</time>
      </trkpt>
      <trkpt lat="47.11691" lon="2.24475">
        <ele>115</ele>
        <time>2021-08-11T13:50:19Z</time>
      </trkpt>
      <trkpt lat="47.11696" lon="2.24469">
        <ele>115</ele>
        <time>2021-08-11T13:50:19Z</time>
      </trkpt>
      <trkpt lat="47.11702" lon="2.24463">
        <ele>115</ele>
        <time>2021-08-11T13:50:19Z</time>
      </trkpt>
      <trkpt lat="47.11707" lon="2.24457">
        <ele>115</ele>
        <time>2021-08-11T13:50:19Z</time>
      </trkpt>
      <trkpt lat="47.11712" lon="2.24452">
        <ele>115</ele>
        <time>2021-08-11T13:50:19Z</time>
      </trkpt>
      <trkpt lat="47.11718" lon="2.24446">
        <ele>115</ele>
        <time>2021-08-11T13:50:19Z</time>
      </trkpt>
      <trkpt lat="47.11723" lon="2.2444">
        <ele>116</ele>
        <time>2021-08-11T13:50:19Z</time>
      </trkpt>
      <trkpt lat="47.11728" lon="2.24434">
        <ele>116</ele>
        <time>2021-08-11T13:50:19Z</time>
      </trkpt>
      <trkpt lat="47.11734" lon="2.24428">
        <ele>116</ele>
        <time>2021-08-11T13:50:19Z</time>
      </trkpt>
      <trkpt lat="47.1174" lon="2.24422">
        <ele>116</ele>
        <time>2021-08-11T13:50:19Z</time>
      </trkpt>
      <trkpt lat="47.11745" lon="2.24416">
        <ele>116</ele>
        <time>2021-08-11T13:50:19Z</time>
      </trkpt>
      <trkpt lat="47.11751" lon="2.24411">
        <ele>116</ele>
        <time>2021-08-11T13:50:19Z</time>
      </trkpt>
      <trkpt lat="47.11756" lon="2.24405">
        <ele>116</ele>
        <time>2021-08-11T13:50:19Z</time>
      </trkpt>
      <trkpt lat="47.11761" lon="2.244">
        <ele>116</ele>
        <time>2021-08-11T13:50:19Z</time>
      </trkpt>
      <trkpt lat="47.11767" lon="2.24393">
        <ele>116</ele>
        <time>2021-08-11T13:50:19Z</time>
      </trkpt>
      <trkpt lat="47.11772" lon="2.24387">
        <ele>116</ele>
        <time>2021-08-11T13:50:19Z</time>
      </trkpt>
      <trkpt lat="47.11778" lon="2.24381">
        <ele>116</ele>
        <time>2021-08-11T13:50:19Z</time>
      </trkpt>
      <trkpt lat="47.11783" lon="2.24374">
        <ele>115</ele>
        <time>2021-08-11T13:50:19Z</time>
      </trkpt>
      <trkpt lat="47.11789" lon="2.24368">
        <ele>115</ele>
        <time>2021-08-11T13:50:19Z</time>
      </trkpt>
      <trkpt lat="47.11794" lon="2.24362">
        <ele>115</ele>
        <time>2021-08-11T13:50:19Z</time>
      </trkpt>
      <trkpt lat="47.11799" lon="2.24357">
        <ele>115</ele>
        <time>2021-08-11T13:50:19Z</time>
      </trkpt>
      <trkpt lat="47.11804" lon="2.24351">
        <ele>115</ele>
        <time>2021-08-11T13:50:19Z</time>
      </trkpt>
      <trkpt lat="47.1181" lon="2.24345">
        <ele>114</ele>
        <time>2021-08-11T13:50:19Z</time>
      </trkpt>
      <trkpt lat="47.11815" lon="2.24339">
        <ele>114</ele>
        <time>2021-08-11T13:50:19Z</time>
      </trkpt>
      <trkpt lat="47.11821" lon="2.24334">
        <ele>114</ele>
        <time>2021-08-11T13:50:19Z</time>
      </trkpt>
      <trkpt lat="47.11826" lon="2.24328">
        <ele>115</ele>
        <time>2021-08-11T13:50:19Z</time>
      </trkpt>
      <trkpt lat="47.11831" lon="2.24323">
        <ele>115</ele>
        <time>2021-08-11T13:50:19Z</time>
      </trkpt>
      <trkpt lat="47.11837" lon="2.24317">
        <ele>115</ele>
        <time>2021-08-11T13:50:19Z</time>
      </trkpt>
      <trkpt lat="47.11843" lon="2.24311">
        <ele>115</ele>
        <time>2021-08-11T13:50:19Z</time>
      </trkpt>
      <trkpt lat="47.11848" lon="2.24305">
        <ele>116</ele>
        <time>2021-08-11T13:50:19Z</time>
      </trkpt>
      <trkpt lat="47.11853" lon="2.24298">
        <ele>116</ele>
        <time>2021-08-11T13:50:19Z</time>
      </trkpt>
      <trkpt lat="47.11859" lon="2.24292">
        <ele>116</ele>
        <time>2021-08-11T13:50:19Z</time>
      </trkpt>
      <trkpt lat="47.11865" lon="2.24286">
        <ele>116</ele>
        <time>2021-08-11T13:50:19Z</time>
      </trkpt>
      <trkpt lat="47.1187" lon="2.24281">
        <ele>116</ele>
        <time>2021-08-11T13:50:19Z</time>
      </trkpt>
      <trkpt lat="47.11875" lon="2.24275">
        <ele>116</ele>
        <time>2021-08-11T13:50:19Z</time>
      </trkpt>
      <trkpt lat="47.11881" lon="2.24268">
        <ele>116</ele>
        <time>2021-08-11T13:50:19Z</time>
      </trkpt>
      <trkpt lat="47.11886" lon="2.24262">
        <ele>116</ele>
        <time>2021-08-11T13:50:19Z</time>
      </trkpt>
      <trkpt lat="47.11892" lon="2.24257">
        <ele>117</ele>
        <time>2021-08-11T13:50:19Z</time>
      </trkpt>
      <trkpt lat="47.11898" lon="2.24251">
        <ele>117</ele>
        <time>2021-08-11T13:50:19Z</time>
      </trkpt>
      <trkpt lat="47.11903" lon="2.24246">
        <ele>116</ele>
        <time>2021-08-11T13:50:19Z</time>
      </trkpt>
      <trkpt lat="47.11908" lon="2.2424">
        <ele>116</ele>
        <time>2021-08-11T13:50:19Z</time>
      </trkpt>
      <trkpt lat="47.11914" lon="2.24234">
        <ele>116</ele>
        <time>2021-08-11T13:50:19Z</time>
      </trkpt>
      <trkpt lat="47.11919" lon="2.24228">
        <ele>116</ele>
        <time>2021-08-11T13:50:19Z</time>
      </trkpt>
      <trkpt lat="47.11925" lon="2.24223">
        <ele>116</ele>
        <time>2021-08-11T13:50:19Z</time>
      </trkpt>
      <trkpt lat="47.11931" lon="2.24216">
        <ele>116</ele>
        <time>2021-08-11T13:50:19Z</time>
      </trkpt>
      <trkpt lat="47.11957" lon="2.24186">
        <ele>115</ele>
        <time>2021-08-11T13:50:19Z</time>
      </trkpt>
      <trkpt lat="47.11968" lon="2.24175">
        <ele>115</ele>
        <time>2021-08-11T13:50:19Z</time>
      </trkpt>
      <trkpt lat="47.11973" lon="2.2417">
        <ele>114</ele>
        <time>2021-08-11T13:50:19Z</time>
      </trkpt>
      <trkpt lat="47.11978" lon="2.24164">
        <ele>115</ele>
        <time>2021-08-11T13:50:19Z</time>
      </trkpt>
      <trkpt lat="47.11984" lon="2.24159">
        <ele>115</ele>
        <time>2021-08-11T13:50:19Z</time>
      </trkpt>
      <trkpt lat="47.11989" lon="2.24153">
        <ele>115</ele>
        <time>2021-08-11T13:50:19Z</time>
      </trkpt>
      <trkpt lat="47.11994" lon="2.24147">
        <ele>116</ele>
        <time>2021-08-11T13:50:19Z</time>
      </trkpt>
      <trkpt lat="47.11999" lon="2.24142">
        <ele>116</ele>
        <time>2021-08-11T13:50:19Z</time>
      </trkpt>
      <trkpt lat="47.12005" lon="2.24136">
        <ele>116</ele>
        <time>2021-08-11T13:50:19Z</time>
      </trkpt>
      <trkpt lat="47.1201" lon="2.2413">
        <ele>116</ele>
        <time>2021-08-11T13:50:19Z</time>
      </trkpt>
      <trkpt lat="47.12015" lon="2.24124">
        <ele>116</ele>
        <time>2021-08-11T13:50:19Z</time>
      </trkpt>
      <trkpt lat="47.1202" lon="2.24118">
        <ele>116</ele>
        <time>2021-08-11T13:50:19Z</time>
      </trkpt>
      <trkpt lat="47.12025" lon="2.24112">
        <ele>116</ele>
        <time>2021-08-11T13:50:19Z</time>
      </trkpt>
      <trkpt lat="47.1203" lon="2.24107">
        <ele>116</ele>
        <time>2021-08-11T13:50:19Z</time>
      </trkpt>
      <trkpt lat="47.12035" lon="2.24102">
        <ele>116</ele>
        <time>2021-08-11T13:50:19Z</time>
      </trkpt>
      <trkpt lat="47.12041" lon="2.24096">
        <ele>115</ele>
        <time>2021-08-11T13:50:19Z</time>
      </trkpt>
      <trkpt lat="47.12046" lon="2.24091">
        <ele>115</ele>
        <time>2021-08-11T13:50:19Z</time>
      </trkpt>
      <trkpt lat="47.12052" lon="2.24084">
        <ele>115</ele>
        <time>2021-08-11T13:50:19Z</time>
      </trkpt>
      <trkpt lat="47.12057" lon="2.24078">
        <ele>115</ele>
        <time>2021-08-11T13:50:19Z</time>
      </trkpt>
      <trkpt lat="47.12063" lon="2.24072">
        <ele>115</ele>
        <time>2021-08-11T13:50:19Z</time>
      </trkpt>
      <trkpt lat="47.12068" lon="2.24067">
        <ele>115</ele>
        <time>2021-08-11T13:50:19Z</time>
      </trkpt>
      <trkpt lat="47.12074" lon="2.2406">
        <ele>115</ele>
        <time>2021-08-11T13:50:19Z</time>
      </trkpt>
      <trkpt lat="47.1208" lon="2.24055">
        <ele>115</ele>
        <time>2021-08-11T13:50:19Z</time>
      </trkpt>
      <trkpt lat="47.12085" lon="2.24049">
        <ele>115</ele>
        <time>2021-08-11T13:50:19Z</time>
      </trkpt>
      <trkpt lat="47.1209" lon="2.24043">
        <ele>115</ele>
        <time>2021-08-11T13:50:19Z</time>
      </trkpt>
      <trkpt lat="47.12095" lon="2.24037">
        <ele>116</ele>
        <time>2021-08-11T13:50:19Z</time>
      </trkpt>
      <trkpt lat="47.121" lon="2.24032">
        <ele>116</ele>
        <time>2021-08-11T13:50:19Z</time>
      </trkpt>
      <trkpt lat="47.12106" lon="2.24026">
        <ele>116</ele>
        <time>2021-08-11T13:50:19Z</time>
      </trkpt>
      <trkpt lat="47.1211" lon="2.24021">
        <ele>116</ele>
        <time>2021-08-11T13:50:19Z</time>
      </trkpt>
      <trkpt lat="47.12115" lon="2.24015">
        <ele>116</ele>
        <time>2021-08-11T13:50:19Z</time>
      </trkpt>
      <trkpt lat="47.1212" lon="2.24009">
        <ele>116</ele>
        <time>2021-08-11T13:50:19Z</time>
      </trkpt>
      <trkpt lat="47.12126" lon="2.24003">
        <ele>116</ele>
        <time>2021-08-11T13:50:19Z</time>
      </trkpt>
      <trkpt lat="47.12131" lon="2.23997">
        <ele>117</ele>
        <time>2021-08-11T13:50:19Z</time>
      </trkpt>
      <trkpt lat="47.12137" lon="2.23991">
        <ele>117</ele>
        <time>2021-08-11T13:50:19Z</time>
      </trkpt>
      <trkpt lat="47.12142" lon="2.23986">
        <ele>117</ele>
        <time>2021-08-11T13:50:19Z</time>
      </trkpt>
      <trkpt lat="47.12147" lon="2.2398">
        <ele>118</ele>
        <time>2021-08-11T13:50:19Z</time>
      </trkpt>
      <trkpt lat="47.12153" lon="2.23974">
        <ele>118</ele>
        <time>2021-08-11T13:50:19Z</time>
      </trkpt>
      <trkpt lat="47.12158" lon="2.23968">
        <ele>118</ele>
        <time>2021-08-11T13:50:19Z</time>
      </trkpt>
      <trkpt lat="47.12165" lon="2.23963">
        <ele>118</ele>
        <time>2021-08-11T13:50:19Z</time>
      </trkpt>
      <trkpt lat="47.1217" lon="2.23957">
        <ele>118</ele>
        <time>2021-08-11T13:50:19Z</time>
      </trkpt>
      <trkpt lat="47.12175" lon="2.23951">
        <ele>118</ele>
        <time>2021-08-11T13:50:19Z</time>
      </trkpt>
      <trkpt lat="47.12181" lon="2.23945">
        <ele>118</ele>
        <time>2021-08-11T13:50:19Z</time>
      </trkpt>
      <trkpt lat="47.12186" lon="2.23939">
        <ele>118</ele>
        <time>2021-08-11T13:50:19Z</time>
      </trkpt>
      <trkpt lat="47.12192" lon="2.23933">
        <ele>117</ele>
        <time>2021-08-11T13:50:19Z</time>
      </trkpt>
      <trkpt lat="47.12197" lon="2.23926">
        <ele>117</ele>
        <time>2021-08-11T13:50:19Z</time>
      </trkpt>
      <trkpt lat="47.12202" lon="2.2392">
        <ele>117</ele>
        <time>2021-08-11T13:50:19Z</time>
      </trkpt>
      <trkpt lat="47.12207" lon="2.23911">
        <ele>118</ele>
        <time>2021-08-11T13:50:19Z</time>
      </trkpt>
      <trkpt lat="47.12211" lon="2.23904">
        <ele>118</ele>
        <time>2021-08-11T13:50:19Z</time>
      </trkpt>
      <trkpt lat="47.12218" lon="2.23898">
        <ele>119</ele>
        <time>2021-08-11T13:50:19Z</time>
      </trkpt>
      <trkpt lat="47.12222" lon="2.23889">
        <ele>121</ele>
        <time>2021-08-11T13:50:19Z</time>
      </trkpt>
      <trkpt lat="47.12227" lon="2.23882">
        <ele>121</ele>
        <time>2021-08-11T13:50:19Z</time>
      </trkpt>
      <trkpt lat="47.12232" lon="2.23875">
        <ele>122</ele>
        <time>2021-08-11T13:50:19Z</time>
      </trkpt>
      <trkpt lat="47.12236" lon="2.23866">
        <ele>122</ele>
        <time>2021-08-11T13:50:19Z</time>
      </trkpt>
      <trkpt lat="47.12239" lon="2.23859">
        <ele>123</ele>
        <time>2021-08-11T13:50:19Z</time>
      </trkpt>
      <trkpt lat="47.12243" lon="2.2385">
        <ele>124</ele>
        <time>2021-08-11T13:50:19Z</time>
      </trkpt>
      <trkpt lat="47.12247" lon="2.23841">
        <ele>124</ele>
        <time>2021-08-11T13:50:19Z</time>
      </trkpt>
      <trkpt lat="47.12251" lon="2.23833">
        <ele>124</ele>
        <time>2021-08-11T13:50:19Z</time>
      </trkpt>
      <trkpt lat="47.12255" lon="2.23825">
        <ele>124</ele>
        <time>2021-08-11T13:50:19Z</time>
      </trkpt>
      <trkpt lat="47.12259" lon="2.23818">
        <ele>124</ele>
        <time>2021-08-11T13:50:19Z</time>
      </trkpt>
      <trkpt lat="47.12263" lon="2.2381">
        <ele>124</ele>
        <time>2021-08-11T13:50:19Z</time>
      </trkpt>
      <trkpt lat="47.12267" lon="2.23803">
        <ele>123</ele>
        <time>2021-08-11T13:50:19Z</time>
      </trkpt>
      <trkpt lat="47.12271" lon="2.23794">
        <ele>123</ele>
        <time>2021-08-11T13:50:19Z</time>
      </trkpt>
      <trkpt lat="47.12274" lon="2.23784">
        <ele>122</ele>
        <time>2021-08-11T13:50:19Z</time>
      </trkpt>
      <trkpt lat="47.12292" lon="2.23741">
        <ele>121</ele>
        <time>2021-08-11T13:50:19Z</time>
      </trkpt>
      <trkpt lat="47.1231" lon="2.23695">
        <ele>120</ele>
        <time>2021-08-11T13:50:19Z</time>
      </trkpt>
      <trkpt lat="47.12329" lon="2.23651">
        <ele>121</ele>
        <time>2021-08-11T13:50:19Z</time>
      </trkpt>
      <trkpt lat="47.12345" lon="2.23613">
        <ele>121</ele>
        <time>2021-08-11T13:50:19Z</time>
      </trkpt>
      <trkpt lat="47.12363" lon="2.23571">
        <ele>119</ele>
        <time>2021-08-11T13:50:19Z</time>
      </trkpt>
      <trkpt lat="47.12377" lon="2.23538">
        <ele>118</ele>
        <time>2021-08-11T13:50:19Z</time>
      </trkpt>
      <trkpt lat="47.1238" lon="2.23529">
        <ele>118</ele>
        <time>2021-08-11T13:50:19Z</time>
      </trkpt>
      <trkpt lat="47.12399" lon="2.23489">
        <ele>116</ele>
        <time>2021-08-11T13:50:19Z</time>
      </trkpt>
      <trkpt lat="47.12417" lon="2.2345">
        <ele>117</ele>
        <time>2021-08-11T13:50:19Z</time>
      </trkpt>
      <trkpt lat="47.12435" lon="2.23409">
        <ele>116</ele>
        <time>2021-08-11T13:50:19Z</time>
      </trkpt>
      <trkpt lat="47.12452" lon="2.23368">
        <ele>117</ele>
        <time>2021-08-11T13:50:19Z</time>
      </trkpt>
      <trkpt lat="47.12471" lon="2.23327">
        <ele>118</ele>
        <time>2021-08-11T13:50:19Z</time>
      </trkpt>
      <trkpt lat="47.12486" lon="2.23295">
        <ele>117</ele>
        <time>2021-08-11T13:50:19Z</time>
      </trkpt>
      <trkpt lat="47.1249" lon="2.23287">
        <ele>117</ele>
        <time>2021-08-11T13:50:19Z</time>
      </trkpt>
      <trkpt lat="47.12509" lon="2.23246">
        <ele>114</ele>
        <time>2021-08-11T13:50:19Z</time>
      </trkpt>
      <trkpt lat="47.12526" lon="2.23204">
        <ele>113</ele>
        <time>2021-08-11T13:50:19Z</time>
      </trkpt>
      <trkpt lat="47.12545" lon="2.23165">
        <ele>114</ele>
        <time>2021-08-11T13:50:19Z</time>
      </trkpt>
      <trkpt lat="47.12565" lon="2.23123">
        <ele>116</ele>
        <time>2021-08-11T13:50:19Z</time>
      </trkpt>
      <trkpt lat="47.12584" lon="2.23082">
        <ele>116</ele>
        <time>2021-08-11T13:50:19Z</time>
      </trkpt>
      <trkpt lat="47.12598" lon="2.2305">
        <ele>116</ele>
        <time>2021-08-11T13:50:19Z</time>
      </trkpt>
      <trkpt lat="47.12601" lon="2.23042">
        <ele>116</ele>
        <time>2021-08-11T13:50:19Z</time>
      </trkpt>
      <trkpt lat="47.1262" lon="2.22999">
        <ele>116</ele>
        <time>2021-08-11T13:50:19Z</time>
      </trkpt>
      <trkpt lat="47.12638" lon="2.22958">
        <ele>117</ele>
        <time>2021-08-11T13:50:19Z</time>
      </trkpt>
      <trkpt lat="47.12657" lon="2.22918">
        <ele>117</ele>
        <time>2021-08-11T13:50:19Z</time>
      </trkpt>
      <trkpt lat="47.12674" lon="2.22876">
        <ele>119</ele>
        <time>2021-08-11T13:50:19Z</time>
      </trkpt>
      <trkpt lat="47.12691" lon="2.22838">
        <ele>120</ele>
        <time>2021-08-11T13:50:19Z</time>
      </trkpt>
      <trkpt lat="47.12705" lon="2.22809">
        <ele>119</ele>
        <time>2021-08-11T13:50:19Z</time>
      </trkpt>
      <trkpt lat="47.12709" lon="2.228">
        <ele>118</ele>
        <time>2021-08-11T13:50:19Z</time>
      </trkpt>
      <trkpt lat="47.12724" lon="2.22756">
        <ele>119</ele>
        <time>2021-08-11T13:50:19Z</time>
      </trkpt>
      <trkpt lat="47.12742" lon="2.22717">
        <ele>118</ele>
        <time>2021-08-11T13:50:19Z</time>
      </trkpt>
      <trkpt lat="47.12761" lon="2.22678">
        <ele>117</ele>
        <time>2021-08-11T13:50:19Z</time>
      </trkpt>
      <trkpt lat="47.12779" lon="2.22637">
        <ele>116</ele>
        <time>2021-08-11T13:50:19Z</time>
      </trkpt>
      <trkpt lat="47.12796" lon="2.22598">
        <ele>116</ele>
        <time>2021-08-11T13:50:19Z</time>
      </trkpt>
      <trkpt lat="47.12811" lon="2.22566">
        <ele>116</ele>
        <time>2021-08-11T13:50:19Z</time>
      </trkpt>
      <trkpt lat="47.12816" lon="2.22559">
        <ele>116</ele>
        <time>2021-08-11T13:50:19Z</time>
      </trkpt>
      <trkpt lat="47.12823" lon="2.22542">
        <ele>116</ele>
        <time>2021-08-11T13:50:19Z</time>
      </trkpt>
      <trkpt lat="47.12827" lon="2.22535">
        <ele>116</ele>
        <time>2021-08-11T13:50:19Z</time>
      </trkpt>
      <trkpt lat="47.1283" lon="2.22527">
        <ele>116</ele>
        <time>2021-08-11T13:50:19Z</time>
      </trkpt>
      <trkpt lat="47.12834" lon="2.22518">
        <ele>116</ele>
        <time>2021-08-11T13:50:19Z</time>
      </trkpt>
      <trkpt lat="47.12837" lon="2.2251">
        <ele>116</ele>
        <time>2021-08-11T13:50:19Z</time>
      </trkpt>
      <trkpt lat="47.12841" lon="2.22502">
        <ele>116</ele>
        <time>2021-08-11T13:50:19Z</time>
      </trkpt>
      <trkpt lat="47.12844" lon="2.22493">
        <ele>117</ele>
        <time>2021-08-11T13:50:19Z</time>
      </trkpt>
      <trkpt lat="47.12848" lon="2.22485">
        <ele>117</ele>
        <time>2021-08-11T13:50:19Z</time>
      </trkpt>
      <trkpt lat="47.12851" lon="2.22477">
        <ele>117</ele>
        <time>2021-08-11T13:50:19Z</time>
      </trkpt>
      <trkpt lat="47.12855" lon="2.22469">
        <ele>117</ele>
        <time>2021-08-11T13:50:19Z</time>
      </trkpt>
      <trkpt lat="47.12858" lon="2.22461">
        <ele>117</ele>
        <time>2021-08-11T13:50:19Z</time>
      </trkpt>
      <trkpt lat="47.12862" lon="2.22452">
        <ele>117</ele>
        <time>2021-08-11T13:50:19Z</time>
      </trkpt>
      <trkpt lat="47.12866" lon="2.22444">
        <ele>117</ele>
        <time>2021-08-11T13:50:19Z</time>
      </trkpt>
      <trkpt lat="47.1287" lon="2.22436">
        <ele>117</ele>
        <time>2021-08-11T13:50:19Z</time>
      </trkpt>
      <trkpt lat="47.12873" lon="2.22427">
        <ele>117</ele>
        <time>2021-08-11T13:50:19Z</time>
      </trkpt>
      <trkpt lat="47.12877" lon="2.22419">
        <ele>117</ele>
        <time>2021-08-11T13:50:19Z</time>
      </trkpt>
      <trkpt lat="47.12881" lon="2.22411">
        <ele>117</ele>
        <time>2021-08-11T13:50:19Z</time>
      </trkpt>
      <trkpt lat="47.12884" lon="2.22403">
        <ele>117</ele>
        <time>2021-08-11T13:50:19Z</time>
      </trkpt>
      <trkpt lat="47.12888" lon="2.22395">
        <ele>117</ele>
        <time>2021-08-11T13:50:19Z</time>
      </trkpt>
      <trkpt lat="47.12892" lon="2.22387">
        <ele>116</ele>
        <time>2021-08-11T13:50:19Z</time>
      </trkpt>
      <trkpt lat="47.12896" lon="2.22379">
        <ele>116</ele>
        <time>2021-08-11T13:50:19Z</time>
      </trkpt>
      <trkpt lat="47.12899" lon="2.22371">
        <ele>115</ele>
        <time>2021-08-11T13:50:19Z</time>
      </trkpt>
      <trkpt lat="47.12903" lon="2.22363">
        <ele>115</ele>
        <time>2021-08-11T13:50:19Z</time>
      </trkpt>
      <trkpt lat="47.12907" lon="2.22356">
        <ele>115</ele>
        <time>2021-08-11T13:50:19Z</time>
      </trkpt>
      <trkpt lat="47.12911" lon="2.22347">
        <ele>114</ele>
        <time>2021-08-11T13:50:19Z</time>
      </trkpt>
      <trkpt lat="47.12915" lon="2.22339">
        <ele>114</ele>
        <time>2021-08-11T13:50:19Z</time>
      </trkpt>
      <trkpt lat="47.12918" lon="2.2233">
        <ele>114</ele>
        <time>2021-08-11T13:50:19Z</time>
      </trkpt>
      <trkpt lat="47.12922" lon="2.22323">
        <ele>114</ele>
        <time>2021-08-11T13:50:19Z</time>
      </trkpt>
      <trkpt lat="47.12926" lon="2.22316">
        <ele>114</ele>
        <time>2021-08-11T13:50:19Z</time>
      </trkpt>
      <trkpt lat="47.1293" lon="2.22308">
        <ele>114</ele>
        <time>2021-08-11T13:50:19Z</time>
      </trkpt>
      <trkpt lat="47.12934" lon="2.22299">
        <ele>114</ele>
        <time>2021-08-11T13:50:19Z</time>
      </trkpt>
      <trkpt lat="47.12938" lon="2.2229">
        <ele>114</ele>
        <time>2021-08-11T13:50:19Z</time>
      </trkpt>
      <trkpt lat="47.12941" lon="2.22282">
        <ele>114</ele>
        <time>2021-08-11T13:50:19Z</time>
      </trkpt>
      <trkpt lat="47.12945" lon="2.22275">
        <ele>114</ele>
        <time>2021-08-11T13:50:19Z</time>
      </trkpt>
      <trkpt lat="47.12949" lon="2.22266">
        <ele>114</ele>
        <time>2021-08-11T13:50:19Z</time>
      </trkpt>
      <trkpt lat="47.12952" lon="2.22258">
        <ele>114</ele>
        <time>2021-08-11T13:50:19Z</time>
      </trkpt>
      <trkpt lat="47.12955" lon="2.22249">
        <ele>114</ele>
        <time>2021-08-11T13:50:19Z</time>
      </trkpt>
      <trkpt lat="47.12959" lon="2.22241">
        <ele>114</ele>
        <time>2021-08-11T13:50:19Z</time>
      </trkpt>
      <trkpt lat="47.12962" lon="2.22233">
        <ele>114</ele>
        <time>2021-08-11T13:50:19Z</time>
      </trkpt>
      <trkpt lat="47.12966" lon="2.22225">
        <ele>114</ele>
        <time>2021-08-11T13:50:19Z</time>
      </trkpt>
      <trkpt lat="47.1297" lon="2.22216">
        <ele>113</ele>
        <time>2021-08-11T13:50:19Z</time>
      </trkpt>
      <trkpt lat="47.12974" lon="2.22208">
        <ele>113</ele>
        <time>2021-08-11T13:50:19Z</time>
      </trkpt>
      <trkpt lat="47.12977" lon="2.222">
        <ele>113</ele>
        <time>2021-08-11T13:50:19Z</time>
      </trkpt>
      <trkpt lat="47.1298" lon="2.22192">
        <ele>113</ele>
        <time>2021-08-11T13:50:19Z</time>
      </trkpt>
      <trkpt lat="47.12984" lon="2.22184">
        <ele>113</ele>
        <time>2021-08-11T13:50:19Z</time>
      </trkpt>
      <trkpt lat="47.12988" lon="2.22176">
        <ele>113</ele>
        <time>2021-08-11T13:50:19Z</time>
      </trkpt>
      <trkpt lat="47.12991" lon="2.22168">
        <ele>113</ele>
        <time>2021-08-11T13:50:19Z</time>
      </trkpt>
      <trkpt lat="47.12994" lon="2.22159">
        <ele>113</ele>
        <time>2021-08-11T13:50:19Z</time>
      </trkpt>
      <trkpt lat="47.12998" lon="2.22151">
        <ele>113</ele>
        <time>2021-08-11T13:50:19Z</time>
      </trkpt>
      <trkpt lat="47.13002" lon="2.22142">
        <ele>113</ele>
        <time>2021-08-11T13:50:19Z</time>
      </trkpt>
      <trkpt lat="47.13005" lon="2.22134">
        <ele>113</ele>
        <time>2021-08-11T13:50:19Z</time>
      </trkpt>
      <trkpt lat="47.13009" lon="2.22126">
        <ele>113</ele>
        <time>2021-08-11T13:50:19Z</time>
      </trkpt>
      <trkpt lat="47.13013" lon="2.22117">
        <ele>113</ele>
        <time>2021-08-11T13:50:19Z</time>
      </trkpt>
      <trkpt lat="47.13016" lon="2.2211">
        <ele>113</ele>
        <time>2021-08-11T13:50:19Z</time>
      </trkpt>
      <trkpt lat="47.1302" lon="2.22102">
        <ele>113</ele>
        <time>2021-08-11T13:50:19Z</time>
      </trkpt>
      <trkpt lat="47.13024" lon="2.22094">
        <ele>114</ele>
        <time>2021-08-11T13:50:19Z</time>
      </trkpt>
      <trkpt lat="47.13027" lon="2.22087">
        <ele>114</ele>
        <time>2021-08-11T13:50:19Z</time>
      </trkpt>
      <trkpt lat="47.1303" lon="2.22079">
        <ele>115</ele>
        <time>2021-08-11T13:50:19Z</time>
      </trkpt>
      <trkpt lat="47.13034" lon="2.22072">
        <ele>115</ele>
        <time>2021-08-11T13:50:19Z</time>
      </trkpt>
      <trkpt lat="47.13037" lon="2.22064">
        <ele>115</ele>
        <time>2021-08-11T13:50:19Z</time>
      </trkpt>
      <trkpt lat="47.1304" lon="2.22057">
        <ele>116</ele>
        <time>2021-08-11T13:50:19Z</time>
      </trkpt>
      <trkpt lat="47.13058" lon="2.22019">
        <ele>116</ele>
        <time>2021-08-11T13:50:19Z</time>
      </trkpt>
      <trkpt lat="47.13077" lon="2.21978">
        <ele>116</ele>
        <time>2021-08-11T13:50:19Z</time>
      </trkpt>
      <trkpt lat="47.13094" lon="2.21937">
        <ele>116</ele>
        <time>2021-08-11T13:50:19Z</time>
      </trkpt>
      <trkpt lat="47.13112" lon="2.21896">
        <ele>116</ele>
        <time>2021-08-11T13:50:19Z</time>
      </trkpt>
      <trkpt lat="47.13129" lon="2.21857">
        <ele>116</ele>
        <time>2021-08-11T13:50:19Z</time>
      </trkpt>
      <trkpt lat="47.13144" lon="2.21824">
        <ele>116</ele>
        <time>2021-08-11T13:50:19Z</time>
      </trkpt>
      <trkpt lat="47.13147" lon="2.21815">
        <ele>116</ele>
        <time>2021-08-11T13:50:19Z</time>
      </trkpt>
      <trkpt lat="47.13167" lon="2.21775">
        <ele>118</ele>
        <time>2021-08-11T13:50:19Z</time>
      </trkpt>
      <trkpt lat="47.13189" lon="2.21739">
        <ele>118</ele>
        <time>2021-08-11T13:50:19Z</time>
      </trkpt>
      <trkpt lat="47.13216" lon="2.21708">
        <ele>118</ele>
        <time>2021-08-11T13:50:19Z</time>
      </trkpt>
      <trkpt lat="47.13246" lon="2.21684">
        <ele>118</ele>
        <time>2021-08-11T13:50:19Z</time>
      </trkpt>
      <trkpt lat="47.13276" lon="2.21667">
        <ele>117</ele>
        <time>2021-08-11T13:50:19Z</time>
      </trkpt>
      <trkpt lat="47.13302" lon="2.21657">
        <ele>119</ele>
        <time>2021-08-11T13:50:19Z</time>
      </trkpt>
      <trkpt lat="47.13308" lon="2.21654">
        <ele>119</ele>
        <time>2021-08-11T13:50:19Z</time>
      </trkpt>
      <trkpt lat="47.13321" lon="2.2165">
        <ele>119</ele>
        <time>2021-08-11T13:50:19Z</time>
      </trkpt>
      <trkpt lat="47.13327" lon="2.21648">
        <ele>119</ele>
        <time>2021-08-11T13:50:19Z</time>
      </trkpt>
      <trkpt lat="47.13334" lon="2.21646">
        <ele>119</ele>
        <time>2021-08-11T13:50:19Z</time>
      </trkpt>
      <trkpt lat="47.1334" lon="2.21644">
        <ele>119</ele>
        <time>2021-08-11T13:50:19Z</time>
      </trkpt>
      <trkpt lat="47.13348" lon="2.21642">
        <ele>119</ele>
        <time>2021-08-11T13:50:19Z</time>
      </trkpt>
      <trkpt lat="47.13355" lon="2.2164">
        <ele>119</ele>
        <time>2021-08-11T13:50:19Z</time>
      </trkpt>
      <trkpt lat="47.13361" lon="2.21638">
        <ele>119</ele>
        <time>2021-08-11T13:50:19Z</time>
      </trkpt>
      <trkpt lat="47.13367" lon="2.21635">
        <ele>119</ele>
        <time>2021-08-11T13:50:19Z</time>
      </trkpt>
      <trkpt lat="47.13373" lon="2.21633">
        <ele>119</ele>
        <time>2021-08-11T13:50:19Z</time>
      </trkpt>
      <trkpt lat="47.1338" lon="2.2163">
        <ele>119</ele>
        <time>2021-08-11T13:50:19Z</time>
      </trkpt>
      <trkpt lat="47.13387" lon="2.21627">
        <ele>119</ele>
        <time>2021-08-11T13:50:19Z</time>
      </trkpt>
      <trkpt lat="47.13393" lon="2.21625">
        <ele>119</ele>
        <time>2021-08-11T13:50:19Z</time>
      </trkpt>
      <trkpt lat="47.134" lon="2.21622">
        <ele>120</ele>
        <time>2021-08-11T13:50:19Z</time>
      </trkpt>
      <trkpt lat="47.13414" lon="2.21618">
        <ele>121</ele>
        <time>2021-08-11T13:50:19Z</time>
      </trkpt>
      <trkpt lat="47.1342" lon="2.21615">
        <ele>121</ele>
        <time>2021-08-11T13:50:19Z</time>
      </trkpt>
      <trkpt lat="47.13426" lon="2.21613">
        <ele>121</ele>
        <time>2021-08-11T13:50:19Z</time>
      </trkpt>
      <trkpt lat="47.13433" lon="2.21611">
        <ele>121</ele>
        <time>2021-08-11T13:50:19Z</time>
      </trkpt>
      <trkpt lat="47.13439" lon="2.21609">
        <ele>121</ele>
        <time>2021-08-11T13:50:19Z</time>
      </trkpt>
      <trkpt lat="47.13445" lon="2.21606">
        <ele>121</ele>
        <time>2021-08-11T13:50:19Z</time>
      </trkpt>
      <trkpt lat="47.13452" lon="2.21604">
        <ele>121</ele>
        <time>2021-08-11T13:50:19Z</time>
      </trkpt>
      <trkpt lat="47.13458" lon="2.21603">
        <ele>121</ele>
        <time>2021-08-11T13:50:19Z</time>
      </trkpt>
      <trkpt lat="47.13464" lon="2.21601">
        <ele>121</ele>
        <time>2021-08-11T13:50:19Z</time>
      </trkpt>
      <trkpt lat="47.13471" lon="2.21598">
        <ele>122</ele>
        <time>2021-08-11T13:50:19Z</time>
      </trkpt>
      <trkpt lat="47.13477" lon="2.21596">
        <ele>121</ele>
        <time>2021-08-11T13:50:19Z</time>
      </trkpt>
      <trkpt lat="47.13484" lon="2.21594">
        <ele>121</ele>
        <time>2021-08-11T13:50:19Z</time>
      </trkpt>
      <trkpt lat="47.1349" lon="2.21592">
        <ele>121</ele>
        <time>2021-08-11T13:50:19Z</time>
      </trkpt>
      <trkpt lat="47.13496" lon="2.2159">
        <ele>121</ele>
        <time>2021-08-11T13:50:19Z</time>
      </trkpt>
      <trkpt lat="47.13503" lon="2.21588">
        <ele>121</ele>
        <time>2021-08-11T13:50:19Z</time>
      </trkpt>
      <trkpt lat="47.13509" lon="2.21586">
        <ele>121</ele>
        <time>2021-08-11T13:50:19Z</time>
      </trkpt>
      <trkpt lat="47.13516" lon="2.21584">
        <ele>122</ele>
        <time>2021-08-11T13:50:19Z</time>
      </trkpt>
      <trkpt lat="47.13522" lon="2.21581">
        <ele>122</ele>
        <time>2021-08-11T13:50:19Z</time>
      </trkpt>
      <trkpt lat="47.13528" lon="2.21578">
        <ele>122</ele>
        <time>2021-08-11T13:50:19Z</time>
      </trkpt>
      <trkpt lat="47.13534" lon="2.21576">
        <ele>122</ele>
        <time>2021-08-11T13:50:19Z</time>
      </trkpt>
      <trkpt lat="47.13541" lon="2.21574">
        <ele>123</ele>
        <time>2021-08-11T13:50:19Z</time>
      </trkpt>
      <trkpt lat="47.13547" lon="2.21572">
        <ele>123</ele>
        <time>2021-08-11T13:50:19Z</time>
      </trkpt>
      <trkpt lat="47.13554" lon="2.21569">
        <ele>123</ele>
        <time>2021-08-11T13:50:19Z</time>
      </trkpt>
      <trkpt lat="47.1356" lon="2.21567">
        <ele>123</ele>
        <time>2021-08-11T13:50:19Z</time>
      </trkpt>
      <trkpt lat="47.13566" lon="2.21564">
        <ele>123</ele>
        <time>2021-08-11T13:50:19Z</time>
      </trkpt>
      <trkpt lat="47.13573" lon="2.21562">
        <ele>123</ele>
        <time>2021-08-11T13:50:19Z</time>
      </trkpt>
      <trkpt lat="47.13579" lon="2.21559">
        <ele>123</ele>
        <time>2021-08-11T13:50:19Z</time>
      </trkpt>
      <trkpt lat="47.13585" lon="2.21557">
        <ele>123</ele>
        <time>2021-08-11T13:50:19Z</time>
      </trkpt>
      <trkpt lat="47.13591" lon="2.21556">
        <ele>123</ele>
        <time>2021-08-11T13:50:19Z</time>
      </trkpt>
      <trkpt lat="47.13598" lon="2.21554">
        <ele>123</ele>
        <time>2021-08-11T13:50:19Z</time>
      </trkpt>
      <trkpt lat="47.13604" lon="2.21551">
        <ele>123</ele>
        <time>2021-08-11T13:50:19Z</time>
      </trkpt>
      <trkpt lat="47.1361" lon="2.21549">
        <ele>123</ele>
        <time>2021-08-11T13:50:19Z</time>
      </trkpt>
      <trkpt lat="47.13617" lon="2.21547">
        <ele>122</ele>
        <time>2021-08-11T13:50:19Z</time>
      </trkpt>
      <trkpt lat="47.13623" lon="2.21545">
        <ele>121</ele>
        <time>2021-08-11T13:50:19Z</time>
      </trkpt>
      <trkpt lat="47.1363" lon="2.21544">
        <ele>121</ele>
        <time>2021-08-11T13:50:19Z</time>
      </trkpt>
      <trkpt lat="47.13636" lon="2.21543">
        <ele>120</ele>
        <time>2021-08-11T13:50:19Z</time>
      </trkpt>
      <trkpt lat="47.13643" lon="2.21543">
        <ele>120</ele>
        <time>2021-08-11T13:50:19Z</time>
      </trkpt>
      <trkpt lat="47.13649" lon="2.21543">
        <ele>119</ele>
        <time>2021-08-11T13:50:19Z</time>
      </trkpt>
      <trkpt lat="47.13657" lon="2.21545">
        <ele>119</ele>
        <time>2021-08-11T13:50:19Z</time>
      </trkpt>
      <trkpt lat="47.13664" lon="2.21544">
        <ele>118</ele>
        <time>2021-08-11T13:50:19Z</time>
      </trkpt>
      <trkpt lat="47.1367" lon="2.21544">
        <ele>118</ele>
        <time>2021-08-11T13:50:19Z</time>
      </trkpt>
      <trkpt lat="47.13677" lon="2.21545">
        <ele>118</ele>
        <time>2021-08-11T13:50:19Z</time>
      </trkpt>
      <trkpt lat="47.13684" lon="2.21545">
        <ele>118</ele>
        <time>2021-08-11T13:50:19Z</time>
      </trkpt>
      <trkpt lat="47.1369" lon="2.21546">
        <ele>118</ele>
        <time>2021-08-11T13:50:19Z</time>
      </trkpt>
      <trkpt lat="47.13697" lon="2.21547">
        <ele>118</ele>
        <time>2021-08-11T13:50:19Z</time>
      </trkpt>
      <trkpt lat="47.13704" lon="2.21549">
        <ele>118</ele>
        <time>2021-08-11T13:50:19Z</time>
      </trkpt>
      <trkpt lat="47.1371" lon="2.21551">
        <ele>118</ele>
        <time>2021-08-11T13:50:19Z</time>
      </trkpt>
      <trkpt lat="47.13716" lon="2.21552">
        <ele>118</ele>
        <time>2021-08-11T13:50:19Z</time>
      </trkpt>
      <trkpt lat="47.13748" lon="2.21566">
        <ele>118</ele>
        <time>2021-08-11T13:50:19Z</time>
      </trkpt>
      <trkpt lat="47.1378" lon="2.21585">
        <ele>120</ele>
        <time>2021-08-11T13:50:19Z</time>
      </trkpt>
      <trkpt lat="47.13811" lon="2.21602">
        <ele>120</ele>
        <time>2021-08-11T13:50:19Z</time>
      </trkpt>
      <trkpt lat="47.13842" lon="2.21616">
        <ele>119</ele>
        <time>2021-08-11T13:50:19Z</time>
      </trkpt>
      <trkpt lat="47.13874" lon="2.21624">
        <ele>118</ele>
        <time>2021-08-11T13:50:19Z</time>
      </trkpt>
      <trkpt lat="47.13901" lon="2.21626">
        <ele>117</ele>
        <time>2021-08-11T13:50:19Z</time>
      </trkpt>
      <trkpt lat="47.13907" lon="2.21627">
        <ele>117</ele>
        <time>2021-08-11T13:50:19Z</time>
      </trkpt>
      <trkpt lat="47.1394" lon="2.21619">
        <ele>116</ele>
        <time>2021-08-11T13:50:19Z</time>
      </trkpt>
      <trkpt lat="47.1397" lon="2.21606">
        <ele>116</ele>
        <time>2021-08-11T13:50:19Z</time>
      </trkpt>
      <trkpt lat="47.13998" lon="2.21585">
        <ele>115</ele>
        <time>2021-08-11T13:50:19Z</time>
      </trkpt>
      <trkpt lat="47.14026" lon="2.21567">
        <ele>117</ele>
        <time>2021-08-11T13:50:19Z</time>
      </trkpt>
      <trkpt lat="47.14052" lon="2.21545">
        <ele>121</ele>
        <time>2021-08-11T13:50:19Z</time>
      </trkpt>
      <trkpt lat="47.14069" lon="2.21527">
        <ele>123</ele>
        <time>2021-08-11T13:50:19Z</time>
      </trkpt>
      <trkpt lat="47.14073" lon="2.21523">
        <ele>123</ele>
        <time>2021-08-11T13:50:19Z</time>
      </trkpt>
      <trkpt lat="47.1409" lon="2.21496">
        <ele>125</ele>
        <time>2021-08-11T13:50:19Z</time>
      </trkpt>
      <trkpt lat="47.14109" lon="2.21466">
        <ele>124</ele>
        <time>2021-08-11T13:50:19Z</time>
      </trkpt>
      <trkpt lat="47.14124" lon="2.21433">
        <ele>120</ele>
        <time>2021-08-11T13:50:19Z</time>
      </trkpt>
      <trkpt lat="47.14133" lon="2.21395">
        <ele>118</ele>
        <time>2021-08-11T13:50:19Z</time>
      </trkpt>
      <trkpt lat="47.1414" lon="2.21365">
        <ele>117</ele>
        <time>2021-08-11T13:50:19Z</time>
      </trkpt>
      <trkpt lat="47.14145" lon="2.21341">
        <ele>117</ele>
        <time>2021-08-11T13:50:19Z</time>
      </trkpt>
      <trkpt lat="47.14147" lon="2.21336">
        <ele>117</ele>
        <time>2021-08-11T13:50:19Z</time>
      </trkpt>
      <trkpt lat="47.14151" lon="2.21323">
        <ele>118</ele>
        <time>2021-08-11T13:50:19Z</time>
      </trkpt>
      <trkpt lat="47.14154" lon="2.21319">
        <ele>118</ele>
        <time>2021-08-11T13:50:19Z</time>
      </trkpt>
      <trkpt lat="47.14156" lon="2.21311">
        <ele>118</ele>
        <time>2021-08-11T13:50:19Z</time>
      </trkpt>
      <trkpt lat="47.14158" lon="2.21307">
        <ele>118</ele>
        <time>2021-08-11T13:50:19Z</time>
      </trkpt>
      <trkpt lat="47.14161" lon="2.213">
        <ele>119</ele>
        <time>2021-08-11T13:50:19Z</time>
      </trkpt>
      <trkpt lat="47.14163" lon="2.21293">
        <ele>119</ele>
        <time>2021-08-11T13:50:19Z</time>
      </trkpt>
      <trkpt lat="47.14165" lon="2.21287">
        <ele>119</ele>
        <time>2021-08-11T13:50:19Z</time>
      </trkpt>
      <trkpt lat="47.14168" lon="2.21277">
        <ele>118</ele>
        <time>2021-08-11T13:50:19Z</time>
      </trkpt>
      <trkpt lat="47.14171" lon="2.21271">
        <ele>119</ele>
        <time>2021-08-11T13:50:19Z</time>
      </trkpt>
      <trkpt lat="47.14173" lon="2.21263">
        <ele>119</ele>
        <time>2021-08-11T13:50:19Z</time>
      </trkpt>
      <trkpt lat="47.14175" lon="2.21254">
        <ele>119</ele>
        <time>2021-08-11T13:50:19Z</time>
      </trkpt>
      <trkpt lat="47.14178" lon="2.21247">
        <ele>119</ele>
        <time>2021-08-11T13:50:19Z</time>
      </trkpt>
      <trkpt lat="47.14181" lon="2.21238">
        <ele>120</ele>
        <time>2021-08-11T13:50:19Z</time>
      </trkpt>
      <trkpt lat="47.14185" lon="2.21229">
        <ele>120</ele>
        <time>2021-08-11T13:50:19Z</time>
      </trkpt>
      <trkpt lat="47.14188" lon="2.2122">
        <ele>120</ele>
        <time>2021-08-11T13:50:19Z</time>
      </trkpt>
      <trkpt lat="47.1419" lon="2.21213">
        <ele>119</ele>
        <time>2021-08-11T13:50:19Z</time>
      </trkpt>
      <trkpt lat="47.14192" lon="2.21207">
        <ele>119</ele>
        <time>2021-08-11T13:50:19Z</time>
      </trkpt>
      <trkpt lat="47.14195" lon="2.21198">
        <ele>119</ele>
        <time>2021-08-11T13:50:19Z</time>
      </trkpt>
      <trkpt lat="47.14198" lon="2.21192">
        <ele>119</ele>
        <time>2021-08-11T13:50:19Z</time>
      </trkpt>
      <trkpt lat="47.14201" lon="2.21188">
        <ele>119</ele>
        <time>2021-08-11T13:50:19Z</time>
      </trkpt>
      <trkpt lat="47.14205" lon="2.21183">
        <ele>119</ele>
        <time>2021-08-11T13:50:19Z</time>
      </trkpt>
      <trkpt lat="47.14208" lon="2.2118">
        <ele>119</ele>
        <time>2021-08-11T13:50:19Z</time>
      </trkpt>
      <trkpt lat="47.14212" lon="2.21173">
        <ele>118</ele>
        <time>2021-08-11T13:50:19Z</time>
      </trkpt>
      <trkpt lat="47.14216" lon="2.21168">
        <ele>118</ele>
        <time>2021-08-11T13:50:19Z</time>
      </trkpt>
      <trkpt lat="47.1422" lon="2.21163">
        <ele>118</ele>
        <time>2021-08-11T13:50:19Z</time>
      </trkpt>
      <trkpt lat="47.14224" lon="2.21156">
        <ele>117</ele>
        <time>2021-08-11T13:50:19Z</time>
      </trkpt>
      <trkpt lat="47.14228" lon="2.2115">
        <ele>117</ele>
        <time>2021-08-11T13:50:19Z</time>
      </trkpt>
      <trkpt lat="47.14232" lon="2.21144">
        <ele>117</ele>
        <time>2021-08-11T13:50:19Z</time>
      </trkpt>
      <trkpt lat="47.14237" lon="2.21138">
        <ele>116</ele>
        <time>2021-08-11T13:50:19Z</time>
      </trkpt>
      <trkpt lat="47.14241" lon="2.21131">
        <ele>116</ele>
        <time>2021-08-11T13:50:19Z</time>
      </trkpt>
      <trkpt lat="47.14245" lon="2.21126">
        <ele>116</ele>
        <time>2021-08-11T13:50:19Z</time>
      </trkpt>
      <trkpt lat="47.14249" lon="2.21121">
        <ele>116</ele>
        <time>2021-08-11T13:50:19Z</time>
      </trkpt>
      <trkpt lat="47.14253" lon="2.21116">
        <ele>116</ele>
        <time>2021-08-11T13:50:19Z</time>
      </trkpt>
      <trkpt lat="47.14257" lon="2.21113">
        <ele>116</ele>
        <time>2021-08-11T13:50:19Z</time>
      </trkpt>
      <trkpt lat="47.14261" lon="2.21108">
        <ele>116</ele>
        <time>2021-08-11T13:50:19Z</time>
      </trkpt>
      <trkpt lat="47.14265" lon="2.21106">
        <ele>116</ele>
        <time>2021-08-11T13:50:19Z</time>
      </trkpt>
      <trkpt lat="47.14268" lon="2.21102">
        <ele>116</ele>
        <time>2021-08-11T13:50:19Z</time>
      </trkpt>
      <trkpt lat="47.14271" lon="2.211">
        <ele>116</ele>
        <time>2021-08-11T13:50:19Z</time>
      </trkpt>
      <trkpt lat="47.14273" lon="2.21098">
        <ele>116</ele>
        <time>2021-08-11T13:50:19Z</time>
      </trkpt>
      <trkpt lat="47.14275" lon="2.21095">
        <ele>116</ele>
        <time>2021-08-11T13:50:19Z</time>
      </trkpt>
      <trkpt lat="47.14277" lon="2.21095">
        <ele>116</ele>
        <time>2021-08-11T13:50:19Z</time>
      </trkpt>
      <trkpt lat="47.14278" lon="2.21093">
        <ele>116</ele>
        <time>2021-08-11T13:50:19Z</time>
      </trkpt>
      <trkpt lat="47.14279" lon="2.21092">
        <ele>116</ele>
        <time>2021-08-11T13:50:19Z</time>
      </trkpt>
      <trkpt lat="47.14279" lon="2.2109">
        <ele>116</ele>
        <time>2021-08-11T13:50:19Z</time>
      </trkpt>
      <trkpt lat="47.14279" lon="2.21087">
        <ele>116</ele>
        <time>2021-08-11T13:50:19Z</time>
      </trkpt>
      <trkpt lat="47.14278" lon="2.21083">
        <ele>116</ele>
        <time>2021-08-11T13:50:19Z</time>
      </trkpt>
      <trkpt lat="47.14277" lon="2.21079">
        <ele>116</ele>
        <time>2021-08-11T13:50:19Z</time>
      </trkpt>
      <trkpt lat="47.14275" lon="2.21075">
        <ele>116</ele>
        <time>2021-08-11T13:50:19Z</time>
      </trkpt>
      <trkpt lat="47.14274" lon="2.2107">
        <ele>116</ele>
        <time>2021-08-11T13:50:19Z</time>
      </trkpt>
      <trkpt lat="47.14275" lon="2.21067">
        <ele>116</ele>
        <time>2021-08-11T13:50:19Z</time>
      </trkpt>
      <trkpt lat="47.14277" lon="2.21063">
        <ele>116</ele>
        <time>2021-08-11T13:50:19Z</time>
      </trkpt>
      <trkpt lat="47.1428" lon="2.21059">
        <ele>116</ele>
        <time>2021-08-11T13:50:19Z</time>
      </trkpt>
      <trkpt lat="47.14283" lon="2.21054">
        <ele>115</ele>
        <time>2021-08-11T13:50:19Z</time>
      </trkpt>
      <trkpt lat="47.14288" lon="2.21049">
        <ele>115</ele>
        <time>2021-08-11T13:50:19Z</time>
      </trkpt>
      <trkpt lat="47.14292" lon="2.21044">
        <ele>115</ele>
        <time>2021-08-11T13:50:19Z</time>
      </trkpt>
      <trkpt lat="47.14297" lon="2.2104">
        <ele>115</ele>
        <time>2021-08-11T13:50:19Z</time>
      </trkpt>
      <trkpt lat="47.14303" lon="2.21037">
        <ele>115</ele>
        <time>2021-08-11T13:50:19Z</time>
      </trkpt>
      <trkpt lat="47.14308" lon="2.21033">
        <ele>115</ele>
        <time>2021-08-11T13:50:19Z</time>
      </trkpt>
      <trkpt lat="47.14313" lon="2.21028">
        <ele>115</ele>
        <time>2021-08-11T13:50:19Z</time>
      </trkpt>
      <trkpt lat="47.14318" lon="2.21024">
        <ele>115</ele>
        <time>2021-08-11T13:50:19Z</time>
      </trkpt>
      <trkpt lat="47.14323" lon="2.2102">
        <ele>115</ele>
        <time>2021-08-11T13:50:19Z</time>
      </trkpt>
      <trkpt lat="47.14345" lon="2.20998">
        <ele>116</ele>
        <time>2021-08-11T13:50:19Z</time>
      </trkpt>
      <trkpt lat="47.14368" lon="2.20979">
        <ele>117</ele>
        <time>2021-08-11T13:50:19Z</time>
      </trkpt>
      <trkpt lat="47.14392" lon="2.2096">
        <ele>116</ele>
        <time>2021-08-11T13:50:19Z</time>
      </trkpt>
      <trkpt lat="47.14415" lon="2.20941">
        <ele>115</ele>
        <time>2021-08-11T13:50:19Z</time>
      </trkpt>
      <trkpt lat="47.14432" lon="2.20914">
        <ele>114</ele>
        <time>2021-08-11T13:50:19Z</time>
      </trkpt>
      <trkpt lat="47.14445" lon="2.2089">
        <ele>113</ele>
        <time>2021-08-11T13:50:19Z</time>
      </trkpt>
      <trkpt lat="47.14449" lon="2.20886">
        <ele>113</ele>
        <time>2021-08-11T13:50:19Z</time>
      </trkpt>
      <trkpt lat="47.14474" lon="2.20881">
        <ele>113</ele>
        <time>2021-08-11T13:50:19Z</time>
      </trkpt>
      <trkpt lat="47.14492" lon="2.20868">
        <ele>113</ele>
        <time>2021-08-11T13:50:19Z</time>
      </trkpt>
      <trkpt lat="47.14506" lon="2.20845">
        <ele>114</ele>
        <time>2021-08-11T13:50:19Z</time>
      </trkpt>
      <trkpt lat="47.1453" lon="2.20824">
        <ele>115</ele>
        <time>2021-08-11T13:50:19Z</time>
      </trkpt>
      <trkpt lat="47.14556" lon="2.20809">
        <ele>114</ele>
        <time>2021-08-11T13:50:19Z</time>
      </trkpt>
      <trkpt lat="47.14577" lon="2.20798">
        <ele>113</ele>
        <time>2021-08-11T13:50:19Z</time>
      </trkpt>
      <trkpt lat="47.14583" lon="2.20795">
        <ele>113</ele>
        <time>2021-08-11T13:50:19Z</time>
      </trkpt>
      <trkpt lat="47.14613" lon="2.20787">
        <ele>112</ele>
        <time>2021-08-11T13:50:19Z</time>
      </trkpt>
      <trkpt lat="47.14642" lon="2.20785">
        <ele>113</ele>
        <time>2021-08-11T13:50:19Z</time>
      </trkpt>
      <trkpt lat="47.14675" lon="2.20784">
        <ele>115</ele>
        <time>2021-08-11T13:50:19Z</time>
      </trkpt>
      <trkpt lat="47.14706" lon="2.20784">
        <ele>116</ele>
        <time>2021-08-11T13:50:19Z</time>
      </trkpt>
      <trkpt lat="47.14738" lon="2.20785">
        <ele>117</ele>
        <time>2021-08-11T13:50:19Z</time>
      </trkpt>
      <trkpt lat="47.14761" lon="2.20785">
        <ele>116</ele>
        <time>2021-08-11T13:50:19Z</time>
      </trkpt>
      <trkpt lat="47.14767" lon="2.20783">
        <ele>116</ele>
        <time>2021-08-11T13:50:19Z</time>
      </trkpt>
      <trkpt lat="47.14786" lon="2.20784">
        <ele>115</ele>
        <time>2021-08-11T13:50:19Z</time>
      </trkpt>
      <trkpt lat="47.14792" lon="2.20784">
        <ele>115</ele>
        <time>2021-08-11T13:50:19Z</time>
      </trkpt>
      <trkpt lat="47.14799" lon="2.20784">
        <ele>114</ele>
        <time>2021-08-11T13:50:19Z</time>
      </trkpt>
      <trkpt lat="47.14806" lon="2.20784">
        <ele>114</ele>
        <time>2021-08-11T13:50:19Z</time>
      </trkpt>
      <trkpt lat="47.14812" lon="2.20785">
        <ele>114</ele>
        <time>2021-08-11T13:50:19Z</time>
      </trkpt>
      <trkpt lat="47.14819" lon="2.20784">
        <ele>114</ele>
        <time>2021-08-11T13:50:19Z</time>
      </trkpt>
      <trkpt lat="47.14825" lon="2.20784">
        <ele>114</ele>
        <time>2021-08-11T13:50:19Z</time>
      </trkpt>
      <trkpt lat="47.14832" lon="2.20784">
        <ele>114</ele>
        <time>2021-08-11T13:50:19Z</time>
      </trkpt>
      <trkpt lat="47.14838" lon="2.20784">
        <ele>114</ele>
        <time>2021-08-11T13:50:19Z</time>
      </trkpt>
      <trkpt lat="47.14844" lon="2.20784">
        <ele>114</ele>
        <time>2021-08-11T13:50:19Z</time>
      </trkpt>
      <trkpt lat="47.1485" lon="2.20785">
        <ele>114</ele>
        <time>2021-08-11T13:50:19Z</time>
      </trkpt>
      <trkpt lat="47.14857" lon="2.20785">
        <ele>114</ele>
        <time>2021-08-11T13:50:19Z</time>
      </trkpt>
      <trkpt lat="47.14864" lon="2.20786">
        <ele>114</ele>
        <time>2021-08-11T13:50:19Z</time>
      </trkpt>
      <trkpt lat="47.1487" lon="2.20787">
        <ele>114</ele>
        <time>2021-08-11T13:50:19Z</time>
      </trkpt>
      <trkpt lat="47.14877" lon="2.20787">
        <ele>115</ele>
        <time>2021-08-11T13:50:19Z</time>
      </trkpt>
      <trkpt lat="47.14883" lon="2.20787">
        <ele>115</ele>
        <time>2021-08-11T13:50:19Z</time>
      </trkpt>
      <trkpt lat="47.14889" lon="2.20787">
        <ele>115</ele>
        <time>2021-08-11T13:50:19Z</time>
      </trkpt>
      <trkpt lat="47.14895" lon="2.20786">
        <ele>115</ele>
        <time>2021-08-11T13:50:19Z</time>
      </trkpt>
      <trkpt lat="47.14902" lon="2.20786">
        <ele>115</ele>
        <time>2021-08-11T13:50:19Z</time>
      </trkpt>
      <trkpt lat="47.14909" lon="2.20787">
        <ele>115</ele>
        <time>2021-08-11T13:50:19Z</time>
      </trkpt>
      <trkpt lat="47.14916" lon="2.20787">
        <ele>115</ele>
        <time>2021-08-11T13:50:19Z</time>
      </trkpt>
      <trkpt lat="47.14923" lon="2.20787">
        <ele>116</ele>
        <time>2021-08-11T13:50:19Z</time>
      </trkpt>
      <trkpt lat="47.1493" lon="2.20787">
        <ele>116</ele>
        <time>2021-08-11T13:50:19Z</time>
      </trkpt>
      <trkpt lat="47.14936" lon="2.20787">
        <ele>116</ele>
        <time>2021-08-11T13:50:19Z</time>
      </trkpt>
      <trkpt lat="47.14943" lon="2.20788">
        <ele>116</ele>
        <time>2021-08-11T13:50:19Z</time>
      </trkpt>
      <trkpt lat="47.14948" lon="2.20788">
        <ele>116</ele>
        <time>2021-08-11T13:50:19Z</time>
      </trkpt>
      <trkpt lat="47.14955" lon="2.20788">
        <ele>116</ele>
        <time>2021-08-11T13:50:19Z</time>
      </trkpt>
      <trkpt lat="47.1496" lon="2.20788">
        <ele>116</ele>
        <time>2021-08-11T13:50:19Z</time>
      </trkpt>
      <trkpt lat="47.14966" lon="2.20789">
        <ele>116</ele>
        <time>2021-08-11T13:50:19Z</time>
      </trkpt>
      <trkpt lat="47.14971" lon="2.20789">
        <ele>116</ele>
        <time>2021-08-11T13:50:19Z</time>
      </trkpt>
      <trkpt lat="47.14977" lon="2.20788">
        <ele>115</ele>
        <time>2021-08-11T13:50:19Z</time>
      </trkpt>
      <trkpt lat="47.14982" lon="2.20787">
        <ele>115</ele>
        <time>2021-08-11T13:50:19Z</time>
      </trkpt>
      <trkpt lat="47.14988" lon="2.20786">
        <ele>115</ele>
        <time>2021-08-11T13:50:19Z</time>
      </trkpt>
      <trkpt lat="47.14994" lon="2.20786">
        <ele>115</ele>
        <time>2021-08-11T13:50:19Z</time>
      </trkpt>
      <trkpt lat="47.14998" lon="2.20786">
        <ele>115</ele>
        <time>2021-08-11T13:50:19Z</time>
      </trkpt>
      <trkpt lat="47.15004" lon="2.20786">
        <ele>115</ele>
        <time>2021-08-11T13:50:19Z</time>
      </trkpt>
      <trkpt lat="47.15011" lon="2.20786">
        <ele>115</ele>
        <time>2021-08-11T13:50:19Z</time>
      </trkpt>
      <trkpt lat="47.15017" lon="2.20784">
        <ele>115</ele>
        <time>2021-08-11T13:50:19Z</time>
      </trkpt>
      <trkpt lat="47.15024" lon="2.20785">
        <ele>115</ele>
        <time>2021-08-11T13:50:19Z</time>
      </trkpt>
      <trkpt lat="47.15029" lon="2.20781">
        <ele>115</ele>
        <time>2021-08-11T13:50:19Z</time>
      </trkpt>
      <trkpt lat="47.15036" lon="2.20779">
        <ele>115</ele>
        <time>2021-08-11T13:50:19Z</time>
      </trkpt>
      <trkpt lat="47.15042" lon="2.20778">
        <ele>115</ele>
        <time>2021-08-11T13:50:19Z</time>
      </trkpt>
      <trkpt lat="47.1505" lon="2.20776">
        <ele>115</ele>
        <time>2021-08-11T13:50:19Z</time>
      </trkpt>
      <trkpt lat="47.15056" lon="2.20773">
        <ele>115</ele>
        <time>2021-08-11T13:50:19Z</time>
      </trkpt>
      <trkpt lat="47.15061" lon="2.20771">
        <ele>115</ele>
        <time>2021-08-11T13:50:19Z</time>
      </trkpt>
      <trkpt lat="47.15063" lon="2.20768">
        <ele>115</ele>
        <time>2021-08-11T13:50:19Z</time>
      </trkpt>
      <trkpt lat="47.15071" lon="2.20766">
        <ele>116</ele>
        <time>2021-08-11T13:50:19Z</time>
      </trkpt>
      <trkpt lat="47.15075" lon="2.20764">
        <ele>116</ele>
        <time>2021-08-11T13:50:19Z</time>
      </trkpt>
      <trkpt lat="47.15082" lon="2.20764">
        <ele>116</ele>
        <time>2021-08-11T13:50:19Z</time>
      </trkpt>
      <trkpt lat="47.15088" lon="2.20763">
        <ele>116</ele>
        <time>2021-08-11T13:50:19Z</time>
      </trkpt>
      <trkpt lat="47.15095" lon="2.20761">
        <ele>116</ele>
        <time>2021-08-11T13:50:19Z</time>
      </trkpt>
      <trkpt lat="47.15102" lon="2.20757">
        <ele>117</ele>
        <time>2021-08-11T13:50:19Z</time>
      </trkpt>
      <trkpt lat="47.15109" lon="2.20753">
        <ele>117</ele>
        <time>2021-08-11T13:50:19Z</time>
      </trkpt>
      <trkpt lat="47.15115" lon="2.20749">
        <ele>118</ele>
        <time>2021-08-11T13:50:19Z</time>
      </trkpt>
      <trkpt lat="47.1512" lon="2.20747">
        <ele>118</ele>
        <time>2021-08-11T13:50:19Z</time>
      </trkpt>
      <trkpt lat="47.15125" lon="2.20744">
        <ele>118</ele>
        <time>2021-08-11T13:50:19Z</time>
      </trkpt>
      <trkpt lat="47.15131" lon="2.20739">
        <ele>119</ele>
        <time>2021-08-11T13:50:19Z</time>
      </trkpt>
      <trkpt lat="47.15137" lon="2.20735">
        <ele>119</ele>
        <time>2021-08-11T13:50:19Z</time>
      </trkpt>
      <trkpt lat="47.15143" lon="2.20733">
        <ele>119</ele>
        <time>2021-08-11T13:50:19Z</time>
      </trkpt>
      <trkpt lat="47.15149" lon="2.20731">
        <ele>119</ele>
        <time>2021-08-11T13:50:19Z</time>
      </trkpt>
      <trkpt lat="47.15155" lon="2.20727">
        <ele>119</ele>
        <time>2021-08-11T13:50:19Z</time>
      </trkpt>
      <trkpt lat="47.15185" lon="2.20712">
        <ele>117</ele>
        <time>2021-08-11T13:50:19Z</time>
      </trkpt>
      <trkpt lat="47.15213" lon="2.20694">
        <ele>114</ele>
        <time>2021-08-11T13:50:19Z</time>
      </trkpt>
      <trkpt lat="47.15236" lon="2.20675">
        <ele>113</ele>
        <time>2021-08-11T13:50:19Z</time>
      </trkpt>
      <trkpt lat="47.15258" lon="2.20643">
        <ele>113</ele>
        <time>2021-08-11T13:50:19Z</time>
      </trkpt>
      <trkpt lat="47.15274" lon="2.20613">
        <ele>114</ele>
        <time>2021-08-11T13:50:19Z</time>
      </trkpt>
      <trkpt lat="47.15288" lon="2.20596">
        <ele>113</ele>
        <time>2021-08-11T13:50:19Z</time>
      </trkpt>
      <trkpt lat="47.15292" lon="2.20592">
        <ele>113</ele>
        <time>2021-08-11T13:50:19Z</time>
      </trkpt>
      <trkpt lat="47.15314" lon="2.20566">
        <ele>114</ele>
        <time>2021-08-11T13:50:19Z</time>
      </trkpt>
      <trkpt lat="47.15339" lon="2.20541">
        <ele>115</ele>
        <time>2021-08-11T13:50:19Z</time>
      </trkpt>
      <trkpt lat="47.15361" lon="2.20508">
        <ele>114</ele>
        <time>2021-08-11T13:50:19Z</time>
      </trkpt>
      <trkpt lat="47.15384" lon="2.20481">
        <ele>114</ele>
        <time>2021-08-11T13:50:19Z</time>
      </trkpt>
      <trkpt lat="47.15409" lon="2.20454">
        <ele>116</ele>
        <time>2021-08-11T13:50:19Z</time>
      </trkpt>
      <trkpt lat="47.15428" lon="2.20433">
        <ele>116</ele>
        <time>2021-08-11T13:50:19Z</time>
      </trkpt>
      <trkpt lat="47.15432" lon="2.20429">
        <ele>116</ele>
        <time>2021-08-11T13:50:19Z</time>
      </trkpt>
      <trkpt lat="47.15449" lon="2.20438">
        <ele>115</ele>
        <time>2021-08-11T13:50:19Z</time>
      </trkpt>
      <trkpt lat="47.15466" lon="2.20425">
        <ele>115</ele>
        <time>2021-08-11T13:50:19Z</time>
      </trkpt>
      <trkpt lat="47.15485" lon="2.204">
        <ele>116</ele>
        <time>2021-08-11T13:50:19Z</time>
      </trkpt>
      <trkpt lat="47.15505" lon="2.20369">
        <ele>117</ele>
        <time>2021-08-11T13:50:19Z</time>
      </trkpt>
      <trkpt lat="47.15529" lon="2.2034">
        <ele>116</ele>
        <time>2021-08-11T13:50:19Z</time>
      </trkpt>
      <trkpt lat="47.1555" lon="2.20318">
        <ele>116</ele>
        <time>2021-08-11T13:50:19Z</time>
      </trkpt>
      <trkpt lat="47.15553" lon="2.20308">
        <ele>116</ele>
        <time>2021-08-11T13:50:19Z</time>
      </trkpt>
      <trkpt lat="47.15558" lon="2.20303">
        <ele>115</ele>
        <time>2021-08-11T13:50:19Z</time>
      </trkpt>
      <trkpt lat="47.15562" lon="2.20295">
        <ele>115</ele>
        <time>2021-08-11T13:50:19Z</time>
      </trkpt>
      <trkpt lat="47.15566" lon="2.20288">
        <ele>115</ele>
        <time>2021-08-11T13:50:19Z</time>
      </trkpt>
      <trkpt lat="47.15569" lon="2.20281">
        <ele>115</ele>
        <time>2021-08-11T13:50:19Z</time>
      </trkpt>
      <trkpt lat="47.15574" lon="2.20276">
        <ele>115</ele>
        <time>2021-08-11T13:50:19Z</time>
      </trkpt>
      <trkpt lat="47.15579" lon="2.20271">
        <ele>115</ele>
        <time>2021-08-11T13:50:19Z</time>
      </trkpt>
      <trkpt lat="47.15583" lon="2.20263">
        <ele>115</ele>
        <time>2021-08-11T13:50:19Z</time>
      </trkpt>
      <trkpt lat="47.15589" lon="2.20255">
        <ele>115</ele>
        <time>2021-08-11T13:50:19Z</time>
      </trkpt>
      <trkpt lat="47.15592" lon="2.20248">
        <ele>114</ele>
        <time>2021-08-11T13:50:19Z</time>
      </trkpt>
      <trkpt lat="47.15596" lon="2.20241">
        <ele>114</ele>
        <time>2021-08-11T13:50:19Z</time>
      </trkpt>
      <trkpt lat="47.156" lon="2.20233">
        <ele>114</ele>
        <time>2021-08-11T13:50:19Z</time>
      </trkpt>
      <trkpt lat="47.15604" lon="2.20226">
        <ele>114</ele>
        <time>2021-08-11T13:50:19Z</time>
      </trkpt>
      <trkpt lat="47.15607" lon="2.20218">
        <ele>114</ele>
        <time>2021-08-11T13:50:19Z</time>
      </trkpt>
      <trkpt lat="47.1561" lon="2.20211">
        <ele>113</ele>
        <time>2021-08-11T13:50:19Z</time>
      </trkpt>
      <trkpt lat="47.15614" lon="2.20203">
        <ele>113</ele>
        <time>2021-08-11T13:50:19Z</time>
      </trkpt>
      <trkpt lat="47.15618" lon="2.20195">
        <ele>113</ele>
        <time>2021-08-11T13:50:19Z</time>
      </trkpt>
      <trkpt lat="47.15621" lon="2.20188">
        <ele>113</ele>
        <time>2021-08-11T13:50:19Z</time>
      </trkpt>
      <trkpt lat="47.15625" lon="2.20181">
        <ele>113</ele>
        <time>2021-08-11T13:50:19Z</time>
      </trkpt>
      <trkpt lat="47.15629" lon="2.20172">
        <ele>113</ele>
        <time>2021-08-11T13:50:19Z</time>
      </trkpt>
      <trkpt lat="47.15633" lon="2.20166">
        <ele>113</ele>
        <time>2021-08-11T13:50:19Z</time>
      </trkpt>
      <trkpt lat="47.15637" lon="2.20158">
        <ele>113</ele>
        <time>2021-08-11T13:50:19Z</time>
      </trkpt>
      <trkpt lat="47.15641" lon="2.2015">
        <ele>113</ele>
        <time>2021-08-11T13:50:19Z</time>
      </trkpt>
      <trkpt lat="47.15645" lon="2.20143">
        <ele>113</ele>
        <time>2021-08-11T13:50:19Z</time>
      </trkpt>
      <trkpt lat="47.15649" lon="2.20134">
        <ele>113</ele>
        <time>2021-08-11T13:50:19Z</time>
      </trkpt>
      <trkpt lat="47.15653" lon="2.20126">
        <ele>112</ele>
        <time>2021-08-11T13:50:19Z</time>
      </trkpt>
      <trkpt lat="47.15658" lon="2.20121">
        <ele>112</ele>
        <time>2021-08-11T13:50:19Z</time>
      </trkpt>
      <trkpt lat="47.1566" lon="2.20111">
        <ele>112</ele>
        <time>2021-08-11T13:50:19Z</time>
      </trkpt>
      <trkpt lat="47.15664" lon="2.20105">
        <ele>112</ele>
        <time>2021-08-11T13:50:19Z</time>
      </trkpt>
      <trkpt lat="47.15669" lon="2.20099">
        <ele>112</ele>
        <time>2021-08-11T13:50:19Z</time>
      </trkpt>
      <trkpt lat="47.15672" lon="2.20089">
        <ele>112</ele>
        <time>2021-08-11T13:50:19Z</time>
      </trkpt>
      <trkpt lat="47.15675" lon="2.20081">
        <ele>112</ele>
        <time>2021-08-11T13:50:19Z</time>
      </trkpt>
      <trkpt lat="47.15679" lon="2.20073">
        <ele>112</ele>
        <time>2021-08-11T13:50:19Z</time>
      </trkpt>
      <trkpt lat="47.15684" lon="2.20066">
        <ele>111</ele>
        <time>2021-08-11T13:50:19Z</time>
      </trkpt>
      <trkpt lat="47.15688" lon="2.20059">
        <ele>111</ele>
        <time>2021-08-11T13:50:19Z</time>
      </trkpt>
      <trkpt lat="47.15691" lon="2.20051">
        <ele>111</ele>
        <time>2021-08-11T13:50:19Z</time>
      </trkpt>
      <trkpt lat="47.15694" lon="2.2004">
        <ele>111</ele>
        <time>2021-08-11T13:50:19Z</time>
      </trkpt>
      <trkpt lat="47.15699" lon="2.20032">
        <ele>111</ele>
        <time>2021-08-11T13:50:19Z</time>
      </trkpt>
      <trkpt lat="47.15704" lon="2.20027">
        <ele>111</ele>
        <time>2021-08-11T13:50:19Z</time>
      </trkpt>
      <trkpt lat="47.15707" lon="2.20018">
        <ele>111</ele>
        <time>2021-08-11T13:50:19Z</time>
      </trkpt>
      <trkpt lat="47.15711" lon="2.20012">
        <ele>110</ele>
        <time>2021-08-11T13:50:19Z</time>
      </trkpt>
      <trkpt lat="47.15715" lon="2.20005">
        <ele>110</ele>
        <time>2021-08-11T13:50:19Z</time>
      </trkpt>
      <trkpt lat="47.1572" lon="2.19998">
        <ele>110</ele>
        <time>2021-08-11T13:50:19Z</time>
      </trkpt>
      <trkpt lat="47.15725" lon="2.1999">
        <ele>110</ele>
        <time>2021-08-11T13:50:19Z</time>
      </trkpt>
      <trkpt lat="47.15729" lon="2.19983">
        <ele>111</ele>
        <time>2021-08-11T13:50:19Z</time>
      </trkpt>
      <trkpt lat="47.15733" lon="2.19975">
        <ele>111</ele>
        <time>2021-08-11T13:50:19Z</time>
      </trkpt>
      <trkpt lat="47.15736" lon="2.19967">
        <ele>111</ele>
        <time>2021-08-11T13:50:19Z</time>
      </trkpt>
      <trkpt lat="47.15741" lon="2.19958">
        <ele>111</ele>
        <time>2021-08-11T13:50:19Z</time>
      </trkpt>
      <trkpt lat="47.15744" lon="2.19952">
        <ele>110</ele>
        <time>2021-08-11T13:50:19Z</time>
      </trkpt>
      <trkpt lat="47.15748" lon="2.19944">
        <ele>110</ele>
        <time>2021-08-11T13:50:19Z</time>
      </trkpt>
      <trkpt lat="47.15752" lon="2.19935">
        <ele>110</ele>
        <time>2021-08-11T13:50:19Z</time>
      </trkpt>
      <trkpt lat="47.15756" lon="2.19928">
        <ele>110</ele>
        <time>2021-08-11T13:50:19Z</time>
      </trkpt>
      <trkpt lat="47.1576" lon="2.19921">
        <ele>111</ele>
        <time>2021-08-11T13:50:19Z</time>
      </trkpt>
      <trkpt lat="47.15764" lon="2.19913">
        <ele>111</ele>
        <time>2021-08-11T13:50:19Z</time>
      </trkpt>
      <trkpt lat="47.15767" lon="2.19904">
        <ele>112</ele>
        <time>2021-08-11T13:50:19Z</time>
      </trkpt>
      <trkpt lat="47.15771" lon="2.19896">
        <ele>112</ele>
        <time>2021-08-11T13:50:19Z</time>
      </trkpt>
      <trkpt lat="47.15774" lon="2.19887">
        <ele>112</ele>
        <time>2021-08-11T13:50:19Z</time>
      </trkpt>
      <trkpt lat="47.15777" lon="2.19879">
        <ele>113</ele>
        <time>2021-08-11T13:50:19Z</time>
      </trkpt>
      <trkpt lat="47.15781" lon="2.19872">
        <ele>113</ele>
        <time>2021-08-11T13:50:19Z</time>
      </trkpt>
      <trkpt lat="47.15785" lon="2.19864">
        <ele>114</ele>
        <time>2021-08-11T13:50:19Z</time>
      </trkpt>
      <trkpt lat="47.15789" lon="2.19856">
        <ele>114</ele>
        <time>2021-08-11T13:50:19Z</time>
      </trkpt>
      <trkpt lat="47.15793" lon="2.19848">
        <ele>114</ele>
        <time>2021-08-11T13:50:19Z</time>
      </trkpt>
      <trkpt lat="47.15812" lon="2.19811">
        <ele>114</ele>
        <time>2021-08-11T13:50:19Z</time>
      </trkpt>
      <trkpt lat="47.15829" lon="2.19768">
        <ele>112</ele>
        <time>2021-08-11T13:50:19Z</time>
      </trkpt>
      <trkpt lat="47.15844" lon="2.19726">
        <ele>112</ele>
        <time>2021-08-11T13:50:19Z</time>
      </trkpt>
      <trkpt lat="47.15855" lon="2.19681">
        <ele>114</ele>
        <time>2021-08-11T13:50:19Z</time>
      </trkpt>
      <trkpt lat="47.15867" lon="2.19635">
        <ele>116</ele>
        <time>2021-08-11T13:50:19Z</time>
      </trkpt>
      <trkpt lat="47.15877" lon="2.19603">
        <ele>117</ele>
        <time>2021-08-11T13:50:19Z</time>
      </trkpt>
      <trkpt lat="47.1588" lon="2.19594">
        <ele>117</ele>
        <time>2021-08-11T13:50:19Z</time>
      </trkpt>
      <trkpt lat="47.1589" lon="2.19549">
        <ele>116</ele>
        <time>2021-08-11T13:50:19Z</time>
      </trkpt>
      <trkpt lat="47.15905" lon="2.19503">
        <ele>115</ele>
        <time>2021-08-11T13:50:19Z</time>
      </trkpt>
      <trkpt lat="47.15917" lon="2.19461">
        <ele>113</ele>
        <time>2021-08-11T13:50:19Z</time>
      </trkpt>
      <trkpt lat="47.15919" lon="2.19455">
        <ele>113</ele>
        <time>2021-08-11T13:50:19Z</time>
      </trkpt>
      <trkpt lat="47.15922" lon="2.19449">
        <ele>113</ele>
        <time>2021-08-11T13:50:19Z</time>
      </trkpt>
      <trkpt lat="47.15923" lon="2.19443">
        <ele>113</ele>
        <time>2021-08-11T13:50:19Z</time>
      </trkpt>
      <trkpt lat="47.15924" lon="2.19436">
        <ele>113</ele>
        <time>2021-08-11T13:50:19Z</time>
      </trkpt>
      <trkpt lat="47.15927" lon="2.19435">
        <ele>113</ele>
        <time>2021-08-11T13:50:19Z</time>
      </trkpt>
      <trkpt lat="47.15929" lon="2.19429">
        <ele>113</ele>
        <time>2021-08-11T13:50:19Z</time>
      </trkpt>
      <trkpt lat="47.15931" lon="2.19425">
        <ele>113</ele>
        <time>2021-08-11T13:50:19Z</time>
      </trkpt>
      <trkpt lat="47.15934" lon="2.19417">
        <ele>113</ele>
        <time>2021-08-11T13:50:19Z</time>
      </trkpt>
      <trkpt lat="47.15944" lon="2.19381">
        <ele>113</ele>
        <time>2021-08-11T13:50:19Z</time>
      </trkpt>
      <trkpt lat="47.15958" lon="2.1934">
        <ele>112</ele>
        <time>2021-08-11T13:50:19Z</time>
      </trkpt>
      <trkpt lat="47.1597" lon="2.19292">
        <ele>111</ele>
        <time>2021-08-11T13:50:19Z</time>
      </trkpt>
      <trkpt lat="47.15984" lon="2.19245">
        <ele>111</ele>
        <time>2021-08-11T13:50:19Z</time>
      </trkpt>
      <trkpt lat="47.15996" lon="2.192">
        <ele>111</ele>
        <time>2021-08-11T13:50:19Z</time>
      </trkpt>
      <trkpt lat="47.16006" lon="2.19163">
        <ele>110</ele>
        <time>2021-08-11T13:50:19Z</time>
      </trkpt>
      <trkpt lat="47.16009" lon="2.19153">
        <ele>110</ele>
        <time>2021-08-11T13:50:19Z</time>
      </trkpt>
      <trkpt lat="47.16014" lon="2.19135">
        <ele>110</ele>
        <time>2021-08-11T13:50:19Z</time>
      </trkpt>
      <trkpt lat="47.16017" lon="2.19126">
        <ele>110</ele>
        <time>2021-08-11T13:50:19Z</time>
      </trkpt>
      <trkpt lat="47.1602" lon="2.19118">
        <ele>110</ele>
        <time>2021-08-11T13:50:19Z</time>
      </trkpt>
      <trkpt lat="47.16023" lon="2.19109">
        <ele>110</ele>
        <time>2021-08-11T13:50:19Z</time>
      </trkpt>
      <trkpt lat="47.16026" lon="2.19101">
        <ele>110</ele>
        <time>2021-08-11T13:50:19Z</time>
      </trkpt>
      <trkpt lat="47.16028" lon="2.19091">
        <ele>109</ele>
        <time>2021-08-11T13:50:19Z</time>
      </trkpt>
      <trkpt lat="47.1603" lon="2.19084">
        <ele>109</ele>
        <time>2021-08-11T13:50:19Z</time>
      </trkpt>
      <trkpt lat="47.16033" lon="2.19075">
        <ele>110</ele>
        <time>2021-08-11T13:50:19Z</time>
      </trkpt>
      <trkpt lat="47.16036" lon="2.19065">
        <ele>110</ele>
        <time>2021-08-11T13:50:19Z</time>
      </trkpt>
      <trkpt lat="47.16039" lon="2.19056">
        <ele>110</ele>
        <time>2021-08-11T13:50:19Z</time>
      </trkpt>
      <trkpt lat="47.16042" lon="2.19046">
        <ele>111</ele>
        <time>2021-08-11T13:50:19Z</time>
      </trkpt>
      <trkpt lat="47.16044" lon="2.19037">
        <ele>111</ele>
        <time>2021-08-11T13:50:19Z</time>
      </trkpt>
      <trkpt lat="47.16045" lon="2.19026">
        <ele>111</ele>
        <time>2021-08-11T13:50:19Z</time>
      </trkpt>
      <trkpt lat="47.16047" lon="2.19018">
        <ele>111</ele>
        <time>2021-08-11T13:50:19Z</time>
      </trkpt>
      <trkpt lat="47.1605" lon="2.1901">
        <ele>111</ele>
        <time>2021-08-11T13:50:19Z</time>
      </trkpt>
      <trkpt lat="47.16053" lon="2.19001">
        <ele>111</ele>
        <time>2021-08-11T13:50:19Z</time>
      </trkpt>
      <trkpt lat="47.16055" lon="2.18993">
        <ele>112</ele>
        <time>2021-08-11T13:50:19Z</time>
      </trkpt>
      <trkpt lat="47.16058" lon="2.18984">
        <ele>111</ele>
        <time>2021-08-11T13:50:19Z</time>
      </trkpt>
      <trkpt lat="47.1606" lon="2.18975">
        <ele>111</ele>
        <time>2021-08-11T13:50:19Z</time>
      </trkpt>
      <trkpt lat="47.16063" lon="2.18965">
        <ele>112</ele>
        <time>2021-08-11T13:50:19Z</time>
      </trkpt>
      <trkpt lat="47.16067" lon="2.18955">
        <ele>112</ele>
        <time>2021-08-11T13:50:19Z</time>
      </trkpt>
      <trkpt lat="47.16071" lon="2.18948">
        <ele>113</ele>
        <time>2021-08-11T13:50:19Z</time>
      </trkpt>
      <trkpt lat="47.16076" lon="2.1894">
        <ele>113</ele>
        <time>2021-08-11T13:50:19Z</time>
      </trkpt>
      <trkpt lat="47.16079" lon="2.18932">
        <ele>113</ele>
        <time>2021-08-11T13:50:19Z</time>
      </trkpt>
      <trkpt lat="47.16084" lon="2.18925">
        <ele>112</ele>
        <time>2021-08-11T13:50:19Z</time>
      </trkpt>
      <trkpt lat="47.16089" lon="2.18918">
        <ele>112</ele>
        <time>2021-08-11T13:50:19Z</time>
      </trkpt>
      <trkpt lat="47.16094" lon="2.18911">
        <ele>113</ele>
        <time>2021-08-11T13:50:19Z</time>
      </trkpt>
      <trkpt lat="47.16099" lon="2.18905">
        <ele>113</ele>
        <time>2021-08-11T13:50:19Z</time>
      </trkpt>
      <trkpt lat="47.16105" lon="2.18898">
        <ele>113</ele>
        <time>2021-08-11T13:50:19Z</time>
      </trkpt>
      <trkpt lat="47.1611" lon="2.18892">
        <ele>113</ele>
        <time>2021-08-11T13:50:19Z</time>
      </trkpt>
      <trkpt lat="47.16116" lon="2.18887">
        <ele>112</ele>
        <time>2021-08-11T13:50:19Z</time>
      </trkpt>
      <trkpt lat="47.16122" lon="2.18881">
        <ele>112</ele>
        <time>2021-08-11T13:50:19Z</time>
      </trkpt>
      <trkpt lat="47.16128" lon="2.18875">
        <ele>112</ele>
        <time>2021-08-11T13:50:19Z</time>
      </trkpt>
      <trkpt lat="47.16133" lon="2.1887">
        <ele>112</ele>
        <time>2021-08-11T13:50:19Z</time>
      </trkpt>
      <trkpt lat="47.16139" lon="2.18865">
        <ele>112</ele>
        <time>2021-08-11T13:50:19Z</time>
      </trkpt>
      <trkpt lat="47.16145" lon="2.1886">
        <ele>113</ele>
        <time>2021-08-11T13:50:19Z</time>
      </trkpt>
      <trkpt lat="47.16151" lon="2.18855">
        <ele>113</ele>
        <time>2021-08-11T13:50:19Z</time>
      </trkpt>
      <trkpt lat="47.16156" lon="2.18848">
        <ele>113</ele>
        <time>2021-08-11T13:50:19Z</time>
      </trkpt>
      <trkpt lat="47.16161" lon="2.18843">
        <ele>113</ele>
        <time>2021-08-11T13:50:19Z</time>
      </trkpt>
      <trkpt lat="47.16167" lon="2.18838">
        <ele>113</ele>
        <time>2021-08-11T13:50:19Z</time>
      </trkpt>
      <trkpt lat="47.16173" lon="2.18834">
        <ele>113</ele>
        <time>2021-08-11T13:50:19Z</time>
      </trkpt>
      <trkpt lat="47.16178" lon="2.18829">
        <ele>114</ele>
        <time>2021-08-11T13:50:19Z</time>
      </trkpt>
      <trkpt lat="47.16184" lon="2.18825">
        <ele>114</ele>
        <time>2021-08-11T13:50:19Z</time>
      </trkpt>
      <trkpt lat="47.16189" lon="2.1882">
        <ele>114</ele>
        <time>2021-08-11T13:50:19Z</time>
      </trkpt>
      <trkpt lat="47.16195" lon="2.18812">
        <ele>114</ele>
        <time>2021-08-11T13:50:19Z</time>
      </trkpt>
      <trkpt lat="47.162" lon="2.18805">
        <ele>114</ele>
        <time>2021-08-11T13:50:19Z</time>
      </trkpt>
      <trkpt lat="47.16205" lon="2.18799">
        <ele>114</ele>
        <time>2021-08-11T13:50:19Z</time>
      </trkpt>
      <trkpt lat="47.16212" lon="2.18794">
        <ele>114</ele>
        <time>2021-08-11T13:50:19Z</time>
      </trkpt>
      <trkpt lat="47.16217" lon="2.18788">
        <ele>114</ele>
        <time>2021-08-11T13:50:19Z</time>
      </trkpt>
      <trkpt lat="47.16223" lon="2.18782">
        <ele>113</ele>
        <time>2021-08-11T13:50:19Z</time>
      </trkpt>
      <trkpt lat="47.16228" lon="2.18777">
        <ele>113</ele>
        <time>2021-08-11T13:50:19Z</time>
      </trkpt>
      <trkpt lat="47.16233" lon="2.18772">
        <ele>113</ele>
        <time>2021-08-11T13:50:19Z</time>
      </trkpt>
      <trkpt lat="47.16239" lon="2.18768">
        <ele>113</ele>
        <time>2021-08-11T13:50:19Z</time>
      </trkpt>
      <trkpt lat="47.16244" lon="2.18763">
        <ele>112</ele>
        <time>2021-08-11T13:50:19Z</time>
      </trkpt>
      <trkpt lat="47.1625" lon="2.18757">
        <ele>112</ele>
        <time>2021-08-11T13:50:19Z</time>
      </trkpt>
      <trkpt lat="47.16255" lon="2.18752">
        <ele>113</ele>
        <time>2021-08-11T13:50:19Z</time>
      </trkpt>
      <trkpt lat="47.1626" lon="2.18746">
        <ele>113</ele>
        <time>2021-08-11T13:50:19Z</time>
      </trkpt>
      <trkpt lat="47.16266" lon="2.1874">
        <ele>114</ele>
        <time>2021-08-11T13:50:19Z</time>
      </trkpt>
      <trkpt lat="47.16271" lon="2.18735">
        <ele>115</ele>
        <time>2021-08-11T13:50:19Z</time>
      </trkpt>
      <trkpt lat="47.16277" lon="2.1873">
        <ele>116</ele>
        <time>2021-08-11T13:50:19Z</time>
      </trkpt>
      <trkpt lat="47.16283" lon="2.18724">
        <ele>116</ele>
        <time>2021-08-11T13:50:19Z</time>
      </trkpt>
      <trkpt lat="47.1631" lon="2.18699">
        <ele>114</ele>
        <time>2021-08-11T13:50:19Z</time>
      </trkpt>
      <trkpt lat="47.16337" lon="2.18672">
        <ele>112</ele>
        <time>2021-08-11T13:50:19Z</time>
      </trkpt>
      <trkpt lat="47.16365" lon="2.18646">
        <ele>112</ele>
        <time>2021-08-11T13:50:19Z</time>
      </trkpt>
      <trkpt lat="47.16393" lon="2.18619">
        <ele>112</ele>
        <time>2021-08-11T13:50:19Z</time>
      </trkpt>
      <trkpt lat="47.1642" lon="2.18592">
        <ele>112</ele>
        <time>2021-08-11T13:50:19Z</time>
      </trkpt>
      <trkpt lat="47.16444" lon="2.18572">
        <ele>112</ele>
        <time>2021-08-11T13:50:19Z</time>
      </trkpt>
      <trkpt lat="47.16449" lon="2.18567">
        <ele>112</ele>
        <time>2021-08-11T13:50:19Z</time>
      </trkpt>
      <trkpt lat="47.16477" lon="2.1854">
        <ele>112</ele>
        <time>2021-08-11T13:50:19Z</time>
      </trkpt>
      <trkpt lat="47.16504" lon="2.18512">
        <ele>111</ele>
        <time>2021-08-11T13:50:19Z</time>
      </trkpt>
      <trkpt lat="47.16531" lon="2.18485">
        <ele>108</ele>
        <time>2021-08-11T13:50:19Z</time>
      </trkpt>
      <trkpt lat="47.16558" lon="2.18459">
        <ele>109</ele>
        <time>2021-08-11T13:50:19Z</time>
      </trkpt>
      <trkpt lat="47.16585" lon="2.18432">
        <ele>110</ele>
        <time>2021-08-11T13:50:19Z</time>
      </trkpt>
      <trkpt lat="47.16606" lon="2.18413">
        <ele>111</ele>
        <time>2021-08-11T13:50:19Z</time>
      </trkpt>
      <trkpt lat="47.16612" lon="2.18408">
        <ele>111</ele>
        <time>2021-08-11T13:50:19Z</time>
      </trkpt>
      <trkpt lat="47.16638" lon="2.18382">
        <ele>111</ele>
        <time>2021-08-11T13:50:19Z</time>
      </trkpt>
      <trkpt lat="47.16666" lon="2.18356">
        <ele>110</ele>
        <time>2021-08-11T13:50:19Z</time>
      </trkpt>
      <trkpt lat="47.16695" lon="2.18328">
        <ele>110</ele>
        <time>2021-08-11T13:50:19Z</time>
      </trkpt>
      <trkpt lat="47.16722" lon="2.18296">
        <ele>110</ele>
        <time>2021-08-11T13:50:19Z</time>
      </trkpt>
      <trkpt lat="47.16749" lon="2.18273">
        <ele>111</ele>
        <time>2021-08-11T13:50:19Z</time>
      </trkpt>
      <trkpt lat="47.1677" lon="2.18251">
        <ele>110</ele>
        <time>2021-08-11T13:50:19Z</time>
      </trkpt>
      <trkpt lat="47.16776" lon="2.18246">
        <ele>110</ele>
        <time>2021-08-11T13:50:19Z</time>
      </trkpt>
      <trkpt lat="47.16781" lon="2.1824">
        <ele>110</ele>
        <time>2021-08-11T13:50:19Z</time>
      </trkpt>
      <trkpt lat="47.16787" lon="2.18235">
        <ele>110</ele>
        <time>2021-08-11T13:50:19Z</time>
      </trkpt>
      <trkpt lat="47.16792" lon="2.1823">
        <ele>109</ele>
        <time>2021-08-11T13:50:19Z</time>
      </trkpt>
      <trkpt lat="47.16797" lon="2.18225">
        <ele>109</ele>
        <time>2021-08-11T13:50:19Z</time>
      </trkpt>
      <trkpt lat="47.16803" lon="2.18219">
        <ele>109</ele>
        <time>2021-08-11T13:50:19Z</time>
      </trkpt>
      <trkpt lat="47.16808" lon="2.18214">
        <ele>108</ele>
        <time>2021-08-11T13:50:19Z</time>
      </trkpt>
      <trkpt lat="47.16813" lon="2.18209">
        <ele>108</ele>
        <time>2021-08-11T13:50:19Z</time>
      </trkpt>
      <trkpt lat="47.16818" lon="2.18203">
        <ele>108</ele>
        <time>2021-08-11T13:50:19Z</time>
      </trkpt>
      <trkpt lat="47.16823" lon="2.18198">
        <ele>107</ele>
        <time>2021-08-11T13:50:19Z</time>
      </trkpt>
      <trkpt lat="47.16828" lon="2.18193">
        <ele>107</ele>
        <time>2021-08-11T13:50:19Z</time>
      </trkpt>
      <trkpt lat="47.16834" lon="2.18189">
        <ele>107</ele>
        <time>2021-08-11T13:50:19Z</time>
      </trkpt>
      <trkpt lat="47.16839" lon="2.18183">
        <ele>107</ele>
        <time>2021-08-11T13:50:19Z</time>
      </trkpt>
      <trkpt lat="47.16843" lon="2.18177">
        <ele>108</ele>
        <time>2021-08-11T13:50:19Z</time>
      </trkpt>
      <trkpt lat="47.16848" lon="2.18173">
        <ele>108</ele>
        <time>2021-08-11T13:50:19Z</time>
      </trkpt>
      <trkpt lat="47.16853" lon="2.18169">
        <ele>108</ele>
        <time>2021-08-11T13:50:19Z</time>
      </trkpt>
      <trkpt lat="47.16857" lon="2.18165">
        <ele>109</ele>
        <time>2021-08-11T13:50:19Z</time>
      </trkpt>
      <trkpt lat="47.16861" lon="2.18161">
        <ele>109</ele>
        <time>2021-08-11T13:50:19Z</time>
      </trkpt>
      <trkpt lat="47.16865" lon="2.18157">
        <ele>109</ele>
        <time>2021-08-11T13:50:19Z</time>
      </trkpt>
      <trkpt lat="47.16868" lon="2.18153">
        <ele>109</ele>
        <time>2021-08-11T13:50:19Z</time>
      </trkpt>
      <trkpt lat="47.1687" lon="2.18148">
        <ele>109</ele>
        <time>2021-08-11T13:50:19Z</time>
      </trkpt>
      <trkpt lat="47.16871" lon="2.18145">
        <ele>109</ele>
        <time>2021-08-11T13:50:19Z</time>
      </trkpt>
      <trkpt lat="47.1687" lon="2.18141">
        <ele>109</ele>
        <time>2021-08-11T13:50:19Z</time>
      </trkpt>
      <trkpt lat="47.16869" lon="2.18138">
        <ele>109</ele>
        <time>2021-08-11T13:50:19Z</time>
      </trkpt>
      <trkpt lat="47.16869" lon="2.18135">
        <ele>109</ele>
        <time>2021-08-11T13:50:19Z</time>
      </trkpt>
      <trkpt lat="47.16867" lon="2.18133">
        <ele>109</ele>
        <time>2021-08-11T13:50:19Z</time>
      </trkpt>
      <trkpt lat="47.16865" lon="2.18131">
        <ele>109</ele>
        <time>2021-08-11T13:50:19Z</time>
      </trkpt>
      <trkpt lat="47.16861" lon="2.1813">
        <ele>109</ele>
        <time>2021-08-11T13:50:19Z</time>
      </trkpt>
      <trkpt lat="47.16857" lon="2.1813">
        <ele>109</ele>
        <time>2021-08-11T13:50:19Z</time>
      </trkpt>
      <trkpt lat="47.16853" lon="2.1813">
        <ele>109</ele>
        <time>2021-08-11T13:50:19Z</time>
      </trkpt>
      <trkpt lat="47.16845" lon="2.18137">
        <ele>109</ele>
        <time>2021-08-11T13:50:19Z</time>
      </trkpt>
      <trkpt lat="47.1684" lon="2.1814">
        <ele>109</ele>
        <time>2021-08-11T13:50:19Z</time>
      </trkpt>
      <trkpt lat="47.16834" lon="2.18142">
        <ele>109</ele>
        <time>2021-08-11T13:50:19Z</time>
      </trkpt>
      <trkpt lat="47.16828" lon="2.18143">
        <ele>109</ele>
        <time>2021-08-11T13:50:19Z</time>
      </trkpt>
      <trkpt lat="47.16822" lon="2.18145">
        <ele>109</ele>
        <time>2021-08-11T13:50:19Z</time>
      </trkpt>
      <trkpt lat="47.16816" lon="2.18148">
        <ele>109</ele>
        <time>2021-08-11T13:50:19Z</time>
      </trkpt>
      <trkpt lat="47.1681" lon="2.1815">
        <ele>109</ele>
        <time>2021-08-11T13:50:19Z</time>
      </trkpt>
      <trkpt lat="47.16803" lon="2.18152">
        <ele>110</ele>
        <time>2021-08-11T13:50:19Z</time>
      </trkpt>
      <trkpt lat="47.16797" lon="2.18155">
        <ele>110</ele>
        <time>2021-08-11T13:50:19Z</time>
      </trkpt>
      <trkpt lat="47.16791" lon="2.18156">
        <ele>110</ele>
        <time>2021-08-11T13:50:19Z</time>
      </trkpt>
      <trkpt lat="47.16785" lon="2.18157">
        <ele>110</ele>
        <time>2021-08-11T13:50:19Z</time>
      </trkpt>
      <trkpt lat="47.16778" lon="2.18159">
        <ele>110</ele>
        <time>2021-08-11T13:50:19Z</time>
      </trkpt>
      <trkpt lat="47.16772" lon="2.18161">
        <ele>110</ele>
        <time>2021-08-11T13:50:19Z</time>
      </trkpt>
      <trkpt lat="47.16766" lon="2.18163">
        <ele>110</ele>
        <time>2021-08-11T13:50:19Z</time>
      </trkpt>
      <trkpt lat="47.1676" lon="2.18165">
        <ele>110</ele>
        <time>2021-08-11T13:50:19Z</time>
      </trkpt>
      <trkpt lat="47.16754" lon="2.18166">
        <ele>110</ele>
        <time>2021-08-11T13:50:19Z</time>
      </trkpt>
      <trkpt lat="47.16748" lon="2.18168">
        <ele>109</ele>
        <time>2021-08-11T13:50:19Z</time>
      </trkpt>
      <trkpt lat="47.16742" lon="2.1817">
        <ele>109</ele>
        <time>2021-08-11T13:50:19Z</time>
      </trkpt>
      <trkpt lat="47.16736" lon="2.18172">
        <ele>109</ele>
        <time>2021-08-11T13:50:19Z</time>
      </trkpt>
      <trkpt lat="47.16729" lon="2.18173">
        <ele>109</ele>
        <time>2021-08-11T13:50:19Z</time>
      </trkpt>
      <trkpt lat="47.16723" lon="2.18175">
        <ele>109</ele>
        <time>2021-08-11T13:50:19Z</time>
      </trkpt>
      <trkpt lat="47.16716" lon="2.18177">
        <ele>109</ele>
        <time>2021-08-11T13:50:19Z</time>
      </trkpt>
      <trkpt lat="47.16711" lon="2.18179">
        <ele>109</ele>
        <time>2021-08-11T13:50:19Z</time>
      </trkpt>
      <trkpt lat="47.16704" lon="2.18181">
        <ele>109</ele>
        <time>2021-08-11T13:50:19Z</time>
      </trkpt>
      <trkpt lat="47.16698" lon="2.18183">
        <ele>109</ele>
        <time>2021-08-11T13:50:19Z</time>
      </trkpt>
      <trkpt lat="47.16692" lon="2.18184">
        <ele>109</ele>
        <time>2021-08-11T13:50:19Z</time>
      </trkpt>
      <trkpt lat="47.16686" lon="2.18187">
        <ele>109</ele>
        <time>2021-08-11T13:50:19Z</time>
      </trkpt>
      <trkpt lat="47.1668" lon="2.18187">
        <ele>109</ele>
        <time>2021-08-11T13:50:19Z</time>
      </trkpt>
      <trkpt lat="47.16673" lon="2.18188">
        <ele>109</ele>
        <time>2021-08-11T13:50:19Z</time>
      </trkpt>
      <trkpt lat="47.16667" lon="2.1819">
        <ele>109</ele>
        <time>2021-08-11T13:50:19Z</time>
      </trkpt>
      <trkpt lat="47.16661" lon="2.18191">
        <ele>110</ele>
        <time>2021-08-11T13:50:19Z</time>
      </trkpt>
      <trkpt lat="47.16655" lon="2.18193">
        <ele>110</ele>
        <time>2021-08-11T13:50:19Z</time>
      </trkpt>
      <trkpt lat="47.16623" lon="2.18199">
        <ele>111</ele>
        <time>2021-08-11T13:50:19Z</time>
      </trkpt>
      <trkpt lat="47.16593" lon="2.18206">
        <ele>111</ele>
        <time>2021-08-11T13:50:19Z</time>
      </trkpt>
      <trkpt lat="47.16561" lon="2.18215">
        <ele>112</ele>
        <time>2021-08-11T13:50:19Z</time>
      </trkpt>
      <trkpt lat="47.16533" lon="2.18236">
        <ele>110</ele>
        <time>2021-08-11T13:50:19Z</time>
      </trkpt>
      <trkpt lat="47.16512" lon="2.18261">
        <ele>109</ele>
        <time>2021-08-11T13:50:19Z</time>
      </trkpt>
      <trkpt lat="47.16497" lon="2.18284">
        <ele>108</ele>
        <time>2021-08-11T13:50:19Z</time>
      </trkpt>
      <trkpt lat="47.16492" lon="2.1829">
        <ele>108</ele>
        <time>2021-08-11T13:50:19Z</time>
      </trkpt>
      <trkpt lat="47.16469" lon="2.18319">
        <ele>110</ele>
        <time>2021-08-11T13:50:19Z</time>
      </trkpt>
      <trkpt lat="47.16443" lon="2.18344">
        <ele>109</ele>
        <time>2021-08-11T13:50:19Z</time>
      </trkpt>
      <trkpt lat="47.16417" lon="2.1835">
        <ele>109</ele>
        <time>2021-08-11T13:50:19Z</time>
      </trkpt>
      <trkpt lat="47.16391" lon="2.18339">
        <ele>111</ele>
        <time>2021-08-11T13:50:19Z</time>
      </trkpt>
      <trkpt lat="47.16366" lon="2.18325">
        <ele>114</ele>
        <time>2021-08-11T13:50:19Z</time>
      </trkpt>
      <trkpt lat="47.16355" lon="2.18306">
        <ele>116</ele>
        <time>2021-08-11T13:50:19Z</time>
      </trkpt>
      <trkpt lat="47.16354" lon="2.18299">
        <ele>116</ele>
        <time>2021-08-11T13:50:19Z</time>
      </trkpt>
      <trkpt lat="47.16358" lon="2.18286">
        <ele>116</ele>
        <time>2021-08-11T13:50:19Z</time>
      </trkpt>
      <trkpt lat="47.16362" lon="2.18279">
        <ele>116</ele>
        <time>2021-08-11T13:50:19Z</time>
      </trkpt>
      <trkpt lat="47.16365" lon="2.18272">
        <ele>116</ele>
        <time>2021-08-11T13:50:19Z</time>
      </trkpt>
      <trkpt lat="47.16369" lon="2.18264">
        <ele>116</ele>
        <time>2021-08-11T13:50:19Z</time>
      </trkpt>
      <trkpt lat="47.16373" lon="2.18257">
        <ele>116</ele>
        <time>2021-08-11T13:50:19Z</time>
      </trkpt>
      <trkpt lat="47.16377" lon="2.18249">
        <ele>116</ele>
        <time>2021-08-11T13:50:19Z</time>
      </trkpt>
      <trkpt lat="47.16381" lon="2.18242">
        <ele>116</ele>
        <time>2021-08-11T13:50:19Z</time>
      </trkpt>
      <trkpt lat="47.16385" lon="2.18235">
        <ele>116</ele>
        <time>2021-08-11T13:50:19Z</time>
      </trkpt>
      <trkpt lat="47.16405" lon="2.18197">
        <ele>116</ele>
        <time>2021-08-11T13:50:19Z</time>
      </trkpt>
      <trkpt lat="47.16427" lon="2.18159">
        <ele>116</ele>
        <time>2021-08-11T13:50:19Z</time>
      </trkpt>
      <trkpt lat="47.16451" lon="2.18123">
        <ele>116</ele>
        <time>2021-08-11T13:50:19Z</time>
      </trkpt>
      <trkpt lat="47.16476" lon="2.18089">
        <ele>116</ele>
        <time>2021-08-11T13:50:19Z</time>
      </trkpt>
      <trkpt lat="47.16502" lon="2.18055">
        <ele>116</ele>
        <time>2021-08-11T13:50:19Z</time>
      </trkpt>
      <trkpt lat="47.16523" lon="2.18031">
        <ele>116</ele>
        <time>2021-08-11T13:50:19Z</time>
      </trkpt>
      <trkpt lat="47.16529" lon="2.18025">
        <ele>115</ele>
        <time>2021-08-11T13:50:19Z</time>
      </trkpt>
      <trkpt lat="47.16545" lon="2.18008">
        <ele>114</ele>
        <time>2021-08-11T13:50:19Z</time>
      </trkpt>
      <trkpt lat="47.16551" lon="2.18003">
        <ele>114</ele>
        <time>2021-08-11T13:50:19Z</time>
      </trkpt>
      <trkpt lat="47.16556" lon="2.17998">
        <ele>114</ele>
        <time>2021-08-11T13:50:19Z</time>
      </trkpt>
      <trkpt lat="47.16561" lon="2.17992">
        <ele>114</ele>
        <time>2021-08-11T13:50:19Z</time>
      </trkpt>
      <trkpt lat="47.16567" lon="2.17986">
        <ele>114</ele>
        <time>2021-08-11T13:50:19Z</time>
      </trkpt>
      <trkpt lat="47.16573" lon="2.17981">
        <ele>114</ele>
        <time>2021-08-11T13:50:19Z</time>
      </trkpt>
      <trkpt lat="47.16579" lon="2.17976">
        <ele>114</ele>
        <time>2021-08-11T13:50:19Z</time>
      </trkpt>
      <trkpt lat="47.16584" lon="2.17969">
        <ele>115</ele>
        <time>2021-08-11T13:50:19Z</time>
      </trkpt>
      <trkpt lat="47.1659" lon="2.17964">
        <ele>115</ele>
        <time>2021-08-11T13:50:19Z</time>
      </trkpt>
      <trkpt lat="47.16596" lon="2.17958">
        <ele>115</ele>
        <time>2021-08-11T13:50:19Z</time>
      </trkpt>
      <trkpt lat="47.16602" lon="2.17953">
        <ele>116</ele>
        <time>2021-08-11T13:50:19Z</time>
      </trkpt>
      <trkpt lat="47.16608" lon="2.17946">
        <ele>116</ele>
        <time>2021-08-11T13:50:19Z</time>
      </trkpt>
      <trkpt lat="47.16613" lon="2.17941">
        <ele>116</ele>
        <time>2021-08-11T13:50:19Z</time>
      </trkpt>
      <trkpt lat="47.16619" lon="2.17935">
        <ele>116</ele>
        <time>2021-08-11T13:50:19Z</time>
      </trkpt>
      <trkpt lat="47.16624" lon="2.17929">
        <ele>116</ele>
        <time>2021-08-11T13:50:19Z</time>
      </trkpt>
      <trkpt lat="47.1663" lon="2.17922">
        <ele>116</ele>
        <time>2021-08-11T13:50:19Z</time>
      </trkpt>
      <trkpt lat="47.16636" lon="2.17915">
        <ele>116</ele>
        <time>2021-08-11T13:50:19Z</time>
      </trkpt>
      <trkpt lat="47.16641" lon="2.17909">
        <ele>116</ele>
        <time>2021-08-11T13:50:19Z</time>
      </trkpt>
      <trkpt lat="47.16647" lon="2.17902">
        <ele>116</ele>
        <time>2021-08-11T13:50:19Z</time>
      </trkpt>
      <trkpt lat="47.16653" lon="2.17895">
        <ele>116</ele>
        <time>2021-08-11T13:50:19Z</time>
      </trkpt>
      <trkpt lat="47.16658" lon="2.17888">
        <ele>116</ele>
        <time>2021-08-11T13:50:19Z</time>
      </trkpt>
      <trkpt lat="47.16663" lon="2.17881">
        <ele>116</ele>
        <time>2021-08-11T13:50:19Z</time>
      </trkpt>
      <trkpt lat="47.16668" lon="2.17874">
        <ele>115</ele>
        <time>2021-08-11T13:50:19Z</time>
      </trkpt>
      <trkpt lat="47.16673" lon="2.17867">
        <ele>115</ele>
        <time>2021-08-11T13:50:19Z</time>
      </trkpt>
      <trkpt lat="47.16678" lon="2.1786">
        <ele>115</ele>
        <time>2021-08-11T13:50:19Z</time>
      </trkpt>
      <trkpt lat="47.16683" lon="2.17853">
        <ele>115</ele>
        <time>2021-08-11T13:50:19Z</time>
      </trkpt>
      <trkpt lat="47.16688" lon="2.17846">
        <ele>115</ele>
        <time>2021-08-11T13:50:19Z</time>
      </trkpt>
      <trkpt lat="47.16694" lon="2.17838">
        <ele>115</ele>
        <time>2021-08-11T13:50:19Z</time>
      </trkpt>
      <trkpt lat="47.16699" lon="2.17831">
        <ele>115</ele>
        <time>2021-08-11T13:50:19Z</time>
      </trkpt>
      <trkpt lat="47.16704" lon="2.17824">
        <ele>116</ele>
        <time>2021-08-11T13:50:19Z</time>
      </trkpt>
      <trkpt lat="47.16708" lon="2.17817">
        <ele>116</ele>
        <time>2021-08-11T13:50:19Z</time>
      </trkpt>
      <trkpt lat="47.16714" lon="2.17811">
        <ele>116</ele>
        <time>2021-08-11T13:50:19Z</time>
      </trkpt>
      <trkpt lat="47.16719" lon="2.17805">
        <ele>116</ele>
        <time>2021-08-11T13:50:19Z</time>
      </trkpt>
      <trkpt lat="47.16722" lon="2.17798">
        <ele>116</ele>
        <time>2021-08-11T13:50:19Z</time>
      </trkpt>
      <trkpt lat="47.16726" lon="2.17794">
        <ele>116</ele>
        <time>2021-08-11T13:50:19Z</time>
      </trkpt>
      <trkpt lat="47.1673" lon="2.17792">
        <ele>116</ele>
        <time>2021-08-11T13:50:19Z</time>
      </trkpt>
      <trkpt lat="47.16734" lon="2.17796">
        <ele>116</ele>
        <time>2021-08-11T13:50:19Z</time>
      </trkpt>
      <trkpt lat="47.16738" lon="2.17803">
        <ele>116</ele>
        <time>2021-08-11T13:50:19Z</time>
      </trkpt>
      <trkpt lat="47.16741" lon="2.17809">
        <ele>115</ele>
        <time>2021-08-11T13:50:19Z</time>
      </trkpt>
      <trkpt lat="47.16745" lon="2.17814">
        <ele>115</ele>
        <time>2021-08-11T13:50:19Z</time>
      </trkpt>
      <trkpt lat="47.16749" lon="2.1782">
        <ele>115</ele>
        <time>2021-08-11T13:50:19Z</time>
      </trkpt>
      <trkpt lat="47.16753" lon="2.17826">
        <ele>115</ele>
        <time>2021-08-11T13:50:19Z</time>
      </trkpt>
      <trkpt lat="47.16757" lon="2.17832">
        <ele>114</ele>
        <time>2021-08-11T13:50:19Z</time>
      </trkpt>
      <trkpt lat="47.16761" lon="2.17838">
        <ele>114</ele>
        <time>2021-08-11T13:50:19Z</time>
      </trkpt>
      <trkpt lat="47.16765" lon="2.17845">
        <ele>114</ele>
        <time>2021-08-11T13:50:19Z</time>
      </trkpt>
      <trkpt lat="47.16769" lon="2.17853">
        <ele>113</ele>
        <time>2021-08-11T13:50:19Z</time>
      </trkpt>
      <trkpt lat="47.16774" lon="2.17859">
        <ele>113</ele>
        <time>2021-08-11T13:50:19Z</time>
      </trkpt>
      <trkpt lat="47.16778" lon="2.17866">
        <ele>112</ele>
        <time>2021-08-11T13:50:19Z</time>
      </trkpt>
      <trkpt lat="47.16783" lon="2.17873">
        <ele>112</ele>
        <time>2021-08-11T13:50:19Z</time>
      </trkpt>
      <trkpt lat="47.16788" lon="2.1788">
        <ele>112</ele>
        <time>2021-08-11T13:50:19Z</time>
      </trkpt>
      <trkpt lat="47.16792" lon="2.17887">
        <ele>112</ele>
        <time>2021-08-11T13:50:19Z</time>
      </trkpt>
      <trkpt lat="47.16796" lon="2.17893">
        <ele>112</ele>
        <time>2021-08-11T13:50:19Z</time>
      </trkpt>
      <trkpt lat="47.168" lon="2.17899">
        <ele>111</ele>
        <time>2021-08-11T13:50:19Z</time>
      </trkpt>
      <trkpt lat="47.16804" lon="2.17905">
        <ele>111</ele>
        <time>2021-08-11T13:50:19Z</time>
      </trkpt>
      <trkpt lat="47.16809" lon="2.17912">
        <ele>111</ele>
        <time>2021-08-11T13:50:19Z</time>
      </trkpt>
      <trkpt lat="47.16813" lon="2.17918">
        <ele>110</ele>
        <time>2021-08-11T13:50:19Z</time>
      </trkpt>
      <trkpt lat="47.16817" lon="2.17925">
        <ele>110</ele>
        <time>2021-08-11T13:50:19Z</time>
      </trkpt>
      <trkpt lat="47.1682" lon="2.17933">
        <ele>110</ele>
        <time>2021-08-11T13:50:19Z</time>
      </trkpt>
      <trkpt lat="47.16824" lon="2.17941">
        <ele>109</ele>
        <time>2021-08-11T13:50:19Z</time>
      </trkpt>
      <trkpt lat="47.16828" lon="2.17949">
        <ele>109</ele>
        <time>2021-08-11T13:50:19Z</time>
      </trkpt>
      <trkpt lat="47.16832" lon="2.17957">
        <ele>109</ele>
        <time>2021-08-11T13:50:19Z</time>
      </trkpt>
      <trkpt lat="47.1685" lon="2.17997">
        <ele>108</ele>
        <time>2021-08-11T13:50:19Z</time>
      </trkpt>
      <trkpt lat="47.16867" lon="2.18036">
        <ele>108</ele>
        <time>2021-08-11T13:50:19Z</time>
      </trkpt>
      <trkpt lat="47.16889" lon="2.18068">
        <ele>108</ele>
        <time>2021-08-11T13:50:19Z</time>
      </trkpt>
      <trkpt lat="47.16917" lon="2.18057">
        <ele>108</ele>
        <time>2021-08-11T13:50:19Z</time>
      </trkpt>
      <trkpt lat="47.16943" lon="2.1805">
        <ele>107</ele>
        <time>2021-08-11T13:50:19Z</time>
      </trkpt>
      <trkpt lat="47.16964" lon="2.18044">
        <ele>107</ele>
        <time>2021-08-11T13:50:19Z</time>
      </trkpt>
      <trkpt lat="47.16969" lon="2.18042">
        <ele>107</ele>
        <time>2021-08-11T13:50:19Z</time>
      </trkpt>
      <trkpt lat="47.16998" lon="2.18032">
        <ele>107</ele>
        <time>2021-08-11T13:50:19Z</time>
      </trkpt>
      <trkpt lat="47.17024" lon="2.18007">
        <ele>108</ele>
        <time>2021-08-11T13:50:19Z</time>
      </trkpt>
      <trkpt lat="47.17046" lon="2.17983">
        <ele>109</ele>
        <time>2021-08-11T13:50:19Z</time>
      </trkpt>
      <trkpt lat="47.17073" lon="2.17957">
        <ele>111</ele>
        <time>2021-08-11T13:50:19Z</time>
      </trkpt>
      <trkpt lat="47.17101" lon="2.17931">
        <ele>112</ele>
        <time>2021-08-11T13:50:19Z</time>
      </trkpt>
      <trkpt lat="47.17123" lon="2.17907">
        <ele>112</ele>
        <time>2021-08-11T13:50:19Z</time>
      </trkpt>
      <trkpt lat="47.17128" lon="2.17902">
        <ele>112</ele>
        <time>2021-08-11T13:50:19Z</time>
      </trkpt>
      <trkpt lat="47.17134" lon="2.17897">
        <ele>112</ele>
        <time>2021-08-11T13:50:19Z</time>
      </trkpt>
      <trkpt lat="47.17139" lon="2.17892">
        <ele>112</ele>
        <time>2021-08-11T13:50:19Z</time>
      </trkpt>
      <trkpt lat="47.17144" lon="2.17885">
        <ele>113</ele>
        <time>2021-08-11T13:50:19Z</time>
      </trkpt>
      <trkpt lat="47.1715" lon="2.17879">
        <ele>113</ele>
        <time>2021-08-11T13:50:19Z</time>
      </trkpt>
      <trkpt lat="47.17156" lon="2.17873">
        <ele>113</ele>
        <time>2021-08-11T13:50:19Z</time>
      </trkpt>
      <trkpt lat="47.17161" lon="2.17868">
        <ele>113</ele>
        <time>2021-08-11T13:50:19Z</time>
      </trkpt>
      <trkpt lat="47.17166" lon="2.17862">
        <ele>113</ele>
        <time>2021-08-11T13:50:19Z</time>
      </trkpt>
      <trkpt lat="47.17172" lon="2.17857">
        <ele>113</ele>
        <time>2021-08-11T13:50:19Z</time>
      </trkpt>
      <trkpt lat="47.17178" lon="2.17851">
        <ele>113</ele>
        <time>2021-08-11T13:50:19Z</time>
      </trkpt>
      <trkpt lat="47.17183" lon="2.17846">
        <ele>113</ele>
        <time>2021-08-11T13:50:19Z</time>
      </trkpt>
      <trkpt lat="47.17189" lon="2.17841">
        <ele>113</ele>
        <time>2021-08-11T13:50:19Z</time>
      </trkpt>
      <trkpt lat="47.17195" lon="2.17835">
        <ele>113</ele>
        <time>2021-08-11T13:50:19Z</time>
      </trkpt>
      <trkpt lat="47.172" lon="2.17829">
        <ele>113</ele>
        <time>2021-08-11T13:50:19Z</time>
      </trkpt>
      <trkpt lat="47.17206" lon="2.17823">
        <ele>113</ele>
        <time>2021-08-11T13:50:19Z</time>
      </trkpt>
      <trkpt lat="47.17211" lon="2.17819">
        <ele>113</ele>
        <time>2021-08-11T13:50:19Z</time>
      </trkpt>
      <trkpt lat="47.17217" lon="2.17813">
        <ele>113</ele>
        <time>2021-08-11T13:50:19Z</time>
      </trkpt>
      <trkpt lat="47.17222" lon="2.17807">
        <ele>113</ele>
        <time>2021-08-11T13:50:19Z</time>
      </trkpt>
      <trkpt lat="47.17227" lon="2.17802">
        <ele>112</ele>
        <time>2021-08-11T13:50:19Z</time>
      </trkpt>
      <trkpt lat="47.17233" lon="2.17796">
        <ele>112</ele>
        <time>2021-08-11T13:50:19Z</time>
      </trkpt>
      <trkpt lat="47.17239" lon="2.1779">
        <ele>112</ele>
        <time>2021-08-11T13:50:19Z</time>
      </trkpt>
      <trkpt lat="47.17244" lon="2.17784">
        <ele>112</ele>
        <time>2021-08-11T13:50:19Z</time>
      </trkpt>
      <trkpt lat="47.1725" lon="2.17778">
        <ele>112</ele>
        <time>2021-08-11T13:50:19Z</time>
      </trkpt>
      <trkpt lat="47.17255" lon="2.17773">
        <ele>112</ele>
        <time>2021-08-11T13:50:19Z</time>
      </trkpt>
      <trkpt lat="47.17261" lon="2.17769">
        <ele>112</ele>
        <time>2021-08-11T13:50:19Z</time>
      </trkpt>
      <trkpt lat="47.17266" lon="2.17763">
        <ele>112</ele>
        <time>2021-08-11T13:50:19Z</time>
      </trkpt>
      <trkpt lat="47.17272" lon="2.17758">
        <ele>112</ele>
        <time>2021-08-11T13:50:19Z</time>
      </trkpt>
      <trkpt lat="47.17277" lon="2.17753">
        <ele>112</ele>
        <time>2021-08-11T13:50:19Z</time>
      </trkpt>
      <trkpt lat="47.17283" lon="2.17748">
        <ele>111</ele>
        <time>2021-08-11T13:50:19Z</time>
      </trkpt>
      <trkpt lat="47.17288" lon="2.17742">
        <ele>111</ele>
        <time>2021-08-11T13:50:19Z</time>
      </trkpt>
      <trkpt lat="47.17293" lon="2.17736">
        <ele>111</ele>
        <time>2021-08-11T13:50:19Z</time>
      </trkpt>
      <trkpt lat="47.17299" lon="2.1773">
        <ele>111</ele>
        <time>2021-08-11T13:50:19Z</time>
      </trkpt>
      <trkpt lat="47.17305" lon="2.17727">
        <ele>111</ele>
        <time>2021-08-11T13:50:19Z</time>
      </trkpt>
      <trkpt lat="47.17311" lon="2.17722">
        <ele>111</ele>
        <time>2021-08-11T13:50:19Z</time>
      </trkpt>
      <trkpt lat="47.17316" lon="2.17717">
        <ele>111</ele>
        <time>2021-08-11T13:50:19Z</time>
      </trkpt>
      <trkpt lat="47.17322" lon="2.17712">
        <ele>111</ele>
        <time>2021-08-11T13:50:19Z</time>
      </trkpt>
      <trkpt lat="47.17328" lon="2.17707">
        <ele>111</ele>
        <time>2021-08-11T13:50:19Z</time>
      </trkpt>
      <trkpt lat="47.17335" lon="2.17703">
        <ele>111</ele>
        <time>2021-08-11T13:50:19Z</time>
      </trkpt>
      <trkpt lat="47.1734" lon="2.17697">
        <ele>111</ele>
        <time>2021-08-11T13:50:19Z</time>
      </trkpt>
      <trkpt lat="47.17345" lon="2.17692">
        <ele>110</ele>
        <time>2021-08-11T13:50:19Z</time>
      </trkpt>
      <trkpt lat="47.17351" lon="2.17685">
        <ele>110</ele>
        <time>2021-08-11T13:50:19Z</time>
      </trkpt>
      <trkpt lat="47.17356" lon="2.1768">
        <ele>109</ele>
        <time>2021-08-11T13:50:19Z</time>
      </trkpt>
      <trkpt lat="47.17362" lon="2.17674">
        <ele>109</ele>
        <time>2021-08-11T13:50:19Z</time>
      </trkpt>
      <trkpt lat="47.17367" lon="2.17669">
        <ele>109</ele>
        <time>2021-08-11T13:50:19Z</time>
      </trkpt>
      <trkpt lat="47.17372" lon="2.17661">
        <ele>109</ele>
        <time>2021-08-11T13:50:19Z</time>
      </trkpt>
      <trkpt lat="47.17377" lon="2.17656">
        <ele>109</ele>
        <time>2021-08-11T13:50:19Z</time>
      </trkpt>
      <trkpt lat="47.17382" lon="2.1765">
        <ele>109</ele>
        <time>2021-08-11T13:50:19Z</time>
      </trkpt>
      <trkpt lat="47.17388" lon="2.17644">
        <ele>109</ele>
        <time>2021-08-11T13:50:19Z</time>
      </trkpt>
      <trkpt lat="47.17393" lon="2.17639">
        <ele>109</ele>
        <time>2021-08-11T13:50:19Z</time>
      </trkpt>
      <trkpt lat="47.17399" lon="2.17634">
        <ele>108</ele>
        <time>2021-08-11T13:50:19Z</time>
      </trkpt>
      <trkpt lat="47.17405" lon="2.17629">
        <ele>108</ele>
        <time>2021-08-11T13:50:19Z</time>
      </trkpt>
      <trkpt lat="47.1741" lon="2.17623">
        <ele>108</ele>
        <time>2021-08-11T13:50:19Z</time>
      </trkpt>
      <trkpt lat="47.17416" lon="2.17618">
        <ele>108</ele>
        <time>2021-08-11T13:50:19Z</time>
      </trkpt>
      <trkpt lat="47.17421" lon="2.17613">
        <ele>108</ele>
        <time>2021-08-11T13:50:19Z</time>
      </trkpt>
      <trkpt lat="47.17427" lon="2.17607">
        <ele>109</ele>
        <time>2021-08-11T13:50:19Z</time>
      </trkpt>
      <trkpt lat="47.17432" lon="2.17602">
        <ele>109</ele>
        <time>2021-08-11T13:50:19Z</time>
      </trkpt>
      <trkpt lat="47.17438" lon="2.17597">
        <ele>109</ele>
        <time>2021-08-11T13:50:19Z</time>
      </trkpt>
      <trkpt lat="47.17443" lon="2.17591">
        <ele>109</ele>
        <time>2021-08-11T13:50:19Z</time>
      </trkpt>
      <trkpt lat="47.17451" lon="2.17589">
        <ele>108</ele>
        <time>2021-08-11T13:50:19Z</time>
      </trkpt>
      <trkpt lat="47.17456" lon="2.17584">
        <ele>108</ele>
        <time>2021-08-11T13:50:19Z</time>
      </trkpt>
      <trkpt lat="47.17462" lon="2.17579">
        <ele>109</ele>
        <time>2021-08-11T13:50:19Z</time>
      </trkpt>
      <trkpt lat="47.17467" lon="2.17574">
        <ele>109</ele>
        <time>2021-08-11T13:50:19Z</time>
      </trkpt>
      <trkpt lat="47.17494" lon="2.17546">
        <ele>109</ele>
        <time>2021-08-11T13:50:19Z</time>
      </trkpt>
      <trkpt lat="47.17522" lon="2.17519">
        <ele>109</ele>
        <time>2021-08-11T13:50:19Z</time>
      </trkpt>
      <trkpt lat="47.17549" lon="2.17491">
        <ele>110</ele>
        <time>2021-08-11T13:50:19Z</time>
      </trkpt>
      <trkpt lat="47.17577" lon="2.17463">
        <ele>110</ele>
        <time>2021-08-11T13:50:19Z</time>
      </trkpt>
      <trkpt lat="47.17605" lon="2.17437">
        <ele>108</ele>
        <time>2021-08-11T13:50:19Z</time>
      </trkpt>
      <trkpt lat="47.17627" lon="2.17415">
        <ele>107</ele>
        <time>2021-08-11T13:50:19Z</time>
      </trkpt>
      <trkpt lat="47.17633" lon="2.1741">
        <ele>107</ele>
        <time>2021-08-11T13:50:19Z</time>
      </trkpt>
      <trkpt lat="47.1766" lon="2.17383">
        <ele>108</ele>
        <time>2021-08-11T13:50:19Z</time>
      </trkpt>
      <trkpt lat="47.17687" lon="2.17355">
        <ele>109</ele>
        <time>2021-08-11T13:50:19Z</time>
      </trkpt>
      <trkpt lat="47.17714" lon="2.17328">
        <ele>109</ele>
        <time>2021-08-11T13:50:19Z</time>
      </trkpt>
      <trkpt lat="47.17742" lon="2.17307">
        <ele>109</ele>
        <time>2021-08-11T13:50:19Z</time>
      </trkpt>
      <trkpt lat="47.1777" lon="2.17282">
        <ele>109</ele>
        <time>2021-08-11T13:50:19Z</time>
      </trkpt>
      <trkpt lat="47.17791" lon="2.17261">
        <ele>110</ele>
        <time>2021-08-11T13:50:19Z</time>
      </trkpt>
      <trkpt lat="47.17796" lon="2.17255">
        <ele>110</ele>
        <time>2021-08-11T13:50:19Z</time>
      </trkpt>
      <trkpt lat="47.17824" lon="2.17231">
        <ele>111</ele>
        <time>2021-08-11T13:50:19Z</time>
      </trkpt>
      <trkpt lat="47.17849" lon="2.17205">
        <ele>110</ele>
        <time>2021-08-11T13:50:19Z</time>
      </trkpt>
      <trkpt lat="47.17864" lon="2.17191">
        <ele>110</ele>
        <time>2021-08-11T13:50:19Z</time>
      </trkpt>
      <trkpt lat="47.17867" lon="2.17189">
        <ele>109</ele>
        <time>2021-08-11T13:50:19Z</time>
      </trkpt>
      <trkpt lat="47.17867" lon="2.17188">
        <ele>110</ele>
        <time>2021-08-11T13:50:19Z</time>
      </trkpt>
      <trkpt lat="47.17866" lon="2.17187">
        <ele>110</ele>
        <time>2021-08-11T13:50:19Z</time>
      </trkpt>
      <trkpt lat="47.17864" lon="2.17183">
        <ele>110</ele>
        <time>2021-08-11T13:50:19Z</time>
      </trkpt>
      <trkpt lat="47.17863" lon="2.17183">
        <ele>110</ele>
        <time>2021-08-11T13:50:19Z</time>
      </trkpt>
      <trkpt lat="47.17863" lon="2.17184">
        <ele>110</ele>
        <time>2021-08-11T13:50:19Z</time>
      </trkpt>
      <trkpt lat="47.17862" lon="2.17185">
        <ele>110</ele>
        <time>2021-08-11T13:50:19Z</time>
      </trkpt>
      <trkpt lat="47.1786" lon="2.17186">
        <ele>110</ele>
        <time>2021-08-11T13:50:19Z</time>
      </trkpt>
      <trkpt lat="47.17859" lon="2.17188">
        <ele>110</ele>
        <time>2021-08-11T13:50:19Z</time>
      </trkpt>
      <trkpt lat="47.17857" lon="2.17191">
        <ele>110</ele>
        <time>2021-08-11T13:50:19Z</time>
      </trkpt>
      <trkpt lat="47.17854" lon="2.17193">
        <ele>110</ele>
        <time>2021-08-11T13:50:19Z</time>
      </trkpt>
      <trkpt lat="47.17851" lon="2.17196">
        <ele>110</ele>
        <time>2021-08-11T13:50:19Z</time>
      </trkpt>
      <trkpt lat="47.17848" lon="2.17199">
        <ele>110</ele>
        <time>2021-08-11T13:50:19Z</time>
      </trkpt>
      <trkpt lat="47.17845" lon="2.17203">
        <ele>110</ele>
        <time>2021-08-11T13:50:19Z</time>
      </trkpt>
      <trkpt lat="47.17841" lon="2.17206">
        <ele>110</ele>
        <time>2021-08-11T13:50:19Z</time>
      </trkpt>
      <trkpt lat="47.17837" lon="2.1721">
        <ele>110</ele>
        <time>2021-08-11T13:50:19Z</time>
      </trkpt>
      <trkpt lat="47.17833" lon="2.17214">
        <ele>111</ele>
        <time>2021-08-11T13:50:19Z</time>
      </trkpt>
      <trkpt lat="47.17828" lon="2.17218">
        <ele>111</ele>
        <time>2021-08-11T13:50:19Z</time>
      </trkpt>
      <trkpt lat="47.17824" lon="2.17223">
        <ele>111</ele>
        <time>2021-08-11T13:50:19Z</time>
      </trkpt>
      <trkpt lat="47.17819" lon="2.17228">
        <ele>111</ele>
        <time>2021-08-11T13:50:19Z</time>
      </trkpt>
      <trkpt lat="47.17815" lon="2.17232">
        <ele>111</ele>
        <time>2021-08-11T13:50:19Z</time>
      </trkpt>
      <trkpt lat="47.1781" lon="2.17237">
        <ele>111</ele>
        <time>2021-08-11T13:50:19Z</time>
      </trkpt>
      <trkpt lat="47.17805" lon="2.17242">
        <ele>110</ele>
        <time>2021-08-11T13:50:19Z</time>
      </trkpt>
      <trkpt lat="47.178" lon="2.17246">
        <ele>110</ele>
        <time>2021-08-11T13:50:19Z</time>
      </trkpt>
      <trkpt lat="47.17791" lon="2.17256">
        <ele>110</ele>
        <time>2021-08-11T13:50:19Z</time>
      </trkpt>
      <trkpt lat="47.17787" lon="2.17262">
        <ele>110</ele>
        <time>2021-08-11T13:50:19Z</time>
      </trkpt>
      <trkpt lat="47.17782" lon="2.17266">
        <ele>110</ele>
        <time>2021-08-11T13:50:19Z</time>
      </trkpt>
      <trkpt lat="47.17755" lon="2.17294">
        <ele>109</ele>
        <time>2021-08-11T13:50:19Z</time>
      </trkpt>
      <trkpt lat="47.17724" lon="2.17323">
        <ele>109</ele>
        <time>2021-08-11T13:50:19Z</time>
      </trkpt>
      <trkpt lat="47.17692" lon="2.17352">
        <ele>109</ele>
        <time>2021-08-11T13:50:19Z</time>
      </trkpt>
      <trkpt lat="47.17666" lon="2.17379">
        <ele>108</ele>
        <time>2021-08-11T13:50:19Z</time>
      </trkpt>
      <trkpt lat="47.17634" lon="2.1741">
        <ele>107</ele>
        <time>2021-08-11T13:50:19Z</time>
      </trkpt>
      <trkpt lat="47.17607" lon="2.17437">
        <ele>108</ele>
        <time>2021-08-11T13:50:19Z</time>
      </trkpt>
      <trkpt lat="47.17601" lon="2.17442">
        <ele>108</ele>
        <time>2021-08-11T13:50:19Z</time>
      </trkpt>
      <trkpt lat="47.17574" lon="2.17468">
        <ele>110</ele>
        <time>2021-08-11T13:50:19Z</time>
      </trkpt>
      <trkpt lat="47.17541" lon="2.17499">
        <ele>110</ele>
        <time>2021-08-11T13:50:19Z</time>
      </trkpt>
      <trkpt lat="47.17513" lon="2.17527">
        <ele>109</ele>
        <time>2021-08-11T13:50:19Z</time>
      </trkpt>
      <trkpt lat="47.17486" lon="2.17553">
        <ele>109</ele>
        <time>2021-08-11T13:50:19Z</time>
      </trkpt>
      <trkpt lat="47.17453" lon="2.17586">
        <ele>108</ele>
        <time>2021-08-11T13:50:19Z</time>
      </trkpt>
      <trkpt lat="47.17432" lon="2.17607">
        <ele>109</ele>
        <time>2021-08-11T13:50:19Z</time>
      </trkpt>
      <trkpt lat="47.17426" lon="2.17613">
        <ele>108</ele>
        <time>2021-08-11T13:50:19Z</time>
      </trkpt>
      <trkpt lat="47.174" lon="2.17639">
        <ele>109</ele>
        <time>2021-08-11T13:50:19Z</time>
      </trkpt>
      <trkpt lat="47.17374" lon="2.17666">
        <ele>109</ele>
        <time>2021-08-11T13:50:19Z</time>
      </trkpt>
      <trkpt lat="47.17339" lon="2.17697">
        <ele>111</ele>
        <time>2021-08-11T13:50:19Z</time>
      </trkpt>
      <trkpt lat="47.17312" lon="2.1772">
        <ele>111</ele>
        <time>2021-08-11T13:50:19Z</time>
      </trkpt>
      <trkpt lat="47.17286" lon="2.17746">
        <ele>111</ele>
        <time>2021-08-11T13:50:19Z</time>
      </trkpt>
      <trkpt lat="47.17266" lon="2.17768">
        <ele>112</ele>
        <time>2021-08-11T13:50:19Z</time>
      </trkpt>
      <trkpt lat="47.1726" lon="2.17773">
        <ele>112</ele>
        <time>2021-08-11T13:50:19Z</time>
      </trkpt>
      <trkpt lat="47.17236" lon="2.17799">
        <ele>112</ele>
        <time>2021-08-11T13:50:19Z</time>
      </trkpt>
      <trkpt lat="47.17209" lon="2.17825">
        <ele>113</ele>
        <time>2021-08-11T13:50:19Z</time>
      </trkpt>
      <trkpt lat="47.17183" lon="2.1785">
        <ele>113</ele>
        <time>2021-08-11T13:50:19Z</time>
      </trkpt>
      <trkpt lat="47.17156" lon="2.17877">
        <ele>113</ele>
        <time>2021-08-11T13:50:19Z</time>
      </trkpt>
      <trkpt lat="47.17124" lon="2.1791">
        <ele>112</ele>
        <time>2021-08-11T13:50:19Z</time>
      </trkpt>
      <trkpt lat="47.17102" lon="2.1793">
        <ele>112</ele>
        <time>2021-08-11T13:50:19Z</time>
      </trkpt>
      <trkpt lat="47.17097" lon="2.17934">
        <ele>112</ele>
        <time>2021-08-11T13:50:19Z</time>
      </trkpt>
      <trkpt lat="47.17092" lon="2.17939">
        <ele>112</ele>
        <time>2021-08-11T13:50:19Z</time>
      </trkpt>
      <trkpt lat="47.17086" lon="2.17943">
        <ele>112</ele>
        <time>2021-08-11T13:50:19Z</time>
      </trkpt>
      <trkpt lat="47.17081" lon="2.17949">
        <ele>111</ele>
        <time>2021-08-11T13:50:19Z</time>
      </trkpt>
      <trkpt lat="47.17077" lon="2.17953">
        <ele>111</ele>
        <time>2021-08-11T13:50:19Z</time>
      </trkpt>
      <trkpt lat="47.17071" lon="2.17958">
        <ele>111</ele>
        <time>2021-08-11T13:50:19Z</time>
      </trkpt>
      <trkpt lat="47.17066" lon="2.17963">
        <ele>110</ele>
        <time>2021-08-11T13:50:19Z</time>
      </trkpt>
      <trkpt lat="47.1706" lon="2.17968">
        <ele>110</ele>
        <time>2021-08-11T13:50:19Z</time>
      </trkpt>
      <trkpt lat="47.17055" lon="2.17975">
        <ele>109</ele>
        <time>2021-08-11T13:50:19Z</time>
      </trkpt>
      <trkpt lat="47.17049" lon="2.1798">
        <ele>109</ele>
        <time>2021-08-11T13:50:19Z</time>
      </trkpt>
      <trkpt lat="47.1704" lon="2.17991">
        <ele>109</ele>
        <time>2021-08-11T13:50:19Z</time>
      </trkpt>
      <trkpt lat="47.17035" lon="2.17997">
        <ele>109</ele>
        <time>2021-08-11T13:50:19Z</time>
      </trkpt>
      <trkpt lat="47.1703" lon="2.18002">
        <ele>109</ele>
        <time>2021-08-11T13:50:19Z</time>
      </trkpt>
      <trkpt lat="47.17025" lon="2.18007">
        <ele>108</ele>
        <time>2021-08-11T13:50:19Z</time>
      </trkpt>
      <trkpt lat="47.1702" lon="2.18013">
        <ele>108</ele>
        <time>2021-08-11T13:50:19Z</time>
      </trkpt>
      <trkpt lat="47.17015" lon="2.18019">
        <ele>108</ele>
        <time>2021-08-11T13:50:19Z</time>
      </trkpt>
      <trkpt lat="47.1701" lon="2.18024">
        <ele>108</ele>
        <time>2021-08-11T13:50:19Z</time>
      </trkpt>
      <trkpt lat="47.17005" lon="2.18028">
        <ele>108</ele>
        <time>2021-08-11T13:50:19Z</time>
      </trkpt>
      <trkpt lat="47.16999" lon="2.18031">
        <ele>107</ele>
        <time>2021-08-11T13:50:19Z</time>
      </trkpt>
      <trkpt lat="47.16994" lon="2.18034">
        <ele>107</ele>
        <time>2021-08-11T13:50:19Z</time>
      </trkpt>
      <trkpt lat="47.16988" lon="2.18037">
        <ele>107</ele>
        <time>2021-08-11T13:50:19Z</time>
      </trkpt>
      <trkpt lat="47.16976" lon="2.18039">
        <ele>107</ele>
        <time>2021-08-11T13:50:19Z</time>
      </trkpt>
      <trkpt lat="47.1697" lon="2.18041">
        <ele>107</ele>
        <time>2021-08-11T13:50:19Z</time>
      </trkpt>
      <trkpt lat="47.16964" lon="2.18043">
        <ele>107</ele>
        <time>2021-08-11T13:50:19Z</time>
      </trkpt>
      <trkpt lat="47.16958" lon="2.18044">
        <ele>107</ele>
        <time>2021-08-11T13:50:19Z</time>
      </trkpt>
      <trkpt lat="47.16953" lon="2.18046">
        <ele>107</ele>
        <time>2021-08-11T13:50:19Z</time>
      </trkpt>
      <trkpt lat="47.16947" lon="2.18049">
        <ele>107</ele>
        <time>2021-08-11T13:50:19Z</time>
      </trkpt>
      <trkpt lat="47.1694" lon="2.18052">
        <ele>107</ele>
        <time>2021-08-11T13:50:19Z</time>
      </trkpt>
      <trkpt lat="47.16934" lon="2.18053">
        <ele>107</ele>
        <time>2021-08-11T13:50:19Z</time>
      </trkpt>
      <trkpt lat="47.16928" lon="2.18056">
        <ele>107</ele>
        <time>2021-08-11T13:50:19Z</time>
      </trkpt>
      <trkpt lat="47.16921" lon="2.18058">
        <ele>108</ele>
        <time>2021-08-11T13:50:19Z</time>
      </trkpt>
      <trkpt lat="47.16915" lon="2.1806">
        <ele>108</ele>
        <time>2021-08-11T13:50:19Z</time>
      </trkpt>
      <trkpt lat="47.16908" lon="2.18062">
        <ele>108</ele>
        <time>2021-08-11T13:50:19Z</time>
      </trkpt>
      <trkpt lat="47.16902" lon="2.18064">
        <ele>108</ele>
        <time>2021-08-11T13:50:19Z</time>
      </trkpt>
      <trkpt lat="47.16895" lon="2.18066">
        <ele>108</ele>
        <time>2021-08-11T13:50:19Z</time>
      </trkpt>
      <trkpt lat="47.16888" lon="2.18066">
        <ele>108</ele>
        <time>2021-08-11T13:50:19Z</time>
      </trkpt>
      <trkpt lat="47.16882" lon="2.18063">
        <ele>108</ele>
        <time>2021-08-11T13:50:19Z</time>
      </trkpt>
      <trkpt lat="47.16877" lon="2.18057">
        <ele>108</ele>
        <time>2021-08-11T13:50:19Z</time>
      </trkpt>
      <trkpt lat="47.16873" lon="2.1805">
        <ele>108</ele>
        <time>2021-08-11T13:50:19Z</time>
      </trkpt>
      <trkpt lat="47.16869" lon="2.18043">
        <ele>108</ele>
        <time>2021-08-11T13:50:19Z</time>
      </trkpt>
      <trkpt lat="47.16866" lon="2.18035">
        <ele>108</ele>
        <time>2021-08-11T13:50:19Z</time>
      </trkpt>
      <trkpt lat="47.16863" lon="2.18028">
        <ele>108</ele>
        <time>2021-08-11T13:50:19Z</time>
      </trkpt>
      <trkpt lat="47.16859" lon="2.1802">
        <ele>108</ele>
        <time>2021-08-11T13:50:19Z</time>
      </trkpt>
      <trkpt lat="47.16856" lon="2.18012">
        <ele>108</ele>
        <time>2021-08-11T13:50:19Z</time>
      </trkpt>
      <trkpt lat="47.16853" lon="2.18004">
        <ele>108</ele>
        <time>2021-08-11T13:50:19Z</time>
      </trkpt>
      <trkpt lat="47.16849" lon="2.17997">
        <ele>108</ele>
        <time>2021-08-11T13:50:19Z</time>
      </trkpt>
      <trkpt lat="47.16846" lon="2.17989">
        <ele>108</ele>
        <time>2021-08-11T13:50:19Z</time>
      </trkpt>
      <trkpt lat="47.16843" lon="2.17981">
        <ele>108</ele>
        <time>2021-08-11T13:50:19Z</time>
      </trkpt>
      <trkpt lat="47.16839" lon="2.17974">
        <ele>108</ele>
        <time>2021-08-11T13:50:19Z</time>
      </trkpt>
      <trkpt lat="47.16836" lon="2.17967">
        <ele>108</ele>
        <time>2021-08-11T13:50:19Z</time>
      </trkpt>
      <trkpt lat="47.16833" lon="2.17959">
        <ele>109</ele>
        <time>2021-08-11T13:50:19Z</time>
      </trkpt>
      <trkpt lat="47.16829" lon="2.17951">
        <ele>109</ele>
        <time>2021-08-11T13:50:19Z</time>
      </trkpt>
      <trkpt lat="47.16826" lon="2.17944">
        <ele>109</ele>
        <time>2021-08-11T13:50:19Z</time>
      </trkpt>
      <trkpt lat="47.16822" lon="2.17937">
        <ele>109</ele>
        <time>2021-08-11T13:50:19Z</time>
      </trkpt>
      <trkpt lat="47.16819" lon="2.1793">
        <ele>110</ele>
        <time>2021-08-11T13:50:19Z</time>
      </trkpt>
      <trkpt lat="47.16815" lon="2.17922">
        <ele>110</ele>
        <time>2021-08-11T13:50:19Z</time>
      </trkpt>
      <trkpt lat="47.16812" lon="2.17916">
        <ele>110</ele>
        <time>2021-08-11T13:50:19Z</time>
      </trkpt>
      <trkpt lat="47.16808" lon="2.17909">
        <ele>111</ele>
        <time>2021-08-11T13:50:19Z</time>
      </trkpt>
      <trkpt lat="47.16804" lon="2.17904">
        <ele>111</ele>
        <time>2021-08-11T13:50:19Z</time>
      </trkpt>
      <trkpt lat="47.16786" lon="2.17875">
        <ele>112</ele>
        <time>2021-08-11T13:50:19Z</time>
      </trkpt>
      <trkpt lat="47.16768" lon="2.17847">
        <ele>113</ele>
        <time>2021-08-11T13:50:19Z</time>
      </trkpt>
      <trkpt lat="47.16749" lon="2.17817">
        <ele>115</ele>
        <time>2021-08-11T13:50:19Z</time>
      </trkpt>
      <trkpt lat="47.1673" lon="2.17797">
        <ele>116</ele>
        <time>2021-08-11T13:50:19Z</time>
      </trkpt>
      <trkpt lat="47.16711" lon="2.17818">
        <ele>115</ele>
        <time>2021-08-11T13:50:19Z</time>
      </trkpt>
      <trkpt lat="47.16695" lon="2.1784">
        <ele>115</ele>
        <time>2021-08-11T13:50:19Z</time>
      </trkpt>
      <trkpt lat="47.1669" lon="2.17846">
        <ele>115</ele>
        <time>2021-08-11T13:50:19Z</time>
      </trkpt>
      <trkpt lat="47.16668" lon="2.17877">
        <ele>115</ele>
        <time>2021-08-11T13:50:19Z</time>
      </trkpt>
      <trkpt lat="47.16645" lon="2.17907">
        <ele>116</ele>
        <time>2021-08-11T13:50:19Z</time>
      </trkpt>
      <trkpt lat="47.16621" lon="2.17936">
        <ele>116</ele>
        <time>2021-08-11T13:50:19Z</time>
      </trkpt>
      <trkpt lat="47.16596" lon="2.17962">
        <ele>115</ele>
        <time>2021-08-11T13:50:19Z</time>
      </trkpt>
      <trkpt lat="47.16571" lon="2.17988">
        <ele>114</ele>
        <time>2021-08-11T13:50:19Z</time>
      </trkpt>
      <trkpt lat="47.16549" lon="2.18007">
        <ele>114</ele>
        <time>2021-08-11T13:50:19Z</time>
      </trkpt>
      <trkpt lat="47.16544" lon="2.18012">
        <ele>114</ele>
        <time>2021-08-11T13:50:19Z</time>
      </trkpt>
      <trkpt lat="47.16518" lon="2.18039">
        <ele>116</ele>
        <time>2021-08-11T13:50:19Z</time>
      </trkpt>
      <trkpt lat="47.16494" lon="2.18069">
        <ele>116</ele>
        <time>2021-08-11T13:50:19Z</time>
      </trkpt>
      <trkpt lat="47.1647" lon="2.18099">
        <ele>116</ele>
        <time>2021-08-11T13:50:19Z</time>
      </trkpt>
      <trkpt lat="47.16447" lon="2.18131">
        <ele>116</ele>
        <time>2021-08-11T13:50:19Z</time>
      </trkpt>
      <trkpt lat="47.16424" lon="2.1816">
        <ele>116</ele>
        <time>2021-08-11T13:50:19Z</time>
      </trkpt>
      <trkpt lat="47.16407" lon="2.18188">
        <ele>116</ele>
        <time>2021-08-11T13:50:19Z</time>
      </trkpt>
      <trkpt lat="47.16403" lon="2.18195">
        <ele>116</ele>
        <time>2021-08-11T13:50:19Z</time>
      </trkpt>
      <trkpt lat="47.16399" lon="2.18202">
        <ele>116</ele>
        <time>2021-08-11T13:50:19Z</time>
      </trkpt>
      <trkpt lat="47.16395" lon="2.18209">
        <ele>116</ele>
        <time>2021-08-11T13:50:19Z</time>
      </trkpt>
      <trkpt lat="47.16391" lon="2.18216">
        <ele>116</ele>
        <time>2021-08-11T13:50:19Z</time>
      </trkpt>
      <trkpt lat="47.16387" lon="2.18224">
        <ele>117</ele>
        <time>2021-08-11T13:50:19Z</time>
      </trkpt>
      <trkpt lat="47.16383" lon="2.18231">
        <ele>116</ele>
        <time>2021-08-11T13:50:19Z</time>
      </trkpt>
      <trkpt lat="47.1638" lon="2.18238">
        <ele>116</ele>
        <time>2021-08-11T13:50:19Z</time>
      </trkpt>
      <trkpt lat="47.16376" lon="2.18246">
        <ele>117</ele>
        <time>2021-08-11T13:50:19Z</time>
      </trkpt>
      <trkpt lat="47.16372" lon="2.18253">
        <ele>117</ele>
        <time>2021-08-11T13:50:19Z</time>
      </trkpt>
      <trkpt lat="47.16368" lon="2.1826">
        <ele>117</ele>
        <time>2021-08-11T13:50:19Z</time>
      </trkpt>
      <trkpt lat="47.16364" lon="2.18268">
        <ele>117</ele>
        <time>2021-08-11T13:50:19Z</time>
      </trkpt>
      <trkpt lat="47.16361" lon="2.18274">
        <ele>117</ele>
        <time>2021-08-11T13:50:19Z</time>
      </trkpt>
      <trkpt lat="47.16358" lon="2.1828">
        <ele>116</ele>
        <time>2021-08-11T13:50:19Z</time>
      </trkpt>
      <trkpt lat="47.16354" lon="2.18286">
        <ele>116</ele>
        <time>2021-08-11T13:50:19Z</time>
      </trkpt>
      <trkpt lat="47.16353" lon="2.18293">
        <ele>116</ele>
        <time>2021-08-11T13:50:19Z</time>
      </trkpt>
      <trkpt lat="47.16352" lon="2.183">
        <ele>116</ele>
        <time>2021-08-11T13:50:19Z</time>
      </trkpt>
      <trkpt lat="47.16351" lon="2.18306">
        <ele>116</ele>
        <time>2021-08-11T13:50:19Z</time>
      </trkpt>
      <trkpt lat="47.16353" lon="2.18313">
        <ele>115</ele>
        <time>2021-08-11T13:50:19Z</time>
      </trkpt>
      <trkpt lat="47.16355" lon="2.18318">
        <ele>115</ele>
        <time>2021-08-11T13:50:19Z</time>
      </trkpt>
      <trkpt lat="47.16357" lon="2.18322">
        <ele>115</ele>
        <time>2021-08-11T13:50:19Z</time>
      </trkpt>
      <trkpt lat="47.16359" lon="2.18325">
        <ele>114</ele>
        <time>2021-08-11T13:50:19Z</time>
      </trkpt>
      <trkpt lat="47.1636" lon="2.18325">
        <ele>114</ele>
        <time>2021-08-11T13:50:19Z</time>
      </trkpt>
      <trkpt lat="47.1636" lon="2.18326">
        <ele>114</ele>
        <time>2021-08-11T13:50:19Z</time>
      </trkpt>
      <trkpt lat="47.16361" lon="2.18327">
        <ele>114</ele>
        <time>2021-08-11T13:50:19Z</time>
      </trkpt>
      <trkpt lat="47.16361" lon="2.18327">
        <ele>114</ele>
        <time>2021-08-11T13:50:19Z</time>
      </trkpt>
      <trkpt lat="47.16361" lon="2.18327">
        <ele>114</ele>
        <time>2021-08-11T13:50:19Z</time>
      </trkpt>
      <trkpt lat="47.16361" lon="2.18327">
        <ele>114</ele>
        <time>2021-08-11T13:50:19Z</time>
      </trkpt>
      <trkpt lat="47.16361" lon="2.18327">
        <ele>114</ele>
        <time>2021-08-11T13:50:19Z</time>
      </trkpt>
      <trkpt lat="47.16361" lon="2.18327">
        <ele>114</ele>
        <time>2021-08-11T13:50:19Z</time>
      </trkpt>
      <trkpt lat="47.16361" lon="2.18327">
        <ele>114</ele>
        <time>2021-08-11T13:50:19Z</time>
      </trkpt>
      <trkpt lat="47.16361" lon="2.18326">
        <ele>114</ele>
        <time>2021-08-11T13:50:19Z</time>
      </trkpt>
      <trkpt lat="47.16361" lon="2.18326">
        <ele>114</ele>
        <time>2021-08-11T13:50:19Z</time>
      </trkpt>
      <trkpt lat="47.16361" lon="2.18326">
        <ele>114</ele>
        <time>2021-08-11T13:50:19Z</time>
      </trkpt>
      <trkpt lat="47.16361" lon="2.18326">
        <ele>114</ele>
        <time>2021-08-11T13:50:19Z</time>
      </trkpt>
      <trkpt lat="47.16362" lon="2.18327">
        <ele>114</ele>
        <time>2021-08-11T13:50:19Z</time>
      </trkpt>
      <trkpt lat="47.16363" lon="2.18328">
        <ele>114</ele>
        <time>2021-08-11T13:50:19Z</time>
      </trkpt>
      <trkpt lat="47.16365" lon="2.18329">
        <ele>114</ele>
        <time>2021-08-11T13:50:19Z</time>
      </trkpt>
      <trkpt lat="47.16368" lon="2.18331">
        <ele>113</ele>
        <time>2021-08-11T13:50:19Z</time>
      </trkpt>
      <trkpt lat="47.16371" lon="2.18333">
        <ele>113</ele>
        <time>2021-08-11T13:50:19Z</time>
      </trkpt>
      <trkpt lat="47.16376" lon="2.18336">
        <ele>112</ele>
        <time>2021-08-11T13:50:19Z</time>
      </trkpt>
      <trkpt lat="47.16405" lon="2.18351">
        <ele>110</ele>
        <time>2021-08-11T13:50:19Z</time>
      </trkpt>
      <trkpt lat="47.16441" lon="2.18354">
        <ele>109</ele>
        <time>2021-08-11T13:50:19Z</time>
      </trkpt>
      <trkpt lat="47.16472" lon="2.18329">
        <ele>109</ele>
        <time>2021-08-11T13:50:19Z</time>
      </trkpt>
      <trkpt lat="47.16496" lon="2.18297">
        <ele>108</ele>
        <time>2021-08-11T13:50:19Z</time>
      </trkpt>
      <trkpt lat="47.16516" lon="2.18267">
        <ele>109</ele>
        <time>2021-08-11T13:50:19Z</time>
      </trkpt>
      <trkpt lat="47.16536" lon="2.18242">
        <ele>110</ele>
        <time>2021-08-11T13:50:19Z</time>
      </trkpt>
      <trkpt lat="47.16542" lon="2.18236">
        <ele>111</ele>
        <time>2021-08-11T13:50:19Z</time>
      </trkpt>
      <trkpt lat="47.16548" lon="2.18231">
        <ele>111</ele>
        <time>2021-08-11T13:50:19Z</time>
      </trkpt>
      <trkpt lat="47.16554" lon="2.18227">
        <ele>111</ele>
        <time>2021-08-11T13:50:19Z</time>
      </trkpt>
      <trkpt lat="47.1656" lon="2.18223">
        <ele>111</ele>
        <time>2021-08-11T13:50:19Z</time>
      </trkpt>
      <trkpt lat="47.16566" lon="2.1822">
        <ele>111</ele>
        <time>2021-08-11T13:50:19Z</time>
      </trkpt>
      <trkpt lat="47.16572" lon="2.18218">
        <ele>111</ele>
        <time>2021-08-11T13:50:19Z</time>
      </trkpt>
      <trkpt lat="47.16577" lon="2.18216">
        <ele>111</ele>
        <time>2021-08-11T13:50:19Z</time>
      </trkpt>
      <trkpt lat="47.16583" lon="2.18214">
        <ele>111</ele>
        <time>2021-08-11T13:50:19Z</time>
      </trkpt>
      <trkpt lat="47.1659" lon="2.18212">
        <ele>111</ele>
        <time>2021-08-11T13:50:19Z</time>
      </trkpt>
      <trkpt lat="47.16596" lon="2.1821">
        <ele>111</ele>
        <time>2021-08-11T13:50:19Z</time>
      </trkpt>
      <trkpt lat="47.16608" lon="2.18207">
        <ele>111</ele>
        <time>2021-08-11T13:50:19Z</time>
      </trkpt>
      <trkpt lat="47.16614" lon="2.18205">
        <ele>111</ele>
        <time>2021-08-11T13:50:19Z</time>
      </trkpt>
      <trkpt lat="47.1662" lon="2.18204">
        <ele>111</ele>
        <time>2021-08-11T13:50:19Z</time>
      </trkpt>
      <trkpt lat="47.16649" lon="2.18197">
        <ele>110</ele>
        <time>2021-08-11T13:50:19Z</time>
      </trkpt>
      <trkpt lat="47.16681" lon="2.18191">
        <ele>109</ele>
        <time>2021-08-11T13:50:19Z</time>
      </trkpt>
      <trkpt lat="47.16712" lon="2.18184">
        <ele>109</ele>
        <time>2021-08-11T13:50:19Z</time>
      </trkpt>
      <trkpt lat="47.16744" lon="2.18175">
        <ele>110</ele>
        <time>2021-08-11T13:50:19Z</time>
      </trkpt>
      <trkpt lat="47.16776" lon="2.18167">
        <ele>110</ele>
        <time>2021-08-11T13:50:19Z</time>
      </trkpt>
      <trkpt lat="47.16801" lon="2.1816">
        <ele>110</ele>
        <time>2021-08-11T13:50:19Z</time>
      </trkpt>
      <trkpt lat="47.16807" lon="2.18159">
        <ele>109</ele>
        <time>2021-08-11T13:50:19Z</time>
      </trkpt>
      <trkpt lat="47.16836" lon="2.18148">
        <ele>109</ele>
        <time>2021-08-11T13:50:19Z</time>
      </trkpt>
      <trkpt lat="47.16861" lon="2.18139">
        <ele>109</ele>
        <time>2021-08-11T13:50:19Z</time>
      </trkpt>
      <trkpt lat="47.16874" lon="2.18152">
        <ele>109</ele>
        <time>2021-08-11T13:50:19Z</time>
      </trkpt>
      <trkpt lat="47.16851" lon="2.18177">
        <ele>108</ele>
        <time>2021-08-11T13:50:19Z</time>
      </trkpt>
      <trkpt lat="47.16824" lon="2.18202">
        <ele>107</ele>
        <time>2021-08-11T13:50:19Z</time>
      </trkpt>
      <trkpt lat="47.16802" lon="2.1822">
        <ele>109</ele>
        <time>2021-08-11T13:50:19Z</time>
      </trkpt>
      <trkpt lat="47.16796" lon="2.18226">
        <ele>109</ele>
        <time>2021-08-11T13:50:19Z</time>
      </trkpt>
      <trkpt lat="47.16769" lon="2.18251">
        <ele>110</ele>
        <time>2021-08-11T13:50:19Z</time>
      </trkpt>
      <trkpt lat="47.16741" lon="2.18277">
        <ele>111</ele>
        <time>2021-08-11T13:50:19Z</time>
      </trkpt>
      <trkpt lat="47.16715" lon="2.18303">
        <ele>110</ele>
        <time>2021-08-11T13:50:19Z</time>
      </trkpt>
      <trkpt lat="47.16688" lon="2.18328">
        <ele>109</ele>
        <time>2021-08-11T13:50:19Z</time>
      </trkpt>
      <trkpt lat="47.16663" lon="2.18354">
        <ele>110</ele>
        <time>2021-08-11T13:50:19Z</time>
      </trkpt>
      <trkpt lat="47.16642" lon="2.18374">
        <ele>111</ele>
        <time>2021-08-11T13:50:19Z</time>
      </trkpt>
      <trkpt lat="47.16635" lon="2.18378">
        <ele>111</ele>
        <time>2021-08-11T13:50:19Z</time>
      </trkpt>
      <trkpt lat="47.1663" lon="2.18384">
        <ele>111</ele>
        <time>2021-08-11T13:50:19Z</time>
      </trkpt>
      <trkpt lat="47.16625" lon="2.1839">
        <ele>111</ele>
        <time>2021-08-11T13:50:19Z</time>
      </trkpt>
      <trkpt lat="47.1662" lon="2.18395">
        <ele>112</ele>
        <time>2021-08-11T13:50:19Z</time>
      </trkpt>
      <trkpt lat="47.16615" lon="2.18401">
        <ele>111</ele>
        <time>2021-08-11T13:50:19Z</time>
      </trkpt>
      <trkpt lat="47.16609" lon="2.18406">
        <ele>111</ele>
        <time>2021-08-11T13:50:19Z</time>
      </trkpt>
      <trkpt lat="47.16603" lon="2.18411">
        <ele>111</ele>
        <time>2021-08-11T13:50:19Z</time>
      </trkpt>
      <trkpt lat="47.16597" lon="2.18415">
        <ele>111</ele>
        <time>2021-08-11T13:50:19Z</time>
      </trkpt>
      <trkpt lat="47.16592" lon="2.18421">
        <ele>111</ele>
        <time>2021-08-11T13:50:19Z</time>
      </trkpt>
      <trkpt lat="47.16587" lon="2.18427">
        <ele>111</ele>
        <time>2021-08-11T13:50:19Z</time>
      </trkpt>
      <trkpt lat="47.16581" lon="2.18432">
        <ele>110</ele>
        <time>2021-08-11T13:50:19Z</time>
      </trkpt>
      <trkpt lat="47.16576" lon="2.18438">
        <ele>110</ele>
        <time>2021-08-11T13:50:19Z</time>
      </trkpt>
      <trkpt lat="47.1657" lon="2.18442">
        <ele>110</ele>
        <time>2021-08-11T13:50:19Z</time>
      </trkpt>
      <trkpt lat="47.16565" lon="2.18448">
        <ele>109</ele>
        <time>2021-08-11T13:50:19Z</time>
      </trkpt>
      <trkpt lat="47.1656" lon="2.18453">
        <ele>109</ele>
        <time>2021-08-11T13:50:19Z</time>
      </trkpt>
      <trkpt lat="47.16554" lon="2.18459">
        <ele>109</ele>
        <time>2021-08-11T13:50:19Z</time>
      </trkpt>
      <trkpt lat="47.16549" lon="2.18464">
        <ele>109</ele>
        <time>2021-08-11T13:50:19Z</time>
      </trkpt>
      <trkpt lat="47.16543" lon="2.18469">
        <ele>109</ele>
        <time>2021-08-11T13:50:19Z</time>
      </trkpt>
      <trkpt lat="47.16538" lon="2.18474">
        <ele>108</ele>
        <time>2021-08-11T13:50:19Z</time>
      </trkpt>
      <trkpt lat="47.16532" lon="2.18479">
        <ele>108</ele>
        <time>2021-08-11T13:50:19Z</time>
      </trkpt>
      <trkpt lat="47.16527" lon="2.18485">
        <ele>109</ele>
        <time>2021-08-11T13:50:19Z</time>
      </trkpt>
      <trkpt lat="47.16522" lon="2.1849">
        <ele>109</ele>
        <time>2021-08-11T13:50:19Z</time>
      </trkpt>
      <trkpt lat="47.16517" lon="2.18494">
        <ele>110</ele>
        <time>2021-08-11T13:50:19Z</time>
      </trkpt>
      <trkpt lat="47.16512" lon="2.185">
        <ele>110</ele>
        <time>2021-08-11T13:50:19Z</time>
      </trkpt>
      <trkpt lat="47.16506" lon="2.18505">
        <ele>111</ele>
        <time>2021-08-11T13:50:19Z</time>
      </trkpt>
      <trkpt lat="47.16501" lon="2.18509">
        <ele>111</ele>
        <time>2021-08-11T13:50:19Z</time>
      </trkpt>
      <trkpt lat="47.16495" lon="2.18514">
        <ele>112</ele>
        <time>2021-08-11T13:50:19Z</time>
      </trkpt>
      <trkpt lat="47.1649" lon="2.18519">
        <ele>112</ele>
        <time>2021-08-11T13:50:19Z</time>
      </trkpt>
      <trkpt lat="47.16484" lon="2.18524">
        <ele>112</ele>
        <time>2021-08-11T13:50:19Z</time>
      </trkpt>
      <trkpt lat="47.16479" lon="2.18529">
        <ele>112</ele>
        <time>2021-08-11T13:50:19Z</time>
      </trkpt>
      <trkpt lat="47.16473" lon="2.18534">
        <ele>112</ele>
        <time>2021-08-11T13:50:19Z</time>
      </trkpt>
      <trkpt lat="47.16466" lon="2.18538">
        <ele>113</ele>
        <time>2021-08-11T13:50:19Z</time>
      </trkpt>
      <trkpt lat="47.16461" lon="2.18543">
        <ele>113</ele>
        <time>2021-08-11T13:50:19Z</time>
      </trkpt>
      <trkpt lat="47.16456" lon="2.18548">
        <ele>113</ele>
        <time>2021-08-11T13:50:19Z</time>
      </trkpt>
      <trkpt lat="47.1645" lon="2.18553">
        <ele>113</ele>
        <time>2021-08-11T13:50:19Z</time>
      </trkpt>
      <trkpt lat="47.16444" lon="2.18559">
        <ele>112</ele>
        <time>2021-08-11T13:50:19Z</time>
      </trkpt>
      <trkpt lat="47.16439" lon="2.18562">
        <ele>112</ele>
        <time>2021-08-11T13:50:19Z</time>
      </trkpt>
      <trkpt lat="47.16432" lon="2.18566">
        <ele>112</ele>
        <time>2021-08-11T13:50:19Z</time>
      </trkpt>
      <trkpt lat="47.16428" lon="2.18573">
        <ele>112</ele>
        <time>2021-08-11T13:50:19Z</time>
      </trkpt>
      <trkpt lat="47.16423" lon="2.18579">
        <ele>112</ele>
        <time>2021-08-11T13:50:19Z</time>
      </trkpt>
      <trkpt lat="47.16418" lon="2.18584">
        <ele>112</ele>
        <time>2021-08-11T13:50:19Z</time>
      </trkpt>
      <trkpt lat="47.16413" lon="2.18591">
        <ele>112</ele>
        <time>2021-08-11T13:50:19Z</time>
      </trkpt>
      <trkpt lat="47.16408" lon="2.18596">
        <ele>112</ele>
        <time>2021-08-11T13:50:19Z</time>
      </trkpt>
      <trkpt lat="47.16403" lon="2.18601">
        <ele>112</ele>
        <time>2021-08-11T13:50:19Z</time>
      </trkpt>
      <trkpt lat="47.16399" lon="2.18607">
        <ele>112</ele>
        <time>2021-08-11T13:50:19Z</time>
      </trkpt>
      <trkpt lat="47.16394" lon="2.18613">
        <ele>112</ele>
        <time>2021-08-11T13:50:19Z</time>
      </trkpt>
      <trkpt lat="47.1639" lon="2.18619">
        <ele>112</ele>
        <time>2021-08-11T13:50:19Z</time>
      </trkpt>
      <trkpt lat="47.16385" lon="2.18625">
        <ele>112</ele>
        <time>2021-08-11T13:50:19Z</time>
      </trkpt>
      <trkpt lat="47.1638" lon="2.1863">
        <ele>112</ele>
        <time>2021-08-11T13:50:19Z</time>
      </trkpt>
      <trkpt lat="47.16374" lon="2.18635">
        <ele>112</ele>
        <time>2021-08-11T13:50:19Z</time>
      </trkpt>
      <trkpt lat="47.16369" lon="2.1864">
        <ele>112</ele>
        <time>2021-08-11T13:50:19Z</time>
      </trkpt>
      <trkpt lat="47.16364" lon="2.18647">
        <ele>112</ele>
        <time>2021-08-11T13:50:19Z</time>
      </trkpt>
      <trkpt lat="47.16359" lon="2.18652">
        <ele>112</ele>
        <time>2021-08-11T13:50:19Z</time>
      </trkpt>
      <trkpt lat="47.16354" lon="2.18657">
        <ele>112</ele>
        <time>2021-08-11T13:50:19Z</time>
      </trkpt>
      <trkpt lat="47.16348" lon="2.18662">
        <ele>112</ele>
        <time>2021-08-11T13:50:19Z</time>
      </trkpt>
      <trkpt lat="47.16343" lon="2.18667">
        <ele>112</ele>
        <time>2021-08-11T13:50:19Z</time>
      </trkpt>
      <trkpt lat="47.16338" lon="2.18672">
        <ele>112</ele>
        <time>2021-08-11T13:50:19Z</time>
      </trkpt>
      <trkpt lat="47.16332" lon="2.18676">
        <ele>112</ele>
        <time>2021-08-11T13:50:19Z</time>
      </trkpt>
      <trkpt lat="47.16326" lon="2.18681">
        <ele>113</ele>
        <time>2021-08-11T13:50:19Z</time>
      </trkpt>
      <trkpt lat="47.1632" lon="2.18686">
        <ele>113</ele>
        <time>2021-08-11T13:50:19Z</time>
      </trkpt>
      <trkpt lat="47.16314" lon="2.18691">
        <ele>114</ele>
        <time>2021-08-11T13:50:19Z</time>
      </trkpt>
      <trkpt lat="47.16309" lon="2.18696">
        <ele>114</ele>
        <time>2021-08-11T13:50:19Z</time>
      </trkpt>
      <trkpt lat="47.16282" lon="2.18723">
        <ele>116</ele>
        <time>2021-08-11T13:50:19Z</time>
      </trkpt>
      <trkpt lat="47.16256" lon="2.18748">
        <ele>113</ele>
        <time>2021-08-11T13:50:19Z</time>
      </trkpt>
      <trkpt lat="47.1623" lon="2.18775">
        <ele>113</ele>
        <time>2021-08-11T13:50:19Z</time>
      </trkpt>
      <trkpt lat="47.16201" lon="2.188">
        <ele>114</ele>
        <time>2021-08-11T13:50:19Z</time>
      </trkpt>
      <trkpt lat="47.16175" lon="2.18826">
        <ele>114</ele>
        <time>2021-08-11T13:50:19Z</time>
      </trkpt>
      <trkpt lat="47.16154" lon="2.18847">
        <ele>113</ele>
        <time>2021-08-11T13:50:19Z</time>
      </trkpt>
      <trkpt lat="47.16149" lon="2.18853">
        <ele>113</ele>
        <time>2021-08-11T13:50:19Z</time>
      </trkpt>
      <trkpt lat="47.16122" lon="2.18877">
        <ele>112</ele>
        <time>2021-08-11T13:50:19Z</time>
      </trkpt>
      <trkpt lat="47.16095" lon="2.18904">
        <ele>113</ele>
        <time>2021-08-11T13:50:19Z</time>
      </trkpt>
      <trkpt lat="47.16072" lon="2.18938">
        <ele>113</ele>
        <time>2021-08-11T13:50:19Z</time>
      </trkpt>
      <trkpt lat="47.16055" lon="2.1898">
        <ele>112</ele>
        <time>2021-08-11T13:50:19Z</time>
      </trkpt>
      <trkpt lat="47.16044" lon="2.19025">
        <ele>111</ele>
        <time>2021-08-11T13:50:19Z</time>
      </trkpt>
      <trkpt lat="47.16033" lon="2.1906">
        <ele>110</ele>
        <time>2021-08-11T13:50:19Z</time>
      </trkpt>
      <trkpt lat="47.16031" lon="2.19069">
        <ele>110</ele>
        <time>2021-08-11T13:50:19Z</time>
      </trkpt>
      <trkpt lat="47.16021" lon="2.19113">
        <ele>110</ele>
        <time>2021-08-11T13:50:19Z</time>
      </trkpt>
      <trkpt lat="47.16009" lon="2.19157">
        <ele>110</ele>
        <time>2021-08-11T13:50:19Z</time>
      </trkpt>
      <trkpt lat="47.15995" lon="2.19198">
        <ele>111</ele>
        <time>2021-08-11T13:50:19Z</time>
      </trkpt>
      <trkpt lat="47.15983" lon="2.19241">
        <ele>111</ele>
        <time>2021-08-11T13:50:19Z</time>
      </trkpt>
      <trkpt lat="47.15971" lon="2.19286">
        <ele>111</ele>
        <time>2021-08-11T13:50:19Z</time>
      </trkpt>
      <trkpt lat="47.15961" lon="2.19321">
        <ele>111</ele>
        <time>2021-08-11T13:50:19Z</time>
      </trkpt>
      <trkpt lat="47.15959" lon="2.19329">
        <ele>112</ele>
        <time>2021-08-11T13:50:19Z</time>
      </trkpt>
      <trkpt lat="47.15957" lon="2.19337">
        <ele>112</ele>
        <time>2021-08-11T13:50:19Z</time>
      </trkpt>
      <trkpt lat="47.15954" lon="2.19345">
        <ele>112</ele>
        <time>2021-08-11T13:50:19Z</time>
      </trkpt>
      <trkpt lat="47.15952" lon="2.19353">
        <ele>112</ele>
        <time>2021-08-11T13:50:19Z</time>
      </trkpt>
      <trkpt lat="47.15949" lon="2.1936">
        <ele>112</ele>
        <time>2021-08-11T13:50:19Z</time>
      </trkpt>
      <trkpt lat="47.15948" lon="2.19366">
        <ele>113</ele>
        <time>2021-08-11T13:50:19Z</time>
      </trkpt>
      <trkpt lat="47.15945" lon="2.19372">
        <ele>113</ele>
        <time>2021-08-11T13:50:19Z</time>
      </trkpt>
      <trkpt lat="47.15943" lon="2.19377">
        <ele>113</ele>
        <time>2021-08-11T13:50:19Z</time>
      </trkpt>
      <trkpt lat="47.15942" lon="2.1938">
        <ele>113</ele>
        <time>2021-08-11T13:50:19Z</time>
      </trkpt>
      <trkpt lat="47.1594" lon="2.19384">
        <ele>113</ele>
        <time>2021-08-11T13:50:19Z</time>
      </trkpt>
      <trkpt lat="47.15938" lon="2.19389">
        <ele>114</ele>
        <time>2021-08-11T13:50:19Z</time>
      </trkpt>
      <trkpt lat="47.15937" lon="2.19395">
        <ele>114</ele>
        <time>2021-08-11T13:50:19Z</time>
      </trkpt>
      <trkpt lat="47.15935" lon="2.19401">
        <ele>114</ele>
        <time>2021-08-11T13:50:19Z</time>
      </trkpt>
      <trkpt lat="47.15933" lon="2.19408">
        <ele>114</ele>
        <time>2021-08-11T13:50:19Z</time>
      </trkpt>
      <trkpt lat="47.15932" lon="2.19415">
        <ele>114</ele>
        <time>2021-08-11T13:50:19Z</time>
      </trkpt>
      <trkpt lat="47.1593" lon="2.19422">
        <ele>113</ele>
        <time>2021-08-11T13:50:19Z</time>
      </trkpt>
      <trkpt lat="47.15928" lon="2.19429">
        <ele>113</ele>
        <time>2021-08-11T13:50:19Z</time>
      </trkpt>
      <trkpt lat="47.15926" lon="2.19436">
        <ele>113</ele>
        <time>2021-08-11T13:50:19Z</time>
      </trkpt>
      <trkpt lat="47.15923" lon="2.19443">
        <ele>113</ele>
        <time>2021-08-11T13:50:19Z</time>
      </trkpt>
      <trkpt lat="47.15921" lon="2.1945">
        <ele>113</ele>
        <time>2021-08-11T13:50:19Z</time>
      </trkpt>
      <trkpt lat="47.15918" lon="2.19458">
        <ele>113</ele>
        <time>2021-08-11T13:50:19Z</time>
      </trkpt>
      <trkpt lat="47.15917" lon="2.19467">
        <ele>113</ele>
        <time>2021-08-11T13:50:19Z</time>
      </trkpt>
      <trkpt lat="47.15915" lon="2.19475">
        <ele>114</ele>
        <time>2021-08-11T13:50:19Z</time>
      </trkpt>
      <trkpt lat="47.15912" lon="2.19484">
        <ele>114</ele>
        <time>2021-08-11T13:50:19Z</time>
      </trkpt>
      <trkpt lat="47.1591" lon="2.19493">
        <ele>114</ele>
        <time>2021-08-11T13:50:19Z</time>
      </trkpt>
      <trkpt lat="47.15907" lon="2.19501">
        <ele>115</ele>
        <time>2021-08-11T13:50:19Z</time>
      </trkpt>
      <trkpt lat="47.15906" lon="2.1951">
        <ele>115</ele>
        <time>2021-08-11T13:50:19Z</time>
      </trkpt>
      <trkpt lat="47.15903" lon="2.19519">
        <ele>115</ele>
        <time>2021-08-11T13:50:19Z</time>
      </trkpt>
      <trkpt lat="47.15901" lon="2.19527">
        <ele>115</ele>
        <time>2021-08-11T13:50:19Z</time>
      </trkpt>
      <trkpt lat="47.15898" lon="2.19536">
        <ele>115</ele>
        <time>2021-08-11T13:50:19Z</time>
      </trkpt>
      <trkpt lat="47.15895" lon="2.19544">
        <ele>116</ele>
        <time>2021-08-11T13:50:19Z</time>
      </trkpt>
      <trkpt lat="47.15892" lon="2.19551">
        <ele>116</ele>
        <time>2021-08-11T13:50:19Z</time>
      </trkpt>
      <trkpt lat="47.1589" lon="2.1956">
        <ele>117</ele>
        <time>2021-08-11T13:50:19Z</time>
      </trkpt>
      <trkpt lat="47.15887" lon="2.19569">
        <ele>117</ele>
        <time>2021-08-11T13:50:19Z</time>
      </trkpt>
      <trkpt lat="47.15885" lon="2.19577">
        <ele>117</ele>
        <time>2021-08-11T13:50:19Z</time>
      </trkpt>
      <trkpt lat="47.15881" lon="2.19586">
        <ele>117</ele>
        <time>2021-08-11T13:50:19Z</time>
      </trkpt>
      <trkpt lat="47.15878" lon="2.19594">
        <ele>117</ele>
        <time>2021-08-11T13:50:19Z</time>
      </trkpt>
      <trkpt lat="47.15876" lon="2.19601">
        <ele>117</ele>
        <time>2021-08-11T13:50:19Z</time>
      </trkpt>
      <trkpt lat="47.15875" lon="2.19611">
        <ele>117</ele>
        <time>2021-08-11T13:50:19Z</time>
      </trkpt>
      <trkpt lat="47.15872" lon="2.19619">
        <ele>117</ele>
        <time>2021-08-11T13:50:19Z</time>
      </trkpt>
      <trkpt lat="47.15869" lon="2.19628">
        <ele>116</ele>
        <time>2021-08-11T13:50:19Z</time>
      </trkpt>
      <trkpt lat="47.15867" lon="2.19636">
        <ele>116</ele>
        <time>2021-08-11T13:50:19Z</time>
      </trkpt>
      <trkpt lat="47.15864" lon="2.19645">
        <ele>115</ele>
        <time>2021-08-11T13:50:19Z</time>
      </trkpt>
      <trkpt lat="47.15861" lon="2.19654">
        <ele>115</ele>
        <time>2021-08-11T13:50:19Z</time>
      </trkpt>
      <trkpt lat="47.15858" lon="2.19663">
        <ele>115</ele>
        <time>2021-08-11T13:50:19Z</time>
      </trkpt>
      <trkpt lat="47.15856" lon="2.19672">
        <ele>114</ele>
        <time>2021-08-11T13:50:19Z</time>
      </trkpt>
      <trkpt lat="47.15853" lon="2.1968">
        <ele>114</ele>
        <time>2021-08-11T13:50:19Z</time>
      </trkpt>
      <trkpt lat="47.15851" lon="2.19689">
        <ele>114</ele>
        <time>2021-08-11T13:50:19Z</time>
      </trkpt>
      <trkpt lat="47.15848" lon="2.19698">
        <ele>113</ele>
        <time>2021-08-11T13:50:19Z</time>
      </trkpt>
      <trkpt lat="47.15846" lon="2.19707">
        <ele>113</ele>
        <time>2021-08-11T13:50:19Z</time>
      </trkpt>
      <trkpt lat="47.15843" lon="2.19716">
        <ele>112</ele>
        <time>2021-08-11T13:50:19Z</time>
      </trkpt>
      <trkpt lat="47.15841" lon="2.19724">
        <ele>112</ele>
        <time>2021-08-11T13:50:19Z</time>
      </trkpt>
      <trkpt lat="47.15837" lon="2.19733">
        <ele>112</ele>
        <time>2021-08-11T13:50:19Z</time>
      </trkpt>
      <trkpt lat="47.15835" lon="2.19741">
        <ele>112</ele>
        <time>2021-08-11T13:50:19Z</time>
      </trkpt>
      <trkpt lat="47.15832" lon="2.19749">
        <ele>112</ele>
        <time>2021-08-11T13:50:19Z</time>
      </trkpt>
      <trkpt lat="47.15829" lon="2.19758">
        <ele>112</ele>
        <time>2021-08-11T13:50:19Z</time>
      </trkpt>
      <trkpt lat="47.15827" lon="2.19766">
        <ele>112</ele>
        <time>2021-08-11T13:50:19Z</time>
      </trkpt>
      <trkpt lat="47.15824" lon="2.19775">
        <ele>112</ele>
        <time>2021-08-11T13:50:19Z</time>
      </trkpt>
      <trkpt lat="47.15821" lon="2.19783">
        <ele>113</ele>
        <time>2021-08-11T13:50:19Z</time>
      </trkpt>
      <trkpt lat="47.15818" lon="2.19792">
        <ele>113</ele>
        <time>2021-08-11T13:50:19Z</time>
      </trkpt>
      <trkpt lat="47.15815" lon="2.198">
        <ele>114</ele>
        <time>2021-08-11T13:50:19Z</time>
      </trkpt>
      <trkpt lat="47.15812" lon="2.19808">
        <ele>114</ele>
        <time>2021-08-11T13:50:19Z</time>
      </trkpt>
      <trkpt lat="47.15796" lon="2.19849">
        <ele>114</ele>
        <time>2021-08-11T13:50:19Z</time>
      </trkpt>
      <trkpt lat="47.15779" lon="2.19888">
        <ele>113</ele>
        <time>2021-08-11T13:50:19Z</time>
      </trkpt>
      <trkpt lat="47.15759" lon="2.19925">
        <ele>111</ele>
        <time>2021-08-11T13:50:19Z</time>
      </trkpt>
      <trkpt lat="47.1574" lon="2.19963">
        <ele>111</ele>
        <time>2021-08-11T13:50:19Z</time>
      </trkpt>
      <trkpt lat="47.15719" lon="2.2">
        <ele>110</ele>
        <time>2021-08-11T13:50:19Z</time>
      </trkpt>
      <trkpt lat="47.15702" lon="2.20028">
        <ele>111</ele>
        <time>2021-08-11T13:50:19Z</time>
      </trkpt>
      <trkpt lat="47.15698" lon="2.20035">
        <ele>111</ele>
        <time>2021-08-11T13:50:19Z</time>
      </trkpt>
      <trkpt lat="47.15678" lon="2.20072">
        <ele>112</ele>
        <time>2021-08-11T13:50:19Z</time>
      </trkpt>
      <trkpt lat="47.15658" lon="2.2011">
        <ele>112</ele>
        <time>2021-08-11T13:50:19Z</time>
      </trkpt>
      <trkpt lat="47.15638" lon="2.20148">
        <ele>113</ele>
        <time>2021-08-11T13:50:19Z</time>
      </trkpt>
      <trkpt lat="47.15621" lon="2.20186">
        <ele>113</ele>
        <time>2021-08-11T13:50:19Z</time>
      </trkpt>
      <trkpt lat="47.15604" lon="2.20226">
        <ele>114</ele>
        <time>2021-08-11T13:50:19Z</time>
      </trkpt>
      <trkpt lat="47.15588" lon="2.20254">
        <ele>115</ele>
        <time>2021-08-11T13:50:19Z</time>
      </trkpt>
      <trkpt lat="47.15583" lon="2.2026">
        <ele>115</ele>
        <time>2021-08-11T13:50:19Z</time>
      </trkpt>
      <trkpt lat="47.15579" lon="2.20267">
        <ele>115</ele>
        <time>2021-08-11T13:50:19Z</time>
      </trkpt>
      <trkpt lat="47.15575" lon="2.20273">
        <ele>115</ele>
        <time>2021-08-11T13:50:19Z</time>
      </trkpt>
      <trkpt lat="47.1557" lon="2.20279">
        <ele>115</ele>
        <time>2021-08-11T13:50:19Z</time>
      </trkpt>
      <trkpt lat="47.15565" lon="2.20286">
        <ele>115</ele>
        <time>2021-08-11T13:50:19Z</time>
      </trkpt>
      <trkpt lat="47.15561" lon="2.20291">
        <ele>115</ele>
        <time>2021-08-11T13:50:19Z</time>
      </trkpt>
      <trkpt lat="47.15558" lon="2.20299">
        <ele>115</ele>
        <time>2021-08-11T13:50:19Z</time>
      </trkpt>
      <trkpt lat="47.15554" lon="2.20306">
        <ele>116</ele>
        <time>2021-08-11T13:50:19Z</time>
      </trkpt>
      <trkpt lat="47.15549" lon="2.20312">
        <ele>116</ele>
        <time>2021-08-11T13:50:19Z</time>
      </trkpt>
      <trkpt lat="47.15545" lon="2.2032">
        <ele>116</ele>
        <time>2021-08-11T13:50:19Z</time>
      </trkpt>
      <trkpt lat="47.1554" lon="2.20327">
        <ele>116</ele>
        <time>2021-08-11T13:50:19Z</time>
      </trkpt>
      <trkpt lat="47.15536" lon="2.20334">
        <ele>116</ele>
        <time>2021-08-11T13:50:19Z</time>
      </trkpt>
      <trkpt lat="47.15531" lon="2.2034">
        <ele>116</ele>
        <time>2021-08-11T13:50:19Z</time>
      </trkpt>
      <trkpt lat="47.15526" lon="2.20347">
        <ele>116</ele>
        <time>2021-08-11T13:50:19Z</time>
      </trkpt>
      <trkpt lat="47.15522" lon="2.20354">
        <ele>116</ele>
        <time>2021-08-11T13:50:19Z</time>
      </trkpt>
      <trkpt lat="47.15517" lon="2.20361">
        <ele>116</ele>
        <time>2021-08-11T13:50:19Z</time>
      </trkpt>
      <trkpt lat="47.15512" lon="2.20368">
        <ele>117</ele>
        <time>2021-08-11T13:50:19Z</time>
      </trkpt>
      <trkpt lat="47.15508" lon="2.20374">
        <ele>117</ele>
        <time>2021-08-11T13:50:19Z</time>
      </trkpt>
      <trkpt lat="47.15503" lon="2.20379">
        <ele>117</ele>
        <time>2021-08-11T13:50:19Z</time>
      </trkpt>
      <trkpt lat="47.15499" lon="2.20385">
        <ele>117</ele>
        <time>2021-08-11T13:50:19Z</time>
      </trkpt>
      <trkpt lat="47.15494" lon="2.2039">
        <ele>117</ele>
        <time>2021-08-11T13:50:19Z</time>
      </trkpt>
      <trkpt lat="47.15489" lon="2.20396">
        <ele>117</ele>
        <time>2021-08-11T13:50:19Z</time>
      </trkpt>
      <trkpt lat="47.15485" lon="2.20402">
        <ele>116</ele>
        <time>2021-08-11T13:50:19Z</time>
      </trkpt>
      <trkpt lat="47.15482" lon="2.20408">
        <ele>116</ele>
        <time>2021-08-11T13:50:19Z</time>
      </trkpt>
      <trkpt lat="47.15478" lon="2.20413">
        <ele>116</ele>
        <time>2021-08-11T13:50:19Z</time>
      </trkpt>
      <trkpt lat="47.15473" lon="2.20416">
        <ele>116</ele>
        <time>2021-08-11T13:50:19Z</time>
      </trkpt>
      <trkpt lat="47.15469" lon="2.20421">
        <ele>115</ele>
        <time>2021-08-11T13:50:19Z</time>
      </trkpt>
      <trkpt lat="47.15465" lon="2.20425">
        <ele>115</ele>
        <time>2021-08-11T13:50:19Z</time>
      </trkpt>
      <trkpt lat="47.15462" lon="2.2043">
        <ele>115</ele>
        <time>2021-08-11T13:50:19Z</time>
      </trkpt>
      <trkpt lat="47.15459" lon="2.20434">
        <ele>115</ele>
        <time>2021-08-11T13:50:19Z</time>
      </trkpt>
      <trkpt lat="47.15456" lon="2.20438">
        <ele>114</ele>
        <time>2021-08-11T13:50:19Z</time>
      </trkpt>
      <trkpt lat="47.15452" lon="2.20439">
        <ele>114</ele>
        <time>2021-08-11T13:50:19Z</time>
      </trkpt>
      <trkpt lat="47.15449" lon="2.20438">
        <ele>115</ele>
        <time>2021-08-11T13:50:19Z</time>
      </trkpt>
      <trkpt lat="47.15447" lon="2.20435">
        <ele>115</ele>
        <time>2021-08-11T13:50:19Z</time>
      </trkpt>
      <trkpt lat="47.15445" lon="2.20432">
        <ele>115</ele>
        <time>2021-08-11T13:50:19Z</time>
      </trkpt>
      <trkpt lat="47.15441" lon="2.2043">
        <ele>115</ele>
        <time>2021-08-11T13:50:19Z</time>
      </trkpt>
      <trkpt lat="47.15438" lon="2.20428">
        <ele>115</ele>
        <time>2021-08-11T13:50:19Z</time>
      </trkpt>
      <trkpt lat="47.15434" lon="2.20428">
        <ele>116</ele>
        <time>2021-08-11T13:50:19Z</time>
      </trkpt>
      <trkpt lat="47.1543" lon="2.20428">
        <ele>116</ele>
        <time>2021-08-11T13:50:19Z</time>
      </trkpt>
      <trkpt lat="47.15426" lon="2.20431">
        <ele>116</ele>
        <time>2021-08-11T13:50:19Z</time>
      </trkpt>
      <trkpt lat="47.15423" lon="2.20436">
        <ele>116</ele>
        <time>2021-08-11T13:50:19Z</time>
      </trkpt>
      <trkpt lat="47.1542" lon="2.2044">
        <ele>116</ele>
        <time>2021-08-11T13:50:19Z</time>
      </trkpt>
      <trkpt lat="47.15417" lon="2.20444">
        <ele>116</ele>
        <time>2021-08-11T13:50:19Z</time>
      </trkpt>
      <trkpt lat="47.15414" lon="2.20448">
        <ele>116</ele>
        <time>2021-08-11T13:50:19Z</time>
      </trkpt>
      <trkpt lat="47.1541" lon="2.20453">
        <ele>116</ele>
        <time>2021-08-11T13:50:19Z</time>
      </trkpt>
      <trkpt lat="47.15406" lon="2.20457">
        <ele>116</ele>
        <time>2021-08-11T13:50:19Z</time>
      </trkpt>
      <trkpt lat="47.15402" lon="2.20462">
        <ele>115</ele>
        <time>2021-08-11T13:50:19Z</time>
      </trkpt>
      <trkpt lat="47.15398" lon="2.20467">
        <ele>115</ele>
        <time>2021-08-11T13:50:19Z</time>
      </trkpt>
      <trkpt lat="47.15395" lon="2.20472">
        <ele>115</ele>
        <time>2021-08-11T13:50:19Z</time>
      </trkpt>
      <trkpt lat="47.1539" lon="2.20477">
        <ele>115</ele>
        <time>2021-08-11T13:50:19Z</time>
      </trkpt>
      <trkpt lat="47.15385" lon="2.20482">
        <ele>114</ele>
        <time>2021-08-11T13:50:19Z</time>
      </trkpt>
      <trkpt lat="47.15381" lon="2.20487">
        <ele>114</ele>
        <time>2021-08-11T13:50:19Z</time>
      </trkpt>
      <trkpt lat="47.15377" lon="2.20492">
        <ele>114</ele>
        <time>2021-08-11T13:50:19Z</time>
      </trkpt>
      <trkpt lat="47.15373" lon="2.20497">
        <ele>114</ele>
        <time>2021-08-11T13:50:19Z</time>
      </trkpt>
      <trkpt lat="47.15369" lon="2.20502">
        <ele>114</ele>
        <time>2021-08-11T13:50:19Z</time>
      </trkpt>
      <trkpt lat="47.15365" lon="2.20507">
        <ele>114</ele>
        <time>2021-08-11T13:50:19Z</time>
      </trkpt>
      <trkpt lat="47.15361" lon="2.20512">
        <ele>114</ele>
        <time>2021-08-11T13:50:19Z</time>
      </trkpt>
      <trkpt lat="47.15357" lon="2.20516">
        <ele>114</ele>
        <time>2021-08-11T13:50:19Z</time>
      </trkpt>
      <trkpt lat="47.15353" lon="2.20522">
        <ele>114</ele>
        <time>2021-08-11T13:50:19Z</time>
      </trkpt>
      <trkpt lat="47.15349" lon="2.20528">
        <ele>114</ele>
        <time>2021-08-11T13:50:19Z</time>
      </trkpt>
      <trkpt lat="47.15345" lon="2.20533">
        <ele>115</ele>
        <time>2021-08-11T13:50:19Z</time>
      </trkpt>
      <trkpt lat="47.1534" lon="2.20539">
        <ele>115</ele>
        <time>2021-08-11T13:50:19Z</time>
      </trkpt>
      <trkpt lat="47.15319" lon="2.20566">
        <ele>114</ele>
        <time>2021-08-11T13:50:19Z</time>
      </trkpt>
      <trkpt lat="47.15296" lon="2.20591">
        <ele>113</ele>
        <time>2021-08-11T13:50:19Z</time>
      </trkpt>
      <trkpt lat="47.15278" lon="2.20613">
        <ele>113</ele>
        <time>2021-08-11T13:50:19Z</time>
      </trkpt>
      <trkpt lat="47.15257" lon="2.20646">
        <ele>113</ele>
        <time>2021-08-11T13:50:19Z</time>
      </trkpt>
      <trkpt lat="47.15235" lon="2.20678">
        <ele>113</ele>
        <time>2021-08-11T13:50:19Z</time>
      </trkpt>
      <trkpt lat="47.15214" lon="2.20698">
        <ele>114</ele>
        <time>2021-08-11T13:50:19Z</time>
      </trkpt>
      <trkpt lat="47.15208" lon="2.20702">
        <ele>115</ele>
        <time>2021-08-11T13:50:19Z</time>
      </trkpt>
      <trkpt lat="47.15178" lon="2.20722">
        <ele>118</ele>
        <time>2021-08-11T13:50:19Z</time>
      </trkpt>
      <trkpt lat="47.15149" lon="2.20735">
        <ele>119</ele>
        <time>2021-08-11T13:50:19Z</time>
      </trkpt>
      <trkpt lat="47.15118" lon="2.20746">
        <ele>118</ele>
        <time>2021-08-11T13:50:19Z</time>
      </trkpt>
      <trkpt lat="47.15087" lon="2.20759">
        <ele>116</ele>
        <time>2021-08-11T13:50:19Z</time>
      </trkpt>
      <trkpt lat="47.15057" lon="2.20769">
        <ele>115</ele>
        <time>2021-08-11T13:50:19Z</time>
      </trkpt>
      <trkpt lat="47.15032" lon="2.20779">
        <ele>115</ele>
        <time>2021-08-11T13:50:19Z</time>
      </trkpt>
      <trkpt lat="47.15026" lon="2.20781">
        <ele>115</ele>
        <time>2021-08-11T13:50:19Z</time>
      </trkpt>
      <trkpt lat="47.14994" lon="2.20786">
        <ele>115</ele>
        <time>2021-08-11T13:50:19Z</time>
      </trkpt>
      <trkpt lat="47.14964" lon="2.20787">
        <ele>116</ele>
        <time>2021-08-11T13:50:19Z</time>
      </trkpt>
      <trkpt lat="47.14931" lon="2.20786">
        <ele>116</ele>
        <time>2021-08-11T13:50:19Z</time>
      </trkpt>
      <trkpt lat="47.149" lon="2.20786">
        <ele>115</ele>
        <time>2021-08-11T13:50:19Z</time>
      </trkpt>
      <trkpt lat="47.14868" lon="2.20786">
        <ele>114</ele>
        <time>2021-08-11T13:50:19Z</time>
      </trkpt>
      <trkpt lat="47.14842" lon="2.20786">
        <ele>114</ele>
        <time>2021-08-11T13:50:19Z</time>
      </trkpt>
      <trkpt lat="47.14835" lon="2.20786">
        <ele>114</ele>
        <time>2021-08-11T13:50:19Z</time>
      </trkpt>
      <trkpt lat="47.14829" lon="2.20785">
        <ele>114</ele>
        <time>2021-08-11T13:50:19Z</time>
      </trkpt>
      <trkpt lat="47.14823" lon="2.20785">
        <ele>114</ele>
        <time>2021-08-11T13:50:19Z</time>
      </trkpt>
      <trkpt lat="47.14817" lon="2.20785">
        <ele>114</ele>
        <time>2021-08-11T13:50:19Z</time>
      </trkpt>
      <trkpt lat="47.1481" lon="2.20784">
        <ele>114</ele>
        <time>2021-08-11T13:50:19Z</time>
      </trkpt>
      <trkpt lat="47.14804" lon="2.20785">
        <ele>114</ele>
        <time>2021-08-11T13:50:19Z</time>
      </trkpt>
      <trkpt lat="47.14797" lon="2.20785">
        <ele>114</ele>
        <time>2021-08-11T13:50:19Z</time>
      </trkpt>
      <trkpt lat="47.1479" lon="2.20785">
        <ele>115</ele>
        <time>2021-08-11T13:50:19Z</time>
      </trkpt>
      <trkpt lat="47.14784" lon="2.20785">
        <ele>115</ele>
        <time>2021-08-11T13:50:19Z</time>
      </trkpt>
      <trkpt lat="47.14777" lon="2.20785">
        <ele>115</ele>
        <time>2021-08-11T13:50:19Z</time>
      </trkpt>
      <trkpt lat="47.14771" lon="2.20786">
        <ele>115</ele>
        <time>2021-08-11T13:50:19Z</time>
      </trkpt>
      <trkpt lat="47.14764" lon="2.20785">
        <ele>116</ele>
        <time>2021-08-11T13:50:19Z</time>
      </trkpt>
      <trkpt lat="47.14758" lon="2.20785">
        <ele>116</ele>
        <time>2021-08-11T13:50:19Z</time>
      </trkpt>
      <trkpt lat="47.14751" lon="2.20785">
        <ele>117</ele>
        <time>2021-08-11T13:50:19Z</time>
      </trkpt>
      <trkpt lat="47.14745" lon="2.20785">
        <ele>117</ele>
        <time>2021-08-11T13:50:19Z</time>
      </trkpt>
      <trkpt lat="47.14738" lon="2.20785">
        <ele>117</ele>
        <time>2021-08-11T13:50:19Z</time>
      </trkpt>
      <trkpt lat="47.14732" lon="2.20785">
        <ele>117</ele>
        <time>2021-08-11T13:50:19Z</time>
      </trkpt>
      <trkpt lat="47.14725" lon="2.20784">
        <ele>117</ele>
        <time>2021-08-11T13:50:19Z</time>
      </trkpt>
      <trkpt lat="47.14719" lon="2.20785">
        <ele>117</ele>
        <time>2021-08-11T13:50:19Z</time>
      </trkpt>
      <trkpt lat="47.14712" lon="2.20785">
        <ele>117</ele>
        <time>2021-08-11T13:50:19Z</time>
      </trkpt>
      <trkpt lat="47.14706" lon="2.20784">
        <ele>116</ele>
        <time>2021-08-11T13:50:19Z</time>
      </trkpt>
      <trkpt lat="47.14699" lon="2.20784">
        <ele>116</ele>
        <time>2021-08-11T13:50:19Z</time>
      </trkpt>
      <trkpt lat="47.14692" lon="2.20784">
        <ele>116</ele>
        <time>2021-08-11T13:50:19Z</time>
      </trkpt>
      <trkpt lat="47.14686" lon="2.20784">
        <ele>115</ele>
        <time>2021-08-11T13:50:19Z</time>
      </trkpt>
      <trkpt lat="47.14679" lon="2.20784">
        <ele>115</ele>
        <time>2021-08-11T13:50:19Z</time>
      </trkpt>
      <trkpt lat="47.14672" lon="2.20784">
        <ele>115</ele>
        <time>2021-08-11T13:50:19Z</time>
      </trkpt>
      <trkpt lat="47.14665" lon="2.20784">
        <ele>114</ele>
        <time>2021-08-11T13:50:19Z</time>
      </trkpt>
      <trkpt lat="47.14659" lon="2.20784">
        <ele>114</ele>
        <time>2021-08-11T13:50:19Z</time>
      </trkpt>
      <trkpt lat="47.14653" lon="2.20784">
        <ele>113</ele>
        <time>2021-08-11T13:50:19Z</time>
      </trkpt>
      <trkpt lat="47.14646" lon="2.20783">
        <ele>113</ele>
        <time>2021-08-11T13:50:19Z</time>
      </trkpt>
      <trkpt lat="47.14639" lon="2.20783">
        <ele>113</ele>
        <time>2021-08-11T13:50:19Z</time>
      </trkpt>
      <trkpt lat="47.14633" lon="2.20784">
        <ele>112</ele>
        <time>2021-08-11T13:50:19Z</time>
      </trkpt>
      <trkpt lat="47.14627" lon="2.20783">
        <ele>112</ele>
        <time>2021-08-11T13:50:19Z</time>
      </trkpt>
      <trkpt lat="47.14621" lon="2.20783">
        <ele>112</ele>
        <time>2021-08-11T13:50:19Z</time>
      </trkpt>
      <trkpt lat="47.14614" lon="2.20784">
        <ele>112</ele>
        <time>2021-08-11T13:50:19Z</time>
      </trkpt>
      <trkpt lat="47.14608" lon="2.20785">
        <ele>112</ele>
        <time>2021-08-11T13:50:19Z</time>
      </trkpt>
      <trkpt lat="47.14601" lon="2.20786">
        <ele>112</ele>
        <time>2021-08-11T13:50:19Z</time>
      </trkpt>
      <trkpt lat="47.14595" lon="2.20788">
        <ele>112</ele>
        <time>2021-08-11T13:50:19Z</time>
      </trkpt>
      <trkpt lat="47.14589" lon="2.2079">
        <ele>112</ele>
        <time>2021-08-11T13:50:19Z</time>
      </trkpt>
      <trkpt lat="47.14583" lon="2.20793">
        <ele>113</ele>
        <time>2021-08-11T13:50:19Z</time>
      </trkpt>
      <trkpt lat="47.14577" lon="2.20796">
        <ele>113</ele>
        <time>2021-08-11T13:50:19Z</time>
      </trkpt>
      <trkpt lat="47.14571" lon="2.20799">
        <ele>113</ele>
        <time>2021-08-11T13:50:19Z</time>
      </trkpt>
      <trkpt lat="47.14566" lon="2.20802">
        <ele>113</ele>
        <time>2021-08-11T13:50:19Z</time>
      </trkpt>
      <trkpt lat="47.1456" lon="2.20805">
        <ele>113</ele>
        <time>2021-08-11T13:50:19Z</time>
      </trkpt>
      <trkpt lat="47.14554" lon="2.20807">
        <ele>114</ele>
        <time>2021-08-11T13:50:19Z</time>
      </trkpt>
      <trkpt lat="47.14549" lon="2.20811">
        <ele>114</ele>
        <time>2021-08-11T13:50:19Z</time>
      </trkpt>
      <trkpt lat="47.14543" lon="2.20814">
        <ele>115</ele>
        <time>2021-08-11T13:50:19Z</time>
      </trkpt>
      <trkpt lat="47.14538" lon="2.20818">
        <ele>115</ele>
        <time>2021-08-11T13:50:19Z</time>
      </trkpt>
      <trkpt lat="47.14532" lon="2.20822">
        <ele>115</ele>
        <time>2021-08-11T13:50:19Z</time>
      </trkpt>
      <trkpt lat="47.14528" lon="2.20827">
        <ele>115</ele>
        <time>2021-08-11T13:50:19Z</time>
      </trkpt>
      <trkpt lat="47.14523" lon="2.20831">
        <ele>115</ele>
        <time>2021-08-11T13:50:19Z</time>
      </trkpt>
      <trkpt lat="47.14518" lon="2.20836">
        <ele>115</ele>
        <time>2021-08-11T13:50:19Z</time>
      </trkpt>
      <trkpt lat="47.14514" lon="2.2084">
        <ele>115</ele>
        <time>2021-08-11T13:50:19Z</time>
      </trkpt>
      <trkpt lat="47.1451" lon="2.20845">
        <ele>114</ele>
        <time>2021-08-11T13:50:19Z</time>
      </trkpt>
      <trkpt lat="47.14507" lon="2.20851">
        <ele>114</ele>
        <time>2021-08-11T13:50:19Z</time>
      </trkpt>
      <trkpt lat="47.14506" lon="2.20857">
        <ele>114</ele>
        <time>2021-08-11T13:50:19Z</time>
      </trkpt>
      <trkpt lat="47.14502" lon="2.20863">
        <ele>114</ele>
        <time>2021-08-11T13:50:19Z</time>
      </trkpt>
      <trkpt lat="47.14498" lon="2.20865">
        <ele>113</ele>
        <time>2021-08-11T13:50:19Z</time>
      </trkpt>
      <trkpt lat="47.14494" lon="2.20868">
        <ele>113</ele>
        <time>2021-08-11T13:50:19Z</time>
      </trkpt>
      <trkpt lat="47.14485" lon="2.20875">
        <ele>113</ele>
        <time>2021-08-11T13:50:19Z</time>
      </trkpt>
      <trkpt lat="47.14481" lon="2.20877">
        <ele>113</ele>
        <time>2021-08-11T13:50:19Z</time>
      </trkpt>
      <trkpt lat="47.14476" lon="2.20879">
        <ele>113</ele>
        <time>2021-08-11T13:50:19Z</time>
      </trkpt>
      <trkpt lat="47.14446" lon="2.20887">
        <ele>113</ele>
        <time>2021-08-11T13:50:19Z</time>
      </trkpt>
      <trkpt lat="47.14422" lon="2.2093">
        <ele>115</ele>
        <time>2021-08-11T13:50:19Z</time>
      </trkpt>
      <trkpt lat="47.14401" lon="2.20952">
        <ele>116</ele>
        <time>2021-08-11T13:50:19Z</time>
      </trkpt>
      <trkpt lat="47.14379" lon="2.20975">
        <ele>117</ele>
        <time>2021-08-11T13:50:19Z</time>
      </trkpt>
      <trkpt lat="47.14356" lon="2.20996">
        <ele>116</ele>
        <time>2021-08-11T13:50:19Z</time>
      </trkpt>
      <trkpt lat="47.14339" lon="2.21008">
        <ele>115</ele>
        <time>2021-08-11T13:50:19Z</time>
      </trkpt>
      <trkpt lat="47.14335" lon="2.21011">
        <ele>115</ele>
        <time>2021-08-11T13:50:19Z</time>
      </trkpt>
      <trkpt lat="47.14313" lon="2.21031">
        <ele>115</ele>
        <time>2021-08-11T13:50:19Z</time>
      </trkpt>
      <trkpt lat="47.14286" lon="2.21054">
        <ele>115</ele>
        <time>2021-08-11T13:50:19Z</time>
      </trkpt>
      <trkpt lat="47.14273" lon="2.21069">
        <ele>116</ele>
        <time>2021-08-11T13:50:19Z</time>
      </trkpt>
      <trkpt lat="47.14273" lon="2.21088">
        <ele>116</ele>
        <time>2021-08-11T13:50:19Z</time>
      </trkpt>
      <trkpt lat="47.14262" lon="2.21111">
        <ele>116</ele>
        <time>2021-08-11T13:50:19Z</time>
      </trkpt>
      <trkpt lat="47.14243" lon="2.2113">
        <ele>116</ele>
        <time>2021-08-11T13:50:19Z</time>
      </trkpt>
      <trkpt lat="47.14239" lon="2.21135">
        <ele>116</ele>
        <time>2021-08-11T13:50:19Z</time>
      </trkpt>
      <trkpt lat="47.14215" lon="2.21165">
        <ele>118</ele>
        <time>2021-08-11T13:50:19Z</time>
      </trkpt>
      <trkpt lat="47.14195" lon="2.21201">
        <ele>119</ele>
        <time>2021-08-11T13:50:19Z</time>
      </trkpt>
      <trkpt lat="47.14181" lon="2.21241">
        <ele>119</ele>
        <time>2021-08-11T13:50:19Z</time>
      </trkpt>
      <trkpt lat="47.14169" lon="2.21283">
        <ele>118</ele>
        <time>2021-08-11T13:50:19Z</time>
      </trkpt>
      <trkpt lat="47.14157" lon="2.21318">
        <ele>118</ele>
        <time>2021-08-11T13:50:19Z</time>
      </trkpt>
      <trkpt lat="47.14149" lon="2.21335">
        <ele>117</ele>
        <time>2021-08-11T13:50:19Z</time>
      </trkpt>
      <trkpt lat="47.14147" lon="2.2134">
        <ele>117</ele>
        <time>2021-08-11T13:50:19Z</time>
      </trkpt>
      <trkpt lat="47.1414" lon="2.21368">
        <ele>117</ele>
        <time>2021-08-11T13:50:19Z</time>
      </trkpt>
      <trkpt lat="47.14133" lon="2.21399">
        <ele>118</ele>
        <time>2021-08-11T13:50:19Z</time>
      </trkpt>
      <trkpt lat="47.14123" lon="2.21429">
        <ele>120</ele>
        <time>2021-08-11T13:50:19Z</time>
      </trkpt>
      <trkpt lat="47.14112" lon="2.21465">
        <ele>123</ele>
        <time>2021-08-11T13:50:19Z</time>
      </trkpt>
      <trkpt lat="47.14093" lon="2.21492">
        <ele>125</ele>
        <time>2021-08-11T13:50:19Z</time>
      </trkpt>
      <trkpt lat="47.14077" lon="2.21515">
        <ele>124</ele>
        <time>2021-08-11T13:50:19Z</time>
      </trkpt>
      <trkpt lat="47.14072" lon="2.21518">
        <ele>124</ele>
        <time>2021-08-11T13:50:19Z</time>
      </trkpt>
      <trkpt lat="47.14061" lon="2.21533">
        <ele>123</ele>
        <time>2021-08-11T13:50:19Z</time>
      </trkpt>
      <trkpt lat="47.14057" lon="2.21537">
        <ele>122</ele>
        <time>2021-08-11T13:50:19Z</time>
      </trkpt>
      <trkpt lat="47.14054" lon="2.21542">
        <ele>122</ele>
        <time>2021-08-11T13:50:19Z</time>
      </trkpt>
      <trkpt lat="47.1405" lon="2.21547">
        <ele>121</ele>
        <time>2021-08-11T13:50:19Z</time>
      </trkpt>
      <trkpt lat="47.14046" lon="2.21552">
        <ele>120</ele>
        <time>2021-08-11T13:50:19Z</time>
      </trkpt>
      <trkpt lat="47.14042" lon="2.21557">
        <ele>119</ele>
        <time>2021-08-11T13:50:19Z</time>
      </trkpt>
      <trkpt lat="47.14039" lon="2.21562">
        <ele>119</ele>
        <time>2021-08-11T13:50:19Z</time>
      </trkpt>
      <trkpt lat="47.14035" lon="2.21566">
        <ele>118</ele>
        <time>2021-08-11T13:50:19Z</time>
      </trkpt>
      <trkpt lat="47.14031" lon="2.2157">
        <ele>117</ele>
        <time>2021-08-11T13:50:19Z</time>
      </trkpt>
      <trkpt lat="47.14026" lon="2.21573">
        <ele>117</ele>
        <time>2021-08-11T13:50:19Z</time>
      </trkpt>
      <trkpt lat="47.14021" lon="2.21578">
        <ele>116</ele>
        <time>2021-08-11T13:50:19Z</time>
      </trkpt>
      <trkpt lat="47.14016" lon="2.21582">
        <ele>116</ele>
        <time>2021-08-11T13:50:19Z</time>
      </trkpt>
      <trkpt lat="47.14011" lon="2.21585">
        <ele>115</ele>
        <time>2021-08-11T13:50:19Z</time>
      </trkpt>
      <trkpt lat="47.14007" lon="2.21588">
        <ele>115</ele>
        <time>2021-08-11T13:50:19Z</time>
      </trkpt>
      <trkpt lat="47.14002" lon="2.21591">
        <ele>115</ele>
        <time>2021-08-11T13:50:19Z</time>
      </trkpt>
      <trkpt lat="47.13997" lon="2.21594">
        <ele>115</ele>
        <time>2021-08-11T13:50:19Z</time>
      </trkpt>
      <trkpt lat="47.13991" lon="2.21597">
        <ele>115</ele>
        <time>2021-08-11T13:50:19Z</time>
      </trkpt>
      <trkpt lat="47.13986" lon="2.216">
        <ele>115</ele>
        <time>2021-08-11T13:50:19Z</time>
      </trkpt>
      <trkpt lat="47.1398" lon="2.21603">
        <ele>115</ele>
        <time>2021-08-11T13:50:19Z</time>
      </trkpt>
      <trkpt lat="47.13975" lon="2.21605">
        <ele>115</ele>
        <time>2021-08-11T13:50:19Z</time>
      </trkpt>
      <trkpt lat="47.13968" lon="2.21608">
        <ele>116</ele>
        <time>2021-08-11T13:50:19Z</time>
      </trkpt>
      <trkpt lat="47.13962" lon="2.2161">
        <ele>116</ele>
        <time>2021-08-11T13:50:19Z</time>
      </trkpt>
      <trkpt lat="47.13955" lon="2.21612">
        <ele>116</ele>
        <time>2021-08-11T13:50:19Z</time>
      </trkpt>
      <trkpt lat="47.13949" lon="2.21615">
        <ele>116</ele>
        <time>2021-08-11T13:50:19Z</time>
      </trkpt>
      <trkpt lat="47.13943" lon="2.21616">
        <ele>116</ele>
        <time>2021-08-11T13:50:19Z</time>
      </trkpt>
      <trkpt lat="47.13937" lon="2.21618">
        <ele>116</ele>
        <time>2021-08-11T13:50:19Z</time>
      </trkpt>
      <trkpt lat="47.1393" lon="2.2162">
        <ele>117</ele>
        <time>2021-08-11T13:50:19Z</time>
      </trkpt>
      <trkpt lat="47.13923" lon="2.21621">
        <ele>117</ele>
        <time>2021-08-11T13:50:19Z</time>
      </trkpt>
      <trkpt lat="47.13917" lon="2.21623">
        <ele>117</ele>
        <time>2021-08-11T13:50:19Z</time>
      </trkpt>
      <trkpt lat="47.13911" lon="2.21623">
        <ele>117</ele>
        <time>2021-08-11T13:50:19Z</time>
      </trkpt>
      <trkpt lat="47.13905" lon="2.21623">
        <ele>117</ele>
        <time>2021-08-11T13:50:19Z</time>
      </trkpt>
      <trkpt lat="47.13898" lon="2.21623">
        <ele>117</ele>
        <time>2021-08-11T13:50:19Z</time>
      </trkpt>
      <trkpt lat="47.13892" lon="2.21623">
        <ele>118</ele>
        <time>2021-08-11T13:50:19Z</time>
      </trkpt>
      <trkpt lat="47.13885" lon="2.21623">
        <ele>118</ele>
        <time>2021-08-11T13:50:19Z</time>
      </trkpt>
      <trkpt lat="47.13879" lon="2.21624">
        <ele>118</ele>
        <time>2021-08-11T13:50:19Z</time>
      </trkpt>
      <trkpt lat="47.13873" lon="2.21622">
        <ele>118</ele>
        <time>2021-08-11T13:50:19Z</time>
      </trkpt>
      <trkpt lat="47.13866" lon="2.21622">
        <ele>118</ele>
        <time>2021-08-11T13:50:19Z</time>
      </trkpt>
      <trkpt lat="47.1386" lon="2.2162">
        <ele>118</ele>
        <time>2021-08-11T13:50:19Z</time>
      </trkpt>
      <trkpt lat="47.13854" lon="2.21618">
        <ele>119</ele>
        <time>2021-08-11T13:50:19Z</time>
      </trkpt>
      <trkpt lat="47.13848" lon="2.21616">
        <ele>119</ele>
        <time>2021-08-11T13:50:19Z</time>
      </trkpt>
      <trkpt lat="47.13841" lon="2.21614">
        <ele>119</ele>
        <time>2021-08-11T13:50:19Z</time>
      </trkpt>
      <trkpt lat="47.13835" lon="2.21611">
        <ele>119</ele>
        <time>2021-08-11T13:50:19Z</time>
      </trkpt>
      <trkpt lat="47.13829" lon="2.21608">
        <ele>120</ele>
        <time>2021-08-11T13:50:19Z</time>
      </trkpt>
      <trkpt lat="47.13823" lon="2.21604">
        <ele>120</ele>
        <time>2021-08-11T13:50:19Z</time>
      </trkpt>
      <trkpt lat="47.13817" lon="2.21601">
        <ele>120</ele>
        <time>2021-08-11T13:50:19Z</time>
      </trkpt>
      <trkpt lat="47.13811" lon="2.21598">
        <ele>120</ele>
        <time>2021-08-11T13:50:19Z</time>
      </trkpt>
      <trkpt lat="47.13805" lon="2.21595">
        <ele>120</ele>
        <time>2021-08-11T13:50:19Z</time>
      </trkpt>
      <trkpt lat="47.13799" lon="2.21591">
        <ele>120</ele>
        <time>2021-08-11T13:50:19Z</time>
      </trkpt>
      <trkpt lat="47.13793" lon="2.21588">
        <ele>120</ele>
        <time>2021-08-11T13:50:19Z</time>
      </trkpt>
      <trkpt lat="47.13787" lon="2.21585">
        <ele>120</ele>
        <time>2021-08-11T13:50:19Z</time>
      </trkpt>
      <trkpt lat="47.13781" lon="2.21581">
        <ele>120</ele>
        <time>2021-08-11T13:50:19Z</time>
      </trkpt>
      <trkpt lat="47.13775" lon="2.21578">
        <ele>119</ele>
        <time>2021-08-11T13:50:19Z</time>
      </trkpt>
      <trkpt lat="47.13769" lon="2.21573">
        <ele>119</ele>
        <time>2021-08-11T13:50:19Z</time>
      </trkpt>
      <trkpt lat="47.13763" lon="2.2157">
        <ele>119</ele>
        <time>2021-08-11T13:50:19Z</time>
      </trkpt>
      <trkpt lat="47.13757" lon="2.21566">
        <ele>119</ele>
        <time>2021-08-11T13:50:19Z</time>
      </trkpt>
      <trkpt lat="47.13751" lon="2.21563">
        <ele>119</ele>
        <time>2021-08-11T13:50:19Z</time>
      </trkpt>
      <trkpt lat="47.13745" lon="2.21559">
        <ele>118</ele>
        <time>2021-08-11T13:50:19Z</time>
      </trkpt>
      <trkpt lat="47.13739" lon="2.21556">
        <ele>118</ele>
        <time>2021-08-11T13:50:19Z</time>
      </trkpt>
      <trkpt lat="47.13732" lon="2.21553">
        <ele>118</ele>
        <time>2021-08-11T13:50:19Z</time>
      </trkpt>
      <trkpt lat="47.13726" lon="2.21551">
        <ele>118</ele>
        <time>2021-08-11T13:50:19Z</time>
      </trkpt>
      <trkpt lat="47.13694" lon="2.21544">
        <ele>118</ele>
        <time>2021-08-11T13:50:19Z</time>
      </trkpt>
      <trkpt lat="47.13661" lon="2.21542">
        <ele>118</ele>
        <time>2021-08-11T13:50:19Z</time>
      </trkpt>
      <trkpt lat="47.13629" lon="2.21546">
        <ele>121</ele>
        <time>2021-08-11T13:50:19Z</time>
      </trkpt>
      <trkpt lat="47.13597" lon="2.21555">
        <ele>123</ele>
        <time>2021-08-11T13:50:19Z</time>
      </trkpt>
      <trkpt lat="47.13566" lon="2.21567">
        <ele>123</ele>
        <time>2021-08-11T13:50:19Z</time>
      </trkpt>
      <trkpt lat="47.13541" lon="2.21574">
        <ele>123</ele>
        <time>2021-08-11T13:50:19Z</time>
      </trkpt>
      <trkpt lat="47.13535" lon="2.21576">
        <ele>122</ele>
        <time>2021-08-11T13:50:19Z</time>
      </trkpt>
      <trkpt lat="47.13505" lon="2.21587">
        <ele>121</ele>
        <time>2021-08-11T13:50:19Z</time>
      </trkpt>
      <trkpt lat="47.13473" lon="2.21598">
        <ele>122</ele>
        <time>2021-08-11T13:50:19Z</time>
      </trkpt>
      <trkpt lat="47.13442" lon="2.2161">
        <ele>121</ele>
        <time>2021-08-11T13:50:19Z</time>
      </trkpt>
      <trkpt lat="47.13411" lon="2.2162">
        <ele>120</ele>
        <time>2021-08-11T13:50:19Z</time>
      </trkpt>
      <trkpt lat="47.1338" lon="2.21632">
        <ele>119</ele>
        <time>2021-08-11T13:50:19Z</time>
      </trkpt>
      <trkpt lat="47.13354" lon="2.2164">
        <ele>119</ele>
        <time>2021-08-11T13:50:19Z</time>
      </trkpt>
      <trkpt lat="47.13348" lon="2.21642">
        <ele>119</ele>
        <time>2021-08-11T13:50:19Z</time>
      </trkpt>
      <trkpt lat="47.13316" lon="2.21653">
        <ele>119</ele>
        <time>2021-08-11T13:50:19Z</time>
      </trkpt>
      <trkpt lat="47.13286" lon="2.21664">
        <ele>118</ele>
        <time>2021-08-11T13:50:19Z</time>
      </trkpt>
      <trkpt lat="47.13255" lon="2.21682">
        <ele>118</ele>
        <time>2021-08-11T13:50:19Z</time>
      </trkpt>
      <trkpt lat="47.13227" lon="2.21706">
        <ele>118</ele>
        <time>2021-08-11T13:50:19Z</time>
      </trkpt>
      <trkpt lat="47.13203" lon="2.21735">
        <ele>117</ele>
        <time>2021-08-11T13:50:19Z</time>
      </trkpt>
      <trkpt lat="47.13185" lon="2.21762">
        <ele>117</ele>
        <time>2021-08-11T13:50:19Z</time>
      </trkpt>
      <trkpt lat="47.1318" lon="2.21769">
        <ele>117</ele>
        <time>2021-08-11T13:50:19Z</time>
      </trkpt>
      <trkpt lat="47.13176" lon="2.21776">
        <ele>117</ele>
        <time>2021-08-11T13:50:19Z</time>
      </trkpt>
      <trkpt lat="47.13172" lon="2.21782">
        <ele>117</ele>
        <time>2021-08-11T13:50:19Z</time>
      </trkpt>
      <trkpt lat="47.13168" lon="2.2179">
        <ele>117</ele>
        <time>2021-08-11T13:50:19Z</time>
      </trkpt>
      <trkpt lat="47.13164" lon="2.21797">
        <ele>116</ele>
        <time>2021-08-11T13:50:19Z</time>
      </trkpt>
      <trkpt lat="47.13161" lon="2.21806">
        <ele>116</ele>
        <time>2021-08-11T13:50:19Z</time>
      </trkpt>
      <trkpt lat="47.13157" lon="2.21813">
        <ele>116</ele>
        <time>2021-08-11T13:50:19Z</time>
      </trkpt>
      <trkpt lat="47.13153" lon="2.21821">
        <ele>116</ele>
        <time>2021-08-11T13:50:19Z</time>
      </trkpt>
      <trkpt lat="47.13149" lon="2.21829">
        <ele>115</ele>
        <time>2021-08-11T13:50:19Z</time>
      </trkpt>
      <trkpt lat="47.13146" lon="2.21836">
        <ele>115</ele>
        <time>2021-08-11T13:50:19Z</time>
      </trkpt>
      <trkpt lat="47.13142" lon="2.21843">
        <ele>115</ele>
        <time>2021-08-11T13:50:19Z</time>
      </trkpt>
      <trkpt lat="47.13139" lon="2.2185">
        <ele>116</ele>
        <time>2021-08-11T13:50:19Z</time>
      </trkpt>
      <trkpt lat="47.13135" lon="2.21858">
        <ele>116</ele>
        <time>2021-08-11T13:50:19Z</time>
      </trkpt>
      <trkpt lat="47.13132" lon="2.21866">
        <ele>115</ele>
        <time>2021-08-11T13:50:19Z</time>
      </trkpt>
      <trkpt lat="47.13129" lon="2.21874">
        <ele>115</ele>
        <time>2021-08-11T13:50:19Z</time>
      </trkpt>
      <trkpt lat="47.13125" lon="2.21881">
        <ele>115</ele>
        <time>2021-08-11T13:50:19Z</time>
      </trkpt>
      <trkpt lat="47.13122" lon="2.21889">
        <ele>116</ele>
        <time>2021-08-11T13:50:19Z</time>
      </trkpt>
      <trkpt lat="47.13119" lon="2.21897">
        <ele>116</ele>
        <time>2021-08-11T13:50:19Z</time>
      </trkpt>
      <trkpt lat="47.13115" lon="2.21905">
        <ele>116</ele>
        <time>2021-08-11T13:50:19Z</time>
      </trkpt>
      <trkpt lat="47.13112" lon="2.21913">
        <ele>116</ele>
        <time>2021-08-11T13:50:19Z</time>
      </trkpt>
      <trkpt lat="47.13108" lon="2.21921">
        <ele>116</ele>
        <time>2021-08-11T13:50:19Z</time>
      </trkpt>
      <trkpt lat="47.13105" lon="2.21929">
        <ele>116</ele>
        <time>2021-08-11T13:50:19Z</time>
      </trkpt>
      <trkpt lat="47.13102" lon="2.21936">
        <ele>116</ele>
        <time>2021-08-11T13:50:19Z</time>
      </trkpt>
      <trkpt lat="47.13099" lon="2.21944">
        <ele>116</ele>
        <time>2021-08-11T13:50:19Z</time>
      </trkpt>
      <trkpt lat="47.13095" lon="2.21952">
        <ele>116</ele>
        <time>2021-08-11T13:50:19Z</time>
      </trkpt>
      <trkpt lat="47.13092" lon="2.21959">
        <ele>116</ele>
        <time>2021-08-11T13:50:19Z</time>
      </trkpt>
      <trkpt lat="47.13088" lon="2.21967">
        <ele>116</ele>
        <time>2021-08-11T13:50:19Z</time>
      </trkpt>
      <trkpt lat="47.13085" lon="2.21975">
        <ele>115</ele>
        <time>2021-08-11T13:50:19Z</time>
      </trkpt>
      <trkpt lat="47.13081" lon="2.21983">
        <ele>115</ele>
        <time>2021-08-11T13:50:19Z</time>
      </trkpt>
      <trkpt lat="47.13077" lon="2.2199">
        <ele>115</ele>
        <time>2021-08-11T13:50:19Z</time>
      </trkpt>
      <trkpt lat="47.13074" lon="2.21998">
        <ele>116</ele>
        <time>2021-08-11T13:50:19Z</time>
      </trkpt>
      <trkpt lat="47.1307" lon="2.22006">
        <ele>116</ele>
        <time>2021-08-11T13:50:19Z</time>
      </trkpt>
      <trkpt lat="47.13066" lon="2.22013">
        <ele>116</ele>
        <time>2021-08-11T13:50:19Z</time>
      </trkpt>
      <trkpt lat="47.13064" lon="2.22021">
        <ele>116</ele>
        <time>2021-08-11T13:50:19Z</time>
      </trkpt>
      <trkpt lat="47.1306" lon="2.22029">
        <ele>115</ele>
        <time>2021-08-11T13:50:19Z</time>
      </trkpt>
      <trkpt lat="47.13057" lon="2.22037">
        <ele>115</ele>
        <time>2021-08-11T13:50:19Z</time>
      </trkpt>
      <trkpt lat="47.13054" lon="2.22045">
        <ele>115</ele>
        <time>2021-08-11T13:50:19Z</time>
      </trkpt>
      <trkpt lat="47.13051" lon="2.22052">
        <ele>115</ele>
        <time>2021-08-11T13:50:19Z</time>
      </trkpt>
      <trkpt lat="47.13047" lon="2.22058">
        <ele>115</ele>
        <time>2021-08-11T13:50:19Z</time>
      </trkpt>
      <trkpt lat="47.13044" lon="2.22065">
        <ele>115</ele>
        <time>2021-08-11T13:50:19Z</time>
      </trkpt>
      <trkpt lat="47.13041" lon="2.22072">
        <ele>114</ele>
        <time>2021-08-11T13:50:19Z</time>
      </trkpt>
      <trkpt lat="47.13038" lon="2.22079">
        <ele>114</ele>
        <time>2021-08-11T13:50:19Z</time>
      </trkpt>
      <trkpt lat="47.13036" lon="2.22085">
        <ele>114</ele>
        <time>2021-08-11T13:50:19Z</time>
      </trkpt>
      <trkpt lat="47.13033" lon="2.22091">
        <ele>114</ele>
        <time>2021-08-11T13:50:19Z</time>
      </trkpt>
      <trkpt lat="47.1303" lon="2.22097">
        <ele>113</ele>
        <time>2021-08-11T13:50:19Z</time>
      </trkpt>
      <trkpt lat="47.13028" lon="2.22102">
        <ele>113</ele>
        <time>2021-08-11T13:50:19Z</time>
      </trkpt>
      <trkpt lat="47.13025" lon="2.22108">
        <ele>113</ele>
        <time>2021-08-11T13:50:19Z</time>
      </trkpt>
      <trkpt lat="47.13022" lon="2.22115">
        <ele>113</ele>
        <time>2021-08-11T13:50:19Z</time>
      </trkpt>
      <trkpt lat="47.13019" lon="2.22122">
        <ele>113</ele>
        <time>2021-08-11T13:50:19Z</time>
      </trkpt>
      <trkpt lat="47.13015" lon="2.22129">
        <ele>113</ele>
        <time>2021-08-11T13:50:19Z</time>
      </trkpt>
      <trkpt lat="47.13012" lon="2.22136">
        <ele>113</ele>
        <time>2021-08-11T13:50:19Z</time>
      </trkpt>
      <trkpt lat="47.13009" lon="2.22144">
        <ele>113</ele>
        <time>2021-08-11T13:50:19Z</time>
      </trkpt>
      <trkpt lat="47.13005" lon="2.22152">
        <ele>113</ele>
        <time>2021-08-11T13:50:19Z</time>
      </trkpt>
      <trkpt lat="47.13001" lon="2.22159">
        <ele>113</ele>
        <time>2021-08-11T13:50:19Z</time>
      </trkpt>
      <trkpt lat="47.12998" lon="2.22167">
        <ele>113</ele>
        <time>2021-08-11T13:50:19Z</time>
      </trkpt>
      <trkpt lat="47.12994" lon="2.22174">
        <ele>113</ele>
        <time>2021-08-11T13:50:19Z</time>
      </trkpt>
      <trkpt lat="47.12991" lon="2.22182">
        <ele>113</ele>
        <time>2021-08-11T13:50:19Z</time>
      </trkpt>
      <trkpt lat="47.12988" lon="2.2219">
        <ele>113</ele>
        <time>2021-08-11T13:50:19Z</time>
      </trkpt>
      <trkpt lat="47.12984" lon="2.22197">
        <ele>113</ele>
        <time>2021-08-11T13:50:19Z</time>
      </trkpt>
      <trkpt lat="47.1298" lon="2.22205">
        <ele>113</ele>
        <time>2021-08-11T13:50:19Z</time>
      </trkpt>
      <trkpt lat="47.12977" lon="2.22213">
        <ele>113</ele>
        <time>2021-08-11T13:50:19Z</time>
      </trkpt>
      <trkpt lat="47.12974" lon="2.22221">
        <ele>114</ele>
        <time>2021-08-11T13:50:19Z</time>
      </trkpt>
      <trkpt lat="47.12956" lon="2.22259">
        <ele>114</ele>
        <time>2021-08-11T13:50:19Z</time>
      </trkpt>
      <trkpt lat="47.12939" lon="2.22298">
        <ele>114</ele>
        <time>2021-08-11T13:50:19Z</time>
      </trkpt>
      <trkpt lat="47.12921" lon="2.22336">
        <ele>114</ele>
        <time>2021-08-11T13:50:19Z</time>
      </trkpt>
      <trkpt lat="47.12904" lon="2.22374">
        <ele>115</ele>
        <time>2021-08-11T13:50:19Z</time>
      </trkpt>
      <trkpt lat="47.12888" lon="2.22413">
        <ele>117</ele>
        <time>2021-08-11T13:50:19Z</time>
      </trkpt>
      <trkpt lat="47.12874" lon="2.22445">
        <ele>117</ele>
        <time>2021-08-11T13:50:19Z</time>
      </trkpt>
      <trkpt lat="47.12871" lon="2.22453">
        <ele>117</ele>
        <time>2021-08-11T13:50:19Z</time>
      </trkpt>
      <trkpt lat="47.12854" lon="2.22493">
        <ele>117</ele>
        <time>2021-08-11T13:50:19Z</time>
      </trkpt>
      <trkpt lat="47.12836" lon="2.22532">
        <ele>116</ele>
        <time>2021-08-11T13:50:19Z</time>
      </trkpt>
      <trkpt lat="47.1282" lon="2.22571">
        <ele>116</ele>
        <time>2021-08-11T13:50:19Z</time>
      </trkpt>
      <trkpt lat="47.12801" lon="2.22611">
        <ele>116</ele>
        <time>2021-08-11T13:50:19Z</time>
      </trkpt>
      <trkpt lat="47.12784" lon="2.2265">
        <ele>116</ele>
        <time>2021-08-11T13:50:19Z</time>
      </trkpt>
      <trkpt lat="47.12769" lon="2.22682">
        <ele>117</ele>
        <time>2021-08-11T13:50:19Z</time>
      </trkpt>
      <trkpt lat="47.12766" lon="2.22689">
        <ele>118</ele>
        <time>2021-08-11T13:50:19Z</time>
      </trkpt>
      <trkpt lat="47.12763" lon="2.22697">
        <ele>118</ele>
        <time>2021-08-11T13:50:19Z</time>
      </trkpt>
      <trkpt lat="47.12759" lon="2.22705">
        <ele>118</ele>
        <time>2021-08-11T13:50:19Z</time>
      </trkpt>
      <trkpt lat="47.12756" lon="2.22713">
        <ele>118</ele>
        <time>2021-08-11T13:50:19Z</time>
      </trkpt>
      <trkpt lat="47.12752" lon="2.22721">
        <ele>119</ele>
        <time>2021-08-11T13:50:19Z</time>
      </trkpt>
      <trkpt lat="47.12749" lon="2.22729">
        <ele>119</ele>
        <time>2021-08-11T13:50:19Z</time>
      </trkpt>
      <trkpt lat="47.12745" lon="2.22736">
        <ele>119</ele>
        <time>2021-08-11T13:50:19Z</time>
      </trkpt>
      <trkpt lat="47.12741" lon="2.22744">
        <ele>119</ele>
        <time>2021-08-11T13:50:19Z</time>
      </trkpt>
      <trkpt lat="47.12738" lon="2.22752">
        <ele>119</ele>
        <time>2021-08-11T13:50:19Z</time>
      </trkpt>
      <trkpt lat="47.12734" lon="2.22761">
        <ele>119</ele>
        <time>2021-08-11T13:50:19Z</time>
      </trkpt>
      <trkpt lat="47.12731" lon="2.22768">
        <ele>119</ele>
        <time>2021-08-11T13:50:19Z</time>
      </trkpt>
      <trkpt lat="47.12727" lon="2.22776">
        <ele>119</ele>
        <time>2021-08-11T13:50:19Z</time>
      </trkpt>
      <trkpt lat="47.12724" lon="2.22784">
        <ele>119</ele>
        <time>2021-08-11T13:50:19Z</time>
      </trkpt>
      <trkpt lat="47.1272" lon="2.22792">
        <ele>118</ele>
        <time>2021-08-11T13:50:19Z</time>
      </trkpt>
      <trkpt lat="47.12717" lon="2.22799">
        <ele>118</ele>
        <time>2021-08-11T13:50:19Z</time>
      </trkpt>
      <trkpt lat="47.12714" lon="2.22807">
        <ele>119</ele>
        <time>2021-08-11T13:50:19Z</time>
      </trkpt>
      <trkpt lat="47.1271" lon="2.22815">
        <ele>119</ele>
        <time>2021-08-11T13:50:19Z</time>
      </trkpt>
      <trkpt lat="47.12707" lon="2.22823">
        <ele>119</ele>
        <time>2021-08-11T13:50:19Z</time>
      </trkpt>
      <trkpt lat="47.12703" lon="2.2283">
        <ele>119</ele>
        <time>2021-08-11T13:50:19Z</time>
      </trkpt>
      <trkpt lat="47.12699" lon="2.22838">
        <ele>119</ele>
        <time>2021-08-11T13:50:19Z</time>
      </trkpt>
      <trkpt lat="47.12695" lon="2.22847">
        <ele>119</ele>
        <time>2021-08-11T13:50:19Z</time>
      </trkpt>
      <trkpt lat="47.12692" lon="2.22855">
        <ele>120</ele>
        <time>2021-08-11T13:50:19Z</time>
      </trkpt>
      <trkpt lat="47.12689" lon="2.22862">
        <ele>120</ele>
        <time>2021-08-11T13:50:19Z</time>
      </trkpt>
      <trkpt lat="47.12685" lon="2.2287">
        <ele>119</ele>
        <time>2021-08-11T13:50:19Z</time>
      </trkpt>
      <trkpt lat="47.12681" lon="2.22878">
        <ele>119</ele>
        <time>2021-08-11T13:50:19Z</time>
      </trkpt>
      <trkpt lat="47.12678" lon="2.22887">
        <ele>118</ele>
        <time>2021-08-11T13:50:19Z</time>
      </trkpt>
      <trkpt lat="47.12674" lon="2.22895">
        <ele>118</ele>
        <time>2021-08-11T13:50:19Z</time>
      </trkpt>
      <trkpt lat="47.12671" lon="2.22902">
        <ele>117</ele>
        <time>2021-08-11T13:50:19Z</time>
      </trkpt>
      <trkpt lat="47.12667" lon="2.2291">
        <ele>117</ele>
        <time>2021-08-11T13:50:19Z</time>
      </trkpt>
      <trkpt lat="47.12664" lon="2.22918">
        <ele>117</ele>
        <time>2021-08-11T13:50:19Z</time>
      </trkpt>
      <trkpt lat="47.12661" lon="2.22926">
        <ele>116</ele>
        <time>2021-08-11T13:50:19Z</time>
      </trkpt>
      <trkpt lat="47.12657" lon="2.22934">
        <ele>116</ele>
        <time>2021-08-11T13:50:19Z</time>
      </trkpt>
      <trkpt lat="47.12653" lon="2.22942">
        <ele>116</ele>
        <time>2021-08-11T13:50:19Z</time>
      </trkpt>
      <trkpt lat="47.12649" lon="2.22949">
        <ele>116</ele>
        <time>2021-08-11T13:50:19Z</time>
      </trkpt>
      <trkpt lat="47.12646" lon="2.22958">
        <ele>116</ele>
        <time>2021-08-11T13:50:19Z</time>
      </trkpt>
      <trkpt lat="47.12643" lon="2.22966">
        <ele>116</ele>
        <time>2021-08-11T13:50:19Z</time>
      </trkpt>
      <trkpt lat="47.1264" lon="2.22973">
        <ele>116</ele>
        <time>2021-08-11T13:50:19Z</time>
      </trkpt>
      <trkpt lat="47.12636" lon="2.22981">
        <ele>116</ele>
        <time>2021-08-11T13:50:19Z</time>
      </trkpt>
      <trkpt lat="47.12632" lon="2.22989">
        <ele>116</ele>
        <time>2021-08-11T13:50:19Z</time>
      </trkpt>
      <trkpt lat="47.12629" lon="2.22997">
        <ele>116</ele>
        <time>2021-08-11T13:50:19Z</time>
      </trkpt>
      <trkpt lat="47.12625" lon="2.23005">
        <ele>116</ele>
        <time>2021-08-11T13:50:19Z</time>
      </trkpt>
      <trkpt lat="47.12622" lon="2.23013">
        <ele>116</ele>
        <time>2021-08-11T13:50:19Z</time>
      </trkpt>
      <trkpt lat="47.12618" lon="2.23021">
        <ele>116</ele>
        <time>2021-08-11T13:50:19Z</time>
      </trkpt>
      <trkpt lat="47.12615" lon="2.2303">
        <ele>115</ele>
        <time>2021-08-11T13:50:19Z</time>
      </trkpt>
      <trkpt lat="47.12611" lon="2.23038">
        <ele>115</ele>
        <time>2021-08-11T13:50:19Z</time>
      </trkpt>
      <trkpt lat="47.12608" lon="2.23046">
        <ele>116</ele>
        <time>2021-08-11T13:50:19Z</time>
      </trkpt>
      <trkpt lat="47.12604" lon="2.23053">
        <ele>116</ele>
        <time>2021-08-11T13:50:19Z</time>
      </trkpt>
      <trkpt lat="47.12601" lon="2.23061">
        <ele>116</ele>
        <time>2021-08-11T13:50:19Z</time>
      </trkpt>
      <trkpt lat="47.12597" lon="2.23068">
        <ele>116</ele>
        <time>2021-08-11T13:50:19Z</time>
      </trkpt>
      <trkpt lat="47.12593" lon="2.23076">
        <ele>116</ele>
        <time>2021-08-11T13:50:19Z</time>
      </trkpt>
      <trkpt lat="47.12589" lon="2.23083">
        <ele>116</ele>
        <time>2021-08-11T13:50:19Z</time>
      </trkpt>
      <trkpt lat="47.12585" lon="2.23091">
        <ele>116</ele>
        <time>2021-08-11T13:50:19Z</time>
      </trkpt>
      <trkpt lat="47.12581" lon="2.23099">
        <ele>117</ele>
        <time>2021-08-11T13:50:19Z</time>
      </trkpt>
      <trkpt lat="47.12578" lon="2.23107">
        <ele>117</ele>
        <time>2021-08-11T13:50:19Z</time>
      </trkpt>
      <trkpt lat="47.12574" lon="2.23115">
        <ele>116</ele>
        <time>2021-08-11T13:50:19Z</time>
      </trkpt>
      <trkpt lat="47.12571" lon="2.23123">
        <ele>116</ele>
        <time>2021-08-11T13:50:19Z</time>
      </trkpt>
      <trkpt lat="47.12567" lon="2.23131">
        <ele>115</ele>
        <time>2021-08-11T13:50:19Z</time>
      </trkpt>
      <trkpt lat="47.12564" lon="2.23139">
        <ele>115</ele>
        <time>2021-08-11T13:50:19Z</time>
      </trkpt>
      <trkpt lat="47.1256" lon="2.23147">
        <ele>115</ele>
        <time>2021-08-11T13:50:19Z</time>
      </trkpt>
      <trkpt lat="47.12557" lon="2.23155">
        <ele>114</ele>
        <time>2021-08-11T13:50:19Z</time>
      </trkpt>
      <trkpt lat="47.12554" lon="2.23162">
        <ele>114</ele>
        <time>2021-08-11T13:50:19Z</time>
      </trkpt>
      <trkpt lat="47.12551" lon="2.2317">
        <ele>113</ele>
        <time>2021-08-11T13:50:19Z</time>
      </trkpt>
      <trkpt lat="47.12533" lon="2.23209">
        <ele>113</ele>
        <time>2021-08-11T13:50:19Z</time>
      </trkpt>
      <trkpt lat="47.12516" lon="2.23248">
        <ele>114</ele>
        <time>2021-08-11T13:50:19Z</time>
      </trkpt>
      <trkpt lat="47.12498" lon="2.23288">
        <ele>116</ele>
        <time>2021-08-11T13:50:19Z</time>
      </trkpt>
      <trkpt lat="47.1248" lon="2.23327">
        <ele>118</ele>
        <time>2021-08-11T13:50:19Z</time>
      </trkpt>
      <trkpt lat="47.12463" lon="2.23366">
        <ele>117</ele>
        <time>2021-08-11T13:50:19Z</time>
      </trkpt>
      <trkpt lat="47.12449" lon="2.23397">
        <ele>117</ele>
        <time>2021-08-11T13:50:19Z</time>
      </trkpt>
      <trkpt lat="47.12446" lon="2.23404">
        <ele>117</ele>
        <time>2021-08-11T13:50:19Z</time>
      </trkpt>
      <trkpt lat="47.12428" lon="2.23442">
        <ele>117</ele>
        <time>2021-08-11T13:50:19Z</time>
      </trkpt>
      <trkpt lat="47.12411" lon="2.23481">
        <ele>116</ele>
        <time>2021-08-11T13:50:19Z</time>
      </trkpt>
      <trkpt lat="47.12394" lon="2.2352">
        <ele>117</ele>
        <time>2021-08-11T13:50:19Z</time>
      </trkpt>
      <trkpt lat="47.12378" lon="2.23559">
        <ele>119</ele>
        <time>2021-08-11T13:50:19Z</time>
      </trkpt>
      <trkpt lat="47.1236" lon="2.23596">
        <ele>120</ele>
        <time>2021-08-11T13:50:19Z</time>
      </trkpt>
      <trkpt lat="47.12347" lon="2.23625">
        <ele>121</ele>
        <time>2021-08-11T13:50:19Z</time>
      </trkpt>
      <trkpt lat="47.12344" lon="2.23633">
        <ele>121</ele>
        <time>2021-08-11T13:50:19Z</time>
      </trkpt>
      <trkpt lat="47.12328" lon="2.23671">
        <ele>121</ele>
        <time>2021-08-11T13:50:19Z</time>
      </trkpt>
      <trkpt lat="47.1231" lon="2.2371">
        <ele>120</ele>
        <time>2021-08-11T13:50:19Z</time>
      </trkpt>
      <trkpt lat="47.12293" lon="2.23749">
        <ele>120</ele>
        <time>2021-08-11T13:50:19Z</time>
      </trkpt>
      <trkpt lat="47.12274" lon="2.23788">
        <ele>122</ele>
        <time>2021-08-11T13:50:19Z</time>
      </trkpt>
      <trkpt lat="47.12258" lon="2.23825">
        <ele>124</ele>
        <time>2021-08-11T13:50:19Z</time>
      </trkpt>
      <trkpt lat="47.12243" lon="2.23859">
        <ele>123</ele>
        <time>2021-08-11T13:50:19Z</time>
      </trkpt>
      <trkpt lat="47.12239" lon="2.23866">
        <ele>122</ele>
        <time>2021-08-11T13:50:19Z</time>
      </trkpt>
      <trkpt lat="47.12225" lon="2.23888">
        <ele>121</ele>
        <time>2021-08-11T13:50:19Z</time>
      </trkpt>
      <trkpt lat="47.1222" lon="2.23894">
        <ele>120</ele>
        <time>2021-08-11T13:50:19Z</time>
      </trkpt>
      <trkpt lat="47.12215" lon="2.23901">
        <ele>119</ele>
        <time>2021-08-11T13:50:19Z</time>
      </trkpt>
      <trkpt lat="47.12211" lon="2.23907">
        <ele>118</ele>
        <time>2021-08-11T13:50:19Z</time>
      </trkpt>
      <trkpt lat="47.12206" lon="2.23914">
        <ele>117</ele>
        <time>2021-08-11T13:50:19Z</time>
      </trkpt>
      <trkpt lat="47.12201" lon="2.2392">
        <ele>117</ele>
        <time>2021-08-11T13:50:19Z</time>
      </trkpt>
      <trkpt lat="47.12196" lon="2.23927">
        <ele>117</ele>
        <time>2021-08-11T13:50:19Z</time>
      </trkpt>
      <trkpt lat="47.12191" lon="2.23933">
        <ele>117</ele>
        <time>2021-08-11T13:50:19Z</time>
      </trkpt>
      <trkpt lat="47.12186" lon="2.23939">
        <ele>118</ele>
        <time>2021-08-11T13:50:19Z</time>
      </trkpt>
      <trkpt lat="47.12181" lon="2.23945">
        <ele>118</ele>
        <time>2021-08-11T13:50:19Z</time>
      </trkpt>
      <trkpt lat="47.12175" lon="2.23951">
        <ele>118</ele>
        <time>2021-08-11T13:50:19Z</time>
      </trkpt>
      <trkpt lat="47.12169" lon="2.23955">
        <ele>118</ele>
        <time>2021-08-11T13:50:19Z</time>
      </trkpt>
      <trkpt lat="47.12164" lon="2.23961">
        <ele>118</ele>
        <time>2021-08-11T13:50:19Z</time>
      </trkpt>
      <trkpt lat="47.12159" lon="2.23966">
        <ele>118</ele>
        <time>2021-08-11T13:50:19Z</time>
      </trkpt>
      <trkpt lat="47.12154" lon="2.23972">
        <ele>118</ele>
        <time>2021-08-11T13:50:19Z</time>
      </trkpt>
      <trkpt lat="47.12149" lon="2.23978">
        <ele>118</ele>
        <time>2021-08-11T13:50:19Z</time>
      </trkpt>
      <trkpt lat="47.12145" lon="2.23984">
        <ele>118</ele>
        <time>2021-08-11T13:50:19Z</time>
      </trkpt>
      <trkpt lat="47.1214" lon="2.23989">
        <ele>117</ele>
        <time>2021-08-11T13:50:19Z</time>
      </trkpt>
      <trkpt lat="47.12134" lon="2.23995">
        <ele>117</ele>
        <time>2021-08-11T13:50:19Z</time>
      </trkpt>
      <trkpt lat="47.12129" lon="2.24001">
        <ele>116</ele>
        <time>2021-08-11T13:50:19Z</time>
      </trkpt>
      <trkpt lat="47.12124" lon="2.24006">
        <ele>116</ele>
        <time>2021-08-11T13:50:19Z</time>
      </trkpt>
      <trkpt lat="47.12119" lon="2.24012">
        <ele>116</ele>
        <time>2021-08-11T13:50:19Z</time>
      </trkpt>
      <trkpt lat="47.12114" lon="2.24018">
        <ele>116</ele>
        <time>2021-08-11T13:50:19Z</time>
      </trkpt>
      <trkpt lat="47.12109" lon="2.24022">
        <ele>116</ele>
        <time>2021-08-11T13:50:19Z</time>
      </trkpt>
      <trkpt lat="47.12104" lon="2.24027">
        <ele>116</ele>
        <time>2021-08-11T13:50:19Z</time>
      </trkpt>
      <trkpt lat="47.121" lon="2.24033">
        <ele>116</ele>
        <time>2021-08-11T13:50:19Z</time>
      </trkpt>
      <trkpt lat="47.12095" lon="2.24039">
        <ele>116</ele>
        <time>2021-08-11T13:50:19Z</time>
      </trkpt>
      <trkpt lat="47.1209" lon="2.24045">
        <ele>115</ele>
        <time>2021-08-11T13:50:19Z</time>
      </trkpt>
      <trkpt lat="47.12084" lon="2.24051">
        <ele>115</ele>
        <time>2021-08-11T13:50:19Z</time>
      </trkpt>
      <trkpt lat="47.12079" lon="2.24057">
        <ele>115</ele>
        <time>2021-08-11T13:50:19Z</time>
      </trkpt>
      <trkpt lat="47.12074" lon="2.24063">
        <ele>115</ele>
        <time>2021-08-11T13:50:19Z</time>
      </trkpt>
      <trkpt lat="47.12069" lon="2.24068">
        <ele>115</ele>
        <time>2021-08-11T13:50:19Z</time>
      </trkpt>
      <trkpt lat="47.12064" lon="2.24073">
        <ele>115</ele>
        <time>2021-08-11T13:50:19Z</time>
      </trkpt>
      <trkpt lat="47.12059" lon="2.24079">
        <ele>115</ele>
        <time>2021-08-11T13:50:19Z</time>
      </trkpt>
      <trkpt lat="47.12054" lon="2.24084">
        <ele>115</ele>
        <time>2021-08-11T13:50:19Z</time>
      </trkpt>
      <trkpt lat="47.12049" lon="2.2409">
        <ele>115</ele>
        <time>2021-08-11T13:50:19Z</time>
      </trkpt>
      <trkpt lat="47.12044" lon="2.24095">
        <ele>115</ele>
        <time>2021-08-11T13:50:19Z</time>
      </trkpt>
      <trkpt lat="47.12039" lon="2.24101">
        <ele>115</ele>
        <time>2021-08-11T13:50:19Z</time>
      </trkpt>
      <trkpt lat="47.12034" lon="2.24106">
        <ele>116</ele>
        <time>2021-08-11T13:50:19Z</time>
      </trkpt>
      <trkpt lat="47.12029" lon="2.24112">
        <ele>116</ele>
        <time>2021-08-11T13:50:19Z</time>
      </trkpt>
      <trkpt lat="47.12024" lon="2.24117">
        <ele>116</ele>
        <time>2021-08-11T13:50:19Z</time>
      </trkpt>
      <trkpt lat="47.12019" lon="2.24122">
        <ele>116</ele>
        <time>2021-08-11T13:50:19Z</time>
      </trkpt>
      <trkpt lat="47.12014" lon="2.24128">
        <ele>116</ele>
        <time>2021-08-11T13:50:19Z</time>
      </trkpt>
      <trkpt lat="47.12009" lon="2.24134">
        <ele>116</ele>
        <time>2021-08-11T13:50:19Z</time>
      </trkpt>
      <trkpt lat="47.12004" lon="2.24138">
        <ele>116</ele>
        <time>2021-08-11T13:50:19Z</time>
      </trkpt>
      <trkpt lat="47.11999" lon="2.24144">
        <ele>116</ele>
        <time>2021-08-11T13:50:19Z</time>
      </trkpt>
      <trkpt lat="47.11994" lon="2.2415">
        <ele>116</ele>
        <time>2021-08-11T13:50:19Z</time>
      </trkpt>
      <trkpt lat="47.11989" lon="2.24155">
        <ele>115</ele>
        <time>2021-08-11T13:50:19Z</time>
      </trkpt>
      <trkpt lat="47.11984" lon="2.24161">
        <ele>115</ele>
        <time>2021-08-11T13:50:19Z</time>
      </trkpt>
      <trkpt lat="47.11979" lon="2.24166">
        <ele>115</ele>
        <time>2021-08-11T13:50:19Z</time>
      </trkpt>
      <trkpt lat="47.11973" lon="2.24172">
        <ele>114</ele>
        <time>2021-08-11T13:50:19Z</time>
      </trkpt>
      <trkpt lat="47.11968" lon="2.24177">
        <ele>115</ele>
        <time>2021-08-11T13:50:19Z</time>
      </trkpt>
      <trkpt lat="47.11963" lon="2.24183">
        <ele>115</ele>
        <time>2021-08-11T13:50:19Z</time>
      </trkpt>
      <trkpt lat="47.11958" lon="2.24187">
        <ele>115</ele>
        <time>2021-08-11T13:50:19Z</time>
      </trkpt>
      <trkpt lat="47.11954" lon="2.24192">
        <ele>115</ele>
        <time>2021-08-11T13:50:19Z</time>
      </trkpt>
      <trkpt lat="47.11949" lon="2.24198">
        <ele>115</ele>
        <time>2021-08-11T13:50:19Z</time>
      </trkpt>
      <trkpt lat="47.11944" lon="2.24204">
        <ele>116</ele>
        <time>2021-08-11T13:50:19Z</time>
      </trkpt>
      <trkpt lat="47.11939" lon="2.24209">
        <ele>116</ele>
        <time>2021-08-11T13:50:19Z</time>
      </trkpt>
      <trkpt lat="47.11934" lon="2.24215">
        <ele>116</ele>
        <time>2021-08-11T13:50:19Z</time>
      </trkpt>
      <trkpt lat="47.11928" lon="2.24221">
        <ele>116</ele>
        <time>2021-08-11T13:50:19Z</time>
      </trkpt>
      <trkpt lat="47.11903" lon="2.24248">
        <ele>116</ele>
        <time>2021-08-11T13:50:19Z</time>
      </trkpt>
      <trkpt lat="47.11877" lon="2.24274">
        <ele>116</ele>
        <time>2021-08-11T13:50:19Z</time>
      </trkpt>
      <trkpt lat="47.11852" lon="2.24302">
        <ele>116</ele>
        <time>2021-08-11T13:50:19Z</time>
      </trkpt>
      <trkpt lat="47.11826" lon="2.2433">
        <ele>115</ele>
        <time>2021-08-11T13:50:19Z</time>
      </trkpt>
      <trkpt lat="47.11801" lon="2.24359">
        <ele>115</ele>
        <time>2021-08-11T13:50:19Z</time>
      </trkpt>
      <trkpt lat="47.11781" lon="2.24381">
        <ele>115</ele>
        <time>2021-08-11T13:50:19Z</time>
      </trkpt>
      <trkpt lat="47.11775" lon="2.24386">
        <ele>116</ele>
        <time>2021-08-11T13:50:19Z</time>
      </trkpt>
      <trkpt lat="47.1175" lon="2.24413">
        <ele>116</ele>
        <time>2021-08-11T13:50:19Z</time>
      </trkpt>
      <trkpt lat="47.11724" lon="2.2444">
        <ele>116</ele>
        <time>2021-08-11T13:50:19Z</time>
      </trkpt>
      <trkpt lat="47.11699" lon="2.24468">
        <ele>115</ele>
        <time>2021-08-11T13:50:19Z</time>
      </trkpt>
      <trkpt lat="47.11673" lon="2.24496">
        <ele>114</ele>
        <time>2021-08-11T13:50:19Z</time>
      </trkpt>
      <trkpt lat="47.11647" lon="2.24524">
        <ele>114</ele>
        <time>2021-08-11T13:50:19Z</time>
      </trkpt>
      <trkpt lat="47.11627" lon="2.24546">
        <ele>113</ele>
        <time>2021-08-11T13:50:19Z</time>
      </trkpt>
      <trkpt lat="47.11622" lon="2.24552">
        <ele>113</ele>
        <time>2021-08-11T13:50:19Z</time>
      </trkpt>
      <trkpt lat="47.11597" lon="2.24579">
        <ele>115</ele>
        <time>2021-08-11T13:50:19Z</time>
      </trkpt>
      <trkpt lat="47.11571" lon="2.24607">
        <ele>116</ele>
        <time>2021-08-11T13:50:19Z</time>
      </trkpt>
      <trkpt lat="47.11546" lon="2.24634">
        <ele>115</ele>
        <time>2021-08-11T13:50:19Z</time>
      </trkpt>
      <trkpt lat="47.1152" lon="2.24662">
        <ele>115</ele>
        <time>2021-08-11T13:50:19Z</time>
      </trkpt>
      <trkpt lat="47.11494" lon="2.24689">
        <ele>115</ele>
        <time>2021-08-11T13:50:19Z</time>
      </trkpt>
      <trkpt lat="47.11475" lon="2.24712">
        <ele>115</ele>
        <time>2021-08-11T13:50:19Z</time>
      </trkpt>
      <trkpt lat="47.11469" lon="2.24718">
        <ele>116</ele>
        <time>2021-08-11T13:50:19Z</time>
      </trkpt>
      <trkpt lat="47.11464" lon="2.24724">
        <ele>116</ele>
        <time>2021-08-11T13:50:19Z</time>
      </trkpt>
      <trkpt lat="47.11459" lon="2.24729">
        <ele>116</ele>
        <time>2021-08-11T13:50:19Z</time>
      </trkpt>
      <trkpt lat="47.11453" lon="2.24735">
        <ele>116</ele>
        <time>2021-08-11T13:50:19Z</time>
      </trkpt>
      <trkpt lat="47.11448" lon="2.2474">
        <ele>116</ele>
        <time>2021-08-11T13:50:19Z</time>
      </trkpt>
      <trkpt lat="47.11443" lon="2.24746">
        <ele>116</ele>
        <time>2021-08-11T13:50:19Z</time>
      </trkpt>
      <trkpt lat="47.11437" lon="2.24752">
        <ele>116</ele>
        <time>2021-08-11T13:50:19Z</time>
      </trkpt>
      <trkpt lat="47.11432" lon="2.24757">
        <ele>116</ele>
        <time>2021-08-11T13:50:19Z</time>
      </trkpt>
      <trkpt lat="47.11427" lon="2.24763">
        <ele>116</ele>
        <time>2021-08-11T13:50:19Z</time>
      </trkpt>
      <trkpt lat="47.11422" lon="2.24769">
        <ele>116</ele>
        <time>2021-08-11T13:50:19Z</time>
      </trkpt>
      <trkpt lat="47.11417" lon="2.24774">
        <ele>116</ele>
        <time>2021-08-11T13:50:19Z</time>
      </trkpt>
      <trkpt lat="47.11412" lon="2.2478">
        <ele>115</ele>
        <time>2021-08-11T13:50:19Z</time>
      </trkpt>
      <trkpt lat="47.11407" lon="2.24785">
        <ele>115</ele>
        <time>2021-08-11T13:50:19Z</time>
      </trkpt>
      <trkpt lat="47.11383" lon="2.2481">
        <ele>116</ele>
        <time>2021-08-11T13:50:19Z</time>
      </trkpt>
      <trkpt lat="47.11357" lon="2.24837">
        <ele>118</ele>
        <time>2021-08-11T13:50:19Z</time>
      </trkpt>
      <trkpt lat="47.11332" lon="2.24864">
        <ele>117</ele>
        <time>2021-08-11T13:50:19Z</time>
      </trkpt>
      <trkpt lat="47.11307" lon="2.24892">
        <ele>116</ele>
        <time>2021-08-11T13:50:19Z</time>
      </trkpt>
      <trkpt lat="47.11281" lon="2.24921">
        <ele>116</ele>
        <time>2021-08-11T13:50:19Z</time>
      </trkpt>
      <trkpt lat="47.11261" lon="2.24942">
        <ele>116</ele>
        <time>2021-08-11T13:50:19Z</time>
      </trkpt>
      <trkpt lat="47.11255" lon="2.24948">
        <ele>115</ele>
        <time>2021-08-11T13:50:19Z</time>
      </trkpt>
      <trkpt lat="47.1123" lon="2.24975">
        <ele>114</ele>
        <time>2021-08-11T13:50:19Z</time>
      </trkpt>
      <trkpt lat="47.11205" lon="2.25002">
        <ele>114</ele>
        <time>2021-08-11T13:50:19Z</time>
      </trkpt>
      <trkpt lat="47.1118" lon="2.2503">
        <ele>114</ele>
        <time>2021-08-11T13:50:19Z</time>
      </trkpt>
      <trkpt lat="47.11154" lon="2.25058">
        <ele>113</ele>
        <time>2021-08-11T13:50:19Z</time>
      </trkpt>
      <trkpt lat="47.11129" lon="2.25086">
        <ele>114</ele>
        <time>2021-08-11T13:50:19Z</time>
      </trkpt>
      <trkpt lat="47.11108" lon="2.25108">
        <ele>114</ele>
        <time>2021-08-11T13:50:19Z</time>
      </trkpt>
      <trkpt lat="47.11103" lon="2.25113">
        <ele>115</ele>
        <time>2021-08-11T13:50:19Z</time>
      </trkpt>
      <trkpt lat="47.11077" lon="2.25141">
        <ele>114</ele>
        <time>2021-08-11T13:50:19Z</time>
      </trkpt>
      <trkpt lat="47.11052" lon="2.25169">
        <ele>113</ele>
        <time>2021-08-11T13:50:19Z</time>
      </trkpt>
      <trkpt lat="47.11026" lon="2.25197">
        <ele>113</ele>
        <time>2021-08-11T13:50:19Z</time>
      </trkpt>
      <trkpt lat="47.11" lon="2.25224">
        <ele>113</ele>
        <time>2021-08-11T13:50:19Z</time>
      </trkpt>
      <trkpt lat="47.10975" lon="2.25252">
        <ele>113</ele>
        <time>2021-08-11T13:50:19Z</time>
      </trkpt>
      <trkpt lat="47.10954" lon="2.25273">
        <ele>114</ele>
        <time>2021-08-11T13:50:19Z</time>
      </trkpt>
      <trkpt lat="47.10949" lon="2.25279">
        <ele>114</ele>
        <time>2021-08-11T13:50:19Z</time>
      </trkpt>
      <trkpt lat="47.10924" lon="2.25307">
        <ele>116</ele>
        <time>2021-08-11T13:50:19Z</time>
      </trkpt>
      <trkpt lat="47.10898" lon="2.25335">
        <ele>116</ele>
        <time>2021-08-11T13:50:19Z</time>
      </trkpt>
      <trkpt lat="47.10872" lon="2.25363">
        <ele>115</ele>
        <time>2021-08-11T13:50:19Z</time>
      </trkpt>
      <trkpt lat="47.10847" lon="2.2539">
        <ele>114</ele>
        <time>2021-08-11T13:50:19Z</time>
      </trkpt>
      <trkpt lat="47.10826" lon="2.25414">
        <ele>114</ele>
        <time>2021-08-11T13:50:19Z</time>
      </trkpt>
      <trkpt lat="47.10813" lon="2.25423">
        <ele>115</ele>
        <time>2021-08-11T13:50:19Z</time>
      </trkpt>
      <trkpt lat="47.10809" lon="2.25427">
        <ele>115</ele>
        <time>2021-08-11T13:50:19Z</time>
      </trkpt>
      <trkpt lat="47.10798" lon="2.25439">
        <ele>115</ele>
        <time>2021-08-11T13:50:19Z</time>
      </trkpt>
      <trkpt lat="47.10795" lon="2.25444">
        <ele>115</ele>
        <time>2021-08-11T13:50:19Z</time>
      </trkpt>
      <trkpt lat="47.10791" lon="2.25449">
        <ele>115</ele>
        <time>2021-08-11T13:50:19Z</time>
      </trkpt>
      <trkpt lat="47.10787" lon="2.25454">
        <ele>115</ele>
        <time>2021-08-11T13:50:19Z</time>
      </trkpt>
      <trkpt lat="47.10783" lon="2.25459">
        <ele>115</ele>
        <time>2021-08-11T13:50:19Z</time>
      </trkpt>
      <trkpt lat="47.10779" lon="2.25465">
        <ele>115</ele>
        <time>2021-08-11T13:50:19Z</time>
      </trkpt>
      <trkpt lat="47.10774" lon="2.2547">
        <ele>115</ele>
        <time>2021-08-11T13:50:19Z</time>
      </trkpt>
      <trkpt lat="47.10769" lon="2.25476">
        <ele>115</ele>
        <time>2021-08-11T13:50:19Z</time>
      </trkpt>
      <trkpt lat="47.10764" lon="2.25482">
        <ele>115</ele>
        <time>2021-08-11T13:50:19Z</time>
      </trkpt>
      <trkpt lat="47.10759" lon="2.25488">
        <ele>115</ele>
        <time>2021-08-11T13:50:19Z</time>
      </trkpt>
      <trkpt lat="47.10754" lon="2.25493">
        <ele>115</ele>
        <time>2021-08-11T13:50:19Z</time>
      </trkpt>
      <trkpt lat="47.10749" lon="2.25499">
        <ele>115</ele>
        <time>2021-08-11T13:50:19Z</time>
      </trkpt>
      <trkpt lat="47.10743" lon="2.25504">
        <ele>115</ele>
        <time>2021-08-11T13:50:19Z</time>
      </trkpt>
      <trkpt lat="47.10739" lon="2.25509">
        <ele>115</ele>
        <time>2021-08-11T13:50:19Z</time>
      </trkpt>
      <trkpt lat="47.10734" lon="2.25514">
        <ele>115</ele>
        <time>2021-08-11T13:50:19Z</time>
      </trkpt>
      <trkpt lat="47.10729" lon="2.2552">
        <ele>115</ele>
        <time>2021-08-11T13:50:19Z</time>
      </trkpt>
      <trkpt lat="47.10724" lon="2.25525">
        <ele>115</ele>
        <time>2021-08-11T13:50:19Z</time>
      </trkpt>
      <trkpt lat="47.10718" lon="2.2553">
        <ele>116</ele>
        <time>2021-08-11T13:50:19Z</time>
      </trkpt>
      <trkpt lat="47.10713" lon="2.25535">
        <ele>116</ele>
        <time>2021-08-11T13:50:19Z</time>
      </trkpt>
      <trkpt lat="47.10708" lon="2.2554">
        <ele>116</ele>
        <time>2021-08-11T13:50:19Z</time>
      </trkpt>
      <trkpt lat="47.10702" lon="2.25545">
        <ele>116</ele>
        <time>2021-08-11T13:50:19Z</time>
      </trkpt>
      <trkpt lat="47.10697" lon="2.25552">
        <ele>116</ele>
        <time>2021-08-11T13:50:19Z</time>
      </trkpt>
      <trkpt lat="47.10693" lon="2.25557">
        <ele>117</ele>
        <time>2021-08-11T13:50:19Z</time>
      </trkpt>
      <trkpt lat="47.10688" lon="2.25563">
        <ele>117</ele>
        <time>2021-08-11T13:50:19Z</time>
      </trkpt>
      <trkpt lat="47.10682" lon="2.25569">
        <ele>117</ele>
        <time>2021-08-11T13:50:19Z</time>
      </trkpt>
      <trkpt lat="47.10677" lon="2.25574">
        <ele>117</ele>
        <time>2021-08-11T13:50:19Z</time>
      </trkpt>
      <trkpt lat="47.10672" lon="2.25579">
        <ele>117</ele>
        <time>2021-08-11T13:50:19Z</time>
      </trkpt>
      <trkpt lat="47.10667" lon="2.25585">
        <ele>117</ele>
        <time>2021-08-11T13:50:19Z</time>
      </trkpt>
      <trkpt lat="47.10662" lon="2.25591">
        <ele>117</ele>
        <time>2021-08-11T13:50:19Z</time>
      </trkpt>
      <trkpt lat="47.10657" lon="2.25596">
        <ele>117</ele>
        <time>2021-08-11T13:50:19Z</time>
      </trkpt>
      <trkpt lat="47.10652" lon="2.25602">
        <ele>117</ele>
        <time>2021-08-11T13:50:19Z</time>
      </trkpt>
      <trkpt lat="47.10647" lon="2.25608">
        <ele>117</ele>
        <time>2021-08-11T13:50:19Z</time>
      </trkpt>
      <trkpt lat="47.10642" lon="2.25613">
        <ele>117</ele>
        <time>2021-08-11T13:50:19Z</time>
      </trkpt>
      <trkpt lat="47.10637" lon="2.25619">
        <ele>118</ele>
        <time>2021-08-11T13:50:19Z</time>
      </trkpt>
      <trkpt lat="47.10632" lon="2.25625">
        <ele>118</ele>
        <time>2021-08-11T13:50:19Z</time>
      </trkpt>
      <trkpt lat="47.10627" lon="2.25631">
        <ele>118</ele>
        <time>2021-08-11T13:50:19Z</time>
      </trkpt>
      <trkpt lat="47.10622" lon="2.25636">
        <ele>118</ele>
        <time>2021-08-11T13:50:19Z</time>
      </trkpt>
      <trkpt lat="47.10617" lon="2.25642">
        <ele>117</ele>
        <time>2021-08-11T13:50:19Z</time>
      </trkpt>
      <trkpt lat="47.10613" lon="2.25649">
        <ele>117</ele>
        <time>2021-08-11T13:50:19Z</time>
      </trkpt>
      <trkpt lat="47.10608" lon="2.25655">
        <ele>118</ele>
        <time>2021-08-11T13:50:19Z</time>
      </trkpt>
      <trkpt lat="47.10604" lon="2.25662">
        <ele>118</ele>
        <time>2021-08-11T13:50:19Z</time>
      </trkpt>
      <trkpt lat="47.106" lon="2.25669">
        <ele>117</ele>
        <time>2021-08-11T13:50:19Z</time>
      </trkpt>
      <trkpt lat="47.10596" lon="2.25677">
        <ele>117</ele>
        <time>2021-08-11T13:50:19Z</time>
      </trkpt>
      <trkpt lat="47.10592" lon="2.25684">
        <ele>117</ele>
        <time>2021-08-11T13:50:19Z</time>
      </trkpt>
      <trkpt lat="47.10588" lon="2.25691">
        <ele>117</ele>
        <time>2021-08-11T13:50:19Z</time>
      </trkpt>
      <trkpt lat="47.10584" lon="2.25699">
        <ele>117</ele>
        <time>2021-08-11T13:50:19Z</time>
      </trkpt>
      <trkpt lat="47.10581" lon="2.25706">
        <ele>117</ele>
        <time>2021-08-11T13:50:19Z</time>
      </trkpt>
      <trkpt lat="47.10577" lon="2.25714">
        <ele>117</ele>
        <time>2021-08-11T13:50:19Z</time>
      </trkpt>
      <trkpt lat="47.10575" lon="2.25722">
        <ele>117</ele>
        <time>2021-08-11T13:50:19Z</time>
      </trkpt>
      <trkpt lat="47.10572" lon="2.25731">
        <ele>117</ele>
        <time>2021-08-11T13:50:19Z</time>
      </trkpt>
      <trkpt lat="47.10569" lon="2.25739">
        <ele>117</ele>
        <time>2021-08-11T13:50:19Z</time>
      </trkpt>
      <trkpt lat="47.10567" lon="2.25747">
        <ele>117</ele>
        <time>2021-08-11T13:50:19Z</time>
      </trkpt>
      <trkpt lat="47.10565" lon="2.25756">
        <ele>117</ele>
        <time>2021-08-11T13:50:19Z</time>
      </trkpt>
      <trkpt lat="47.10563" lon="2.25764">
        <ele>117</ele>
        <time>2021-08-11T13:50:19Z</time>
      </trkpt>
      <trkpt lat="47.10561" lon="2.25773">
        <ele>117</ele>
        <time>2021-08-11T13:50:19Z</time>
      </trkpt>
      <trkpt lat="47.10559" lon="2.25781">
        <ele>117</ele>
        <time>2021-08-11T13:50:19Z</time>
      </trkpt>
      <trkpt lat="47.10557" lon="2.25791">
        <ele>117</ele>
        <time>2021-08-11T13:50:19Z</time>
      </trkpt>
      <trkpt lat="47.10556" lon="2.258">
        <ele>117</ele>
        <time>2021-08-11T13:50:19Z</time>
      </trkpt>
      <trkpt lat="47.10555" lon="2.2581">
        <ele>116</ele>
        <time>2021-08-11T13:50:19Z</time>
      </trkpt>
      <trkpt lat="47.10555" lon="2.25819">
        <ele>116</ele>
        <time>2021-08-11T13:50:19Z</time>
      </trkpt>
      <trkpt lat="47.10554" lon="2.25863">
        <ele>115</ele>
        <time>2021-08-11T13:50:19Z</time>
      </trkpt>
      <trkpt lat="47.10552" lon="2.25909">
        <ele>114</ele>
        <time>2021-08-11T13:50:19Z</time>
      </trkpt>
      <trkpt lat="47.10551" lon="2.25954">
        <ele>114</ele>
        <time>2021-08-11T13:50:19Z</time>
      </trkpt>
      <trkpt lat="47.10549" lon="2.25999">
        <ele>114</ele>
        <time>2021-08-11T13:50:19Z</time>
      </trkpt>
      <trkpt lat="47.10547" lon="2.26044">
        <ele>115</ele>
        <time>2021-08-11T13:50:19Z</time>
      </trkpt>
      <trkpt lat="47.10546" lon="2.2608">
        <ele>115</ele>
        <time>2021-08-11T13:50:19Z</time>
      </trkpt>
      <trkpt lat="47.10545" lon="2.26089">
        <ele>115</ele>
        <time>2021-08-11T13:50:19Z</time>
      </trkpt>
      <trkpt lat="47.10544" lon="2.26134">
        <ele>115</ele>
        <time>2021-08-11T13:50:19Z</time>
      </trkpt>
      <trkpt lat="47.10543" lon="2.2618">
        <ele>116</ele>
        <time>2021-08-11T13:50:19Z</time>
      </trkpt>
      <trkpt lat="47.10542" lon="2.26225">
        <ele>114</ele>
        <time>2021-08-11T13:50:19Z</time>
      </trkpt>
      <trkpt lat="47.1054" lon="2.26274">
        <ele>114</ele>
        <time>2021-08-11T13:50:19Z</time>
      </trkpt>
      <trkpt lat="47.10538" lon="2.26321">
        <ele>115</ele>
        <time>2021-08-11T13:50:19Z</time>
      </trkpt>
      <trkpt lat="47.10537" lon="2.26358">
        <ele>114</ele>
        <time>2021-08-11T13:50:19Z</time>
      </trkpt>
      <trkpt lat="47.10537" lon="2.26367">
        <ele>114</ele>
        <time>2021-08-11T13:50:19Z</time>
      </trkpt>
      <trkpt lat="47.10535" lon="2.26414">
        <ele>114</ele>
        <time>2021-08-11T13:50:19Z</time>
      </trkpt>
      <trkpt lat="47.10533" lon="2.2646">
        <ele>113</ele>
        <time>2021-08-11T13:50:19Z</time>
      </trkpt>
      <trkpt lat="47.10532" lon="2.26507">
        <ele>113</ele>
        <time>2021-08-11T13:50:19Z</time>
      </trkpt>
      <trkpt lat="47.1053" lon="2.26552">
        <ele>114</ele>
        <time>2021-08-11T13:50:19Z</time>
      </trkpt>
      <trkpt lat="47.10528" lon="2.26599">
        <ele>115</ele>
        <time>2021-08-11T13:50:19Z</time>
      </trkpt>
      <trkpt lat="47.10528" lon="2.26635">
        <ele>115</ele>
        <time>2021-08-11T13:50:19Z</time>
      </trkpt>
      <trkpt lat="47.10527" lon="2.26644">
        <ele>116</ele>
        <time>2021-08-11T13:50:19Z</time>
      </trkpt>
      <trkpt lat="47.10527" lon="2.26669">
        <ele>116</ele>
        <time>2021-08-11T13:50:19Z</time>
      </trkpt>
      <trkpt lat="47.10527" lon="2.26678">
        <ele>116</ele>
        <time>2021-08-11T13:50:19Z</time>
      </trkpt>
      <trkpt lat="47.10526" lon="2.26687">
        <ele>117</ele>
        <time>2021-08-11T13:50:19Z</time>
      </trkpt>
      <trkpt lat="47.10526" lon="2.26696">
        <ele>118</ele>
        <time>2021-08-11T13:50:19Z</time>
      </trkpt>
      <trkpt lat="47.10526" lon="2.26704">
        <ele>118</ele>
        <time>2021-08-11T13:50:19Z</time>
      </trkpt>
      <trkpt lat="47.10525" lon="2.26713">
        <ele>118</ele>
        <time>2021-08-11T13:50:19Z</time>
      </trkpt>
      <trkpt lat="47.10525" lon="2.26722">
        <ele>118</ele>
        <time>2021-08-11T13:50:19Z</time>
      </trkpt>
      <trkpt lat="47.10525" lon="2.26731">
        <ele>118</ele>
        <time>2021-08-11T13:50:19Z</time>
      </trkpt>
      <trkpt lat="47.10524" lon="2.2674">
        <ele>118</ele>
        <time>2021-08-11T13:50:19Z</time>
      </trkpt>
      <trkpt lat="47.10524" lon="2.26749">
        <ele>118</ele>
        <time>2021-08-11T13:50:19Z</time>
      </trkpt>
      <trkpt lat="47.10524" lon="2.26758">
        <ele>118</ele>
        <time>2021-08-11T13:50:19Z</time>
      </trkpt>
      <trkpt lat="47.10523" lon="2.26768">
        <ele>118</ele>
        <time>2021-08-11T13:50:19Z</time>
      </trkpt>
      <trkpt lat="47.10523" lon="2.26777">
        <ele>118</ele>
        <time>2021-08-11T13:50:19Z</time>
      </trkpt>
      <trkpt lat="47.10523" lon="2.26786">
        <ele>118</ele>
        <time>2021-08-11T13:50:19Z</time>
      </trkpt>
      <trkpt lat="47.10523" lon="2.26795">
        <ele>118</ele>
        <time>2021-08-11T13:50:19Z</time>
      </trkpt>
      <trkpt lat="47.10522" lon="2.26804">
        <ele>118</ele>
        <time>2021-08-11T13:50:19Z</time>
      </trkpt>
      <trkpt lat="47.10522" lon="2.26813">
        <ele>118</ele>
        <time>2021-08-11T13:50:19Z</time>
      </trkpt>
      <trkpt lat="47.10522" lon="2.26822">
        <ele>118</ele>
        <time>2021-08-11T13:50:19Z</time>
      </trkpt>
      <trkpt lat="47.10522" lon="2.26831">
        <ele>118</ele>
        <time>2021-08-11T13:50:19Z</time>
      </trkpt>
      <trkpt lat="47.10522" lon="2.26839">
        <ele>118</ele>
        <time>2021-08-11T13:50:19Z</time>
      </trkpt>
      <trkpt lat="47.10522" lon="2.26847">
        <ele>118</ele>
        <time>2021-08-11T13:50:19Z</time>
      </trkpt>
      <trkpt lat="47.10522" lon="2.26854">
        <ele>118</ele>
        <time>2021-08-11T13:50:19Z</time>
      </trkpt>
      <trkpt lat="47.10522" lon="2.26869">
        <ele>118</ele>
        <time>2021-08-11T13:50:19Z</time>
      </trkpt>
      <trkpt lat="47.10522" lon="2.26876">
        <ele>118</ele>
        <time>2021-08-11T13:50:19Z</time>
      </trkpt>
      <trkpt lat="47.10521" lon="2.26891">
        <ele>118</ele>
        <time>2021-08-11T13:50:19Z</time>
      </trkpt>
      <trkpt lat="47.1052" lon="2.26899">
        <ele>118</ele>
        <time>2021-08-11T13:50:19Z</time>
      </trkpt>
      <trkpt lat="47.10519" lon="2.26915">
        <ele>118</ele>
        <time>2021-08-11T13:50:19Z</time>
      </trkpt>
      <trkpt lat="47.10519" lon="2.26924">
        <ele>118</ele>
        <time>2021-08-11T13:50:19Z</time>
      </trkpt>
      <trkpt lat="47.10517" lon="2.26942">
        <ele>118</ele>
        <time>2021-08-11T13:50:19Z</time>
      </trkpt>
      <trkpt lat="47.10517" lon="2.26951">
        <ele>119</ele>
        <time>2021-08-11T13:50:19Z</time>
      </trkpt>
      <trkpt lat="47.10517" lon="2.2696">
        <ele>119</ele>
        <time>2021-08-11T13:50:19Z</time>
      </trkpt>
      <trkpt lat="47.10516" lon="2.26968">
        <ele>119</ele>
        <time>2021-08-11T13:50:19Z</time>
      </trkpt>
      <trkpt lat="47.10515" lon="2.26978">
        <ele>118</ele>
        <time>2021-08-11T13:50:19Z</time>
      </trkpt>
      <trkpt lat="47.10515" lon="2.26986">
        <ele>118</ele>
        <time>2021-08-11T13:50:19Z</time>
      </trkpt>
      <trkpt lat="47.10515" lon="2.26995">
        <ele>118</ele>
        <time>2021-08-11T13:50:19Z</time>
      </trkpt>
      <trkpt lat="47.10516" lon="2.27005">
        <ele>118</ele>
        <time>2021-08-11T13:50:19Z</time>
      </trkpt>
      <trkpt lat="47.10516" lon="2.27014">
        <ele>118</ele>
        <time>2021-08-11T13:50:19Z</time>
      </trkpt>
      <trkpt lat="47.10516" lon="2.27023">
        <ele>118</ele>
        <time>2021-08-11T13:50:19Z</time>
      </trkpt>
      <trkpt lat="47.10515" lon="2.27032">
        <ele>118</ele>
        <time>2021-08-11T13:50:19Z</time>
      </trkpt>
      <trkpt lat="47.10515" lon="2.27042">
        <ele>118</ele>
        <time>2021-08-11T13:50:19Z</time>
      </trkpt>
      <trkpt lat="47.10514" lon="2.27061">
        <ele>118</ele>
        <time>2021-08-11T13:50:19Z</time>
      </trkpt>
      <trkpt lat="47.10513" lon="2.2707">
        <ele>118</ele>
        <time>2021-08-11T13:50:19Z</time>
      </trkpt>
      <trkpt lat="47.10513" lon="2.27079">
        <ele>118</ele>
        <time>2021-08-11T13:50:19Z</time>
      </trkpt>
      <trkpt lat="47.10513" lon="2.27089">
        <ele>117</ele>
        <time>2021-08-11T13:50:19Z</time>
      </trkpt>
      <trkpt lat="47.10512" lon="2.27099">
        <ele>117</ele>
        <time>2021-08-11T13:50:19Z</time>
      </trkpt>
      <trkpt lat="47.10512" lon="2.27108">
        <ele>117</ele>
        <time>2021-08-11T13:50:19Z</time>
      </trkpt>
      <trkpt lat="47.10511" lon="2.27118">
        <ele>117</ele>
        <time>2021-08-11T13:50:19Z</time>
      </trkpt>
      <trkpt lat="47.10511" lon="2.27127">
        <ele>118</ele>
        <time>2021-08-11T13:50:19Z</time>
      </trkpt>
      <trkpt lat="47.10511" lon="2.27145">
        <ele>118</ele>
        <time>2021-08-11T13:50:19Z</time>
      </trkpt>
      <trkpt lat="47.1051" lon="2.27154">
        <ele>118</ele>
        <time>2021-08-11T13:50:19Z</time>
      </trkpt>
      <trkpt lat="47.1051" lon="2.27163">
        <ele>118</ele>
        <time>2021-08-11T13:50:19Z</time>
      </trkpt>
      <trkpt lat="47.1051" lon="2.27173">
        <ele>118</ele>
        <time>2021-08-11T13:50:19Z</time>
      </trkpt>
      <trkpt lat="47.10509" lon="2.27182">
        <ele>117</ele>
        <time>2021-08-11T13:50:19Z</time>
      </trkpt>
      <trkpt lat="47.10509" lon="2.27192">
        <ele>117</ele>
        <time>2021-08-11T13:50:19Z</time>
      </trkpt>
      <trkpt lat="47.10509" lon="2.27201">
        <ele>117</ele>
        <time>2021-08-11T13:50:19Z</time>
      </trkpt>
      <trkpt lat="47.10506" lon="2.27257">
        <ele>115</ele>
        <time>2021-08-11T13:50:19Z</time>
      </trkpt>
      <trkpt lat="47.10504" lon="2.27313">
        <ele>116</ele>
        <time>2021-08-11T13:50:19Z</time>
      </trkpt>
      <trkpt lat="47.10501" lon="2.27356">
        <ele>117</ele>
        <time>2021-08-11T13:50:19Z</time>
      </trkpt>
      <trkpt lat="47.10497" lon="2.27404">
        <ele>118</ele>
        <time>2021-08-11T13:50:19Z</time>
      </trkpt>
      <trkpt lat="47.10494" lon="2.27449">
        <ele>118</ele>
        <time>2021-08-11T13:50:19Z</time>
      </trkpt>
      <trkpt lat="47.10491" lon="2.27487">
        <ele>118</ele>
        <time>2021-08-11T13:50:19Z</time>
      </trkpt>
      <trkpt lat="47.1049" lon="2.27496">
        <ele>118</ele>
        <time>2021-08-11T13:50:19Z</time>
      </trkpt>
      <trkpt lat="47.10486" lon="2.27543">
        <ele>117</ele>
        <time>2021-08-11T13:50:19Z</time>
      </trkpt>
      <trkpt lat="47.10481" lon="2.276">
        <ele>117</ele>
        <time>2021-08-11T13:50:19Z</time>
      </trkpt>
      <trkpt lat="47.10478" lon="2.27644">
        <ele>117</ele>
        <time>2021-08-11T13:50:19Z</time>
      </trkpt>
      <trkpt lat="47.10475" lon="2.27686">
        <ele>119</ele>
        <time>2021-08-11T13:50:19Z</time>
      </trkpt>
      <trkpt lat="47.10471" lon="2.27732">
        <ele>122</ele>
        <time>2021-08-11T13:50:19Z</time>
      </trkpt>
      <trkpt lat="47.10468" lon="2.27768">
        <ele>125</ele>
        <time>2021-08-11T13:50:19Z</time>
      </trkpt>
      <trkpt lat="47.10469" lon="2.27779">
        <ele>125</ele>
        <time>2021-08-11T13:50:19Z</time>
      </trkpt>
      <trkpt lat="47.10465" lon="2.27823">
        <ele>125</ele>
        <time>2021-08-11T13:50:19Z</time>
      </trkpt>
      <trkpt lat="47.10461" lon="2.27865">
        <ele>122</ele>
        <time>2021-08-11T13:50:19Z</time>
      </trkpt>
      <trkpt lat="47.10457" lon="2.27911">
        <ele>121</ele>
        <time>2021-08-11T13:50:19Z</time>
      </trkpt>
      <trkpt lat="47.10449" lon="2.27957">
        <ele>122</ele>
        <time>2021-08-11T13:50:19Z</time>
      </trkpt>
      <trkpt lat="47.10442" lon="2.28005">
        <ele>120</ele>
        <time>2021-08-11T13:50:19Z</time>
      </trkpt>
      <trkpt lat="47.10437" lon="2.2804">
        <ele>119</ele>
        <time>2021-08-11T13:50:19Z</time>
      </trkpt>
      <trkpt lat="47.10435" lon="2.2805">
        <ele>119</ele>
        <time>2021-08-11T13:50:19Z</time>
      </trkpt>
      <trkpt lat="47.10433" lon="2.28069">
        <ele>119</ele>
        <time>2021-08-11T13:50:19Z</time>
      </trkpt>
      <trkpt lat="47.10431" lon="2.28076">
        <ele>119</ele>
        <time>2021-08-11T13:50:19Z</time>
      </trkpt>
      <trkpt lat="47.1043" lon="2.28086">
        <ele>120</ele>
        <time>2021-08-11T13:50:19Z</time>
      </trkpt>
      <trkpt lat="47.10428" lon="2.28096">
        <ele>120</ele>
        <time>2021-08-11T13:50:19Z</time>
      </trkpt>
      <trkpt lat="47.10426" lon="2.28104">
        <ele>120</ele>
        <time>2021-08-11T13:50:19Z</time>
      </trkpt>
      <trkpt lat="47.10424" lon="2.28114">
        <ele>120</ele>
        <time>2021-08-11T13:50:19Z</time>
      </trkpt>
      <trkpt lat="47.10422" lon="2.28125">
        <ele>120</ele>
        <time>2021-08-11T13:50:19Z</time>
      </trkpt>
      <trkpt lat="47.10421" lon="2.28135">
        <ele>120</ele>
        <time>2021-08-11T13:50:19Z</time>
      </trkpt>
      <trkpt lat="47.10419" lon="2.28144">
        <ele>120</ele>
        <time>2021-08-11T13:50:19Z</time>
      </trkpt>
      <trkpt lat="47.10418" lon="2.28153">
        <ele>119</ele>
        <time>2021-08-11T13:50:19Z</time>
      </trkpt>
      <trkpt lat="47.10416" lon="2.28162">
        <ele>119</ele>
        <time>2021-08-11T13:50:19Z</time>
      </trkpt>
      <trkpt lat="47.10414" lon="2.28171">
        <ele>119</ele>
        <time>2021-08-11T13:50:19Z</time>
      </trkpt>
      <trkpt lat="47.10413" lon="2.2818">
        <ele>118</ele>
        <time>2021-08-11T13:50:19Z</time>
      </trkpt>
      <trkpt lat="47.10411" lon="2.28186">
        <ele>118</ele>
        <time>2021-08-11T13:50:19Z</time>
      </trkpt>
      <trkpt lat="47.1041" lon="2.28196">
        <ele>118</ele>
        <time>2021-08-11T13:50:19Z</time>
      </trkpt>
      <trkpt lat="47.10408" lon="2.28205">
        <ele>118</ele>
        <time>2021-08-11T13:50:19Z</time>
      </trkpt>
      <trkpt lat="47.10407" lon="2.28214">
        <ele>119</ele>
        <time>2021-08-11T13:50:19Z</time>
      </trkpt>
      <trkpt lat="47.10405" lon="2.28223">
        <ele>119</ele>
        <time>2021-08-11T13:50:19Z</time>
      </trkpt>
      <trkpt lat="47.10404" lon="2.2823">
        <ele>119</ele>
        <time>2021-08-11T13:50:19Z</time>
      </trkpt>
      <trkpt lat="47.10403" lon="2.28238">
        <ele>119</ele>
        <time>2021-08-11T13:50:19Z</time>
      </trkpt>
      <trkpt lat="47.104" lon="2.28247">
        <ele>120</ele>
        <time>2021-08-11T13:50:19Z</time>
      </trkpt>
      <trkpt lat="47.10399" lon="2.28256">
        <ele>120</ele>
        <time>2021-08-11T13:50:19Z</time>
      </trkpt>
      <trkpt lat="47.10389" lon="2.28301">
        <ele>122</ele>
        <time>2021-08-11T13:50:19Z</time>
      </trkpt>
      <trkpt lat="47.10384" lon="2.28341">
        <ele>122</ele>
        <time>2021-08-11T13:50:19Z</time>
      </trkpt>
      <trkpt lat="47.10378" lon="2.28381">
        <ele>121</ele>
        <time>2021-08-11T13:50:19Z</time>
      </trkpt>
      <trkpt lat="47.10369" lon="2.28411">
        <ele>120</ele>
        <time>2021-08-11T13:50:19Z</time>
      </trkpt>
      <trkpt lat="47.10363" lon="2.28434">
        <ele>119</ele>
        <time>2021-08-11T13:50:19Z</time>
      </trkpt>
      <trkpt lat="47.1036" lon="2.28456">
        <ele>119</ele>
        <time>2021-08-11T13:50:19Z</time>
      </trkpt>
      <trkpt lat="47.10359" lon="2.28463">
        <ele>119</ele>
        <time>2021-08-11T13:50:19Z</time>
      </trkpt>
      <trkpt lat="47.10353" lon="2.28501">
        <ele>119</ele>
        <time>2021-08-11T13:50:19Z</time>
      </trkpt>
      <trkpt lat="47.10345" lon="2.28543">
        <ele>120</ele>
        <time>2021-08-11T13:50:19Z</time>
      </trkpt>
      <trkpt lat="47.10336" lon="2.28586">
        <ele>121</ele>
        <time>2021-08-11T13:50:19Z</time>
      </trkpt>
      <trkpt lat="47.10327" lon="2.28629">
        <ele>121</ele>
        <time>2021-08-11T13:50:19Z</time>
      </trkpt>
      <trkpt lat="47.1032" lon="2.28673">
        <ele>120</ele>
        <time>2021-08-11T13:50:19Z</time>
      </trkpt>
      <trkpt lat="47.10311" lon="2.28708">
        <ele>122</ele>
        <time>2021-08-11T13:50:19Z</time>
      </trkpt>
      <trkpt lat="47.10309" lon="2.28717">
        <ele>122</ele>
        <time>2021-08-11T13:50:19Z</time>
      </trkpt>
      <trkpt lat="47.10299" lon="2.28761">
        <ele>121</ele>
        <time>2021-08-11T13:50:19Z</time>
      </trkpt>
      <trkpt lat="47.10292" lon="2.28807">
        <ele>120</ele>
        <time>2021-08-11T13:50:19Z</time>
      </trkpt>
      <trkpt lat="47.10282" lon="2.28855">
        <ele>119</ele>
        <time>2021-08-11T13:50:19Z</time>
      </trkpt>
      <trkpt lat="47.10273" lon="2.28899">
        <ele>121</ele>
        <time>2021-08-11T13:50:19Z</time>
      </trkpt>
      <trkpt lat="47.10265" lon="2.28944">
        <ele>122</ele>
        <time>2021-08-11T13:50:19Z</time>
      </trkpt>
      <trkpt lat="47.10257" lon="2.28981">
        <ele>120</ele>
        <time>2021-08-11T13:50:19Z</time>
      </trkpt>
      <trkpt lat="47.10255" lon="2.2899">
        <ele>120</ele>
        <time>2021-08-11T13:50:19Z</time>
      </trkpt>
      <trkpt lat="47.10246" lon="2.29035">
        <ele>120</ele>
        <time>2021-08-11T13:50:19Z</time>
      </trkpt>
      <trkpt lat="47.10235" lon="2.29079">
        <ele>120</ele>
        <time>2021-08-11T13:50:19Z</time>
      </trkpt>
      <trkpt lat="47.10223" lon="2.29121">
        <ele>120</ele>
        <time>2021-08-11T13:50:19Z</time>
      </trkpt>
      <trkpt lat="47.10207" lon="2.29162">
        <ele>121</ele>
        <time>2021-08-11T13:50:19Z</time>
      </trkpt>
      <trkpt lat="47.10192" lon="2.29202">
        <ele>120</ele>
        <time>2021-08-11T13:50:19Z</time>
      </trkpt>
      <trkpt lat="47.1018" lon="2.29234">
        <ele>120</ele>
        <time>2021-08-11T13:50:19Z</time>
      </trkpt>
      <trkpt lat="47.10177" lon="2.29242">
        <ele>120</ele>
        <time>2021-08-11T13:50:19Z</time>
      </trkpt>
      <trkpt lat="47.1017" lon="2.29258">
        <ele>119</ele>
        <time>2021-08-11T13:50:19Z</time>
      </trkpt>
      <trkpt lat="47.10167" lon="2.29266">
        <ele>119</ele>
        <time>2021-08-11T13:50:19Z</time>
      </trkpt>
      <trkpt lat="47.10163" lon="2.29274">
        <ele>119</ele>
        <time>2021-08-11T13:50:19Z</time>
      </trkpt>
      <trkpt lat="47.1016" lon="2.29282">
        <ele>119</ele>
        <time>2021-08-11T13:50:19Z</time>
      </trkpt>
      <trkpt lat="47.10156" lon="2.2929">
        <ele>119</ele>
        <time>2021-08-11T13:50:19Z</time>
      </trkpt>
      <trkpt lat="47.10153" lon="2.29298">
        <ele>119</ele>
        <time>2021-08-11T13:50:19Z</time>
      </trkpt>
      <trkpt lat="47.1015" lon="2.29306">
        <ele>118</ele>
        <time>2021-08-11T13:50:19Z</time>
      </trkpt>
      <trkpt lat="47.10147" lon="2.29314">
        <ele>118</ele>
        <time>2021-08-11T13:50:19Z</time>
      </trkpt>
      <trkpt lat="47.10143" lon="2.29322">
        <ele>118</ele>
        <time>2021-08-11T13:50:19Z</time>
      </trkpt>
      <trkpt lat="47.1014" lon="2.2933">
        <ele>118</ele>
        <time>2021-08-11T13:50:19Z</time>
      </trkpt>
      <trkpt lat="47.10137" lon="2.29338">
        <ele>119</ele>
        <time>2021-08-11T13:50:19Z</time>
      </trkpt>
      <trkpt lat="47.10134" lon="2.29346">
        <ele>119</ele>
        <time>2021-08-11T13:50:19Z</time>
      </trkpt>
      <trkpt lat="47.1013" lon="2.29354">
        <ele>119</ele>
        <time>2021-08-11T13:50:19Z</time>
      </trkpt>
      <trkpt lat="47.10128" lon="2.29362">
        <ele>119</ele>
        <time>2021-08-11T13:50:19Z</time>
      </trkpt>
      <trkpt lat="47.10124" lon="2.2937">
        <ele>119</ele>
        <time>2021-08-11T13:50:19Z</time>
      </trkpt>
      <trkpt lat="47.10121" lon="2.29378">
        <ele>119</ele>
        <time>2021-08-11T13:50:19Z</time>
      </trkpt>
      <trkpt lat="47.10117" lon="2.29386">
        <ele>118</ele>
        <time>2021-08-11T13:50:19Z</time>
      </trkpt>
      <trkpt lat="47.10114" lon="2.29393">
        <ele>118</ele>
        <time>2021-08-11T13:50:19Z</time>
      </trkpt>
      <trkpt lat="47.1011" lon="2.29401">
        <ele>118</ele>
        <time>2021-08-11T13:50:19Z</time>
      </trkpt>
      <trkpt lat="47.10107" lon="2.29409">
        <ele>118</ele>
        <time>2021-08-11T13:50:19Z</time>
      </trkpt>
      <trkpt lat="47.10104" lon="2.29417">
        <ele>118</ele>
        <time>2021-08-11T13:50:19Z</time>
      </trkpt>
      <trkpt lat="47.10101" lon="2.29425">
        <ele>118</ele>
        <time>2021-08-11T13:50:19Z</time>
      </trkpt>
      <trkpt lat="47.10098" lon="2.29433">
        <ele>118</ele>
        <time>2021-08-11T13:50:19Z</time>
      </trkpt>
      <trkpt lat="47.10095" lon="2.29441">
        <ele>118</ele>
        <time>2021-08-11T13:50:19Z</time>
      </trkpt>
      <trkpt lat="47.10092" lon="2.29449">
        <ele>118</ele>
        <time>2021-08-11T13:50:19Z</time>
      </trkpt>
      <trkpt lat="47.10088" lon="2.29457">
        <ele>119</ele>
        <time>2021-08-11T13:50:19Z</time>
      </trkpt>
      <trkpt lat="47.10085" lon="2.29465">
        <ele>119</ele>
        <time>2021-08-11T13:50:19Z</time>
      </trkpt>
      <trkpt lat="47.10082" lon="2.29473">
        <ele>120</ele>
        <time>2021-08-11T13:50:19Z</time>
      </trkpt>
      <trkpt lat="47.10079" lon="2.29481">
        <ele>120</ele>
        <time>2021-08-11T13:50:19Z</time>
      </trkpt>
      <trkpt lat="47.10076" lon="2.29489">
        <ele>121</ele>
        <time>2021-08-11T13:50:19Z</time>
      </trkpt>
      <trkpt lat="47.10073" lon="2.29497">
        <ele>121</ele>
        <time>2021-08-11T13:50:19Z</time>
      </trkpt>
      <trkpt lat="47.1007" lon="2.29505">
        <ele>121</ele>
        <time>2021-08-11T13:50:19Z</time>
      </trkpt>
      <trkpt lat="47.10066" lon="2.29513">
        <ele>121</ele>
        <time>2021-08-11T13:50:19Z</time>
      </trkpt>
      <trkpt lat="47.10063" lon="2.29521">
        <ele>121</ele>
        <time>2021-08-11T13:50:19Z</time>
      </trkpt>
      <trkpt lat="47.10059" lon="2.29529">
        <ele>121</ele>
        <time>2021-08-11T13:50:19Z</time>
      </trkpt>
      <trkpt lat="47.10056" lon="2.29538">
        <ele>120</ele>
        <time>2021-08-11T13:50:19Z</time>
      </trkpt>
      <trkpt lat="47.10053" lon="2.29545">
        <ele>120</ele>
        <time>2021-08-11T13:50:19Z</time>
      </trkpt>
      <trkpt lat="47.1005" lon="2.29553">
        <ele>120</ele>
        <time>2021-08-11T13:50:19Z</time>
      </trkpt>
      <trkpt lat="47.10047" lon="2.29561">
        <ele>119</ele>
        <time>2021-08-11T13:50:19Z</time>
      </trkpt>
      <trkpt lat="47.10044" lon="2.29569">
        <ele>119</ele>
        <time>2021-08-11T13:50:19Z</time>
      </trkpt>
      <trkpt lat="47.1004" lon="2.29577">
        <ele>119</ele>
        <time>2021-08-11T13:50:19Z</time>
      </trkpt>
      <trkpt lat="47.10037" lon="2.29586">
        <ele>119</ele>
        <time>2021-08-11T13:50:19Z</time>
      </trkpt>
      <trkpt lat="47.10034" lon="2.29594">
        <ele>119</ele>
        <time>2021-08-11T13:50:19Z</time>
      </trkpt>
      <trkpt lat="47.10031" lon="2.29602">
        <ele>119</ele>
        <time>2021-08-11T13:50:19Z</time>
      </trkpt>
      <trkpt lat="47.10027" lon="2.2961">
        <ele>119</ele>
        <time>2021-08-11T13:50:19Z</time>
      </trkpt>
      <trkpt lat="47.10024" lon="2.29617">
        <ele>119</ele>
        <time>2021-08-11T13:50:19Z</time>
      </trkpt>
      <trkpt lat="47.10021" lon="2.29625">
        <ele>119</ele>
        <time>2021-08-11T13:50:19Z</time>
      </trkpt>
      <trkpt lat="47.10018" lon="2.29633">
        <ele>120</ele>
        <time>2021-08-11T13:50:19Z</time>
      </trkpt>
      <trkpt lat="47.10015" lon="2.29641">
        <ele>120</ele>
        <time>2021-08-11T13:50:19Z</time>
      </trkpt>
      <trkpt lat="47.10012" lon="2.29649">
        <ele>120</ele>
        <time>2021-08-11T13:50:19Z</time>
      </trkpt>
      <trkpt lat="47.10008" lon="2.29657">
        <ele>120</ele>
        <time>2021-08-11T13:50:19Z</time>
      </trkpt>
      <trkpt lat="47.10005" lon="2.29665">
        <ele>120</ele>
        <time>2021-08-11T13:50:19Z</time>
      </trkpt>
      <trkpt lat="47.10002" lon="2.29673">
        <ele>120</ele>
        <time>2021-08-11T13:50:19Z</time>
      </trkpt>
      <trkpt lat="47.09999" lon="2.29681">
        <ele>120</ele>
        <time>2021-08-11T13:50:19Z</time>
      </trkpt>
      <trkpt lat="47.09996" lon="2.29689">
        <ele>120</ele>
        <time>2021-08-11T13:50:19Z</time>
      </trkpt>
      <trkpt lat="47.09992" lon="2.29697">
        <ele>120</ele>
        <time>2021-08-11T13:50:19Z</time>
      </trkpt>
      <trkpt lat="47.09989" lon="2.29705">
        <ele>119</ele>
        <time>2021-08-11T13:50:19Z</time>
      </trkpt>
      <trkpt lat="47.09986" lon="2.29713">
        <ele>119</ele>
        <time>2021-08-11T13:50:19Z</time>
      </trkpt>
      <trkpt lat="47.09983" lon="2.29721">
        <ele>119</ele>
        <time>2021-08-11T13:50:19Z</time>
      </trkpt>
      <trkpt lat="47.0998" lon="2.29729">
        <ele>119</ele>
        <time>2021-08-11T13:50:19Z</time>
      </trkpt>
      <trkpt lat="47.09977" lon="2.29736">
        <ele>119</ele>
        <time>2021-08-11T13:50:19Z</time>
      </trkpt>
      <trkpt lat="47.09962" lon="2.29777">
        <ele>119</ele>
        <time>2021-08-11T13:50:19Z</time>
      </trkpt>
      <trkpt lat="47.09947" lon="2.29812">
        <ele>118</ele>
        <time>2021-08-11T13:50:19Z</time>
      </trkpt>
      <trkpt lat="47.09937" lon="2.29833">
        <ele>118</ele>
        <time>2021-08-11T13:50:19Z</time>
      </trkpt>
      <trkpt lat="47.09932" lon="2.29844">
        <ele>118</ele>
        <time>2021-08-11T13:50:19Z</time>
      </trkpt>
      <trkpt lat="47.09931" lon="2.29842">
        <ele>118</ele>
        <time>2021-08-11T13:50:19Z</time>
      </trkpt>
      <trkpt lat="47.09931" lon="2.29842">
        <ele>118</ele>
        <time>2021-08-11T13:50:19Z</time>
      </trkpt>
      <trkpt lat="47.09931" lon="2.29843">
        <ele>118</ele>
        <time>2021-08-11T13:50:19Z</time>
      </trkpt>
      <trkpt lat="47.0993" lon="2.29844">
        <ele>118</ele>
        <time>2021-08-11T13:50:19Z</time>
      </trkpt>
      <trkpt lat="47.0993" lon="2.29847">
        <ele>118</ele>
        <time>2021-08-11T13:50:19Z</time>
      </trkpt>
      <trkpt lat="47.09928" lon="2.29849">
        <ele>118</ele>
        <time>2021-08-11T13:50:19Z</time>
      </trkpt>
      <trkpt lat="47.09927" lon="2.29854">
        <ele>118</ele>
        <time>2021-08-11T13:50:19Z</time>
      </trkpt>
      <trkpt lat="47.09925" lon="2.29859">
        <ele>118</ele>
        <time>2021-08-11T13:50:19Z</time>
      </trkpt>
      <trkpt lat="47.09924" lon="2.29865">
        <ele>118</ele>
        <time>2021-08-11T13:50:19Z</time>
      </trkpt>
      <trkpt lat="47.09922" lon="2.29871">
        <ele>118</ele>
        <time>2021-08-11T13:50:19Z</time>
      </trkpt>
      <trkpt lat="47.09919" lon="2.29877">
        <ele>118</ele>
        <time>2021-08-11T13:50:19Z</time>
      </trkpt>
      <trkpt lat="47.09917" lon="2.29883">
        <ele>118</ele>
        <time>2021-08-11T13:50:19Z</time>
      </trkpt>
      <trkpt lat="47.09914" lon="2.29891">
        <ele>119</ele>
        <time>2021-08-11T13:50:19Z</time>
      </trkpt>
      <trkpt lat="47.09911" lon="2.29898">
        <ele>119</ele>
        <time>2021-08-11T13:50:19Z</time>
      </trkpt>
      <trkpt lat="47.09908" lon="2.29906">
        <ele>119</ele>
        <time>2021-08-11T13:50:19Z</time>
      </trkpt>
      <trkpt lat="47.09905" lon="2.29913">
        <ele>119</ele>
        <time>2021-08-11T13:50:19Z</time>
      </trkpt>
      <trkpt lat="47.09902" lon="2.29921">
        <ele>119</ele>
        <time>2021-08-11T13:50:19Z</time>
      </trkpt>
      <trkpt lat="47.09899" lon="2.29928">
        <ele>119</ele>
        <time>2021-08-11T13:50:19Z</time>
      </trkpt>
      <trkpt lat="47.09896" lon="2.29937">
        <ele>119</ele>
        <time>2021-08-11T13:50:19Z</time>
      </trkpt>
      <trkpt lat="47.09894" lon="2.29945">
        <ele>119</ele>
        <time>2021-08-11T13:50:19Z</time>
      </trkpt>
      <trkpt lat="47.0989" lon="2.29952">
        <ele>119</ele>
        <time>2021-08-11T13:50:19Z</time>
      </trkpt>
      <trkpt lat="47.09887" lon="2.2996">
        <ele>120</ele>
        <time>2021-08-11T13:50:19Z</time>
      </trkpt>
      <trkpt lat="47.09884" lon="2.29968">
        <ele>120</ele>
        <time>2021-08-11T13:50:19Z</time>
      </trkpt>
      <trkpt lat="47.09881" lon="2.29976">
        <ele>120</ele>
        <time>2021-08-11T13:50:19Z</time>
      </trkpt>
      <trkpt lat="47.09878" lon="2.29984">
        <ele>120</ele>
        <time>2021-08-11T13:50:19Z</time>
      </trkpt>
      <trkpt lat="47.09875" lon="2.29992">
        <ele>120</ele>
        <time>2021-08-11T13:50:19Z</time>
      </trkpt>
      <trkpt lat="47.09872" lon="2.3">
        <ele>120</ele>
        <time>2021-08-11T13:50:19Z</time>
      </trkpt>
      <trkpt lat="47.09869" lon="2.30008">
        <ele>120</ele>
        <time>2021-08-11T13:50:19Z</time>
      </trkpt>
      <trkpt lat="47.09866" lon="2.30016">
        <ele>120</ele>
        <time>2021-08-11T13:50:19Z</time>
      </trkpt>
      <trkpt lat="47.09862" lon="2.30024">
        <ele>120</ele>
        <time>2021-08-11T13:50:19Z</time>
      </trkpt>
      <trkpt lat="47.09859" lon="2.30032">
        <ele>120</ele>
        <time>2021-08-11T13:50:19Z</time>
      </trkpt>
      <trkpt lat="47.09856" lon="2.30039">
        <ele>120</ele>
        <time>2021-08-11T13:50:19Z</time>
      </trkpt>
      <trkpt lat="47.09853" lon="2.30048">
        <ele>120</ele>
        <time>2021-08-11T13:50:19Z</time>
      </trkpt>
      <trkpt lat="47.09849" lon="2.30056">
        <ele>120</ele>
        <time>2021-08-11T13:50:19Z</time>
      </trkpt>
      <trkpt lat="47.09846" lon="2.30064">
        <ele>119</ele>
        <time>2021-08-11T13:50:19Z</time>
      </trkpt>
      <trkpt lat="47.09843" lon="2.30072">
        <ele>119</ele>
        <time>2021-08-11T13:50:19Z</time>
      </trkpt>
      <trkpt lat="47.09839" lon="2.3008">
        <ele>119</ele>
        <time>2021-08-11T13:50:19Z</time>
      </trkpt>
      <trkpt lat="47.09836" lon="2.30087">
        <ele>119</ele>
        <time>2021-08-11T13:50:19Z</time>
      </trkpt>
      <trkpt lat="47.09833" lon="2.30095">
        <ele>120</ele>
        <time>2021-08-11T13:50:19Z</time>
      </trkpt>
      <trkpt lat="47.0983" lon="2.30103">
        <ele>120</ele>
        <time>2021-08-11T13:50:19Z</time>
      </trkpt>
      <trkpt lat="47.09826" lon="2.30111">
        <ele>120</ele>
        <time>2021-08-11T13:50:19Z</time>
      </trkpt>
      <trkpt lat="47.09823" lon="2.30119">
        <ele>120</ele>
        <time>2021-08-11T13:50:19Z</time>
      </trkpt>
      <trkpt lat="47.0982" lon="2.30126">
        <ele>120</ele>
        <time>2021-08-11T13:50:19Z</time>
      </trkpt>
      <trkpt lat="47.09817" lon="2.30135">
        <ele>120</ele>
        <time>2021-08-11T13:50:19Z</time>
      </trkpt>
      <trkpt lat="47.09813" lon="2.30143">
        <ele>121</ele>
        <time>2021-08-11T13:50:19Z</time>
      </trkpt>
      <trkpt lat="47.0981" lon="2.30151">
        <ele>121</ele>
        <time>2021-08-11T13:50:19Z</time>
      </trkpt>
      <trkpt lat="47.09807" lon="2.30159">
        <ele>121</ele>
        <time>2021-08-11T13:50:19Z</time>
      </trkpt>
      <trkpt lat="47.09804" lon="2.30167">
        <ele>121</ele>
        <time>2021-08-11T13:50:19Z</time>
      </trkpt>
      <trkpt lat="47.09801" lon="2.30176">
        <ele>121</ele>
        <time>2021-08-11T13:50:19Z</time>
      </trkpt>
      <trkpt lat="47.09797" lon="2.30183">
        <ele>121</ele>
        <time>2021-08-11T13:50:19Z</time>
      </trkpt>
      <trkpt lat="47.09794" lon="2.30192">
        <ele>121</ele>
        <time>2021-08-11T13:50:19Z</time>
      </trkpt>
      <trkpt lat="47.09791" lon="2.302">
        <ele>121</ele>
        <time>2021-08-11T13:50:19Z</time>
      </trkpt>
      <trkpt lat="47.09788" lon="2.30208">
        <ele>121</ele>
        <time>2021-08-11T13:50:19Z</time>
      </trkpt>
      <trkpt lat="47.09785" lon="2.30215">
        <ele>121</ele>
        <time>2021-08-11T13:50:19Z</time>
      </trkpt>
      <trkpt lat="47.09781" lon="2.30223">
        <ele>120</ele>
        <time>2021-08-11T13:50:19Z</time>
      </trkpt>
      <trkpt lat="47.09778" lon="2.30231">
        <ele>120</ele>
        <time>2021-08-11T13:50:19Z</time>
      </trkpt>
      <trkpt lat="47.09775" lon="2.30239">
        <ele>121</ele>
        <time>2021-08-11T13:50:19Z</time>
      </trkpt>
      <trkpt lat="47.09771" lon="2.30247">
        <ele>121</ele>
        <time>2021-08-11T13:50:19Z</time>
      </trkpt>
      <trkpt lat="47.09768" lon="2.30255">
        <ele>121</ele>
        <time>2021-08-11T13:50:19Z</time>
      </trkpt>
      <trkpt lat="47.09752" lon="2.30294">
        <ele>120</ele>
        <time>2021-08-11T13:50:19Z</time>
      </trkpt>
      <trkpt lat="47.09735" lon="2.30334">
        <ele>120</ele>
        <time>2021-08-11T13:50:19Z</time>
      </trkpt>
      <trkpt lat="47.09719" lon="2.30375">
        <ele>120</ele>
        <time>2021-08-11T13:50:19Z</time>
      </trkpt>
      <trkpt lat="47.09704" lon="2.30416">
        <ele>119</ele>
        <time>2021-08-11T13:50:19Z</time>
      </trkpt>
      <trkpt lat="47.09688" lon="2.30456">
        <ele>118</ele>
        <time>2021-08-11T13:50:19Z</time>
      </trkpt>
      <trkpt lat="47.09674" lon="2.30488">
        <ele>118</ele>
        <time>2021-08-11T13:50:19Z</time>
      </trkpt>
      <trkpt lat="47.09671" lon="2.30496">
        <ele>118</ele>
        <time>2021-08-11T13:50:19Z</time>
      </trkpt>
      <trkpt lat="47.09654" lon="2.30537">
        <ele>119</ele>
        <time>2021-08-11T13:50:19Z</time>
      </trkpt>
      <trkpt lat="47.09639" lon="2.30576">
        <ele>119</ele>
        <time>2021-08-11T13:50:19Z</time>
      </trkpt>
      <trkpt lat="47.09622" lon="2.30616">
        <ele>119</ele>
        <time>2021-08-11T13:50:19Z</time>
      </trkpt>
      <trkpt lat="47.09606" lon="2.30655">
        <ele>120</ele>
        <time>2021-08-11T13:50:19Z</time>
      </trkpt>
      <trkpt lat="47.09587" lon="2.30704">
        <ele>121</ele>
        <time>2021-08-11T13:50:19Z</time>
      </trkpt>
      <trkpt lat="47.09571" lon="2.30744">
        <ele>120</ele>
        <time>2021-08-11T13:50:19Z</time>
      </trkpt>
      <trkpt lat="47.09567" lon="2.30752">
        <ele>120</ele>
        <time>2021-08-11T13:50:19Z</time>
      </trkpt>
      <trkpt lat="47.09548" lon="2.30799">
        <ele>119</ele>
        <time>2021-08-11T13:50:19Z</time>
      </trkpt>
      <trkpt lat="47.09532" lon="2.30839">
        <ele>120</ele>
        <time>2021-08-11T13:50:19Z</time>
      </trkpt>
      <trkpt lat="47.09513" lon="2.30887">
        <ele>120</ele>
        <time>2021-08-11T13:50:19Z</time>
      </trkpt>
      <trkpt lat="47.095" lon="2.30921">
        <ele>121</ele>
        <time>2021-08-11T13:50:19Z</time>
      </trkpt>
      <trkpt lat="47.09485" lon="2.30932">
        <ele>121</ele>
        <time>2021-08-11T13:50:19Z</time>
      </trkpt>
      <trkpt lat="47.09476" lon="2.30935">
        <ele>121</ele>
        <time>2021-08-11T13:50:19Z</time>
      </trkpt>
      <trkpt lat="47.09473" lon="2.30939">
        <ele>121</ele>
        <time>2021-08-11T13:50:19Z</time>
      </trkpt>
      <trkpt lat="47.09458" lon="2.30969">
        <ele>122</ele>
        <time>2021-08-11T13:50:19Z</time>
      </trkpt>
      <trkpt lat="47.09436" lon="2.3101">
        <ele>122</ele>
        <time>2021-08-11T13:50:19Z</time>
      </trkpt>
      <trkpt lat="47.09411" lon="2.3105">
        <ele>120</ele>
        <time>2021-08-11T13:50:19Z</time>
      </trkpt>
      <trkpt lat="47.09384" lon="2.31088">
        <ele>120</ele>
        <time>2021-08-11T13:50:19Z</time>
      </trkpt>
      <trkpt lat="47.09356" lon="2.31127">
        <ele>120</ele>
        <time>2021-08-11T13:50:19Z</time>
      </trkpt>
      <trkpt lat="47.09338" lon="2.31152">
        <ele>120</ele>
        <time>2021-08-11T13:50:19Z</time>
      </trkpt>
      <trkpt lat="47.09334" lon="2.31159">
        <ele>120</ele>
        <time>2021-08-11T13:50:19Z</time>
      </trkpt>
      <trkpt lat="47.09312" lon="2.3119">
        <ele>121</ele>
        <time>2021-08-11T13:50:19Z</time>
      </trkpt>
      <trkpt lat="47.09289" lon="2.31221">
        <ele>120</ele>
        <time>2021-08-11T13:50:19Z</time>
      </trkpt>
      <trkpt lat="47.09267" lon="2.31252">
        <ele>119</ele>
        <time>2021-08-11T13:50:19Z</time>
      </trkpt>
      <trkpt lat="47.0924" lon="2.31267">
        <ele>120</ele>
        <time>2021-08-11T13:50:19Z</time>
      </trkpt>
      <trkpt lat="47.09218" lon="2.31295">
        <ele>121</ele>
        <time>2021-08-11T13:50:19Z</time>
      </trkpt>
      <trkpt lat="47.092" lon="2.3132">
        <ele>122</ele>
        <time>2021-08-11T13:50:19Z</time>
      </trkpt>
      <trkpt lat="47.09196" lon="2.31326">
        <ele>122</ele>
        <time>2021-08-11T13:50:19Z</time>
      </trkpt>
      <trkpt lat="47.09187" lon="2.31338">
        <ele>122</ele>
        <time>2021-08-11T13:50:19Z</time>
      </trkpt>
      <trkpt lat="47.09182" lon="2.31345">
        <ele>122</ele>
        <time>2021-08-11T13:50:19Z</time>
      </trkpt>
      <trkpt lat="47.09178" lon="2.31351">
        <ele>122</ele>
        <time>2021-08-11T13:50:19Z</time>
      </trkpt>
      <trkpt lat="47.09173" lon="2.31357">
        <ele>122</ele>
        <time>2021-08-11T13:50:19Z</time>
      </trkpt>
      <trkpt lat="47.09169" lon="2.31363">
        <ele>122</ele>
        <time>2021-08-11T13:50:19Z</time>
      </trkpt>
      <trkpt lat="47.09164" lon="2.31369">
        <ele>123</ele>
        <time>2021-08-11T13:50:19Z</time>
      </trkpt>
      <trkpt lat="47.09159" lon="2.31375">
        <ele>123</ele>
        <time>2021-08-11T13:50:19Z</time>
      </trkpt>
      <trkpt lat="47.09155" lon="2.31381">
        <ele>123</ele>
        <time>2021-08-11T13:50:19Z</time>
      </trkpt>
      <trkpt lat="47.09151" lon="2.31387">
        <ele>123</ele>
        <time>2021-08-11T13:50:19Z</time>
      </trkpt>
      <trkpt lat="47.09146" lon="2.31393">
        <ele>123</ele>
        <time>2021-08-11T13:50:19Z</time>
      </trkpt>
      <trkpt lat="47.09142" lon="2.31399">
        <ele>123</ele>
        <time>2021-08-11T13:50:19Z</time>
      </trkpt>
      <trkpt lat="47.09138" lon="2.31406">
        <ele>122</ele>
        <time>2021-08-11T13:50:19Z</time>
      </trkpt>
      <trkpt lat="47.09133" lon="2.31412">
        <ele>122</ele>
        <time>2021-08-11T13:50:19Z</time>
      </trkpt>
      <trkpt lat="47.09128" lon="2.31419">
        <ele>122</ele>
        <time>2021-08-11T13:50:19Z</time>
      </trkpt>
      <trkpt lat="47.09124" lon="2.31425">
        <ele>122</ele>
        <time>2021-08-11T13:50:19Z</time>
      </trkpt>
      <trkpt lat="47.09119" lon="2.3143">
        <ele>122</ele>
        <time>2021-08-11T13:50:19Z</time>
      </trkpt>
      <trkpt lat="47.09115" lon="2.31437">
        <ele>122</ele>
        <time>2021-08-11T13:50:19Z</time>
      </trkpt>
      <trkpt lat="47.09111" lon="2.31442">
        <ele>122</ele>
        <time>2021-08-11T13:50:19Z</time>
      </trkpt>
      <trkpt lat="47.09107" lon="2.31447">
        <ele>122</ele>
        <time>2021-08-11T13:50:19Z</time>
      </trkpt>
      <trkpt lat="47.09103" lon="2.31453">
        <ele>122</ele>
        <time>2021-08-11T13:50:19Z</time>
      </trkpt>
      <trkpt lat="47.09099" lon="2.31459">
        <ele>122</ele>
        <time>2021-08-11T13:50:19Z</time>
      </trkpt>
      <trkpt lat="47.09097" lon="2.31465">
        <ele>122</ele>
        <time>2021-08-11T13:50:19Z</time>
      </trkpt>
      <trkpt lat="47.09095" lon="2.31472">
        <ele>122</ele>
        <time>2021-08-11T13:50:19Z</time>
      </trkpt>
      <trkpt lat="47.09095" lon="2.3148">
        <ele>123</ele>
        <time>2021-08-11T13:50:19Z</time>
      </trkpt>
      <trkpt lat="47.09095" lon="2.31487">
        <ele>123</ele>
        <time>2021-08-11T13:50:19Z</time>
      </trkpt>
      <trkpt lat="47.09095" lon="2.31494">
        <ele>123</ele>
        <time>2021-08-11T13:50:19Z</time>
      </trkpt>
      <trkpt lat="47.09094" lon="2.31499">
        <ele>123</ele>
        <time>2021-08-11T13:50:19Z</time>
      </trkpt>
      <trkpt lat="47.09092" lon="2.31505">
        <ele>123</ele>
        <time>2021-08-11T13:50:19Z</time>
      </trkpt>
      <trkpt lat="47.0909" lon="2.3151">
        <ele>123</ele>
        <time>2021-08-11T13:50:19Z</time>
      </trkpt>
      <trkpt lat="47.09087" lon="2.31513">
        <ele>123</ele>
        <time>2021-08-11T13:50:19Z</time>
      </trkpt>
      <trkpt lat="47.09085" lon="2.31516">
        <ele>123</ele>
        <time>2021-08-11T13:50:19Z</time>
      </trkpt>
      <trkpt lat="47.09082" lon="2.31519">
        <ele>123</ele>
        <time>2021-08-11T13:50:19Z</time>
      </trkpt>
      <trkpt lat="47.09079" lon="2.31522">
        <ele>123</ele>
        <time>2021-08-11T13:50:19Z</time>
      </trkpt>
      <trkpt lat="47.09076" lon="2.31525">
        <ele>123</ele>
        <time>2021-08-11T13:50:19Z</time>
      </trkpt>
      <trkpt lat="47.09071" lon="2.31527">
        <ele>123</ele>
        <time>2021-08-11T13:50:19Z</time>
      </trkpt>
      <trkpt lat="47.09068" lon="2.31531">
        <ele>123</ele>
        <time>2021-08-11T13:50:19Z</time>
      </trkpt>
      <trkpt lat="47.09064" lon="2.31535">
        <ele>123</ele>
        <time>2021-08-11T13:50:19Z</time>
      </trkpt>
      <trkpt lat="47.09061" lon="2.31539">
        <ele>123</ele>
        <time>2021-08-11T13:50:19Z</time>
      </trkpt>
      <trkpt lat="47.09057" lon="2.31544">
        <ele>123</ele>
        <time>2021-08-11T13:50:19Z</time>
      </trkpt>
      <trkpt lat="47.09053" lon="2.31549">
        <ele>123</ele>
        <time>2021-08-11T13:50:19Z</time>
      </trkpt>
      <trkpt lat="47.09049" lon="2.31554">
        <ele>123</ele>
        <time>2021-08-11T13:50:19Z</time>
      </trkpt>
      <trkpt lat="47.09045" lon="2.31561">
        <ele>122</ele>
        <time>2021-08-11T13:50:19Z</time>
      </trkpt>
      <trkpt lat="47.09041" lon="2.31566">
        <ele>122</ele>
        <time>2021-08-11T13:50:19Z</time>
      </trkpt>
      <trkpt lat="47.09037" lon="2.31572">
        <ele>122</ele>
        <time>2021-08-11T13:50:19Z</time>
      </trkpt>
      <trkpt lat="47.09032" lon="2.31578">
        <ele>122</ele>
        <time>2021-08-11T13:50:19Z</time>
      </trkpt>
      <trkpt lat="47.09028" lon="2.31584">
        <ele>122</ele>
        <time>2021-08-11T13:50:19Z</time>
      </trkpt>
      <trkpt lat="47.09023" lon="2.3159">
        <ele>123</ele>
        <time>2021-08-11T13:50:19Z</time>
      </trkpt>
      <trkpt lat="47.09019" lon="2.31596">
        <ele>123</ele>
        <time>2021-08-11T13:50:19Z</time>
      </trkpt>
      <trkpt lat="47.09015" lon="2.31603">
        <ele>123</ele>
        <time>2021-08-11T13:50:19Z</time>
      </trkpt>
      <trkpt lat="47.0901" lon="2.3161">
        <ele>123</ele>
        <time>2021-08-11T13:50:19Z</time>
      </trkpt>
      <trkpt lat="47.09005" lon="2.31617">
        <ele>122</ele>
        <time>2021-08-11T13:50:19Z</time>
      </trkpt>
      <trkpt lat="47.09" lon="2.31623">
        <ele>122</ele>
        <time>2021-08-11T13:50:19Z</time>
      </trkpt>
      <trkpt lat="47.08995" lon="2.31629">
        <ele>123</ele>
        <time>2021-08-11T13:50:19Z</time>
      </trkpt>
      <trkpt lat="47.08991" lon="2.31636">
        <ele>123</ele>
        <time>2021-08-11T13:50:19Z</time>
      </trkpt>
      <trkpt lat="47.08986" lon="2.31641">
        <ele>123</ele>
        <time>2021-08-11T13:50:19Z</time>
      </trkpt>
      <trkpt lat="47.08982" lon="2.31647">
        <ele>124</ele>
        <time>2021-08-11T13:50:19Z</time>
      </trkpt>
      <trkpt lat="47.08977" lon="2.31653">
        <ele>124</ele>
        <time>2021-08-11T13:50:19Z</time>
      </trkpt>
      <trkpt lat="47.08972" lon="2.31659">
        <ele>124</ele>
        <time>2021-08-11T13:50:19Z</time>
      </trkpt>
      <trkpt lat="47.08968" lon="2.31665">
        <ele>124</ele>
        <time>2021-08-11T13:50:19Z</time>
      </trkpt>
      <trkpt lat="47.08963" lon="2.31672">
        <ele>124</ele>
        <time>2021-08-11T13:50:19Z</time>
      </trkpt>
      <trkpt lat="47.08958" lon="2.31679">
        <ele>124</ele>
        <time>2021-08-11T13:50:19Z</time>
      </trkpt>
      <trkpt lat="47.08935" lon="2.3171">
        <ele>124</ele>
        <time>2021-08-11T13:50:19Z</time>
      </trkpt>
      <trkpt lat="47.08911" lon="2.31741">
        <ele>123</ele>
        <time>2021-08-11T13:50:19Z</time>
      </trkpt>
      <trkpt lat="47.08889" lon="2.31775">
        <ele>123</ele>
        <time>2021-08-11T13:50:19Z</time>
      </trkpt>
      <trkpt lat="47.08868" lon="2.31811">
        <ele>122</ele>
        <time>2021-08-11T13:50:19Z</time>
      </trkpt>
      <trkpt lat="47.08849" lon="2.3185">
        <ele>123</ele>
        <time>2021-08-11T13:50:19Z</time>
      </trkpt>
      <trkpt lat="47.08837" lon="2.31883">
        <ele>122</ele>
        <time>2021-08-11T13:50:19Z</time>
      </trkpt>
      <trkpt lat="47.08834" lon="2.31891">
        <ele>122</ele>
        <time>2021-08-11T13:50:19Z</time>
      </trkpt>
      <trkpt lat="47.08822" lon="2.31934">
        <ele>121</ele>
        <time>2021-08-11T13:50:19Z</time>
      </trkpt>
      <trkpt lat="47.08811" lon="2.31976">
        <ele>123</ele>
        <time>2021-08-11T13:50:19Z</time>
      </trkpt>
      <trkpt lat="47.08801" lon="2.32018">
        <ele>122</ele>
        <time>2021-08-11T13:50:19Z</time>
      </trkpt>
      <trkpt lat="47.08792" lon="2.32061">
        <ele>121</ele>
        <time>2021-08-11T13:50:19Z</time>
      </trkpt>
      <trkpt lat="47.08783" lon="2.32105">
        <ele>120</ele>
        <time>2021-08-11T13:50:19Z</time>
      </trkpt>
      <trkpt lat="47.08774" lon="2.3214">
        <ele>121</ele>
        <time>2021-08-11T13:50:19Z</time>
      </trkpt>
      <trkpt lat="47.08772" lon="2.3215">
        <ele>121</ele>
        <time>2021-08-11T13:50:19Z</time>
      </trkpt>
      <trkpt lat="47.08763" lon="2.32193">
        <ele>120</ele>
        <time>2021-08-11T13:50:19Z</time>
      </trkpt>
      <trkpt lat="47.08752" lon="2.32238">
        <ele>120</ele>
        <time>2021-08-11T13:50:19Z</time>
      </trkpt>
      <trkpt lat="47.08743" lon="2.32279">
        <ele>121</ele>
        <time>2021-08-11T13:50:19Z</time>
      </trkpt>
      <trkpt lat="47.08733" lon="2.3232">
        <ele>120</ele>
        <time>2021-08-11T13:50:19Z</time>
      </trkpt>
      <trkpt lat="47.08723" lon="2.32364">
        <ele>120</ele>
        <time>2021-08-11T13:50:19Z</time>
      </trkpt>
      <trkpt lat="47.08715" lon="2.32399">
        <ele>121</ele>
        <time>2021-08-11T13:50:19Z</time>
      </trkpt>
      <trkpt lat="47.08713" lon="2.32408">
        <ele>121</ele>
        <time>2021-08-11T13:50:19Z</time>
      </trkpt>
      <trkpt lat="47.0871" lon="2.32416">
        <ele>121</ele>
        <time>2021-08-11T13:50:19Z</time>
      </trkpt>
      <trkpt lat="47.08708" lon="2.32424">
        <ele>120</ele>
        <time>2021-08-11T13:50:19Z</time>
      </trkpt>
      <trkpt lat="47.08706" lon="2.32433">
        <ele>120</ele>
        <time>2021-08-11T13:50:19Z</time>
      </trkpt>
      <trkpt lat="47.08703" lon="2.32441">
        <ele>120</ele>
        <time>2021-08-11T13:50:19Z</time>
      </trkpt>
      <trkpt lat="47.08702" lon="2.3245">
        <ele>120</ele>
        <time>2021-08-11T13:50:19Z</time>
      </trkpt>
      <trkpt lat="47.087" lon="2.32458">
        <ele>120</ele>
        <time>2021-08-11T13:50:19Z</time>
      </trkpt>
      <trkpt lat="47.08697" lon="2.32467">
        <ele>120</ele>
        <time>2021-08-11T13:50:19Z</time>
      </trkpt>
      <trkpt lat="47.08695" lon="2.32476">
        <ele>120</ele>
        <time>2021-08-11T13:50:19Z</time>
      </trkpt>
      <trkpt lat="47.08693" lon="2.32484">
        <ele>119</ele>
        <time>2021-08-11T13:50:19Z</time>
      </trkpt>
      <trkpt lat="47.08691" lon="2.32493">
        <ele>119</ele>
        <time>2021-08-11T13:50:19Z</time>
      </trkpt>
      <trkpt lat="47.08689" lon="2.32502">
        <ele>119</ele>
        <time>2021-08-11T13:50:19Z</time>
      </trkpt>
      <trkpt lat="47.08686" lon="2.32511">
        <ele>119</ele>
        <time>2021-08-11T13:50:19Z</time>
      </trkpt>
      <trkpt lat="47.08684" lon="2.32519">
        <ele>119</ele>
        <time>2021-08-11T13:50:19Z</time>
      </trkpt>
      <trkpt lat="47.08682" lon="2.32528">
        <ele>119</ele>
        <time>2021-08-11T13:50:19Z</time>
      </trkpt>
      <trkpt lat="47.0868" lon="2.32537">
        <ele>120</ele>
        <time>2021-08-11T13:50:19Z</time>
      </trkpt>
      <trkpt lat="47.08678" lon="2.32546">
        <ele>120</ele>
        <time>2021-08-11T13:50:19Z</time>
      </trkpt>
      <trkpt lat="47.08676" lon="2.32555">
        <ele>120</ele>
        <time>2021-08-11T13:50:19Z</time>
      </trkpt>
      <trkpt lat="47.08674" lon="2.32563">
        <ele>120</ele>
        <time>2021-08-11T13:50:19Z</time>
      </trkpt>
      <trkpt lat="47.08671" lon="2.32572">
        <ele>120</ele>
        <time>2021-08-11T13:50:19Z</time>
      </trkpt>
      <trkpt lat="47.0867" lon="2.3258">
        <ele>120</ele>
        <time>2021-08-11T13:50:19Z</time>
      </trkpt>
      <trkpt lat="47.08667" lon="2.32589">
        <ele>119</ele>
        <time>2021-08-11T13:50:19Z</time>
      </trkpt>
      <trkpt lat="47.08666" lon="2.32598">
        <ele>119</ele>
        <time>2021-08-11T13:50:19Z</time>
      </trkpt>
      <trkpt lat="47.08663" lon="2.32607">
        <ele>119</ele>
        <time>2021-08-11T13:50:19Z</time>
      </trkpt>
      <trkpt lat="47.08661" lon="2.32615">
        <ele>118</ele>
        <time>2021-08-11T13:50:19Z</time>
      </trkpt>
      <trkpt lat="47.08659" lon="2.32624">
        <ele>118</ele>
        <time>2021-08-11T13:50:19Z</time>
      </trkpt>
      <trkpt lat="47.08657" lon="2.32633">
        <ele>118</ele>
        <time>2021-08-11T13:50:19Z</time>
      </trkpt>
      <trkpt lat="47.08655" lon="2.32641">
        <ele>118</ele>
        <time>2021-08-11T13:50:19Z</time>
      </trkpt>
      <trkpt lat="47.08653" lon="2.3265">
        <ele>118</ele>
        <time>2021-08-11T13:50:19Z</time>
      </trkpt>
      <trkpt lat="47.08651" lon="2.32659">
        <ele>118</ele>
        <time>2021-08-11T13:50:19Z</time>
      </trkpt>
      <trkpt lat="47.08649" lon="2.32668">
        <ele>118</ele>
        <time>2021-08-11T13:50:19Z</time>
      </trkpt>
      <trkpt lat="47.08647" lon="2.32677">
        <ele>119</ele>
        <time>2021-08-11T13:50:19Z</time>
      </trkpt>
      <trkpt lat="47.08645" lon="2.32686">
        <ele>119</ele>
        <time>2021-08-11T13:50:19Z</time>
      </trkpt>
      <trkpt lat="47.08643" lon="2.32695">
        <ele>119</ele>
        <time>2021-08-11T13:50:19Z</time>
      </trkpt>
      <trkpt lat="47.08641" lon="2.32703">
        <ele>119</ele>
        <time>2021-08-11T13:50:19Z</time>
      </trkpt>
      <trkpt lat="47.08638" lon="2.32711">
        <ele>120</ele>
        <time>2021-08-11T13:50:19Z</time>
      </trkpt>
      <trkpt lat="47.08636" lon="2.3272">
        <ele>120</ele>
        <time>2021-08-11T13:50:19Z</time>
      </trkpt>
      <trkpt lat="47.08634" lon="2.32729">
        <ele>120</ele>
        <time>2021-08-11T13:50:19Z</time>
      </trkpt>
      <trkpt lat="47.08632" lon="2.32738">
        <ele>120</ele>
        <time>2021-08-11T13:50:19Z</time>
      </trkpt>
      <trkpt lat="47.0863" lon="2.32747">
        <ele>120</ele>
        <time>2021-08-11T13:50:19Z</time>
      </trkpt>
      <trkpt lat="47.08629" lon="2.32756">
        <ele>121</ele>
        <time>2021-08-11T13:50:19Z</time>
      </trkpt>
      <trkpt lat="47.08627" lon="2.32764">
        <ele>121</ele>
        <time>2021-08-11T13:50:19Z</time>
      </trkpt>
      <trkpt lat="47.08625" lon="2.32773">
        <ele>121</ele>
        <time>2021-08-11T13:50:19Z</time>
      </trkpt>
      <trkpt lat="47.08623" lon="2.32782">
        <ele>122</ele>
        <time>2021-08-11T13:50:19Z</time>
      </trkpt>
      <trkpt lat="47.0862" lon="2.3279">
        <ele>122</ele>
        <time>2021-08-11T13:50:19Z</time>
      </trkpt>
      <trkpt lat="47.08619" lon="2.32797">
        <ele>122</ele>
        <time>2021-08-11T13:50:19Z</time>
      </trkpt>
      <trkpt lat="47.08618" lon="2.32803">
        <ele>123</ele>
        <time>2021-08-11T13:50:19Z</time>
      </trkpt>
      <trkpt lat="47.08617" lon="2.32808">
        <ele>123</ele>
        <time>2021-08-11T13:50:19Z</time>
      </trkpt>
      <trkpt lat="47.08615" lon="2.32813">
        <ele>123</ele>
        <time>2021-08-11T13:50:19Z</time>
      </trkpt>
      <trkpt lat="47.08614" lon="2.3282">
        <ele>123</ele>
        <time>2021-08-11T13:50:19Z</time>
      </trkpt>
      <trkpt lat="47.08612" lon="2.32827">
        <ele>123</ele>
        <time>2021-08-11T13:50:19Z</time>
      </trkpt>
      <trkpt lat="47.0861" lon="2.32833">
        <ele>123</ele>
        <time>2021-08-11T13:50:19Z</time>
      </trkpt>
      <trkpt lat="47.08608" lon="2.32841">
        <ele>123</ele>
        <time>2021-08-11T13:50:19Z</time>
      </trkpt>
      <trkpt lat="47.08606" lon="2.32849">
        <ele>123</ele>
        <time>2021-08-11T13:50:19Z</time>
      </trkpt>
      <trkpt lat="47.08604" lon="2.32857">
        <ele>123</ele>
        <time>2021-08-11T13:50:19Z</time>
      </trkpt>
      <trkpt lat="47.08602" lon="2.32865">
        <ele>123</ele>
        <time>2021-08-11T13:50:19Z</time>
      </trkpt>
      <trkpt lat="47.086" lon="2.32874">
        <ele>123</ele>
        <time>2021-08-11T13:50:19Z</time>
      </trkpt>
      <trkpt lat="47.08598" lon="2.32882">
        <ele>123</ele>
        <time>2021-08-11T13:50:19Z</time>
      </trkpt>
      <trkpt lat="47.08596" lon="2.3289">
        <ele>123</ele>
        <time>2021-08-11T13:50:19Z</time>
      </trkpt>
      <trkpt lat="47.08594" lon="2.32898">
        <ele>123</ele>
        <time>2021-08-11T13:50:19Z</time>
      </trkpt>
      <trkpt lat="47.08592" lon="2.32907">
        <ele>123</ele>
        <time>2021-08-11T13:50:19Z</time>
      </trkpt>
      <trkpt lat="47.0859" lon="2.32915">
        <ele>122</ele>
        <time>2021-08-11T13:50:19Z</time>
      </trkpt>
      <trkpt lat="47.0858" lon="2.32959">
        <ele>121</ele>
        <time>2021-08-11T13:50:19Z</time>
      </trkpt>
      <trkpt lat="47.08569" lon="2.33002">
        <ele>122</ele>
        <time>2021-08-11T13:50:19Z</time>
      </trkpt>
      <trkpt lat="47.08559" lon="2.33046">
        <ele>122</ele>
        <time>2021-08-11T13:50:19Z</time>
      </trkpt>
      <trkpt lat="47.08549" lon="2.3309">
        <ele>122</ele>
        <time>2021-08-11T13:50:19Z</time>
      </trkpt>
      <trkpt lat="47.08538" lon="2.33133">
        <ele>121</ele>
        <time>2021-08-11T13:50:19Z</time>
      </trkpt>
      <trkpt lat="47.08529" lon="2.33168">
        <ele>122</ele>
        <time>2021-08-11T13:50:19Z</time>
      </trkpt>
      <trkpt lat="47.08528" lon="2.33177">
        <ele>121</ele>
        <time>2021-08-11T13:50:19Z</time>
      </trkpt>
      <trkpt lat="47.08518" lon="2.3322">
        <ele>121</ele>
        <time>2021-08-11T13:50:19Z</time>
      </trkpt>
      <trkpt lat="47.08508" lon="2.33264">
        <ele>121</ele>
        <time>2021-08-11T13:50:19Z</time>
      </trkpt>
      <trkpt lat="47.08497" lon="2.33308">
        <ele>122</ele>
        <time>2021-08-11T13:50:19Z</time>
      </trkpt>
      <trkpt lat="47.08487" lon="2.33353">
        <ele>122</ele>
        <time>2021-08-11T13:50:19Z</time>
      </trkpt>
      <trkpt lat="47.08478" lon="2.33397">
        <ele>121</ele>
        <time>2021-08-11T13:50:19Z</time>
      </trkpt>
      <trkpt lat="47.08469" lon="2.33432">
        <ele>122</ele>
        <time>2021-08-11T13:50:19Z</time>
      </trkpt>
      <trkpt lat="47.08467" lon="2.33441">
        <ele>122</ele>
        <time>2021-08-11T13:50:19Z</time>
      </trkpt>
      <trkpt lat="47.08458" lon="2.33486">
        <ele>122</ele>
        <time>2021-08-11T13:50:19Z</time>
      </trkpt>
      <trkpt lat="47.08449" lon="2.33529">
        <ele>123</ele>
        <time>2021-08-11T13:50:19Z</time>
      </trkpt>
      <trkpt lat="47.08442" lon="2.33576">
        <ele>122</ele>
        <time>2021-08-11T13:50:19Z</time>
      </trkpt>
      <trkpt lat="47.08438" lon="2.33618">
        <ele>121</ele>
        <time>2021-08-11T13:50:19Z</time>
      </trkpt>
      <trkpt lat="47.08436" lon="2.33656">
        <ele>120</ele>
        <time>2021-08-11T13:50:19Z</time>
      </trkpt>
      <trkpt lat="47.08435" lon="2.3369">
        <ele>120</ele>
        <time>2021-08-11T13:50:19Z</time>
      </trkpt>
      <trkpt lat="47.08435" lon="2.33698">
        <ele>120</ele>
        <time>2021-08-11T13:50:19Z</time>
      </trkpt>
      <trkpt lat="47.08436" lon="2.33707">
        <ele>120</ele>
        <time>2021-08-11T13:50:19Z</time>
      </trkpt>
      <trkpt lat="47.08436" lon="2.33716">
        <ele>121</ele>
        <time>2021-08-11T13:50:19Z</time>
      </trkpt>
      <trkpt lat="47.08437" lon="2.33725">
        <ele>121</ele>
        <time>2021-08-11T13:50:19Z</time>
      </trkpt>
      <trkpt lat="47.08436" lon="2.33734">
        <ele>122</ele>
        <time>2021-08-11T13:50:19Z</time>
      </trkpt>
      <trkpt lat="47.08436" lon="2.33743">
        <ele>122</ele>
        <time>2021-08-11T13:50:19Z</time>
      </trkpt>
      <trkpt lat="47.08436" lon="2.33752">
        <ele>123</ele>
        <time>2021-08-11T13:50:19Z</time>
      </trkpt>
      <trkpt lat="47.08439" lon="2.33761">
        <ele>123</ele>
        <time>2021-08-11T13:50:19Z</time>
      </trkpt>
      <trkpt lat="47.08438" lon="2.33769">
        <ele>124</ele>
        <time>2021-08-11T13:50:19Z</time>
      </trkpt>
      <trkpt lat="47.08438" lon="2.33778">
        <ele>124</ele>
        <time>2021-08-11T13:50:19Z</time>
      </trkpt>
      <trkpt lat="47.08439" lon="2.33787">
        <ele>124</ele>
        <time>2021-08-11T13:50:19Z</time>
      </trkpt>
      <trkpt lat="47.08439" lon="2.33797">
        <ele>124</ele>
        <time>2021-08-11T13:50:19Z</time>
      </trkpt>
      <trkpt lat="47.08439" lon="2.33806">
        <ele>124</ele>
        <time>2021-08-11T13:50:19Z</time>
      </trkpt>
      <trkpt lat="47.08439" lon="2.33815">
        <ele>123</ele>
        <time>2021-08-11T13:50:19Z</time>
      </trkpt>
      <trkpt lat="47.08439" lon="2.33824">
        <ele>123</ele>
        <time>2021-08-11T13:50:19Z</time>
      </trkpt>
      <trkpt lat="47.08439" lon="2.33832">
        <ele>123</ele>
        <time>2021-08-11T13:50:19Z</time>
      </trkpt>
      <trkpt lat="47.0844" lon="2.3384">
        <ele>122</ele>
        <time>2021-08-11T13:50:19Z</time>
      </trkpt>
      <trkpt lat="47.0844" lon="2.33849">
        <ele>122</ele>
        <time>2021-08-11T13:50:19Z</time>
      </trkpt>
      <trkpt lat="47.0844" lon="2.33859">
        <ele>121</ele>
        <time>2021-08-11T13:50:19Z</time>
      </trkpt>
      <trkpt lat="47.0844" lon="2.33868">
        <ele>121</ele>
        <time>2021-08-11T13:50:19Z</time>
      </trkpt>
      <trkpt lat="47.08439" lon="2.33876">
        <ele>120</ele>
        <time>2021-08-11T13:50:19Z</time>
      </trkpt>
      <trkpt lat="47.08439" lon="2.33885">
        <ele>120</ele>
        <time>2021-08-11T13:50:19Z</time>
      </trkpt>
      <trkpt lat="47.0844" lon="2.33893">
        <ele>120</ele>
        <time>2021-08-11T13:50:19Z</time>
      </trkpt>
      <trkpt lat="47.0844" lon="2.33902">
        <ele>120</ele>
        <time>2021-08-11T13:50:19Z</time>
      </trkpt>
      <trkpt lat="47.0844" lon="2.33912">
        <ele>120</ele>
        <time>2021-08-11T13:50:19Z</time>
      </trkpt>
      <trkpt lat="47.0844" lon="2.33921">
        <ele>120</ele>
        <time>2021-08-11T13:50:19Z</time>
      </trkpt>
      <trkpt lat="47.0844" lon="2.3393">
        <ele>120</ele>
        <time>2021-08-11T13:50:19Z</time>
      </trkpt>
      <trkpt lat="47.0844" lon="2.33939">
        <ele>120</ele>
        <time>2021-08-11T13:50:19Z</time>
      </trkpt>
      <trkpt lat="47.0844" lon="2.33948">
        <ele>120</ele>
        <time>2021-08-11T13:50:19Z</time>
      </trkpt>
      <trkpt lat="47.0844" lon="2.33956">
        <ele>120</ele>
        <time>2021-08-11T13:50:19Z</time>
      </trkpt>
      <trkpt lat="47.0844" lon="2.33965">
        <ele>120</ele>
        <time>2021-08-11T13:50:19Z</time>
      </trkpt>
      <trkpt lat="47.0844" lon="2.33974">
        <ele>120</ele>
        <time>2021-08-11T13:50:19Z</time>
      </trkpt>
      <trkpt lat="47.0844" lon="2.33982">
        <ele>120</ele>
        <time>2021-08-11T13:50:19Z</time>
      </trkpt>
      <trkpt lat="47.08441" lon="2.33992">
        <ele>120</ele>
        <time>2021-08-11T13:50:19Z</time>
      </trkpt>
      <trkpt lat="47.08441" lon="2.34001">
        <ele>119</ele>
        <time>2021-08-11T13:50:19Z</time>
      </trkpt>
      <trkpt lat="47.08441" lon="2.3401">
        <ele>119</ele>
        <time>2021-08-11T13:50:19Z</time>
      </trkpt>
      <trkpt lat="47.08442" lon="2.3402">
        <ele>119</ele>
        <time>2021-08-11T13:50:19Z</time>
      </trkpt>
      <trkpt lat="47.08442" lon="2.34029">
        <ele>119</ele>
        <time>2021-08-11T13:50:19Z</time>
      </trkpt>
      <trkpt lat="47.08441" lon="2.34038">
        <ele>119</ele>
        <time>2021-08-11T13:50:19Z</time>
      </trkpt>
      <trkpt lat="47.08441" lon="2.34048">
        <ele>119</ele>
        <time>2021-08-11T13:50:19Z</time>
      </trkpt>
      <trkpt lat="47.08441" lon="2.34057">
        <ele>119</ele>
        <time>2021-08-11T13:50:19Z</time>
      </trkpt>
      <trkpt lat="47.08442" lon="2.34066">
        <ele>119</ele>
        <time>2021-08-11T13:50:19Z</time>
      </trkpt>
      <trkpt lat="47.08443" lon="2.34075">
        <ele>119</ele>
        <time>2021-08-11T13:50:19Z</time>
      </trkpt>
      <trkpt lat="47.08442" lon="2.34084">
        <ele>120</ele>
        <time>2021-08-11T13:50:19Z</time>
      </trkpt>
      <trkpt lat="47.08442" lon="2.34092">
        <ele>120</ele>
        <time>2021-08-11T13:50:19Z</time>
      </trkpt>
      <trkpt lat="47.08443" lon="2.34101">
        <ele>120</ele>
        <time>2021-08-11T13:50:19Z</time>
      </trkpt>
      <trkpt lat="47.08443" lon="2.34109">
        <ele>121</ele>
        <time>2021-08-11T13:50:19Z</time>
      </trkpt>
      <trkpt lat="47.08443" lon="2.34119">
        <ele>121</ele>
        <time>2021-08-11T13:50:19Z</time>
      </trkpt>
      <trkpt lat="47.08443" lon="2.34128">
        <ele>121</ele>
        <time>2021-08-11T13:50:19Z</time>
      </trkpt>
      <trkpt lat="47.08442" lon="2.34136">
        <ele>121</ele>
        <time>2021-08-11T13:50:19Z</time>
      </trkpt>
      <trkpt lat="47.08442" lon="2.34146">
        <ele>121</ele>
        <time>2021-08-11T13:50:19Z</time>
      </trkpt>
      <trkpt lat="47.08442" lon="2.34156">
        <ele>121</ele>
        <time>2021-08-11T13:50:19Z</time>
      </trkpt>
      <trkpt lat="47.08442" lon="2.34165">
        <ele>121</ele>
        <time>2021-08-11T13:50:19Z</time>
      </trkpt>
      <trkpt lat="47.08442" lon="2.34174">
        <ele>121</ele>
        <time>2021-08-11T13:50:19Z</time>
      </trkpt>
      <trkpt lat="47.08442" lon="2.34184">
        <ele>121</ele>
        <time>2021-08-11T13:50:19Z</time>
      </trkpt>
      <trkpt lat="47.08443" lon="2.34193">
        <ele>121</ele>
        <time>2021-08-11T13:50:19Z</time>
      </trkpt>
      <trkpt lat="47.08444" lon="2.34203">
        <ele>122</ele>
        <time>2021-08-11T13:50:19Z</time>
      </trkpt>
      <trkpt lat="47.08444" lon="2.34212">
        <ele>123</ele>
        <time>2021-08-11T13:50:19Z</time>
      </trkpt>
      <trkpt lat="47.08445" lon="2.34221">
        <ele>123</ele>
        <time>2021-08-11T13:50:19Z</time>
      </trkpt>
      <trkpt lat="47.08446" lon="2.34231">
        <ele>123</ele>
        <time>2021-08-11T13:50:19Z</time>
      </trkpt>
      <trkpt lat="47.08446" lon="2.3424">
        <ele>123</ele>
        <time>2021-08-11T13:50:19Z</time>
      </trkpt>
      <trkpt lat="47.08446" lon="2.34248">
        <ele>123</ele>
        <time>2021-08-11T13:50:19Z</time>
      </trkpt>
      <trkpt lat="47.08448" lon="2.34275">
        <ele>122</ele>
        <time>2021-08-11T13:50:19Z</time>
      </trkpt>
      <trkpt lat="47.08458" lon="2.34285">
        <ele>121</ele>
        <time>2021-08-11T13:50:19Z</time>
      </trkpt>
      <trkpt lat="47.08458" lon="2.34308">
        <ele>120</ele>
        <time>2021-08-11T13:50:19Z</time>
      </trkpt>
      <trkpt lat="47.08461" lon="2.34343">
        <ele>120</ele>
        <time>2021-08-11T13:50:19Z</time>
      </trkpt>
      <trkpt lat="47.08463" lon="2.34387">
        <ele>121</ele>
        <time>2021-08-11T13:50:19Z</time>
      </trkpt>
      <trkpt lat="47.08464" lon="2.34423">
        <ele>122</ele>
        <time>2021-08-11T13:50:19Z</time>
      </trkpt>
      <trkpt lat="47.08464" lon="2.34432">
        <ele>123</ele>
        <time>2021-08-11T13:50:19Z</time>
      </trkpt>
      <trkpt lat="47.08463" lon="2.34479">
        <ele>124</ele>
        <time>2021-08-11T13:50:19Z</time>
      </trkpt>
      <trkpt lat="47.08462" lon="2.34525">
        <ele>124</ele>
        <time>2021-08-11T13:50:19Z</time>
      </trkpt>
      <trkpt lat="47.0846" lon="2.34572">
        <ele>124</ele>
        <time>2021-08-11T13:50:19Z</time>
      </trkpt>
      <trkpt lat="47.08458" lon="2.34618">
        <ele>126</ele>
        <time>2021-08-11T13:50:19Z</time>
      </trkpt>
      <trkpt lat="47.08456" lon="2.34665">
        <ele>127</ele>
        <time>2021-08-11T13:50:19Z</time>
      </trkpt>
      <trkpt lat="47.08454" lon="2.34701">
        <ele>126</ele>
        <time>2021-08-11T13:50:19Z</time>
      </trkpt>
      <trkpt lat="47.08454" lon="2.34711">
        <ele>126</ele>
        <time>2021-08-11T13:50:19Z</time>
      </trkpt>
      <trkpt lat="47.08454" lon="2.34756">
        <ele>126</ele>
        <time>2021-08-11T13:50:19Z</time>
      </trkpt>
      <trkpt lat="47.08455" lon="2.34798">
        <ele>127</ele>
        <time>2021-08-11T13:50:19Z</time>
      </trkpt>
      <trkpt lat="47.0846" lon="2.34835">
        <ele>126</ele>
        <time>2021-08-11T13:50:19Z</time>
      </trkpt>
      <trkpt lat="47.08463" lon="2.34878">
        <ele>123</ele>
        <time>2021-08-11T13:50:19Z</time>
      </trkpt>
      <trkpt lat="47.08466" lon="2.34925">
        <ele>122</ele>
        <time>2021-08-11T13:50:19Z</time>
      </trkpt>
      <trkpt lat="47.08469" lon="2.3496">
        <ele>124</ele>
        <time>2021-08-11T13:50:19Z</time>
      </trkpt>
      <trkpt lat="47.08469" lon="2.34969">
        <ele>124</ele>
        <time>2021-08-11T13:50:19Z</time>
      </trkpt>
      <trkpt lat="47.0847" lon="2.34979">
        <ele>124</ele>
        <time>2021-08-11T13:50:19Z</time>
      </trkpt>
      <trkpt lat="47.08471" lon="2.34988">
        <ele>124</ele>
        <time>2021-08-11T13:50:19Z</time>
      </trkpt>
      <trkpt lat="47.08471" lon="2.34998">
        <ele>125</ele>
        <time>2021-08-11T13:50:19Z</time>
      </trkpt>
      <trkpt lat="47.08472" lon="2.35008">
        <ele>124</ele>
        <time>2021-08-11T13:50:19Z</time>
      </trkpt>
      <trkpt lat="47.08473" lon="2.35017">
        <ele>124</ele>
        <time>2021-08-11T13:50:19Z</time>
      </trkpt>
      <trkpt lat="47.08474" lon="2.35026">
        <ele>124</ele>
        <time>2021-08-11T13:50:19Z</time>
      </trkpt>
      <trkpt lat="47.08475" lon="2.35035">
        <ele>125</ele>
        <time>2021-08-11T13:50:19Z</time>
      </trkpt>
      <trkpt lat="47.08476" lon="2.35043">
        <ele>125</ele>
        <time>2021-08-11T13:50:19Z</time>
      </trkpt>
      <trkpt lat="47.08477" lon="2.35054">
        <ele>125</ele>
        <time>2021-08-11T13:50:19Z</time>
      </trkpt>
      <trkpt lat="47.08478" lon="2.35062">
        <ele>125</ele>
        <time>2021-08-11T13:50:19Z</time>
      </trkpt>
      <trkpt lat="47.08479" lon="2.35072">
        <ele>125</ele>
        <time>2021-08-11T13:50:19Z</time>
      </trkpt>
      <trkpt lat="47.0848" lon="2.3508">
        <ele>125</ele>
        <time>2021-08-11T13:50:19Z</time>
      </trkpt>
      <trkpt lat="47.0848" lon="2.35089">
        <ele>125</ele>
        <time>2021-08-11T13:50:19Z</time>
      </trkpt>
      <trkpt lat="47.08481" lon="2.35099">
        <ele>124</ele>
        <time>2021-08-11T13:50:19Z</time>
      </trkpt>
      <trkpt lat="47.08482" lon="2.35109">
        <ele>124</ele>
        <time>2021-08-11T13:50:19Z</time>
      </trkpt>
      <trkpt lat="47.08483" lon="2.35118">
        <ele>124</ele>
        <time>2021-08-11T13:50:19Z</time>
      </trkpt>
      <trkpt lat="47.08484" lon="2.35128">
        <ele>123</ele>
        <time>2021-08-11T13:50:19Z</time>
      </trkpt>
      <trkpt lat="47.08485" lon="2.35138">
        <ele>123</ele>
        <time>2021-08-11T13:50:19Z</time>
      </trkpt>
      <trkpt lat="47.08485" lon="2.35147">
        <ele>123</ele>
        <time>2021-08-11T13:50:19Z</time>
      </trkpt>
      <trkpt lat="47.08486" lon="2.35157">
        <ele>123</ele>
        <time>2021-08-11T13:50:19Z</time>
      </trkpt>
      <trkpt lat="47.08487" lon="2.35166">
        <ele>123</ele>
        <time>2021-08-11T13:50:19Z</time>
      </trkpt>
      <trkpt lat="47.08488" lon="2.35175">
        <ele>124</ele>
        <time>2021-08-11T13:50:19Z</time>
      </trkpt>
      <trkpt lat="47.08489" lon="2.35184">
        <ele>124</ele>
        <time>2021-08-11T13:50:19Z</time>
      </trkpt>
      <trkpt lat="47.0849" lon="2.35193">
        <ele>124</ele>
        <time>2021-08-11T13:50:19Z</time>
      </trkpt>
      <trkpt lat="47.08491" lon="2.35202">
        <ele>124</ele>
        <time>2021-08-11T13:50:19Z</time>
      </trkpt>
      <trkpt lat="47.08492" lon="2.35211">
        <ele>124</ele>
        <time>2021-08-11T13:50:19Z</time>
      </trkpt>
      <trkpt lat="47.08492" lon="2.35219">
        <ele>124</ele>
        <time>2021-08-11T13:50:19Z</time>
      </trkpt>
      <trkpt lat="47.08494" lon="2.35229">
        <ele>125</ele>
        <time>2021-08-11T13:50:19Z</time>
      </trkpt>
      <trkpt lat="47.08495" lon="2.35238">
        <ele>125</ele>
        <time>2021-08-11T13:50:19Z</time>
      </trkpt>
      <trkpt lat="47.08495" lon="2.35247">
        <ele>125</ele>
        <time>2021-08-11T13:50:19Z</time>
      </trkpt>
      <trkpt lat="47.08496" lon="2.35255">
        <ele>124</ele>
        <time>2021-08-11T13:50:19Z</time>
      </trkpt>
      <trkpt lat="47.08497" lon="2.35265">
        <ele>124</ele>
        <time>2021-08-11T13:50:19Z</time>
      </trkpt>
      <trkpt lat="47.08497" lon="2.35274">
        <ele>124</ele>
        <time>2021-08-11T13:50:19Z</time>
      </trkpt>
      <trkpt lat="47.08497" lon="2.35284">
        <ele>123</ele>
        <time>2021-08-11T13:50:19Z</time>
      </trkpt>
      <trkpt lat="47.08498" lon="2.35292">
        <ele>123</ele>
        <time>2021-08-11T13:50:19Z</time>
      </trkpt>
      <trkpt lat="47.08498" lon="2.35301">
        <ele>123</ele>
        <time>2021-08-11T13:50:19Z</time>
      </trkpt>
      <trkpt lat="47.08499" lon="2.3531">
        <ele>122</ele>
        <time>2021-08-11T13:50:19Z</time>
      </trkpt>
      <trkpt lat="47.08499" lon="2.35319">
        <ele>122</ele>
        <time>2021-08-11T13:50:19Z</time>
      </trkpt>
      <trkpt lat="47.085" lon="2.35328">
        <ele>122</ele>
        <time>2021-08-11T13:50:19Z</time>
      </trkpt>
      <trkpt lat="47.08501" lon="2.35337">
        <ele>121</ele>
        <time>2021-08-11T13:50:19Z</time>
      </trkpt>
      <trkpt lat="47.08501" lon="2.35346">
        <ele>121</ele>
        <time>2021-08-11T13:50:19Z</time>
      </trkpt>
      <trkpt lat="47.08503" lon="2.35354">
        <ele>121</ele>
        <time>2021-08-11T13:50:19Z</time>
      </trkpt>
      <trkpt lat="47.08503" lon="2.35363">
        <ele>121</ele>
        <time>2021-08-11T13:50:19Z</time>
      </trkpt>
      <trkpt lat="47.08504" lon="2.35371">
        <ele>121</ele>
        <time>2021-08-11T13:50:19Z</time>
      </trkpt>
      <trkpt lat="47.08505" lon="2.3538">
        <ele>121</ele>
        <time>2021-08-11T13:50:19Z</time>
      </trkpt>
      <trkpt lat="47.08506" lon="2.35388">
        <ele>121</ele>
        <time>2021-08-11T13:50:19Z</time>
      </trkpt>
      <trkpt lat="47.08507" lon="2.35396">
        <ele>122</ele>
        <time>2021-08-11T13:50:19Z</time>
      </trkpt>
      <trkpt lat="47.08507" lon="2.35404">
        <ele>122</ele>
        <time>2021-08-11T13:50:19Z</time>
      </trkpt>
      <trkpt lat="47.08506" lon="2.35411">
        <ele>122</ele>
        <time>2021-08-11T13:50:19Z</time>
      </trkpt>
      <trkpt lat="47.08507" lon="2.35419">
        <ele>122</ele>
        <time>2021-08-11T13:50:19Z</time>
      </trkpt>
      <trkpt lat="47.08508" lon="2.35426">
        <ele>122</ele>
        <time>2021-08-11T13:50:19Z</time>
      </trkpt>
      <trkpt lat="47.08509" lon="2.35433">
        <ele>122</ele>
        <time>2021-08-11T13:50:19Z</time>
      </trkpt>
      <trkpt lat="47.0851" lon="2.35443">
        <ele>122</ele>
        <time>2021-08-11T13:50:19Z</time>
      </trkpt>
      <trkpt lat="47.0851" lon="2.35451">
        <ele>122</ele>
        <time>2021-08-11T13:50:19Z</time>
      </trkpt>
      <trkpt lat="47.08511" lon="2.35459">
        <ele>122</ele>
        <time>2021-08-11T13:50:19Z</time>
      </trkpt>
      <trkpt lat="47.08512" lon="2.35468">
        <ele>122</ele>
        <time>2021-08-11T13:50:19Z</time>
      </trkpt>
      <trkpt lat="47.08514" lon="2.35476">
        <ele>122</ele>
        <time>2021-08-11T13:50:19Z</time>
      </trkpt>
      <trkpt lat="47.08515" lon="2.35483">
        <ele>122</ele>
        <time>2021-08-11T13:50:19Z</time>
      </trkpt>
      <trkpt lat="47.08518" lon="2.35521">
        <ele>123</ele>
        <time>2021-08-11T13:50:19Z</time>
      </trkpt>
      <trkpt lat="47.08525" lon="2.35547">
        <ele>124</ele>
        <time>2021-08-11T13:50:19Z</time>
      </trkpt>
      <trkpt lat="47.08524" lon="2.35573">
        <ele>126</ele>
        <time>2021-08-11T13:50:19Z</time>
      </trkpt>
      <trkpt lat="47.08531" lon="2.35599">
        <ele>128</ele>
        <time>2021-08-11T13:50:19Z</time>
      </trkpt>
      <trkpt lat="47.08541" lon="2.35628">
        <ele>129</ele>
        <time>2021-08-11T13:50:19Z</time>
      </trkpt>
      <trkpt lat="47.08549" lon="2.35651">
        <ele>131</ele>
        <time>2021-08-11T13:50:19Z</time>
      </trkpt>
      <trkpt lat="47.08551" lon="2.35657">
        <ele>132</ele>
        <time>2021-08-11T13:50:19Z</time>
      </trkpt>
      <trkpt lat="47.08563" lon="2.35689">
        <ele>133</ele>
        <time>2021-08-11T13:50:19Z</time>
      </trkpt>
      <trkpt lat="47.08576" lon="2.35723">
        <ele>132</ele>
        <time>2021-08-11T13:50:19Z</time>
      </trkpt>
      <trkpt lat="47.08591" lon="2.35757">
        <ele>129</ele>
        <time>2021-08-11T13:50:19Z</time>
      </trkpt>
      <trkpt lat="47.08604" lon="2.35793">
        <ele>127</ele>
        <time>2021-08-11T13:50:19Z</time>
      </trkpt>
      <trkpt lat="47.08615" lon="2.35825">
        <ele>126</ele>
        <time>2021-08-11T13:50:19Z</time>
      </trkpt>
      <trkpt lat="47.08626" lon="2.35852">
        <ele>125</ele>
        <time>2021-08-11T13:50:19Z</time>
      </trkpt>
      <trkpt lat="47.08628" lon="2.35859">
        <ele>124</ele>
        <time>2021-08-11T13:50:19Z</time>
      </trkpt>
      <trkpt lat="47.08636" lon="2.35897">
        <ele>126</ele>
        <time>2021-08-11T13:50:19Z</time>
      </trkpt>
      <trkpt lat="47.08643" lon="2.35938">
        <ele>128</ele>
        <time>2021-08-11T13:50:19Z</time>
      </trkpt>
      <trkpt lat="47.08644" lon="2.35976">
        <ele>130</ele>
        <time>2021-08-11T13:50:19Z</time>
      </trkpt>
      <trkpt lat="47.08645" lon="2.36017">
        <ele>132</ele>
        <time>2021-08-11T13:50:19Z</time>
      </trkpt>
      <trkpt lat="47.08646" lon="2.36057">
        <ele>132</ele>
        <time>2021-08-11T13:50:19Z</time>
      </trkpt>
      <trkpt lat="47.08648" lon="2.36089">
        <ele>133</ele>
        <time>2021-08-11T13:50:19Z</time>
      </trkpt>
      <trkpt lat="47.08647" lon="2.36094">
        <ele>133</ele>
        <time>2021-08-11T13:50:19Z</time>
      </trkpt>
      <trkpt lat="47.08648" lon="2.36119">
        <ele>133</ele>
        <time>2021-08-11T13:50:19Z</time>
      </trkpt>
      <trkpt lat="47.08649" lon="2.36128">
        <ele>133</ele>
        <time>2021-08-11T13:50:19Z</time>
      </trkpt>
      <trkpt lat="47.0865" lon="2.36135">
        <ele>133</ele>
        <time>2021-08-11T13:50:19Z</time>
      </trkpt>
      <trkpt lat="47.0865" lon="2.36143">
        <ele>133</ele>
        <time>2021-08-11T13:50:19Z</time>
      </trkpt>
      <trkpt lat="47.08649" lon="2.36152">
        <ele>133</ele>
        <time>2021-08-11T13:50:19Z</time>
      </trkpt>
      <trkpt lat="47.08649" lon="2.36161">
        <ele>133</ele>
        <time>2021-08-11T13:50:19Z</time>
      </trkpt>
      <trkpt lat="47.0865" lon="2.36168">
        <ele>133</ele>
        <time>2021-08-11T13:50:19Z</time>
      </trkpt>
      <trkpt lat="47.0865" lon="2.36178">
        <ele>133</ele>
        <time>2021-08-11T13:50:19Z</time>
      </trkpt>
      <trkpt lat="47.0865" lon="2.36187">
        <ele>133</ele>
        <time>2021-08-11T13:50:19Z</time>
      </trkpt>
      <trkpt lat="47.08652" lon="2.36195">
        <ele>133</ele>
        <time>2021-08-11T13:50:19Z</time>
      </trkpt>
      <trkpt lat="47.08652" lon="2.36202">
        <ele>132</ele>
        <time>2021-08-11T13:50:19Z</time>
      </trkpt>
      <trkpt lat="47.0865" lon="2.36211">
        <ele>132</ele>
        <time>2021-08-11T13:50:19Z</time>
      </trkpt>
      <trkpt lat="47.08648" lon="2.36219">
        <ele>132</ele>
        <time>2021-08-11T13:50:19Z</time>
      </trkpt>
      <trkpt lat="47.08649" lon="2.36228">
        <ele>132</ele>
        <time>2021-08-11T13:50:19Z</time>
      </trkpt>
      <trkpt lat="47.0865" lon="2.36237">
        <ele>131</ele>
        <time>2021-08-11T13:50:19Z</time>
      </trkpt>
      <trkpt lat="47.0865" lon="2.36245">
        <ele>131</ele>
        <time>2021-08-11T13:50:19Z</time>
      </trkpt>
      <trkpt lat="47.08651" lon="2.36253">
        <ele>130</ele>
        <time>2021-08-11T13:50:19Z</time>
      </trkpt>
      <trkpt lat="47.08652" lon="2.36261">
        <ele>130</ele>
        <time>2021-08-11T13:50:19Z</time>
      </trkpt>
      <trkpt lat="47.08652" lon="2.36269">
        <ele>130</ele>
        <time>2021-08-11T13:50:19Z</time>
      </trkpt>
      <trkpt lat="47.08652" lon="2.36277">
        <ele>129</ele>
        <time>2021-08-11T13:50:19Z</time>
      </trkpt>
      <trkpt lat="47.08652" lon="2.36284">
        <ele>129</ele>
        <time>2021-08-11T13:50:19Z</time>
      </trkpt>
      <trkpt lat="47.08652" lon="2.36293">
        <ele>129</ele>
        <time>2021-08-11T13:50:19Z</time>
      </trkpt>
      <trkpt lat="47.08651" lon="2.36301">
        <ele>129</ele>
        <time>2021-08-11T13:50:19Z</time>
      </trkpt>
      <trkpt lat="47.08652" lon="2.36311">
        <ele>129</ele>
        <time>2021-08-11T13:50:19Z</time>
      </trkpt>
      <trkpt lat="47.08652" lon="2.3632">
        <ele>129</ele>
        <time>2021-08-11T13:50:19Z</time>
      </trkpt>
      <trkpt lat="47.08652" lon="2.36328">
        <ele>129</ele>
        <time>2021-08-11T13:50:19Z</time>
      </trkpt>
      <trkpt lat="47.08652" lon="2.36336">
        <ele>128</ele>
        <time>2021-08-11T13:50:19Z</time>
      </trkpt>
      <trkpt lat="47.08653" lon="2.36344">
        <ele>128</ele>
        <time>2021-08-11T13:50:19Z</time>
      </trkpt>
      <trkpt lat="47.08653" lon="2.36349">
        <ele>128</ele>
        <time>2021-08-11T13:50:19Z</time>
      </trkpt>
      <trkpt lat="47.08653" lon="2.36358">
        <ele>127</ele>
        <time>2021-08-11T13:50:19Z</time>
      </trkpt>
      <trkpt lat="47.08653" lon="2.36365">
        <ele>127</ele>
        <time>2021-08-11T13:50:19Z</time>
      </trkpt>
      <trkpt lat="47.08653" lon="2.36372">
        <ele>127</ele>
        <time>2021-08-11T13:50:19Z</time>
      </trkpt>
      <trkpt lat="47.08653" lon="2.3638">
        <ele>126</ele>
        <time>2021-08-11T13:50:19Z</time>
      </trkpt>
      <trkpt lat="47.08653" lon="2.3639">
        <ele>126</ele>
        <time>2021-08-11T13:50:19Z</time>
      </trkpt>
      <trkpt lat="47.08654" lon="2.36398">
        <ele>126</ele>
        <time>2021-08-11T13:50:19Z</time>
      </trkpt>
      <trkpt lat="47.08654" lon="2.36407">
        <ele>125</ele>
        <time>2021-08-11T13:50:19Z</time>
      </trkpt>
      <trkpt lat="47.08655" lon="2.36415">
        <ele>125</ele>
        <time>2021-08-11T13:50:19Z</time>
      </trkpt>
      <trkpt lat="47.08655" lon="2.36424">
        <ele>125</ele>
        <time>2021-08-11T13:50:19Z</time>
      </trkpt>
      <trkpt lat="47.08655" lon="2.36432">
        <ele>125</ele>
        <time>2021-08-11T13:50:19Z</time>
      </trkpt>
      <trkpt lat="47.08656" lon="2.3644">
        <ele>125</ele>
        <time>2021-08-11T13:50:19Z</time>
      </trkpt>
      <trkpt lat="47.08655" lon="2.36447">
        <ele>125</ele>
        <time>2021-08-11T13:50:19Z</time>
      </trkpt>
      <trkpt lat="47.08655" lon="2.36455">
        <ele>125</ele>
        <time>2021-08-11T13:50:19Z</time>
      </trkpt>
      <trkpt lat="47.08655" lon="2.36463">
        <ele>125</ele>
        <time>2021-08-11T13:50:19Z</time>
      </trkpt>
      <trkpt lat="47.08655" lon="2.3647">
        <ele>125</ele>
        <time>2021-08-11T13:50:19Z</time>
      </trkpt>
      <trkpt lat="47.08655" lon="2.36478">
        <ele>125</ele>
        <time>2021-08-11T13:50:19Z</time>
      </trkpt>
      <trkpt lat="47.08655" lon="2.36486">
        <ele>125</ele>
        <time>2021-08-11T13:50:19Z</time>
      </trkpt>
      <trkpt lat="47.08655" lon="2.36492">
        <ele>125</ele>
        <time>2021-08-11T13:50:19Z</time>
      </trkpt>
      <trkpt lat="47.08653" lon="2.36498">
        <ele>125</ele>
        <time>2021-08-11T13:50:19Z</time>
      </trkpt>
      <trkpt lat="47.08654" lon="2.36506">
        <ele>125</ele>
        <time>2021-08-11T13:50:19Z</time>
      </trkpt>
      <trkpt lat="47.08655" lon="2.36513">
        <ele>125</ele>
        <time>2021-08-11T13:50:19Z</time>
      </trkpt>
      <trkpt lat="47.08655" lon="2.36521">
        <ele>125</ele>
        <time>2021-08-11T13:50:19Z</time>
      </trkpt>
      <trkpt lat="47.08655" lon="2.36528">
        <ele>126</ele>
        <time>2021-08-11T13:50:19Z</time>
      </trkpt>
      <trkpt lat="47.08656" lon="2.36536">
        <ele>126</ele>
        <time>2021-08-11T13:50:19Z</time>
      </trkpt>
      <trkpt lat="47.08656" lon="2.36542">
        <ele>126</ele>
        <time>2021-08-11T13:50:19Z</time>
      </trkpt>
      <trkpt lat="47.08656" lon="2.36547">
        <ele>126</ele>
        <time>2021-08-11T13:50:19Z</time>
      </trkpt>
      <trkpt lat="47.08657" lon="2.36556">
        <ele>126</ele>
        <time>2021-08-11T13:50:19Z</time>
      </trkpt>
      <trkpt lat="47.08657" lon="2.36561">
        <ele>127</ele>
        <time>2021-08-11T13:50:19Z</time>
      </trkpt>
      <trkpt lat="47.08657" lon="2.3657">
        <ele>127</ele>
        <time>2021-08-11T13:50:19Z</time>
      </trkpt>
      <trkpt lat="47.08657" lon="2.36576">
        <ele>127</ele>
        <time>2021-08-11T13:50:19Z</time>
      </trkpt>
      <trkpt lat="47.08657" lon="2.36586">
        <ele>127</ele>
        <time>2021-08-11T13:50:19Z</time>
      </trkpt>
      <trkpt lat="47.08658" lon="2.3662">
        <ele>127</ele>
        <time>2021-08-11T13:50:19Z</time>
      </trkpt>
      <trkpt lat="47.08657" lon="2.36658">
        <ele>129</ele>
        <time>2021-08-11T13:50:19Z</time>
      </trkpt>
      <trkpt lat="47.08656" lon="2.36694">
        <ele>130</ele>
        <time>2021-08-11T13:50:19Z</time>
      </trkpt>
      <trkpt lat="47.08658" lon="2.36729">
        <ele>130</ele>
        <time>2021-08-11T13:50:19Z</time>
      </trkpt>
      <trkpt lat="47.08661" lon="2.36768">
        <ele>130</ele>
        <time>2021-08-11T13:50:19Z</time>
      </trkpt>
      <trkpt lat="47.08661" lon="2.36799">
        <ele>129</ele>
        <time>2021-08-11T13:50:19Z</time>
      </trkpt>
      <trkpt lat="47.08662" lon="2.36806">
        <ele>129</ele>
        <time>2021-08-11T13:50:19Z</time>
      </trkpt>
      <trkpt lat="47.08662" lon="2.36846">
        <ele>128</ele>
        <time>2021-08-11T13:50:19Z</time>
      </trkpt>
      <trkpt lat="47.08663" lon="2.36882">
        <ele>128</ele>
        <time>2021-08-11T13:50:19Z</time>
      </trkpt>
      <trkpt lat="47.08665" lon="2.36921">
        <ele>126</ele>
        <time>2021-08-11T13:50:19Z</time>
      </trkpt>
      <trkpt lat="47.08666" lon="2.3696">
        <ele>126</ele>
        <time>2021-08-11T13:50:19Z</time>
      </trkpt>
      <trkpt lat="47.08666" lon="2.36995">
        <ele>126</ele>
        <time>2021-08-11T13:50:19Z</time>
      </trkpt>
      <trkpt lat="47.08668" lon="2.37024">
        <ele>127</ele>
        <time>2021-08-11T13:50:19Z</time>
      </trkpt>
      <trkpt lat="47.08667" lon="2.37033">
        <ele>128</ele>
        <time>2021-08-11T13:50:19Z</time>
      </trkpt>
      <trkpt lat="47.08669" lon="2.37071">
        <ele>129</ele>
        <time>2021-08-11T13:50:19Z</time>
      </trkpt>
      <trkpt lat="47.08667" lon="2.37104">
        <ele>131</ele>
        <time>2021-08-11T13:50:19Z</time>
      </trkpt>
      <trkpt lat="47.08668" lon="2.37143">
        <ele>132</ele>
        <time>2021-08-11T13:50:19Z</time>
      </trkpt>
      <trkpt lat="47.08671" lon="2.37175">
        <ele>131</ele>
        <time>2021-08-11T13:50:19Z</time>
      </trkpt>
      <trkpt lat="47.08672" lon="2.37213">
        <ele>133</ele>
        <time>2021-08-11T13:50:19Z</time>
      </trkpt>
      <trkpt lat="47.0867" lon="2.37242">
        <ele>133</ele>
        <time>2021-08-11T13:50:19Z</time>
      </trkpt>
      <trkpt lat="47.08668" lon="2.3725">
        <ele>133</ele>
        <time>2021-08-11T13:50:19Z</time>
      </trkpt>
      <trkpt lat="47.08672" lon="2.37288">
        <ele>130</ele>
        <time>2021-08-11T13:50:19Z</time>
      </trkpt>
      <trkpt lat="47.08673" lon="2.37324">
        <ele>128</ele>
        <time>2021-08-11T13:50:19Z</time>
      </trkpt>
      <trkpt lat="47.08665" lon="2.37357">
        <ele>130</ele>
        <time>2021-08-11T13:50:19Z</time>
      </trkpt>
      <trkpt lat="47.08661" lon="2.37393">
        <ele>130</ele>
        <time>2021-08-11T13:50:19Z</time>
      </trkpt>
      <trkpt lat="47.08654" lon="2.37426">
        <ele>130</ele>
        <time>2021-08-11T13:50:19Z</time>
      </trkpt>
      <trkpt lat="47.08643" lon="2.37449">
        <ele>131</ele>
        <time>2021-08-11T13:50:19Z</time>
      </trkpt>
      <trkpt lat="47.08642" lon="2.37454">
        <ele>131</ele>
        <time>2021-08-11T13:50:19Z</time>
      </trkpt>
      <trkpt lat="47.08635" lon="2.3747">
        <ele>132</ele>
        <time>2021-08-11T13:50:19Z</time>
      </trkpt>
      <trkpt lat="47.08633" lon="2.37477">
        <ele>132</ele>
        <time>2021-08-11T13:50:19Z</time>
      </trkpt>
      <trkpt lat="47.08632" lon="2.37483">
        <ele>131</ele>
        <time>2021-08-11T13:50:19Z</time>
      </trkpt>
      <trkpt lat="47.0863" lon="2.3749">
        <ele>131</ele>
        <time>2021-08-11T13:50:19Z</time>
      </trkpt>
      <trkpt lat="47.08628" lon="2.37496">
        <ele>131</ele>
        <time>2021-08-11T13:50:19Z</time>
      </trkpt>
      <trkpt lat="47.08627" lon="2.37504">
        <ele>130</ele>
        <time>2021-08-11T13:50:19Z</time>
      </trkpt>
      <trkpt lat="47.08622" lon="2.37508">
        <ele>131</ele>
        <time>2021-08-11T13:50:19Z</time>
      </trkpt>
      <trkpt lat="47.0862" lon="2.37514">
        <ele>131</ele>
        <time>2021-08-11T13:50:19Z</time>
      </trkpt>
      <trkpt lat="47.08618" lon="2.3752">
        <ele>131</ele>
        <time>2021-08-11T13:50:19Z</time>
      </trkpt>
      <trkpt lat="47.08614" lon="2.37525">
        <ele>131</ele>
        <time>2021-08-11T13:50:19Z</time>
      </trkpt>
      <trkpt lat="47.08612" lon="2.37531">
        <ele>131</ele>
        <time>2021-08-11T13:50:19Z</time>
      </trkpt>
      <trkpt lat="47.08608" lon="2.37537">
        <ele>131</ele>
        <time>2021-08-11T13:50:19Z</time>
      </trkpt>
      <trkpt lat="47.08604" lon="2.37542">
        <ele>131</ele>
        <time>2021-08-11T13:50:19Z</time>
      </trkpt>
      <trkpt lat="47.086" lon="2.37547">
        <ele>131</ele>
        <time>2021-08-11T13:50:19Z</time>
      </trkpt>
      <trkpt lat="47.08597" lon="2.37552">
        <ele>131</ele>
        <time>2021-08-11T13:50:19Z</time>
      </trkpt>
      <trkpt lat="47.08597" lon="2.37561">
        <ele>131</ele>
        <time>2021-08-11T13:50:19Z</time>
      </trkpt>
      <trkpt lat="47.08593" lon="2.37566">
        <ele>131</ele>
        <time>2021-08-11T13:50:19Z</time>
      </trkpt>
      <trkpt lat="47.08589" lon="2.37571">
        <ele>131</ele>
        <time>2021-08-11T13:50:19Z</time>
      </trkpt>
      <trkpt lat="47.08588" lon="2.37577">
        <ele>131</ele>
        <time>2021-08-11T13:50:19Z</time>
      </trkpt>
      <trkpt lat="47.08585" lon="2.37582">
        <ele>131</ele>
        <time>2021-08-11T13:50:19Z</time>
      </trkpt>
      <trkpt lat="47.08581" lon="2.37589">
        <ele>132</ele>
        <time>2021-08-11T13:50:19Z</time>
      </trkpt>
      <trkpt lat="47.08581" lon="2.37593">
        <ele>132</ele>
        <time>2021-08-11T13:50:19Z</time>
      </trkpt>
      <trkpt lat="47.08574" lon="2.37597">
        <ele>132</ele>
        <time>2021-08-11T13:50:19Z</time>
      </trkpt>
      <trkpt lat="47.08571" lon="2.37603">
        <ele>132</ele>
        <time>2021-08-11T13:50:19Z</time>
      </trkpt>
      <trkpt lat="47.08565" lon="2.37606">
        <ele>132</ele>
        <time>2021-08-11T13:50:19Z</time>
      </trkpt>
      <trkpt lat="47.08561" lon="2.37613">
        <ele>132</ele>
        <time>2021-08-11T13:50:19Z</time>
      </trkpt>
      <trkpt lat="47.0856" lon="2.3762">
        <ele>132</ele>
        <time>2021-08-11T13:50:19Z</time>
      </trkpt>
      <trkpt lat="47.08555" lon="2.37626">
        <ele>132</ele>
        <time>2021-08-11T13:50:19Z</time>
      </trkpt>
      <trkpt lat="47.08553" lon="2.37632">
        <ele>132</ele>
        <time>2021-08-11T13:50:19Z</time>
      </trkpt>
      <trkpt lat="47.0855" lon="2.37639">
        <ele>132</ele>
        <time>2021-08-11T13:50:19Z</time>
      </trkpt>
      <trkpt lat="47.08547" lon="2.37646">
        <ele>131</ele>
        <time>2021-08-11T13:50:19Z</time>
      </trkpt>
      <trkpt lat="47.08545" lon="2.37652">
        <ele>130</ele>
        <time>2021-08-11T13:50:19Z</time>
      </trkpt>
      <trkpt lat="47.08543" lon="2.37658">
        <ele>130</ele>
        <time>2021-08-11T13:50:19Z</time>
      </trkpt>
      <trkpt lat="47.08543" lon="2.37664">
        <ele>129</ele>
        <time>2021-08-11T13:50:19Z</time>
      </trkpt>
      <trkpt lat="47.08539" lon="2.37669">
        <ele>129</ele>
        <time>2021-08-11T13:50:19Z</time>
      </trkpt>
      <trkpt lat="47.08537" lon="2.37675">
        <ele>129</ele>
        <time>2021-08-11T13:50:19Z</time>
      </trkpt>
      <trkpt lat="47.08536" lon="2.37681">
        <ele>129</ele>
        <time>2021-08-11T13:50:19Z</time>
      </trkpt>
      <trkpt lat="47.08534" lon="2.37686">
        <ele>129</ele>
        <time>2021-08-11T13:50:19Z</time>
      </trkpt>
      <trkpt lat="47.08532" lon="2.37689">
        <ele>129</ele>
        <time>2021-08-11T13:50:19Z</time>
      </trkpt>
      <trkpt lat="47.08532" lon="2.37694">
        <ele>129</ele>
        <time>2021-08-11T13:50:19Z</time>
      </trkpt>
      <trkpt lat="47.08529" lon="2.37701">
        <ele>129</ele>
        <time>2021-08-11T13:50:19Z</time>
      </trkpt>
      <trkpt lat="47.08529" lon="2.37707">
        <ele>129</ele>
        <time>2021-08-11T13:50:19Z</time>
      </trkpt>
      <trkpt lat="47.08529" lon="2.37715">
        <ele>128</ele>
        <time>2021-08-11T13:50:19Z</time>
      </trkpt>
      <trkpt lat="47.08528" lon="2.37722">
        <ele>127</ele>
        <time>2021-08-11T13:50:19Z</time>
      </trkpt>
      <trkpt lat="47.08525" lon="2.37728">
        <ele>127</ele>
        <time>2021-08-11T13:50:19Z</time>
      </trkpt>
      <trkpt lat="47.08521" lon="2.37732">
        <ele>127</ele>
        <time>2021-08-11T13:50:19Z</time>
      </trkpt>
      <trkpt lat="47.0852" lon="2.37739">
        <ele>127</ele>
        <time>2021-08-11T13:50:19Z</time>
      </trkpt>
      <trkpt lat="47.08518" lon="2.37747">
        <ele>127</ele>
        <time>2021-08-11T13:50:19Z</time>
      </trkpt>
      <trkpt lat="47.08516" lon="2.37755">
        <ele>127</ele>
        <time>2021-08-11T13:50:19Z</time>
      </trkpt>
      <trkpt lat="47.08514" lon="2.37763">
        <ele>126</ele>
        <time>2021-08-11T13:50:19Z</time>
      </trkpt>
      <trkpt lat="47.08511" lon="2.37768">
        <ele>126</ele>
        <time>2021-08-11T13:50:19Z</time>
      </trkpt>
      <trkpt lat="47.08508" lon="2.37773">
        <ele>127</ele>
        <time>2021-08-11T13:50:19Z</time>
      </trkpt>
      <trkpt lat="47.08507" lon="2.3778">
        <ele>126</ele>
        <time>2021-08-11T13:50:19Z</time>
      </trkpt>
      <trkpt lat="47.08505" lon="2.37787">
        <ele>126</ele>
        <time>2021-08-11T13:50:19Z</time>
      </trkpt>
      <trkpt lat="47.08502" lon="2.37794">
        <ele>127</ele>
        <time>2021-08-11T13:50:19Z</time>
      </trkpt>
      <trkpt lat="47.08497" lon="2.37802">
        <ele>127</ele>
        <time>2021-08-11T13:50:19Z</time>
      </trkpt>
      <trkpt lat="47.08494" lon="2.3781">
        <ele>127</ele>
        <time>2021-08-11T13:50:19Z</time>
      </trkpt>
      <trkpt lat="47.08489" lon="2.37817">
        <ele>127</ele>
        <time>2021-08-11T13:50:19Z</time>
      </trkpt>
      <trkpt lat="47.08486" lon="2.37822">
        <ele>127</ele>
        <time>2021-08-11T13:50:19Z</time>
      </trkpt>
      <trkpt lat="47.08483" lon="2.37829">
        <ele>127</ele>
        <time>2021-08-11T13:50:19Z</time>
      </trkpt>
      <trkpt lat="47.0848" lon="2.37836">
        <ele>127</ele>
        <time>2021-08-11T13:50:19Z</time>
      </trkpt>
      <trkpt lat="47.08464" lon="2.37874">
        <ele>126</ele>
        <time>2021-08-11T13:50:19Z</time>
      </trkpt>
      <trkpt lat="47.08448" lon="2.3791">
        <ele>128</ele>
        <time>2021-08-11T13:50:19Z</time>
      </trkpt>
      <trkpt lat="47.0843" lon="2.37948">
        <ele>128</ele>
        <time>2021-08-11T13:50:19Z</time>
      </trkpt>
      <trkpt lat="47.08412" lon="2.37986">
        <ele>128</ele>
        <time>2021-08-11T13:50:19Z</time>
      </trkpt>
      <trkpt lat="47.08396" lon="2.38026">
        <ele>126</ele>
        <time>2021-08-11T13:50:19Z</time>
      </trkpt>
      <trkpt lat="47.08383" lon="2.38053">
        <ele>125</ele>
        <time>2021-08-11T13:50:19Z</time>
      </trkpt>
      <trkpt lat="47.0838" lon="2.3806">
        <ele>125</ele>
        <time>2021-08-11T13:50:19Z</time>
      </trkpt>
      <trkpt lat="47.08364" lon="2.38095">
        <ele>123</ele>
        <time>2021-08-11T13:50:19Z</time>
      </trkpt>
      <trkpt lat="47.08349" lon="2.3813">
        <ele>127</ele>
        <time>2021-08-11T13:50:19Z</time>
      </trkpt>
      <trkpt lat="47.08339" lon="2.3817">
        <ele>127</ele>
        <time>2021-08-11T13:50:19Z</time>
      </trkpt>
      <trkpt lat="47.08325" lon="2.38206">
        <ele>125</ele>
        <time>2021-08-11T13:50:19Z</time>
      </trkpt>
      <trkpt lat="47.08309" lon="2.38242">
        <ele>126</ele>
        <time>2021-08-11T13:50:19Z</time>
      </trkpt>
      <trkpt lat="47.08296" lon="2.38274">
        <ele>129</ele>
        <time>2021-08-11T13:50:19Z</time>
      </trkpt>
      <trkpt lat="47.08294" lon="2.38281">
        <ele>129</ele>
        <time>2021-08-11T13:50:19Z</time>
      </trkpt>
      <trkpt lat="47.08279" lon="2.3832">
        <ele>129</ele>
        <time>2021-08-11T13:50:19Z</time>
      </trkpt>
      <trkpt lat="47.08266" lon="2.38358">
        <ele>127</ele>
        <time>2021-08-11T13:50:19Z</time>
      </trkpt>
      <trkpt lat="47.08254" lon="2.38391">
        <ele>125</ele>
        <time>2021-08-11T13:50:19Z</time>
      </trkpt>
      <trkpt lat="47.08246" lon="2.38415">
        <ele>125</ele>
        <time>2021-08-11T13:50:19Z</time>
      </trkpt>
      <trkpt lat="47.08241" lon="2.38422">
        <ele>125</ele>
        <time>2021-08-11T13:50:19Z</time>
      </trkpt>
      <trkpt lat="47.08241" lon="2.38422">
        <ele>125</ele>
        <time>2021-08-11T13:50:19Z</time>
      </trkpt>
      <trkpt lat="47.08241" lon="2.38422">
        <ele>125</ele>
        <time>2021-08-11T13:50:19Z</time>
      </trkpt>
      <trkpt lat="47.0824" lon="2.38423">
        <ele>126</ele>
        <time>2021-08-11T13:50:19Z</time>
      </trkpt>
      <trkpt lat="47.0824" lon="2.38423">
        <ele>125</ele>
        <time>2021-08-11T13:50:19Z</time>
      </trkpt>
      <trkpt lat="47.0824" lon="2.38424">
        <ele>126</ele>
        <time>2021-08-11T13:50:19Z</time>
      </trkpt>
      <trkpt lat="47.08231" lon="2.38447">
        <ele>127</ele>
        <time>2021-08-11T13:50:19Z</time>
      </trkpt>
      <trkpt lat="47.08214" lon="2.38479">
        <ele>129</ele>
        <time>2021-08-11T13:50:19Z</time>
      </trkpt>
      <trkpt lat="47.082" lon="2.38519">
        <ele>130</ele>
        <time>2021-08-11T13:50:19Z</time>
      </trkpt>
      <trkpt lat="47.08194" lon="2.38531">
        <ele>131</ele>
        <time>2021-08-11T13:50:19Z</time>
      </trkpt>
      <trkpt lat="47.08177" lon="2.38571">
        <ele>131</ele>
        <time>2021-08-11T13:50:19Z</time>
      </trkpt>
      <trkpt lat="47.08169" lon="2.38602">
        <ele>131</ele>
        <time>2021-08-11T13:50:19Z</time>
      </trkpt>
      <trkpt lat="47.08167" lon="2.38609">
        <ele>131</ele>
        <time>2021-08-11T13:50:19Z</time>
      </trkpt>
      <trkpt lat="47.08162" lon="2.38615">
        <ele>131</ele>
        <time>2021-08-11T13:50:19Z</time>
      </trkpt>
      <trkpt lat="47.08159" lon="2.38621">
        <ele>131</ele>
        <time>2021-08-11T13:50:19Z</time>
      </trkpt>
      <trkpt lat="47.08156" lon="2.38629">
        <ele>131</ele>
        <time>2021-08-11T13:50:19Z</time>
      </trkpt>
      <trkpt lat="47.08151" lon="2.38636">
        <ele>131</ele>
        <time>2021-08-11T13:50:19Z</time>
      </trkpt>
      <trkpt lat="47.08147" lon="2.38642">
        <ele>131</ele>
        <time>2021-08-11T13:50:19Z</time>
      </trkpt>
      <trkpt lat="47.08145" lon="2.3865">
        <ele>131</ele>
        <time>2021-08-11T13:50:19Z</time>
      </trkpt>
      <trkpt lat="47.08131" lon="2.38685">
        <ele>131</ele>
        <time>2021-08-11T13:50:19Z</time>
      </trkpt>
      <trkpt lat="47.08118" lon="2.38707">
        <ele>131</ele>
        <time>2021-08-11T13:50:19Z</time>
      </trkpt>
      <trkpt lat="47.08115" lon="2.3871">
        <ele>131</ele>
        <time>2021-08-11T13:50:19Z</time>
      </trkpt>
      <trkpt lat="47.08113" lon="2.38712">
        <ele>131</ele>
        <time>2021-08-11T13:50:19Z</time>
      </trkpt>
      <trkpt lat="47.0811" lon="2.38713">
        <ele>131</ele>
        <time>2021-08-11T13:50:19Z</time>
      </trkpt>
      <trkpt lat="47.08108" lon="2.38716">
        <ele>131</ele>
        <time>2021-08-11T13:50:19Z</time>
      </trkpt>
      <trkpt lat="47.08107" lon="2.38718">
        <ele>131</ele>
        <time>2021-08-11T13:50:19Z</time>
      </trkpt>
      <trkpt lat="47.08105" lon="2.3872">
        <ele>131</ele>
        <time>2021-08-11T13:50:19Z</time>
      </trkpt>
      <trkpt lat="47.08105" lon="2.3872">
        <ele>131</ele>
        <time>2021-08-11T13:50:19Z</time>
      </trkpt>
      <trkpt lat="47.08094" lon="2.38715">
        <ele>131</ele>
        <time>2021-08-11T13:50:19Z</time>
      </trkpt>
      <trkpt lat="47.08081" lon="2.38734">
        <ele>131</ele>
        <time>2021-08-11T13:50:19Z</time>
      </trkpt>
      <trkpt lat="47.08065" lon="2.38769">
        <ele>131</ele>
        <time>2021-08-11T13:50:19Z</time>
      </trkpt>
      <trkpt lat="47.08044" lon="2.38798">
        <ele>130</ele>
        <time>2021-08-11T13:50:19Z</time>
      </trkpt>
      <trkpt lat="47.08023" lon="2.38829">
        <ele>130</ele>
        <time>2021-08-11T13:50:19Z</time>
      </trkpt>
      <trkpt lat="47.08007" lon="2.38858">
        <ele>129</ele>
        <time>2021-08-11T13:50:19Z</time>
      </trkpt>
      <trkpt lat="47.08003" lon="2.38865">
        <ele>129</ele>
        <time>2021-08-11T13:50:19Z</time>
      </trkpt>
      <trkpt lat="47.07986" lon="2.38898">
        <ele>129</ele>
        <time>2021-08-11T13:50:19Z</time>
      </trkpt>
      <trkpt lat="47.07974" lon="2.38922">
        <ele>129</ele>
        <time>2021-08-11T13:50:19Z</time>
      </trkpt>
      <trkpt lat="47.07973" lon="2.38925">
        <ele>129</ele>
        <time>2021-08-11T13:50:19Z</time>
      </trkpt>
      <trkpt lat="47.07971" lon="2.38928">
        <ele>129</ele>
        <time>2021-08-11T13:50:19Z</time>
      </trkpt>
      <trkpt lat="47.07968" lon="2.3893">
        <ele>129</ele>
        <time>2021-08-11T13:50:19Z</time>
      </trkpt>
      <trkpt lat="47.07966" lon="2.38933">
        <ele>129</ele>
        <time>2021-08-11T13:50:19Z</time>
      </trkpt>
      <trkpt lat="47.07964" lon="2.38936">
        <ele>129</ele>
        <time>2021-08-11T13:50:19Z</time>
      </trkpt>
      <trkpt lat="47.07961" lon="2.38939">
        <ele>129</ele>
        <time>2021-08-11T13:50:19Z</time>
      </trkpt>
      <trkpt lat="47.07958" lon="2.38942">
        <ele>129</ele>
        <time>2021-08-11T13:50:19Z</time>
      </trkpt>
      <trkpt lat="47.07956" lon="2.38946">
        <ele>128</ele>
        <time>2021-08-11T13:50:19Z</time>
      </trkpt>
      <trkpt lat="47.07948" lon="2.38955">
        <ele>128</ele>
        <time>2021-08-11T13:50:19Z</time>
      </trkpt>
      <trkpt lat="47.07936" lon="2.38967">
        <ele>128</ele>
        <time>2021-08-11T13:50:19Z</time>
      </trkpt>
      <trkpt lat="47.07926" lon="2.38982">
        <ele>128</ele>
        <time>2021-08-11T13:50:19Z</time>
      </trkpt>
      <trkpt lat="47.07907" lon="2.39002">
        <ele>129</ele>
        <time>2021-08-11T13:50:19Z</time>
      </trkpt>
      <trkpt lat="47.07884" lon="2.3903">
        <ele>130</ele>
        <time>2021-08-11T13:50:19Z</time>
      </trkpt>
      <trkpt lat="47.07866" lon="2.39045">
        <ele>129</ele>
        <time>2021-08-11T13:50:19Z</time>
      </trkpt>
      <trkpt lat="47.0786" lon="2.39049">
        <ele>129</ele>
        <time>2021-08-11T13:50:19Z</time>
      </trkpt>
      <trkpt lat="47.07833" lon="2.39065">
        <ele>127</ele>
        <time>2021-08-11T13:50:19Z</time>
      </trkpt>
      <trkpt lat="47.07803" lon="2.39074">
        <ele>127</ele>
        <time>2021-08-11T13:50:19Z</time>
      </trkpt>
      <trkpt lat="47.07774" lon="2.39081">
        <ele>128</ele>
        <time>2021-08-11T13:50:19Z</time>
      </trkpt>
      <trkpt lat="47.07749" lon="2.39079">
        <ele>128</ele>
        <time>2021-08-11T13:50:19Z</time>
      </trkpt>
      <trkpt lat="47.07747" lon="2.39103">
        <ele>128</ele>
        <time>2021-08-11T13:50:19Z</time>
      </trkpt>
      <trkpt lat="47.07747" lon="2.39119">
        <ele>128</ele>
        <time>2021-08-11T13:50:19Z</time>
      </trkpt>
      <trkpt lat="47.07744" lon="2.39119">
        <ele>128</ele>
        <time>2021-08-11T13:50:19Z</time>
      </trkpt>
      <trkpt lat="47.07734" lon="2.39124">
        <ele>128</ele>
        <time>2021-08-11T13:50:19Z</time>
      </trkpt>
      <trkpt lat="47.07711" lon="2.39131">
        <ele>127</ele>
        <time>2021-08-11T13:50:19Z</time>
      </trkpt>
      <trkpt lat="47.07685" lon="2.39145">
        <ele>128</ele>
        <time>2021-08-11T13:50:19Z</time>
      </trkpt>
      <trkpt lat="47.07654" lon="2.39149">
        <ele>130</ele>
        <time>2021-08-11T13:50:19Z</time>
      </trkpt>
      <trkpt lat="47.07624" lon="2.3916">
        <ele>131</ele>
        <time>2021-08-11T13:50:19Z</time>
      </trkpt>
      <trkpt lat="47.076" lon="2.39162">
        <ele>130</ele>
        <time>2021-08-11T13:50:19Z</time>
      </trkpt>
      <trkpt lat="47.07594" lon="2.39162">
        <ele>130</ele>
        <time>2021-08-11T13:50:19Z</time>
      </trkpt>
      <trkpt lat="47.07572" lon="2.39167">
        <ele>129</ele>
        <time>2021-08-11T13:50:19Z</time>
      </trkpt>
      <trkpt lat="47.07554" lon="2.39178">
        <ele>130</ele>
        <time>2021-08-11T13:50:19Z</time>
      </trkpt>
      <trkpt lat="47.07522" lon="2.39191">
        <ele>134</ele>
        <time>2021-08-11T13:50:19Z</time>
      </trkpt>
      <trkpt lat="47.07491" lon="2.39199">
        <ele>135</ele>
        <time>2021-08-11T13:50:19Z</time>
      </trkpt>
      <trkpt lat="47.07462" lon="2.3921">
        <ele>136</ele>
        <time>2021-08-11T13:50:19Z</time>
      </trkpt>
      <trkpt lat="47.07439" lon="2.39221">
        <ele>136</ele>
        <time>2021-08-11T13:50:19Z</time>
      </trkpt>
      <trkpt lat="47.07432" lon="2.39224">
        <ele>136</ele>
        <time>2021-08-11T13:50:19Z</time>
      </trkpt>
      <trkpt lat="47.07425" lon="2.39224">
        <ele>136</ele>
        <time>2021-08-11T13:50:19Z</time>
      </trkpt>
      <trkpt lat="47.07418" lon="2.39226">
        <ele>135</ele>
        <time>2021-08-11T13:50:19Z</time>
      </trkpt>
      <trkpt lat="47.07411" lon="2.39228">
        <ele>135</ele>
        <time>2021-08-11T13:50:19Z</time>
      </trkpt>
      <trkpt lat="47.07405" lon="2.39229">
        <ele>135</ele>
        <time>2021-08-11T13:50:19Z</time>
      </trkpt>
      <trkpt lat="47.074" lon="2.39232">
        <ele>134</ele>
        <time>2021-08-11T13:50:19Z</time>
      </trkpt>
      <trkpt lat="47.07394" lon="2.39234">
        <ele>134</ele>
        <time>2021-08-11T13:50:19Z</time>
      </trkpt>
      <trkpt lat="47.07388" lon="2.39236">
        <ele>133</ele>
        <time>2021-08-11T13:50:19Z</time>
      </trkpt>
      <trkpt lat="47.07383" lon="2.39239">
        <ele>133</ele>
        <time>2021-08-11T13:50:19Z</time>
      </trkpt>
      <trkpt lat="47.07377" lon="2.39241">
        <ele>133</ele>
        <time>2021-08-11T13:50:19Z</time>
      </trkpt>
      <trkpt lat="47.07371" lon="2.39243">
        <ele>132</ele>
        <time>2021-08-11T13:50:19Z</time>
      </trkpt>
      <trkpt lat="47.07363" lon="2.39244">
        <ele>132</ele>
        <time>2021-08-11T13:50:19Z</time>
      </trkpt>
      <trkpt lat="47.07357" lon="2.39243">
        <ele>131</ele>
        <time>2021-08-11T13:50:19Z</time>
      </trkpt>
      <trkpt lat="47.07349" lon="2.39242">
        <ele>131</ele>
        <time>2021-08-11T13:50:19Z</time>
      </trkpt>
      <trkpt lat="47.07343" lon="2.39244">
        <ele>131</ele>
        <time>2021-08-11T13:50:19Z</time>
      </trkpt>
      <trkpt lat="47.07337" lon="2.39246">
        <ele>131</ele>
        <time>2021-08-11T13:50:19Z</time>
      </trkpt>
      <trkpt lat="47.0733" lon="2.39249">
        <ele>131</ele>
        <time>2021-08-11T13:50:19Z</time>
      </trkpt>
      <trkpt lat="47.07323" lon="2.39252">
        <ele>131</ele>
        <time>2021-08-11T13:50:19Z</time>
      </trkpt>
      <trkpt lat="47.07317" lon="2.39254">
        <ele>131</ele>
        <time>2021-08-11T13:50:19Z</time>
      </trkpt>
      <trkpt lat="47.07311" lon="2.39257">
        <ele>131</ele>
        <time>2021-08-11T13:50:19Z</time>
      </trkpt>
      <trkpt lat="47.07304" lon="2.39258">
        <ele>131</ele>
        <time>2021-08-11T13:50:19Z</time>
      </trkpt>
      <trkpt lat="47.07298" lon="2.3926">
        <ele>131</ele>
        <time>2021-08-11T13:50:19Z</time>
      </trkpt>
      <trkpt lat="47.07292" lon="2.39263">
        <ele>131</ele>
        <time>2021-08-11T13:50:19Z</time>
      </trkpt>
      <trkpt lat="47.07286" lon="2.39265">
        <ele>131</ele>
        <time>2021-08-11T13:50:19Z</time>
      </trkpt>
      <trkpt lat="47.0728" lon="2.39267">
        <ele>131</ele>
        <time>2021-08-11T13:50:19Z</time>
      </trkpt>
      <trkpt lat="47.07274" lon="2.39269">
        <ele>131</ele>
        <time>2021-08-11T13:50:19Z</time>
      </trkpt>
      <trkpt lat="47.07246" lon="2.39279">
        <ele>132</ele>
        <time>2021-08-11T13:50:19Z</time>
      </trkpt>
      <trkpt lat="47.07214" lon="2.39291">
        <ele>131</ele>
        <time>2021-08-11T13:50:19Z</time>
      </trkpt>
      <trkpt lat="47.07184" lon="2.39301">
        <ele>129</ele>
        <time>2021-08-11T13:50:19Z</time>
      </trkpt>
      <trkpt lat="47.07157" lon="2.39308">
        <ele>128</ele>
        <time>2021-08-11T13:50:19Z</time>
      </trkpt>
      <trkpt lat="47.07127" lon="2.39314">
        <ele>129</ele>
        <time>2021-08-11T13:50:19Z</time>
      </trkpt>
      <trkpt lat="47.07102" lon="2.39324">
        <ele>130</ele>
        <time>2021-08-11T13:50:19Z</time>
      </trkpt>
      <trkpt lat="47.07095" lon="2.39323">
        <ele>131</ele>
        <time>2021-08-11T13:50:19Z</time>
      </trkpt>
      <trkpt lat="47.07061" lon="2.39332">
        <ele>132</ele>
        <time>2021-08-11T13:50:19Z</time>
      </trkpt>
      <trkpt lat="47.07032" lon="2.39337">
        <ele>131</ele>
        <time>2021-08-11T13:50:19Z</time>
      </trkpt>
      <trkpt lat="47.07001" lon="2.39347">
        <ele>130</ele>
        <time>2021-08-11T13:50:19Z</time>
      </trkpt>
      <trkpt lat="47.0697" lon="2.39358">
        <ele>127</ele>
        <time>2021-08-11T13:50:19Z</time>
      </trkpt>
      <trkpt lat="47.0694" lon="2.3937">
        <ele>126</ele>
        <time>2021-08-11T13:50:19Z</time>
      </trkpt>
      <trkpt lat="47.06915" lon="2.39381">
        <ele>126</ele>
        <time>2021-08-11T13:50:19Z</time>
      </trkpt>
      <trkpt lat="47.06908" lon="2.39382">
        <ele>126</ele>
        <time>2021-08-11T13:50:19Z</time>
      </trkpt>
      <trkpt lat="47.06875" lon="2.39391">
        <ele>128</ele>
        <time>2021-08-11T13:50:19Z</time>
      </trkpt>
      <trkpt lat="47.06845" lon="2.39401">
        <ele>128</ele>
        <time>2021-08-11T13:50:19Z</time>
      </trkpt>
      <trkpt lat="47.06816" lon="2.39412">
        <ele>128</ele>
        <time>2021-08-11T13:50:19Z</time>
      </trkpt>
      <trkpt lat="47.06794" lon="2.39416">
        <ele>127</ele>
        <time>2021-08-11T13:50:19Z</time>
      </trkpt>
      <trkpt lat="47.06773" lon="2.3942">
        <ele>127</ele>
        <time>2021-08-11T13:50:19Z</time>
      </trkpt>
      <trkpt lat="47.06752" lon="2.39429">
        <ele>127</ele>
        <time>2021-08-11T13:50:19Z</time>
      </trkpt>
      <trkpt lat="47.06747" lon="2.39431">
        <ele>126</ele>
        <time>2021-08-11T13:50:19Z</time>
      </trkpt>
      <trkpt lat="47.06715" lon="2.39439">
        <ele>125</ele>
        <time>2021-08-11T13:50:19Z</time>
      </trkpt>
      <trkpt lat="47.06685" lon="2.39449">
        <ele>124</ele>
        <time>2021-08-11T13:50:19Z</time>
      </trkpt>
      <trkpt lat="47.06657" lon="2.39459">
        <ele>126</ele>
        <time>2021-08-11T13:50:19Z</time>
      </trkpt>
      <trkpt lat="47.06628" lon="2.39468">
        <ele>128</ele>
        <time>2021-08-11T13:50:19Z</time>
      </trkpt>
      <trkpt lat="47.06599" lon="2.39478">
        <ele>128</ele>
        <time>2021-08-11T13:50:19Z</time>
      </trkpt>
      <trkpt lat="47.06577" lon="2.3948">
        <ele>128</ele>
        <time>2021-08-11T13:50:19Z</time>
      </trkpt>
      <trkpt lat="47.06572" lon="2.39477">
        <ele>128</ele>
        <time>2021-08-11T13:50:19Z</time>
      </trkpt>
      <trkpt lat="47.06567" lon="2.39475">
        <ele>128</ele>
        <time>2021-08-11T13:50:19Z</time>
      </trkpt>
      <trkpt lat="47.06563" lon="2.39473">
        <ele>128</ele>
        <time>2021-08-11T13:50:19Z</time>
      </trkpt>
      <trkpt lat="47.06559" lon="2.39473">
        <ele>128</ele>
        <time>2021-08-11T13:50:19Z</time>
      </trkpt>
      <trkpt lat="47.06556" lon="2.39473">
        <ele>128</ele>
        <time>2021-08-11T13:50:19Z</time>
      </trkpt>
      <trkpt lat="47.06554" lon="2.39473">
        <ele>128</ele>
        <time>2021-08-11T13:50:19Z</time>
      </trkpt>
      <trkpt lat="47.06552" lon="2.39474">
        <ele>128</ele>
        <time>2021-08-11T13:50:19Z</time>
      </trkpt>
      <trkpt lat="47.0655" lon="2.39475">
        <ele>128</ele>
        <time>2021-08-11T13:50:19Z</time>
      </trkpt>
      <trkpt lat="47.06546" lon="2.39476">
        <ele>128</ele>
        <time>2021-08-11T13:50:19Z</time>
      </trkpt>
      <trkpt lat="47.06542" lon="2.39477">
        <ele>128</ele>
        <time>2021-08-11T13:50:19Z</time>
      </trkpt>
      <trkpt lat="47.06538" lon="2.39477">
        <ele>128</ele>
        <time>2021-08-11T13:50:19Z</time>
      </trkpt>
      <trkpt lat="47.06533" lon="2.39477">
        <ele>128</ele>
        <time>2021-08-11T13:50:19Z</time>
      </trkpt>
      <trkpt lat="47.06528" lon="2.39477">
        <ele>128</ele>
        <time>2021-08-11T13:50:19Z</time>
      </trkpt>
      <trkpt lat="47.06523" lon="2.39476">
        <ele>128</ele>
        <time>2021-08-11T13:50:19Z</time>
      </trkpt>
      <trkpt lat="47.06518" lon="2.39476">
        <ele>128</ele>
        <time>2021-08-11T13:50:19Z</time>
      </trkpt>
      <trkpt lat="47.06512" lon="2.39475">
        <ele>128</ele>
        <time>2021-08-11T13:50:19Z</time>
      </trkpt>
      <trkpt lat="47.06507" lon="2.39474">
        <ele>128</ele>
        <time>2021-08-11T13:50:19Z</time>
      </trkpt>
      <trkpt lat="47.06501" lon="2.39473">
        <ele>128</ele>
        <time>2021-08-11T13:50:19Z</time>
      </trkpt>
      <trkpt lat="47.06496" lon="2.39471">
        <ele>128</ele>
        <time>2021-08-11T13:50:19Z</time>
      </trkpt>
      <trkpt lat="47.0649" lon="2.3947">
        <ele>128</ele>
        <time>2021-08-11T13:50:19Z</time>
      </trkpt>
      <trkpt lat="47.06484" lon="2.39469">
        <ele>128</ele>
        <time>2021-08-11T13:50:19Z</time>
      </trkpt>
      <trkpt lat="47.06478" lon="2.3947">
        <ele>128</ele>
        <time>2021-08-11T13:50:19Z</time>
      </trkpt>
      <trkpt lat="47.06472" lon="2.39469">
        <ele>128</ele>
        <time>2021-08-11T13:50:19Z</time>
      </trkpt>
      <trkpt lat="47.06466" lon="2.3947">
        <ele>128</ele>
        <time>2021-08-11T13:50:19Z</time>
      </trkpt>
      <trkpt lat="47.0646" lon="2.3947">
        <ele>128</ele>
        <time>2021-08-11T13:50:19Z</time>
      </trkpt>
      <trkpt lat="47.06454" lon="2.3947">
        <ele>128</ele>
        <time>2021-08-11T13:50:19Z</time>
      </trkpt>
      <trkpt lat="47.06448" lon="2.39471">
        <ele>128</ele>
        <time>2021-08-11T13:50:19Z</time>
      </trkpt>
      <trkpt lat="47.06442" lon="2.39473">
        <ele>128</ele>
        <time>2021-08-11T13:50:19Z</time>
      </trkpt>
      <trkpt lat="47.06436" lon="2.39476">
        <ele>128</ele>
        <time>2021-08-11T13:50:19Z</time>
      </trkpt>
      <trkpt lat="47.0643" lon="2.3948">
        <ele>129</ele>
        <time>2021-08-11T13:50:19Z</time>
      </trkpt>
      <trkpt lat="47.06424" lon="2.39483">
        <ele>129</ele>
        <time>2021-08-11T13:50:19Z</time>
      </trkpt>
      <trkpt lat="47.06418" lon="2.39484">
        <ele>130</ele>
        <time>2021-08-11T13:50:19Z</time>
      </trkpt>
      <trkpt lat="47.06412" lon="2.39483">
        <ele>130</ele>
        <time>2021-08-11T13:50:19Z</time>
      </trkpt>
      <trkpt lat="47.06407" lon="2.39483">
        <ele>130</ele>
        <time>2021-08-11T13:50:19Z</time>
      </trkpt>
      <trkpt lat="47.064" lon="2.39484">
        <ele>131</ele>
        <time>2021-08-11T13:50:19Z</time>
      </trkpt>
      <trkpt lat="47.06394" lon="2.39485">
        <ele>131</ele>
        <time>2021-08-11T13:50:19Z</time>
      </trkpt>
      <trkpt lat="47.06388" lon="2.39486">
        <ele>131</ele>
        <time>2021-08-11T13:50:19Z</time>
      </trkpt>
      <trkpt lat="47.06382" lon="2.39489">
        <ele>131</ele>
        <time>2021-08-11T13:50:19Z</time>
      </trkpt>
      <trkpt lat="47.06376" lon="2.39491">
        <ele>130</ele>
        <time>2021-08-11T13:50:19Z</time>
      </trkpt>
      <trkpt lat="47.0637" lon="2.39494">
        <ele>130</ele>
        <time>2021-08-11T13:50:19Z</time>
      </trkpt>
      <trkpt lat="47.06364" lon="2.39496">
        <ele>130</ele>
        <time>2021-08-11T13:50:19Z</time>
      </trkpt>
      <trkpt lat="47.06358" lon="2.39498">
        <ele>129</ele>
        <time>2021-08-11T13:50:19Z</time>
      </trkpt>
      <trkpt lat="47.06351" lon="2.39499">
        <ele>129</ele>
        <time>2021-08-11T13:50:19Z</time>
      </trkpt>
      <trkpt lat="47.06345" lon="2.395">
        <ele>129</ele>
        <time>2021-08-11T13:50:19Z</time>
      </trkpt>
      <trkpt lat="47.06339" lon="2.39502">
        <ele>129</ele>
        <time>2021-08-11T13:50:19Z</time>
      </trkpt>
      <trkpt lat="47.06333" lon="2.39504">
        <ele>128</ele>
        <time>2021-08-11T13:50:19Z</time>
      </trkpt>
      <trkpt lat="47.06327" lon="2.39506">
        <ele>129</ele>
        <time>2021-08-11T13:50:19Z</time>
      </trkpt>
      <trkpt lat="47.06321" lon="2.39508">
        <ele>129</ele>
        <time>2021-08-11T13:50:19Z</time>
      </trkpt>
      <trkpt lat="47.06315" lon="2.3951">
        <ele>129</ele>
        <time>2021-08-11T13:50:19Z</time>
      </trkpt>
      <trkpt lat="47.06309" lon="2.39512">
        <ele>130</ele>
        <time>2021-08-11T13:50:19Z</time>
      </trkpt>
      <trkpt lat="47.06302" lon="2.39514">
        <ele>130</ele>
        <time>2021-08-11T13:50:19Z</time>
      </trkpt>
      <trkpt lat="47.06296" lon="2.39516">
        <ele>129</ele>
        <time>2021-08-11T13:50:19Z</time>
      </trkpt>
      <trkpt lat="47.0629" lon="2.39518">
        <ele>129</ele>
        <time>2021-08-11T13:50:19Z</time>
      </trkpt>
      <trkpt lat="47.06283" lon="2.3952">
        <ele>129</ele>
        <time>2021-08-11T13:50:19Z</time>
      </trkpt>
      <trkpt lat="47.06277" lon="2.39523">
        <ele>128</ele>
        <time>2021-08-11T13:50:19Z</time>
      </trkpt>
      <trkpt lat="47.06271" lon="2.39526">
        <ele>128</ele>
        <time>2021-08-11T13:50:19Z</time>
      </trkpt>
      <trkpt lat="47.06265" lon="2.39528">
        <ele>128</ele>
        <time>2021-08-11T13:50:19Z</time>
      </trkpt>
      <trkpt lat="47.0626" lon="2.39532">
        <ele>128</ele>
        <time>2021-08-11T13:50:19Z</time>
      </trkpt>
      <trkpt lat="47.06256" lon="2.39537">
        <ele>128</ele>
        <time>2021-08-11T13:50:19Z</time>
      </trkpt>
      <trkpt lat="47.06254" lon="2.39544">
        <ele>127</ele>
        <time>2021-08-11T13:50:19Z</time>
      </trkpt>
      <trkpt lat="47.06251" lon="2.3955">
        <ele>127</ele>
        <time>2021-08-11T13:50:19Z</time>
      </trkpt>
      <trkpt lat="47.06247" lon="2.39556">
        <ele>127</ele>
        <time>2021-08-11T13:50:19Z</time>
      </trkpt>
      <trkpt lat="47.06233" lon="2.39596">
        <ele>126</ele>
        <time>2021-08-11T13:50:19Z</time>
      </trkpt>
      <trkpt lat="47.06216" lon="2.39633">
        <ele>126</ele>
        <time>2021-08-11T13:50:19Z</time>
      </trkpt>
      <trkpt lat="47.06218" lon="2.3967">
        <ele>126</ele>
        <time>2021-08-11T13:50:19Z</time>
      </trkpt>
      <trkpt lat="47.06227" lon="2.39708">
        <ele>125</ele>
        <time>2021-08-11T13:50:19Z</time>
      </trkpt>
      <trkpt lat="47.06238" lon="2.39747">
        <ele>126</ele>
        <time>2021-08-11T13:50:19Z</time>
      </trkpt>
      <trkpt lat="47.06253" lon="2.39776">
        <ele>129</ele>
        <time>2021-08-11T13:50:19Z</time>
      </trkpt>
      <trkpt lat="47.06257" lon="2.39783">
        <ele>130</ele>
        <time>2021-08-11T13:50:19Z</time>
      </trkpt>
      <trkpt lat="47.06271" lon="2.39808">
        <ele>131</ele>
        <time>2021-08-11T13:50:19Z</time>
      </trkpt>
      <trkpt lat="47.06274" lon="2.39813">
        <ele>131</ele>
        <time>2021-08-11T13:50:19Z</time>
      </trkpt>
      <trkpt lat="47.06277" lon="2.39819">
        <ele>131</ele>
        <time>2021-08-11T13:50:19Z</time>
      </trkpt>
      <trkpt lat="47.0628" lon="2.39825">
        <ele>131</ele>
        <time>2021-08-11T13:50:19Z</time>
      </trkpt>
      <trkpt lat="47.06283" lon="2.3983">
        <ele>131</ele>
        <time>2021-08-11T13:50:19Z</time>
      </trkpt>
      <trkpt lat="47.06285" lon="2.39835">
        <ele>131</ele>
        <time>2021-08-11T13:50:19Z</time>
      </trkpt>
      <trkpt lat="47.06287" lon="2.39841">
        <ele>131</ele>
        <time>2021-08-11T13:50:19Z</time>
      </trkpt>
      <trkpt lat="47.0629" lon="2.39846">
        <ele>131</ele>
        <time>2021-08-11T13:50:19Z</time>
      </trkpt>
      <trkpt lat="47.06309" lon="2.39849">
        <ele>130</ele>
        <time>2021-08-11T13:50:19Z</time>
      </trkpt>
      <trkpt lat="47.06315" lon="2.39867">
        <ele>130</ele>
        <time>2021-08-11T13:50:19Z</time>
      </trkpt>
      <trkpt lat="47.06318" lon="2.39894">
        <ele>129</ele>
        <time>2021-08-11T13:50:19Z</time>
      </trkpt>
      <trkpt lat="47.06316" lon="2.39917">
        <ele>129</ele>
        <time>2021-08-11T13:50:19Z</time>
      </trkpt>
      <trkpt lat="47.06317" lon="2.3992">
        <ele>129</ele>
        <time>2021-08-11T13:50:19Z</time>
      </trkpt>
      <trkpt lat="47.06317" lon="2.39919">
        <ele>129</ele>
        <time>2021-08-11T13:50:19Z</time>
      </trkpt>
      <trkpt lat="47.06317" lon="2.3992">
        <ele>129</ele>
        <time>2021-08-11T13:50:19Z</time>
      </trkpt>
      <trkpt lat="47.06317" lon="2.3994">
        <ele>129</ele>
        <time>2021-08-11T13:50:19Z</time>
      </trkpt>
      <trkpt lat="47.06316" lon="2.39964">
        <ele>129</ele>
        <time>2021-08-11T13:50:19Z</time>
      </trkpt>
      <trkpt lat="47.06319" lon="2.3997">
        <ele>129</ele>
        <time>2021-08-11T13:50:19Z</time>
      </trkpt>
      <trkpt lat="47.0632" lon="2.39977">
        <ele>130</ele>
        <time>2021-08-11T13:50:19Z</time>
      </trkpt>
      <trkpt lat="47.06322" lon="2.39984">
        <ele>130</ele>
        <time>2021-08-11T13:50:19Z</time>
      </trkpt>
      <trkpt lat="47.06323" lon="2.3999">
        <ele>130</ele>
        <time>2021-08-11T13:50:19Z</time>
      </trkpt>
      <trkpt lat="47.06324" lon="2.39997">
        <ele>130</ele>
        <time>2021-08-11T13:50:19Z</time>
      </trkpt>
      <trkpt lat="47.06324" lon="2.40002">
        <ele>131</ele>
        <time>2021-08-11T13:50:19Z</time>
      </trkpt>
      <trkpt lat="47.06327" lon="2.40006">
        <ele>131</ele>
        <time>2021-08-11T13:50:19Z</time>
      </trkpt>
      <trkpt lat="47.06328" lon="2.40008">
        <ele>131</ele>
        <time>2021-08-11T13:50:19Z</time>
      </trkpt>
      <trkpt lat="47.06347" lon="2.40011">
        <ele>131</ele>
        <time>2021-08-11T13:50:19Z</time>
      </trkpt>
      <trkpt lat="47.06364" lon="2.40003">
        <ele>131</ele>
        <time>2021-08-11T13:50:19Z</time>
      </trkpt>
      <trkpt lat="47.06369" lon="2.4">
        <ele>131</ele>
        <time>2021-08-11T13:50:19Z</time>
      </trkpt>
      <trkpt lat="47.06374" lon="2.39998">
        <ele>131</ele>
        <time>2021-08-11T13:50:19Z</time>
      </trkpt>
      <trkpt lat="47.0638" lon="2.39995">
        <ele>131</ele>
        <time>2021-08-11T13:50:19Z</time>
      </trkpt>
      <trkpt lat="47.06386" lon="2.39992">
        <ele>131</ele>
        <time>2021-08-11T13:50:19Z</time>
      </trkpt>
      <trkpt lat="47.06391" lon="2.39989">
        <ele>131</ele>
        <time>2021-08-11T13:50:19Z</time>
      </trkpt>
      <trkpt lat="47.06397" lon="2.39987">
        <ele>131</ele>
        <time>2021-08-11T13:50:19Z</time>
      </trkpt>
      <trkpt lat="47.06403" lon="2.39984">
        <ele>131</ele>
        <time>2021-08-11T13:50:19Z</time>
      </trkpt>
      <trkpt lat="47.06408" lon="2.39982">
        <ele>131</ele>
        <time>2021-08-11T13:50:19Z</time>
      </trkpt>
      <trkpt lat="47.06436" lon="2.39968">
        <ele>132</ele>
        <time>2021-08-11T13:50:19Z</time>
      </trkpt>
      <trkpt lat="47.06465" lon="2.39957">
        <ele>134</ele>
        <time>2021-08-11T13:50:19Z</time>
      </trkpt>
      <trkpt lat="47.06495" lon="2.39951">
        <ele>135</ele>
        <time>2021-08-11T13:50:19Z</time>
      </trkpt>
      <trkpt lat="47.06527" lon="2.39947">
        <ele>134</ele>
        <time>2021-08-11T13:50:19Z</time>
      </trkpt>
      <trkpt lat="47.06559" lon="2.39943">
        <ele>133</ele>
        <time>2021-08-11T13:50:19Z</time>
      </trkpt>
      <trkpt lat="47.06585" lon="2.3994">
        <ele>132</ele>
        <time>2021-08-11T13:50:19Z</time>
      </trkpt>
      <trkpt lat="47.06592" lon="2.39939">
        <ele>132</ele>
        <time>2021-08-11T13:50:19Z</time>
      </trkpt>
      <trkpt lat="47.06599" lon="2.39938">
        <ele>132</ele>
        <time>2021-08-11T13:50:19Z</time>
      </trkpt>
      <trkpt lat="47.06605" lon="2.39936">
        <ele>131</ele>
        <time>2021-08-11T13:50:19Z</time>
      </trkpt>
      <trkpt lat="47.06612" lon="2.39935">
        <ele>131</ele>
        <time>2021-08-11T13:50:19Z</time>
      </trkpt>
      <trkpt lat="47.06618" lon="2.39932">
        <ele>131</ele>
        <time>2021-08-11T13:50:19Z</time>
      </trkpt>
      <trkpt lat="47.06625" lon="2.3993">
        <ele>130</ele>
        <time>2021-08-11T13:50:19Z</time>
      </trkpt>
      <trkpt lat="47.06632" lon="2.39928">
        <ele>130</ele>
        <time>2021-08-11T13:50:19Z</time>
      </trkpt>
      <trkpt lat="47.06639" lon="2.39925">
        <ele>130</ele>
        <time>2021-08-11T13:50:19Z</time>
      </trkpt>
      <trkpt lat="47.06646" lon="2.39922">
        <ele>130</ele>
        <time>2021-08-11T13:50:19Z</time>
      </trkpt>
      <trkpt lat="47.06653" lon="2.39919">
        <ele>130</ele>
        <time>2021-08-11T13:50:19Z</time>
      </trkpt>
      <trkpt lat="47.06659" lon="2.39916">
        <ele>130</ele>
        <time>2021-08-11T13:50:19Z</time>
      </trkpt>
      <trkpt lat="47.06665" lon="2.39914">
        <ele>130</ele>
        <time>2021-08-11T13:50:19Z</time>
      </trkpt>
      <trkpt lat="47.06672" lon="2.3991">
        <ele>131</ele>
        <time>2021-08-11T13:50:19Z</time>
      </trkpt>
      <trkpt lat="47.06679" lon="2.39908">
        <ele>131</ele>
        <time>2021-08-11T13:50:19Z</time>
      </trkpt>
      <trkpt lat="47.06685" lon="2.39905">
        <ele>131</ele>
        <time>2021-08-11T13:50:19Z</time>
      </trkpt>
      <trkpt lat="47.06691" lon="2.39903">
        <ele>131</ele>
        <time>2021-08-11T13:50:19Z</time>
      </trkpt>
      <trkpt lat="47.06698" lon="2.39901">
        <ele>131</ele>
        <time>2021-08-11T13:50:19Z</time>
      </trkpt>
      <trkpt lat="47.06705" lon="2.399">
        <ele>131</ele>
        <time>2021-08-11T13:50:19Z</time>
      </trkpt>
      <trkpt lat="47.06712" lon="2.39898">
        <ele>130</ele>
        <time>2021-08-11T13:50:19Z</time>
      </trkpt>
      <trkpt lat="47.06718" lon="2.39896">
        <ele>130</ele>
        <time>2021-08-11T13:50:19Z</time>
      </trkpt>
      <trkpt lat="47.06725" lon="2.39897">
        <ele>129</ele>
        <time>2021-08-11T13:50:19Z</time>
      </trkpt>
      <trkpt lat="47.06732" lon="2.39897">
        <ele>129</ele>
        <time>2021-08-11T13:50:19Z</time>
      </trkpt>
      <trkpt lat="47.06739" lon="2.39897">
        <ele>129</ele>
        <time>2021-08-11T13:50:19Z</time>
      </trkpt>
      <trkpt lat="47.06746" lon="2.39898">
        <ele>129</ele>
        <time>2021-08-11T13:50:19Z</time>
      </trkpt>
      <trkpt lat="47.06753" lon="2.39899">
        <ele>129</ele>
        <time>2021-08-11T13:50:19Z</time>
      </trkpt>
      <trkpt lat="47.0676" lon="2.399">
        <ele>130</ele>
        <time>2021-08-11T13:50:19Z</time>
      </trkpt>
      <trkpt lat="47.06768" lon="2.39902">
        <ele>130</ele>
        <time>2021-08-11T13:50:19Z</time>
      </trkpt>
      <trkpt lat="47.06775" lon="2.39903">
        <ele>130</ele>
        <time>2021-08-11T13:50:19Z</time>
      </trkpt>
      <trkpt lat="47.06782" lon="2.39903">
        <ele>130</ele>
        <time>2021-08-11T13:50:19Z</time>
      </trkpt>
      <trkpt lat="47.06789" lon="2.39903">
        <ele>130</ele>
        <time>2021-08-11T13:50:19Z</time>
      </trkpt>
      <trkpt lat="47.06796" lon="2.39902">
        <ele>130</ele>
        <time>2021-08-11T13:50:19Z</time>
      </trkpt>
      <trkpt lat="47.06802" lon="2.39901">
        <ele>130</ele>
        <time>2021-08-11T13:50:19Z</time>
      </trkpt>
      <trkpt lat="47.06809" lon="2.399">
        <ele>130</ele>
        <time>2021-08-11T13:50:19Z</time>
      </trkpt>
      <trkpt lat="47.06815" lon="2.39899">
        <ele>130</ele>
        <time>2021-08-11T13:50:19Z</time>
      </trkpt>
      <trkpt lat="47.06822" lon="2.39898">
        <ele>130</ele>
        <time>2021-08-11T13:50:19Z</time>
      </trkpt>
      <trkpt lat="47.06828" lon="2.39897">
        <ele>130</ele>
        <time>2021-08-11T13:50:19Z</time>
      </trkpt>
      <trkpt lat="47.06834" lon="2.39896">
        <ele>130</ele>
        <time>2021-08-11T13:50:19Z</time>
      </trkpt>
      <trkpt lat="47.06841" lon="2.39895">
        <ele>130</ele>
        <time>2021-08-11T13:50:19Z</time>
      </trkpt>
      <trkpt lat="47.06847" lon="2.39894">
        <ele>131</ele>
        <time>2021-08-11T13:50:19Z</time>
      </trkpt>
      <trkpt lat="47.06853" lon="2.39893">
        <ele>131</ele>
        <time>2021-08-11T13:50:19Z</time>
      </trkpt>
      <trkpt lat="47.06859" lon="2.39892">
        <ele>131</ele>
        <time>2021-08-11T13:50:19Z</time>
      </trkpt>
      <trkpt lat="47.06866" lon="2.39892">
        <ele>132</ele>
        <time>2021-08-11T13:50:19Z</time>
      </trkpt>
      <trkpt lat="47.06872" lon="2.39892">
        <ele>132</ele>
        <time>2021-08-11T13:50:19Z</time>
      </trkpt>
      <trkpt lat="47.06878" lon="2.39891">
        <ele>132</ele>
        <time>2021-08-11T13:50:19Z</time>
      </trkpt>
      <trkpt lat="47.06884" lon="2.39891">
        <ele>132</ele>
        <time>2021-08-11T13:50:19Z</time>
      </trkpt>
      <trkpt lat="47.06891" lon="2.3989">
        <ele>133</ele>
        <time>2021-08-11T13:50:19Z</time>
      </trkpt>
      <trkpt lat="47.06897" lon="2.39889">
        <ele>133</ele>
        <time>2021-08-11T13:50:19Z</time>
      </trkpt>
      <trkpt lat="47.06904" lon="2.39888">
        <ele>133</ele>
        <time>2021-08-11T13:50:19Z</time>
      </trkpt>
      <trkpt lat="47.06909" lon="2.39888">
        <ele>133</ele>
        <time>2021-08-11T13:50:19Z</time>
      </trkpt>
      <trkpt lat="47.06916" lon="2.39888">
        <ele>133</ele>
        <time>2021-08-11T13:50:19Z</time>
      </trkpt>
      <trkpt lat="47.06922" lon="2.39887">
        <ele>133</ele>
        <time>2021-08-11T13:50:19Z</time>
      </trkpt>
      <trkpt lat="47.06929" lon="2.39887">
        <ele>133</ele>
        <time>2021-08-11T13:50:19Z</time>
      </trkpt>
      <trkpt lat="47.06935" lon="2.39887">
        <ele>133</ele>
        <time>2021-08-11T13:50:19Z</time>
      </trkpt>
      <trkpt lat="47.06941" lon="2.39887">
        <ele>133</ele>
        <time>2021-08-11T13:50:19Z</time>
      </trkpt>
      <trkpt lat="47.06947" lon="2.39887">
        <ele>134</ele>
        <time>2021-08-11T13:50:19Z</time>
      </trkpt>
      <trkpt lat="47.06953" lon="2.39887">
        <ele>134</ele>
        <time>2021-08-11T13:50:19Z</time>
      </trkpt>
      <trkpt lat="47.06959" lon="2.39887">
        <ele>134</ele>
        <time>2021-08-11T13:50:19Z</time>
      </trkpt>
      <trkpt lat="47.06965" lon="2.39887">
        <ele>135</ele>
        <time>2021-08-11T13:50:19Z</time>
      </trkpt>
      <trkpt lat="47.06971" lon="2.39888">
        <ele>135</ele>
        <time>2021-08-11T13:50:19Z</time>
      </trkpt>
      <trkpt lat="47.06976" lon="2.39888">
        <ele>135</ele>
        <time>2021-08-11T13:50:19Z</time>
      </trkpt>
      <trkpt lat="47.06982" lon="2.39888">
        <ele>135</ele>
        <time>2021-08-11T13:50:19Z</time>
      </trkpt>
      <trkpt lat="47.06988" lon="2.39888">
        <ele>135</ele>
        <time>2021-08-11T13:50:19Z</time>
      </trkpt>
      <trkpt lat="47.07015" lon="2.39893">
        <ele>136</ele>
        <time>2021-08-11T13:50:19Z</time>
      </trkpt>
      <trkpt lat="47.07042" lon="2.39898">
        <ele>135</ele>
        <time>2021-08-11T13:50:19Z</time>
      </trkpt>
      <trkpt lat="47.07064" lon="2.39902">
        <ele>135</ele>
        <time>2021-08-11T13:50:19Z</time>
      </trkpt>
      <trkpt lat="47.07069" lon="2.39928">
        <ele>135</ele>
        <time>2021-08-11T13:50:19Z</time>
      </trkpt>
      <trkpt lat="47.07059" lon="2.3996">
        <ele>135</ele>
        <time>2021-08-11T13:50:19Z</time>
      </trkpt>
      <trkpt lat="47.07052" lon="2.39986">
        <ele>136</ele>
        <time>2021-08-11T13:50:19Z</time>
      </trkpt>
      <trkpt lat="47.07051" lon="2.39992">
        <ele>136</ele>
        <time>2021-08-11T13:50:19Z</time>
      </trkpt>
      <trkpt lat="47.07049" lon="2.40027">
        <ele>138</ele>
        <time>2021-08-11T13:50:19Z</time>
      </trkpt>
      <trkpt lat="47.07052" lon="2.4006">
        <ele>140</ele>
        <time>2021-08-11T13:50:19Z</time>
      </trkpt>
      <trkpt lat="47.0706" lon="2.40093">
        <ele>142</ele>
        <time>2021-08-11T13:50:19Z</time>
      </trkpt>
      <trkpt lat="47.07068" lon="2.40125">
        <ele>145</ele>
        <time>2021-08-11T13:50:19Z</time>
      </trkpt>
      <trkpt lat="47.07076" lon="2.40159">
        <ele>147</ele>
        <time>2021-08-11T13:50:19Z</time>
      </trkpt>
      <trkpt lat="47.07084" lon="2.40187">
        <ele>148</ele>
        <time>2021-08-11T13:50:19Z</time>
      </trkpt>
      <trkpt lat="47.07086" lon="2.40194">
        <ele>148</ele>
        <time>2021-08-11T13:50:19Z</time>
      </trkpt>
      <trkpt lat="47.0708" lon="2.40218">
        <ele>148</ele>
        <time>2021-08-11T13:50:19Z</time>
      </trkpt>
      <trkpt lat="47.07056" lon="2.40233">
        <ele>147</ele>
        <time>2021-08-11T13:50:19Z</time>
      </trkpt>
      <trkpt lat="47.07039" lon="2.40242">
        <ele>146</ele>
        <time>2021-08-11T13:50:19Z</time>
      </trkpt>
      <trkpt lat="47.07034" lon="2.40246">
        <ele>145</ele>
        <time>2021-08-11T13:50:19Z</time>
      </trkpt>
      <trkpt lat="47.07028" lon="2.40249">
        <ele>145</ele>
        <time>2021-08-11T13:50:19Z</time>
      </trkpt>
      <trkpt lat="47.07023" lon="2.40252">
        <ele>144</ele>
        <time>2021-08-11T13:50:19Z</time>
      </trkpt>
      <trkpt lat="47.06992" lon="2.40269">
        <ele>143</ele>
        <time>2021-08-11T13:50:19Z</time>
      </trkpt>
      <trkpt lat="47.0696" lon="2.40289">
        <ele>141</ele>
        <time>2021-08-11T13:50:19Z</time>
      </trkpt>
      <trkpt lat="47.06924" lon="2.40311">
        <ele>138</ele>
        <time>2021-08-11T13:50:19Z</time>
      </trkpt>
      <trkpt lat="47.06886" lon="2.40312">
        <ele>138</ele>
        <time>2021-08-11T13:50:19Z</time>
      </trkpt>
      <trkpt lat="47.06853" lon="2.40318">
        <ele>139</ele>
        <time>2021-08-11T13:50:19Z</time>
      </trkpt>
      <trkpt lat="47.06834" lon="2.40328">
        <ele>141</ele>
        <time>2021-08-11T13:50:19Z</time>
      </trkpt>
      <trkpt lat="47.06832" lon="2.40334">
        <ele>141</ele>
        <time>2021-08-11T13:50:19Z</time>
      </trkpt>
      <trkpt lat="47.06832" lon="2.40349">
        <ele>141</ele>
        <time>2021-08-11T13:50:19Z</time>
      </trkpt>
      <trkpt lat="47.06833" lon="2.40356">
        <ele>141</ele>
        <time>2021-08-11T13:50:19Z</time>
      </trkpt>
      <trkpt lat="47.06834" lon="2.40364">
        <ele>140</ele>
        <time>2021-08-11T13:50:19Z</time>
      </trkpt>
      <trkpt lat="47.06835" lon="2.40371">
        <ele>140</ele>
        <time>2021-08-11T13:50:19Z</time>
      </trkpt>
      <trkpt lat="47.06837" lon="2.40379">
        <ele>140</ele>
        <time>2021-08-11T13:50:19Z</time>
      </trkpt>
      <trkpt lat="47.06838" lon="2.40386">
        <ele>140</ele>
        <time>2021-08-11T13:50:19Z</time>
      </trkpt>
      <trkpt lat="47.0684" lon="2.40394">
        <ele>140</ele>
        <time>2021-08-11T13:50:19Z</time>
      </trkpt>
      <trkpt lat="47.06841" lon="2.40401">
        <ele>140</ele>
        <time>2021-08-11T13:50:19Z</time>
      </trkpt>
      <trkpt lat="47.06842" lon="2.40409">
        <ele>140</ele>
        <time>2021-08-11T13:50:19Z</time>
      </trkpt>
      <trkpt lat="47.06843" lon="2.40416">
        <ele>140</ele>
        <time>2021-08-11T13:50:19Z</time>
      </trkpt>
      <trkpt lat="47.06844" lon="2.40424">
        <ele>140</ele>
        <time>2021-08-11T13:50:19Z</time>
      </trkpt>
      <trkpt lat="47.06845" lon="2.40432">
        <ele>140</ele>
        <time>2021-08-11T13:50:19Z</time>
      </trkpt>
      <trkpt lat="47.06847" lon="2.4044">
        <ele>141</ele>
        <time>2021-08-11T13:50:19Z</time>
      </trkpt>
      <trkpt lat="47.06847" lon="2.40447">
        <ele>141</ele>
        <time>2021-08-11T13:50:19Z</time>
      </trkpt>
      <trkpt lat="47.06849" lon="2.40455">
        <ele>141</ele>
        <time>2021-08-11T13:50:19Z</time>
      </trkpt>
      <trkpt lat="47.06849" lon="2.40463">
        <ele>142</ele>
        <time>2021-08-11T13:50:19Z</time>
      </trkpt>
      <trkpt lat="47.06851" lon="2.40471">
        <ele>142</ele>
        <time>2021-08-11T13:50:19Z</time>
      </trkpt>
      <trkpt lat="47.06852" lon="2.40479">
        <ele>142</ele>
        <time>2021-08-11T13:50:19Z</time>
      </trkpt>
      <trkpt lat="47.06853" lon="2.40487">
        <ele>142</ele>
        <time>2021-08-11T13:50:19Z</time>
      </trkpt>
      <trkpt lat="47.06854" lon="2.40495">
        <ele>143</ele>
        <time>2021-08-11T13:50:19Z</time>
      </trkpt>
      <trkpt lat="47.06855" lon="2.40502">
        <ele>143</ele>
        <time>2021-08-11T13:50:19Z</time>
      </trkpt>
      <trkpt lat="47.06856" lon="2.40509">
        <ele>143</ele>
        <time>2021-08-11T13:50:19Z</time>
      </trkpt>
      <trkpt lat="47.06857" lon="2.40518">
        <ele>143</ele>
        <time>2021-08-11T13:50:19Z</time>
      </trkpt>
      <trkpt lat="47.06858" lon="2.40525">
        <ele>144</ele>
        <time>2021-08-11T13:50:19Z</time>
      </trkpt>
      <trkpt lat="47.06859" lon="2.40532">
        <ele>144</ele>
        <time>2021-08-11T13:50:19Z</time>
      </trkpt>
      <trkpt lat="47.0686" lon="2.4054">
        <ele>144</ele>
        <time>2021-08-11T13:50:19Z</time>
      </trkpt>
      <trkpt lat="47.06861" lon="2.40547">
        <ele>145</ele>
        <time>2021-08-11T13:50:19Z</time>
      </trkpt>
      <trkpt lat="47.06862" lon="2.40555">
        <ele>145</ele>
        <time>2021-08-11T13:50:19Z</time>
      </trkpt>
      <trkpt lat="47.06863" lon="2.40562">
        <ele>146</ele>
        <time>2021-08-11T13:50:19Z</time>
      </trkpt>
      <trkpt lat="47.06864" lon="2.40568">
        <ele>146</ele>
        <time>2021-08-11T13:50:19Z</time>
      </trkpt>
      <trkpt lat="47.06866" lon="2.40576">
        <ele>146</ele>
        <time>2021-08-11T13:50:19Z</time>
      </trkpt>
      <trkpt lat="47.06867" lon="2.40583">
        <ele>146</ele>
        <time>2021-08-11T13:50:19Z</time>
      </trkpt>
      <trkpt lat="47.06869" lon="2.4059">
        <ele>146</ele>
        <time>2021-08-11T13:50:19Z</time>
      </trkpt>
      <trkpt lat="47.06869" lon="2.40597">
        <ele>146</ele>
        <time>2021-08-11T13:50:19Z</time>
      </trkpt>
      <trkpt lat="47.06869" lon="2.40603">
        <ele>146</ele>
        <time>2021-08-11T13:50:19Z</time>
      </trkpt>
      <trkpt lat="47.06867" lon="2.40609">
        <ele>146</ele>
        <time>2021-08-11T13:50:19Z</time>
      </trkpt>
      <trkpt lat="47.06866" lon="2.40614">
        <ele>146</ele>
        <time>2021-08-11T13:50:19Z</time>
      </trkpt>
      <trkpt lat="47.06862" lon="2.40616">
        <ele>146</ele>
        <time>2021-08-11T13:50:19Z</time>
      </trkpt>
      <trkpt lat="47.06859" lon="2.40619">
        <ele>146</ele>
        <time>2021-08-11T13:50:19Z</time>
      </trkpt>
      <trkpt lat="47.06855" lon="2.40622">
        <ele>146</ele>
        <time>2021-08-11T13:50:19Z</time>
      </trkpt>
      <trkpt lat="47.06851" lon="2.40625">
        <ele>146</ele>
        <time>2021-08-11T13:50:19Z</time>
      </trkpt>
      <trkpt lat="47.06846" lon="2.40626">
        <ele>146</ele>
        <time>2021-08-11T13:50:19Z</time>
      </trkpt>
      <trkpt lat="47.06842" lon="2.40628">
        <ele>146</ele>
        <time>2021-08-11T13:50:19Z</time>
      </trkpt>
      <trkpt lat="47.06837" lon="2.4063">
        <ele>146</ele>
        <time>2021-08-11T13:50:19Z</time>
      </trkpt>
      <trkpt lat="47.06833" lon="2.40631">
        <ele>146</ele>
        <time>2021-08-11T13:50:19Z</time>
      </trkpt>
      <trkpt lat="47.06828" lon="2.40633">
        <ele>147</ele>
        <time>2021-08-11T13:50:19Z</time>
      </trkpt>
      <trkpt lat="47.06824" lon="2.40636">
        <ele>147</ele>
        <time>2021-08-11T13:50:19Z</time>
      </trkpt>
      <trkpt lat="47.06819" lon="2.40638">
        <ele>147</ele>
        <time>2021-08-11T13:50:19Z</time>
      </trkpt>
      <trkpt lat="47.06815" lon="2.4064">
        <ele>148</ele>
        <time>2021-08-11T13:50:19Z</time>
      </trkpt>
      <trkpt lat="47.0681" lon="2.40643">
        <ele>148</ele>
        <time>2021-08-11T13:50:19Z</time>
      </trkpt>
      <trkpt lat="47.06806" lon="2.40645">
        <ele>149</ele>
        <time>2021-08-11T13:50:19Z</time>
      </trkpt>
      <trkpt lat="47.06802" lon="2.40648">
        <ele>149</ele>
        <time>2021-08-11T13:50:19Z</time>
      </trkpt>
      <trkpt lat="47.06797" lon="2.4065">
        <ele>149</ele>
        <time>2021-08-11T13:50:19Z</time>
      </trkpt>
      <trkpt lat="47.06792" lon="2.40652">
        <ele>149</ele>
        <time>2021-08-11T13:50:19Z</time>
      </trkpt>
      <trkpt lat="47.06787" lon="2.40655">
        <ele>149</ele>
        <time>2021-08-11T13:50:19Z</time>
      </trkpt>
      <trkpt lat="47.06783" lon="2.40657">
        <ele>149</ele>
        <time>2021-08-11T13:50:19Z</time>
      </trkpt>
      <trkpt lat="47.06778" lon="2.4066">
        <ele>149</ele>
        <time>2021-08-11T13:50:19Z</time>
      </trkpt>
      <trkpt lat="47.06774" lon="2.40662">
        <ele>149</ele>
        <time>2021-08-11T13:50:19Z</time>
      </trkpt>
      <trkpt lat="47.06769" lon="2.40664">
        <ele>149</ele>
        <time>2021-08-11T13:50:19Z</time>
      </trkpt>
      <trkpt lat="47.06764" lon="2.40666">
        <ele>149</ele>
        <time>2021-08-11T13:50:19Z</time>
      </trkpt>
      <trkpt lat="47.0676" lon="2.40669">
        <ele>149</ele>
        <time>2021-08-11T13:50:19Z</time>
      </trkpt>
      <trkpt lat="47.06741" lon="2.40682">
        <ele>149</ele>
        <time>2021-08-11T13:50:19Z</time>
      </trkpt>
      <trkpt lat="47.06734" lon="2.40689">
        <ele>149</ele>
        <time>2021-08-11T13:50:19Z</time>
      </trkpt>
      <trkpt lat="47.06733" lon="2.4069">
        <ele>149</ele>
        <time>2021-08-11T13:50:19Z</time>
      </trkpt>
      <trkpt lat="47.06735" lon="2.40696">
        <ele>149</ele>
        <time>2021-08-11T13:50:19Z</time>
      </trkpt>
      <trkpt lat="47.06737" lon="2.40703">
        <ele>149</ele>
        <time>2021-08-11T13:50:19Z</time>
      </trkpt>
      <trkpt lat="47.06737" lon="2.40703">
        <ele>149</ele>
        <time>2021-08-11T13:50:19Z</time>
      </trkpt>
      <trkpt lat="47.06737" lon="2.40703">
        <ele>149</ele>
        <time>2021-08-11T13:50:19Z</time>
      </trkpt>
    </trkseg>
  </trk>
</gpx>